<?xml version="1.0" encoding="UTF-8" standalone="no" ?>
<gpx xmlns="http://www.topografix.com/GPX/1/1" xmlns:xsi="http://www.w3.org/2001/XMLSchema-instance" xsi:schemaLocation="http://www.topografix.com/GPX/1/1 http://www.topografix.com/GPX/1/1/gpx.xsd" version="1.1" creator="VisuGPX - https://www.visugpx.com">
  <metadata>
    <name>TNR-5_Turini-Eze</name>
    <desc><![CDATA[TNR-5-Col Turini to Eze Sur Mer]]></desc>
  </metadata>
  <trk>
    <name><![CDATA[5_Turini-Eze]]></name>
    <trkseg>
      <trkpt lat="43.97806" lon="7.39159">
        <ele>1606.86</ele>
        <time>2016-07-08T11:29:41Z</time>
      </trkpt>
      <trkpt lat="43.97791" lon="7.39155">
        <ele>1607.04</ele>
        <time>2016-07-08T11:29:43Z</time>
      </trkpt>
      <trkpt lat="43.97776" lon="7.39154">
        <ele>1606.848</ele>
        <time>2016-07-08T11:29:46Z</time>
      </trkpt>
      <trkpt lat="43.97758" lon="7.39158">
        <ele>1605.912</ele>
        <time>2016-07-08T11:29:49Z</time>
      </trkpt>
      <trkpt lat="43.97703" lon="7.39178">
        <ele>1605.823</ele>
        <time>2016-07-08T11:29:58Z</time>
      </trkpt>
      <trkpt lat="43.97697" lon="7.39179">
        <ele>1606.581</ele>
        <time>2016-07-08T11:29:59Z</time>
      </trkpt>
      <trkpt lat="43.97687" lon="7.39172">
        <ele>1609.281</ele>
        <time>2016-07-08T11:30:01Z</time>
      </trkpt>
      <trkpt lat="43.97681" lon="7.39163">
        <ele>1611.456</ele>
        <time>2016-07-08T11:30:02Z</time>
      </trkpt>
      <trkpt lat="43.97668" lon="7.39135">
        <ele>1617.599</ele>
        <time>2016-07-08T11:30:06Z</time>
      </trkpt>
      <trkpt lat="43.97668" lon="7.39112">
        <ele>1618.347</ele>
        <time>2016-07-08T11:30:09Z</time>
      </trkpt>
      <trkpt lat="43.97674" lon="7.39082">
        <ele>1614.013</ele>
        <time>2016-07-08T11:30:13Z</time>
      </trkpt>
      <trkpt lat="43.9768" lon="7.39035">
        <ele>1609.046</ele>
        <time>2016-07-08T11:30:18Z</time>
      </trkpt>
      <trkpt lat="43.9768" lon="7.39021">
        <ele>1608.269</ele>
        <time>2016-07-08T11:30:20Z</time>
      </trkpt>
      <trkpt lat="43.97677" lon="7.39007">
        <ele>1608.178</ele>
        <time>2016-07-08T11:30:22Z</time>
      </trkpt>
      <trkpt lat="43.97672" lon="7.38999">
        <ele>1608.754</ele>
        <time>2016-07-08T11:30:23Z</time>
      </trkpt>
      <trkpt lat="43.97666" lon="7.38995">
        <ele>1609.576</ele>
        <time>2016-07-08T11:30:24Z</time>
      </trkpt>
      <trkpt lat="43.97655" lon="7.38993">
        <ele>1611.238</ele>
        <time>2016-07-08T11:30:26Z</time>
      </trkpt>
      <trkpt lat="43.97646" lon="7.38998">
        <ele>1613.45</ele>
        <time>2016-07-08T11:30:28Z</time>
      </trkpt>
      <trkpt lat="43.97635" lon="7.39011">
        <ele>1616.954</ele>
        <time>2016-07-08T11:30:30Z</time>
      </trkpt>
      <trkpt lat="43.97607" lon="7.39057">
        <ele>1620.312</ele>
        <time>2016-07-08T11:30:37Z</time>
      </trkpt>
      <trkpt lat="43.97599" lon="7.39067">
        <ele>1621.852</ele>
        <time>2016-07-08T11:30:39Z</time>
      </trkpt>
      <trkpt lat="43.97593" lon="7.3907">
        <ele>1622.551</ele>
        <time>2016-07-08T11:30:40Z</time>
      </trkpt>
      <trkpt lat="43.97587" lon="7.3907">
        <ele>1622.879</ele>
        <time>2016-07-08T11:30:41Z</time>
      </trkpt>
      <trkpt lat="43.97579" lon="7.39065">
        <ele>1624.023</ele>
        <time>2016-07-08T11:30:43Z</time>
      </trkpt>
      <trkpt lat="43.97574" lon="7.39058">
        <ele>1625.018</ele>
        <time>2016-07-08T11:30:44Z</time>
      </trkpt>
      <trkpt lat="43.9757" lon="7.39046">
        <ele>1625.757</ele>
        <time>2016-07-08T11:30:45Z</time>
      </trkpt>
      <trkpt lat="43.9757" lon="7.39022">
        <ele>1624.852</ele>
        <time>2016-07-08T11:30:48Z</time>
      </trkpt>
      <trkpt lat="43.9758" lon="7.38908">
        <ele>1625.163</ele>
        <time>2016-07-08T11:31:02Z</time>
      </trkpt>
      <trkpt lat="43.97575" lon="7.38873">
        <ele>1626.528</ele>
        <time>2016-07-08T11:31:06Z</time>
      </trkpt>
      <trkpt lat="43.97566" lon="7.38843">
        <ele>1628.095</ele>
        <time>2016-07-08T11:31:10Z</time>
      </trkpt>
      <trkpt lat="43.97557" lon="7.38821">
        <ele>1629.223</ele>
        <time>2016-07-08T11:31:13Z</time>
      </trkpt>
      <trkpt lat="43.97554" lon="7.38804">
        <ele>1628.507</ele>
        <time>2016-07-08T11:31:15Z</time>
      </trkpt>
      <trkpt lat="43.97552" lon="7.38771">
        <ele>1625.911</ele>
        <time>2016-07-08T11:31:19Z</time>
      </trkpt>
      <trkpt lat="43.97549" lon="7.38757">
        <ele>1627.346</ele>
        <time>2016-07-08T11:31:21Z</time>
      </trkpt>
      <trkpt lat="43.97534" lon="7.38725">
        <ele>1632.062</ele>
        <time>2016-07-08T11:31:25Z</time>
      </trkpt>
      <trkpt lat="43.97523" lon="7.38671">
        <ele>1628.774</ele>
        <time>2016-07-08T11:31:32Z</time>
      </trkpt>
      <trkpt lat="43.9751" lon="7.38645">
        <ele>1629.92</ele>
        <time>2016-07-08T11:31:36Z</time>
      </trkpt>
      <trkpt lat="43.97453" lon="7.38571">
        <ele>1637.118</ele>
        <time>2016-07-08T11:31:49Z</time>
      </trkpt>
      <trkpt lat="43.97425" lon="7.38543">
        <ele>1645.044</ele>
        <time>2016-07-08T11:31:55Z</time>
      </trkpt>
      <trkpt lat="43.97417" lon="7.38529">
        <ele>1646.988</ele>
        <time>2016-07-08T11:31:57Z</time>
      </trkpt>
      <trkpt lat="43.97414" lon="7.38519">
        <ele>1647.426</ele>
        <time>2016-07-08T11:31:58Z</time>
      </trkpt>
      <trkpt lat="43.97413" lon="7.3849">
        <ele>1645.572</ele>
        <time>2016-07-08T11:32:01Z</time>
      </trkpt>
      <trkpt lat="43.97415" lon="7.38481">
        <ele>1644.175</ele>
        <time>2016-07-08T11:32:03Z</time>
      </trkpt>
      <trkpt lat="43.97426" lon="7.38451">
        <ele>1639.824</ele>
        <time>2016-07-08T11:32:07Z</time>
      </trkpt>
      <trkpt lat="43.97436" lon="7.38431">
        <ele>1636.267</ele>
        <time>2016-07-08T11:32:09Z</time>
      </trkpt>
      <trkpt lat="43.97441" lon="7.38414">
        <ele>1635.268</ele>
        <time>2016-07-08T11:32:12Z</time>
      </trkpt>
      <trkpt lat="43.97445" lon="7.38387">
        <ele>1632.803</ele>
        <time>2016-07-08T11:32:15Z</time>
      </trkpt>
      <trkpt lat="43.97442" lon="7.38359">
        <ele>1633.527</ele>
        <time>2016-07-08T11:32:18Z</time>
      </trkpt>
      <trkpt lat="43.97431" lon="7.38334">
        <ele>1634.467</ele>
        <time>2016-07-08T11:32:22Z</time>
      </trkpt>
      <trkpt lat="43.97421" lon="7.38322">
        <ele>1634.715</ele>
        <time>2016-07-08T11:32:24Z</time>
      </trkpt>
      <trkpt lat="43.97403" lon="7.38303">
        <ele>1634.016</ele>
        <time>2016-07-08T11:32:28Z</time>
      </trkpt>
      <trkpt lat="43.97392" lon="7.38294">
        <ele>1633.584</ele>
        <time>2016-07-08T11:32:30Z</time>
      </trkpt>
      <trkpt lat="43.97374" lon="7.38283">
        <ele>1635.257</ele>
        <time>2016-07-08T11:32:33Z</time>
      </trkpt>
      <trkpt lat="43.97365" lon="7.38275">
        <ele>1635.574</ele>
        <time>2016-07-08T11:32:35Z</time>
      </trkpt>
      <trkpt lat="43.97351" lon="7.38255">
        <ele>1635.786</ele>
        <time>2016-07-08T11:32:38Z</time>
      </trkpt>
      <trkpt lat="43.97344" lon="7.38237">
        <ele>1635.108</ele>
        <time>2016-07-08T11:32:41Z</time>
      </trkpt>
      <trkpt lat="43.97335" lon="7.38221">
        <ele>1636.252</ele>
        <time>2016-07-08T11:32:43Z</time>
      </trkpt>
      <trkpt lat="43.97317" lon="7.38202">
        <ele>1647.196</ele>
        <time>2016-07-08T11:32:47Z</time>
      </trkpt>
      <trkpt lat="43.97311" lon="7.38189">
        <ele>1649.961</ele>
        <time>2016-07-08T11:32:49Z</time>
      </trkpt>
      <trkpt lat="43.97311" lon="7.38174">
        <ele>1649.093</ele>
        <time>2016-07-08T11:32:51Z</time>
      </trkpt>
      <trkpt lat="43.97314" lon="7.38162">
        <ele>1646.766</ele>
        <time>2016-07-08T11:32:52Z</time>
      </trkpt>
      <trkpt lat="43.97342" lon="7.38103">
        <ele>1634.587</ele>
        <time>2016-07-08T11:33:00Z</time>
      </trkpt>
      <trkpt lat="43.97351" lon="7.38073">
        <ele>1629.623</ele>
        <time>2016-07-08T11:33:04Z</time>
      </trkpt>
      <trkpt lat="43.97351" lon="7.38065">
        <ele>1629.256</ele>
        <time>2016-07-08T11:33:05Z</time>
      </trkpt>
      <trkpt lat="43.97348" lon="7.38052">
        <ele>1630.364</ele>
        <time>2016-07-08T11:33:07Z</time>
      </trkpt>
      <trkpt lat="43.97342" lon="7.3804">
        <ele>1633.063</ele>
        <time>2016-07-08T11:33:09Z</time>
      </trkpt>
      <trkpt lat="43.97328" lon="7.38022">
        <ele>1638.712</ele>
        <time>2016-07-08T11:33:12Z</time>
      </trkpt>
      <trkpt lat="43.97322" lon="7.38006">
        <ele>1639.056</ele>
        <time>2016-07-08T11:33:14Z</time>
      </trkpt>
      <trkpt lat="43.97321" lon="7.37992">
        <ele>1637.108</ele>
        <time>2016-07-08T11:33:16Z</time>
      </trkpt>
      <trkpt lat="43.97328" lon="7.37945">
        <ele>1626.285</ele>
        <time>2016-07-08T11:33:21Z</time>
      </trkpt>
      <trkpt lat="43.97323" lon="7.37904">
        <ele>1628.072</ele>
        <time>2016-07-08T11:33:26Z</time>
      </trkpt>
      <trkpt lat="43.9731" lon="7.37826">
        <ele>1620.769</ele>
        <time>2016-07-08T11:33:36Z</time>
      </trkpt>
      <trkpt lat="43.97306" lon="7.37817">
        <ele>1618.982</ele>
        <time>2016-07-08T11:33:37Z</time>
      </trkpt>
      <trkpt lat="43.97286" lon="7.37791">
        <ele>1618.518</ele>
        <time>2016-07-08T11:33:42Z</time>
      </trkpt>
      <trkpt lat="43.97261" lon="7.37738">
        <ele>1616.432</ele>
        <time>2016-07-08T11:33:49Z</time>
      </trkpt>
      <trkpt lat="43.97252" lon="7.37712">
        <ele>1614.101</ele>
        <time>2016-07-08T11:33:53Z</time>
      </trkpt>
      <trkpt lat="43.9725" lon="7.37699">
        <ele>1611.312</ele>
        <time>2016-07-08T11:33:54Z</time>
      </trkpt>
      <trkpt lat="43.97242" lon="7.3767">
        <ele>1607.379</ele>
        <time>2016-07-08T11:33:58Z</time>
      </trkpt>
      <trkpt lat="43.97234" lon="7.37662">
        <ele>1607.036</ele>
        <time>2016-07-08T11:34:00Z</time>
      </trkpt>
      <trkpt lat="43.97227" lon="7.37661">
        <ele>1607.901</ele>
        <time>2016-07-08T11:34:01Z</time>
      </trkpt>
      <trkpt lat="43.97218" lon="7.37668">
        <ele>1608.625</ele>
        <time>2016-07-08T11:34:03Z</time>
      </trkpt>
      <trkpt lat="43.97201" lon="7.37725">
        <ele>1617.82</ele>
        <time>2016-07-08T11:34:10Z</time>
      </trkpt>
      <trkpt lat="43.97192" lon="7.37738">
        <ele>1620.86</ele>
        <time>2016-07-08T11:34:12Z</time>
      </trkpt>
      <trkpt lat="43.97187" lon="7.3774">
        <ele>1621.031</ele>
        <time>2016-07-08T11:34:13Z</time>
      </trkpt>
      <trkpt lat="43.97176" lon="7.37739">
        <ele>1619.582</ele>
        <time>2016-07-08T11:34:15Z</time>
      </trkpt>
      <trkpt lat="43.97169" lon="7.37735">
        <ele>1617.319</ele>
        <time>2016-07-08T11:34:16Z</time>
      </trkpt>
      <trkpt lat="43.97142" lon="7.37713">
        <ele>1609.937</ele>
        <time>2016-07-08T11:34:21Z</time>
      </trkpt>
      <trkpt lat="43.9713" lon="7.37707">
        <ele>1606.643</ele>
        <time>2016-07-08T11:34:23Z</time>
      </trkpt>
      <trkpt lat="43.9712" lon="7.37709">
        <ele>1605.64</ele>
        <time>2016-07-08T11:34:25Z</time>
      </trkpt>
      <trkpt lat="43.97111" lon="7.37715">
        <ele>1605.886</ele>
        <time>2016-07-08T11:34:27Z</time>
      </trkpt>
      <trkpt lat="43.97079" lon="7.37763">
        <ele>1607.038</ele>
        <time>2016-07-08T11:34:34Z</time>
      </trkpt>
      <trkpt lat="43.97069" lon="7.37785">
        <ele>1608.924</ele>
        <time>2016-07-08T11:34:38Z</time>
      </trkpt>
      <trkpt lat="43.97054" lon="7.37829">
        <ele>1615.404</ele>
        <time>2016-07-08T11:34:43Z</time>
      </trkpt>
      <trkpt lat="43.97046" lon="7.37839">
        <ele>1615.747</ele>
        <time>2016-07-08T11:34:45Z</time>
      </trkpt>
      <trkpt lat="43.97039" lon="7.37842">
        <ele>1614.69</ele>
        <time>2016-07-08T11:34:46Z</time>
      </trkpt>
      <trkpt lat="43.97032" lon="7.37841">
        <ele>1612.278</ele>
        <time>2016-07-08T11:34:48Z</time>
      </trkpt>
      <trkpt lat="43.97019" lon="7.37832">
        <ele>1606.716</ele>
        <time>2016-07-08T11:34:50Z</time>
      </trkpt>
      <trkpt lat="43.97012" lon="7.37829">
        <ele>1605.204</ele>
        <time>2016-07-08T11:34:51Z</time>
      </trkpt>
      <trkpt lat="43.97006" lon="7.37829">
        <ele>1604.556</ele>
        <time>2016-07-08T11:34:52Z</time>
      </trkpt>
      <trkpt lat="43.96987" lon="7.37836">
        <ele>1609.197</ele>
        <time>2016-07-08T11:34:55Z</time>
      </trkpt>
      <trkpt lat="43.96981" lon="7.37836">
        <ele>1610.647</ele>
        <time>2016-07-08T11:34:56Z</time>
      </trkpt>
      <trkpt lat="43.96976" lon="7.37833">
        <ele>1610.985</ele>
        <time>2016-07-08T11:34:57Z</time>
      </trkpt>
      <trkpt lat="43.96971" lon="7.37827">
        <ele>1611.706</ele>
        <time>2016-07-08T11:34:58Z</time>
      </trkpt>
      <trkpt lat="43.96968" lon="7.37818">
        <ele>1612.212</ele>
        <time>2016-07-08T11:35:00Z</time>
      </trkpt>
      <trkpt lat="43.96968" lon="7.37798">
        <ele>1609.727</ele>
        <time>2016-07-08T11:35:02Z</time>
      </trkpt>
      <trkpt lat="43.96973" lon="7.37747">
        <ele>1607.714</ele>
        <time>2016-07-08T11:35:08Z</time>
      </trkpt>
      <trkpt lat="43.96973" lon="7.37708">
        <ele>1606.611</ele>
        <time>2016-07-08T11:35:13Z</time>
      </trkpt>
      <trkpt lat="43.9697" lon="7.37688">
        <ele>1606.736</ele>
        <time>2016-07-08T11:35:15Z</time>
      </trkpt>
      <trkpt lat="43.96952" lon="7.3765">
        <ele>1613.61</ele>
        <time>2016-07-08T11:35:21Z</time>
      </trkpt>
      <trkpt lat="43.96946" lon="7.37632">
        <ele>1615.796</ele>
        <time>2016-07-08T11:35:23Z</time>
      </trkpt>
      <trkpt lat="43.96945" lon="7.37612">
        <ele>1617.657</ele>
        <time>2016-07-08T11:35:25Z</time>
      </trkpt>
      <trkpt lat="43.96946" lon="7.37603">
        <ele>1618.092</ele>
        <time>2016-07-08T11:35:27Z</time>
      </trkpt>
      <trkpt lat="43.96955" lon="7.37582">
        <ele>1615.806</ele>
        <time>2016-07-08T11:35:29Z</time>
      </trkpt>
      <trkpt lat="43.96972" lon="7.3756">
        <ele>1608.799</ele>
        <time>2016-07-08T11:35:33Z</time>
      </trkpt>
      <trkpt lat="43.9698" lon="7.37541">
        <ele>1606.408</ele>
        <time>2016-07-08T11:35:36Z</time>
      </trkpt>
      <trkpt lat="43.96983" lon="7.37516">
        <ele>1606.215</ele>
        <time>2016-07-08T11:35:39Z</time>
      </trkpt>
      <trkpt lat="43.96982" lon="7.37492">
        <ele>1606.597</ele>
        <time>2016-07-08T11:35:42Z</time>
      </trkpt>
      <trkpt lat="43.96974" lon="7.37474">
        <ele>1609.292</ele>
        <time>2016-07-08T11:35:44Z</time>
      </trkpt>
      <trkpt lat="43.96968" lon="7.37466">
        <ele>1610.788</ele>
        <time>2016-07-08T11:35:46Z</time>
      </trkpt>
      <trkpt lat="43.96947" lon="7.37448">
        <ele>1615.86</ele>
        <time>2016-07-08T11:35:50Z</time>
      </trkpt>
      <trkpt lat="43.96935" lon="7.3743">
        <ele>1616.987</ele>
        <time>2016-07-08T11:35:53Z</time>
      </trkpt>
      <trkpt lat="43.96931" lon="7.37409">
        <ele>1615.663</ele>
        <time>2016-07-08T11:35:55Z</time>
      </trkpt>
      <trkpt lat="43.96933" lon="7.37364">
        <ele>1608.323</ele>
        <time>2016-07-08T11:36:01Z</time>
      </trkpt>
      <trkpt lat="43.96931" lon="7.37358">
        <ele>1608.252</ele>
        <time>2016-07-08T11:36:01Z</time>
      </trkpt>
      <trkpt lat="43.96918" lon="7.37342">
        <ele>1610.362</ele>
        <time>2016-07-08T11:36:04Z</time>
      </trkpt>
      <trkpt lat="43.96888" lon="7.37318">
        <ele>1614.68</ele>
        <time>2016-07-08T11:36:10Z</time>
      </trkpt>
      <trkpt lat="43.96875" lon="7.37294">
        <ele>1609.588</ele>
        <time>2016-07-08T11:36:14Z</time>
      </trkpt>
      <trkpt lat="43.96871" lon="7.37282">
        <ele>1607.24</ele>
        <time>2016-07-08T11:36:15Z</time>
      </trkpt>
      <trkpt lat="43.96859" lon="7.37258">
        <ele>1603.294</ele>
        <time>2016-07-08T11:36:19Z</time>
      </trkpt>
      <trkpt lat="43.96852" lon="7.37253">
        <ele>1600.715</ele>
        <time>2016-07-08T11:36:20Z</time>
      </trkpt>
      <trkpt lat="43.96845" lon="7.37252">
        <ele>1598.994</ele>
        <time>2016-07-08T11:36:21Z</time>
      </trkpt>
      <trkpt lat="43.96837" lon="7.37257">
        <ele>1598.523</ele>
        <time>2016-07-08T11:36:23Z</time>
      </trkpt>
      <trkpt lat="43.96834" lon="7.37261">
        <ele>1598.906</ele>
        <time>2016-07-08T11:36:23Z</time>
      </trkpt>
      <trkpt lat="43.96828" lon="7.37271">
        <ele>1599.086</ele>
        <time>2016-07-08T11:36:25Z</time>
      </trkpt>
      <trkpt lat="43.96826" lon="7.37281">
        <ele>1601.03</ele>
        <time>2016-07-08T11:36:26Z</time>
      </trkpt>
      <trkpt lat="43.9681" lon="7.37326">
        <ele>1611.362</ele>
        <time>2016-07-08T11:36:32Z</time>
      </trkpt>
      <trkpt lat="43.96806" lon="7.37334">
        <ele>1613.312</ele>
        <time>2016-07-08T11:36:33Z</time>
      </trkpt>
      <trkpt lat="43.968" lon="7.3734">
        <ele>1614.16</ele>
        <time>2016-07-08T11:36:35Z</time>
      </trkpt>
      <trkpt lat="43.96781" lon="7.37344">
        <ele>1612.036</ele>
        <time>2016-07-08T11:36:38Z</time>
      </trkpt>
      <trkpt lat="43.96755" lon="7.37345">
        <ele>1605.958</ele>
        <time>2016-07-08T11:36:42Z</time>
      </trkpt>
      <trkpt lat="43.96744" lon="7.37347">
        <ele>1602.595</ele>
        <time>2016-07-08T11:36:44Z</time>
      </trkpt>
      <trkpt lat="43.96732" lon="7.37352">
        <ele>1598.337</ele>
        <time>2016-07-08T11:36:46Z</time>
      </trkpt>
      <trkpt lat="43.96723" lon="7.37366">
        <ele>1595.175</ele>
        <time>2016-07-08T11:36:48Z</time>
      </trkpt>
      <trkpt lat="43.9672" lon="7.37383">
        <ele>1593.269</ele>
        <time>2016-07-08T11:36:50Z</time>
      </trkpt>
      <trkpt lat="43.96723" lon="7.37396">
        <ele>1593.645</ele>
        <time>2016-07-08T11:36:52Z</time>
      </trkpt>
      <trkpt lat="43.96728" lon="7.37408">
        <ele>1594.913</ele>
        <time>2016-07-08T11:36:54Z</time>
      </trkpt>
      <trkpt lat="43.96743" lon="7.37433">
        <ele>1598.092</ele>
        <time>2016-07-08T11:36:57Z</time>
      </trkpt>
      <trkpt lat="43.96753" lon="7.37445">
        <ele>1599.984</ele>
        <time>2016-07-08T11:37:00Z</time>
      </trkpt>
      <trkpt lat="43.96772" lon="7.37462">
        <ele>1604.761</ele>
        <time>2016-07-08T11:37:03Z</time>
      </trkpt>
      <trkpt lat="43.96778" lon="7.37471">
        <ele>1606.22</ele>
        <time>2016-07-08T11:37:05Z</time>
      </trkpt>
      <trkpt lat="43.96781" lon="7.3748">
        <ele>1607.061</ele>
        <time>2016-07-08T11:37:06Z</time>
      </trkpt>
      <trkpt lat="43.96781" lon="7.37491">
        <ele>1606.757</ele>
        <time>2016-07-08T11:37:07Z</time>
      </trkpt>
      <trkpt lat="43.96774" lon="7.37506">
        <ele>1602.989</ele>
        <time>2016-07-08T11:37:10Z</time>
      </trkpt>
      <trkpt lat="43.96763" lon="7.3752">
        <ele>1597.403</ele>
        <time>2016-07-08T11:37:12Z</time>
      </trkpt>
      <trkpt lat="43.96759" lon="7.37533">
        <ele>1596.476</ele>
        <time>2016-07-08T11:37:14Z</time>
      </trkpt>
      <trkpt lat="43.96758" lon="7.37542">
        <ele>1597.592</ele>
        <time>2016-07-08T11:37:15Z</time>
      </trkpt>
      <trkpt lat="43.96751" lon="7.37559">
        <ele>1597.726</ele>
        <time>2016-07-08T11:37:17Z</time>
      </trkpt>
      <trkpt lat="43.96741" lon="7.37566">
        <ele>1597.614</ele>
        <time>2016-07-08T11:37:19Z</time>
      </trkpt>
      <trkpt lat="43.96713" lon="7.37579">
        <ele>1596.012</ele>
        <time>2016-07-08T11:37:24Z</time>
      </trkpt>
      <trkpt lat="43.96685" lon="7.37609">
        <ele>1599.04</ele>
        <time>2016-07-08T11:37:30Z</time>
      </trkpt>
      <trkpt lat="43.96675" lon="7.37613">
        <ele>1595.268</ele>
        <time>2016-07-08T11:37:31Z</time>
      </trkpt>
      <trkpt lat="43.96641" lon="7.37607">
        <ele>1581.915</ele>
        <time>2016-07-08T11:37:37Z</time>
      </trkpt>
      <trkpt lat="43.9663" lon="7.37611">
        <ele>1581.356</ele>
        <time>2016-07-08T11:37:39Z</time>
      </trkpt>
      <trkpt lat="43.96622" lon="7.37618">
        <ele>1583.087</ele>
        <time>2016-07-08T11:37:41Z</time>
      </trkpt>
      <trkpt lat="43.9659" lon="7.37669">
        <ele>1604.1</ele>
        <time>2016-07-08T11:37:49Z</time>
      </trkpt>
      <trkpt lat="43.96582" lon="7.37677">
        <ele>1609.093</ele>
        <time>2016-07-08T11:37:50Z</time>
      </trkpt>
      <trkpt lat="43.96575" lon="7.37679">
        <ele>1608.581</ele>
        <time>2016-07-08T11:37:51Z</time>
      </trkpt>
      <trkpt lat="43.96567" lon="7.37678">
        <ele>1605.781</ele>
        <time>2016-07-08T11:37:53Z</time>
      </trkpt>
      <trkpt lat="43.96558" lon="7.37672">
        <ele>1600.229</ele>
        <time>2016-07-08T11:37:54Z</time>
      </trkpt>
      <trkpt lat="43.96548" lon="7.37662">
        <ele>1594.776</ele>
        <time>2016-07-08T11:37:57Z</time>
      </trkpt>
      <trkpt lat="43.96532" lon="7.37642">
        <ele>1586.424</ele>
        <time>2016-07-08T11:38:00Z</time>
      </trkpt>
      <trkpt lat="43.96523" lon="7.37634">
        <ele>1583.321</ele>
        <time>2016-07-08T11:38:02Z</time>
      </trkpt>
      <trkpt lat="43.96512" lon="7.37628">
        <ele>1580.98</ele>
        <time>2016-07-08T11:38:04Z</time>
      </trkpt>
      <trkpt lat="43.96496" lon="7.37625">
        <ele>1578.996</ele>
        <time>2016-07-08T11:38:07Z</time>
      </trkpt>
      <trkpt lat="43.96486" lon="7.37627">
        <ele>1578.636</ele>
        <time>2016-07-08T11:38:08Z</time>
      </trkpt>
      <trkpt lat="43.96471" lon="7.37635">
        <ele>1580.125</ele>
        <time>2016-07-08T11:38:11Z</time>
      </trkpt>
      <trkpt lat="43.96448" lon="7.37659">
        <ele>1589.039</ele>
        <time>2016-07-08T11:38:16Z</time>
      </trkpt>
      <trkpt lat="43.96439" lon="7.37662">
        <ele>1590.64</ele>
        <time>2016-07-08T11:38:17Z</time>
      </trkpt>
      <trkpt lat="43.96425" lon="7.37657">
        <ele>1589.106</ele>
        <time>2016-07-08T11:38:20Z</time>
      </trkpt>
      <trkpt lat="43.96411" lon="7.37645">
        <ele>1586.427</ele>
        <time>2016-07-08T11:38:22Z</time>
      </trkpt>
      <trkpt lat="43.96378" lon="7.37612">
        <ele>1576.979</ele>
        <time>2016-07-08T11:38:29Z</time>
      </trkpt>
      <trkpt lat="43.9636" lon="7.376">
        <ele>1570.944</ele>
        <time>2016-07-08T11:38:32Z</time>
      </trkpt>
      <trkpt lat="43.96339" lon="7.37596">
        <ele>1572.252</ele>
        <time>2016-07-08T11:38:36Z</time>
      </trkpt>
      <trkpt lat="43.96307" lon="7.37593">
        <ele>1571.184</ele>
        <time>2016-07-08T11:38:41Z</time>
      </trkpt>
      <trkpt lat="43.96151" lon="7.37583">
        <ele>1566.589</ele>
        <time>2016-07-08T11:39:07Z</time>
      </trkpt>
      <trkpt lat="43.96138" lon="7.3758">
        <ele>1567.016</ele>
        <time>2016-07-08T11:39:09Z</time>
      </trkpt>
      <trkpt lat="43.96119" lon="7.37571">
        <ele>1566.152</ele>
        <time>2016-07-08T11:39:13Z</time>
      </trkpt>
      <trkpt lat="43.96104" lon="7.37557">
        <ele>1562.724</ele>
        <time>2016-07-08T11:39:16Z</time>
      </trkpt>
      <trkpt lat="43.9607" lon="7.37513">
        <ele>1547.914</ele>
        <time>2016-07-08T11:39:23Z</time>
      </trkpt>
      <trkpt lat="43.96049" lon="7.3748">
        <ele>1537.376</ele>
        <time>2016-07-08T11:39:29Z</time>
      </trkpt>
      <trkpt lat="43.96032" lon="7.37442">
        <ele>1533.08</ele>
        <time>2016-07-08T11:39:34Z</time>
      </trkpt>
      <trkpt lat="43.96011" lon="7.37382">
        <ele>1530.73</ele>
        <time>2016-07-08T11:39:42Z</time>
      </trkpt>
      <trkpt lat="43.95997" lon="7.37357">
        <ele>1530.124</ele>
        <time>2016-07-08T11:39:46Z</time>
      </trkpt>
      <trkpt lat="43.95978" lon="7.37333">
        <ele>1531.257</ele>
        <time>2016-07-08T11:39:50Z</time>
      </trkpt>
      <trkpt lat="43.95951" lon="7.37309">
        <ele>1532.5</ele>
        <time>2016-07-08T11:39:55Z</time>
      </trkpt>
      <trkpt lat="43.95922" lon="7.37288">
        <ele>1529.82</ele>
        <time>2016-07-08T11:40:01Z</time>
      </trkpt>
      <trkpt lat="43.95907" lon="7.37279">
        <ele>1528.616</ele>
        <time>2016-07-08T11:40:03Z</time>
      </trkpt>
      <trkpt lat="43.95883" lon="7.37271">
        <ele>1529.336</ele>
        <time>2016-07-08T11:40:07Z</time>
      </trkpt>
      <trkpt lat="43.95845" lon="7.37264">
        <ele>1528.699</ele>
        <time>2016-07-08T11:40:14Z</time>
      </trkpt>
      <trkpt lat="43.95823" lon="7.37256">
        <ele>1528.593</ele>
        <time>2016-07-08T11:40:18Z</time>
      </trkpt>
      <trkpt lat="43.95702" lon="7.37195">
        <ele>1525.797</ele>
        <time>2016-07-08T11:40:39Z</time>
      </trkpt>
      <trkpt lat="43.95671" lon="7.37177">
        <ele>1529.238</ele>
        <time>2016-07-08T11:40:45Z</time>
      </trkpt>
      <trkpt lat="43.95632" lon="7.3714">
        <ele>1524.886</ele>
        <time>2016-07-08T11:40:52Z</time>
      </trkpt>
      <trkpt lat="43.95604" lon="7.37119">
        <ele>1522.043</ele>
        <time>2016-07-08T11:40:58Z</time>
      </trkpt>
      <trkpt lat="43.9557" lon="7.37101">
        <ele>1525.455</ele>
        <time>2016-07-08T11:41:04Z</time>
      </trkpt>
      <trkpt lat="43.95544" lon="7.37091">
        <ele>1524.183</ele>
        <time>2016-07-08T11:41:08Z</time>
      </trkpt>
      <trkpt lat="43.9551" lon="7.37081">
        <ele>1523.192</ele>
        <time>2016-07-08T11:41:14Z</time>
      </trkpt>
      <trkpt lat="43.95492" lon="7.3707">
        <ele>1522.129</ele>
        <time>2016-07-08T11:41:17Z</time>
      </trkpt>
      <trkpt lat="43.95484" lon="7.37063">
        <ele>1520.559</ele>
        <time>2016-07-08T11:41:19Z</time>
      </trkpt>
      <trkpt lat="43.9544" lon="7.37017">
        <ele>1517.004</ele>
        <time>2016-07-08T11:41:28Z</time>
      </trkpt>
      <trkpt lat="43.95425" lon="7.37004">
        <ele>1519.338</ele>
        <time>2016-07-08T11:41:31Z</time>
      </trkpt>
      <trkpt lat="43.95408" lon="7.36995">
        <ele>1522.184</ele>
        <time>2016-07-08T11:41:34Z</time>
      </trkpt>
      <trkpt lat="43.95389" lon="7.3699">
        <ele>1525.093</ele>
        <time>2016-07-08T11:41:37Z</time>
      </trkpt>
      <trkpt lat="43.95374" lon="7.36984">
        <ele>1525.536</ele>
        <time>2016-07-08T11:41:40Z</time>
      </trkpt>
      <trkpt lat="43.9536" lon="7.36973">
        <ele>1524.465</ele>
        <time>2016-07-08T11:41:42Z</time>
      </trkpt>
      <trkpt lat="43.95342" lon="7.36952">
        <ele>1523.306</ele>
        <time>2016-07-08T11:41:46Z</time>
      </trkpt>
      <trkpt lat="43.95334" lon="7.36936">
        <ele>1521.68</ele>
        <time>2016-07-08T11:41:48Z</time>
      </trkpt>
      <trkpt lat="43.95284" lon="7.36823">
        <ele>1532.802</ele>
        <time>2016-07-08T11:42:04Z</time>
      </trkpt>
      <trkpt lat="43.9527" lon="7.36788">
        <ele>1531.691</ele>
        <time>2016-07-08T11:42:09Z</time>
      </trkpt>
      <trkpt lat="43.95266" lon="7.36773">
        <ele>1529.31</ele>
        <time>2016-07-08T11:42:11Z</time>
      </trkpt>
      <trkpt lat="43.95261" lon="7.36742">
        <ele>1521.396</ele>
        <time>2016-07-08T11:42:15Z</time>
      </trkpt>
      <trkpt lat="43.95255" lon="7.36723">
        <ele>1517.284</ele>
        <time>2016-07-08T11:42:17Z</time>
      </trkpt>
      <trkpt lat="43.9523" lon="7.3667">
        <ele>1516.486</ele>
        <time>2016-07-08T11:42:25Z</time>
      </trkpt>
      <trkpt lat="43.95223" lon="7.36651">
        <ele>1516.807</ele>
        <time>2016-07-08T11:42:27Z</time>
      </trkpt>
      <trkpt lat="43.95219" lon="7.36633">
        <ele>1514.919</ele>
        <time>2016-07-08T11:42:30Z</time>
      </trkpt>
      <trkpt lat="43.9521" lon="7.36534">
        <ele>1507.85</ele>
        <time>2016-07-08T11:42:42Z</time>
      </trkpt>
      <trkpt lat="43.95201" lon="7.36519">
        <ele>1505.835</ele>
        <time>2016-07-08T11:42:44Z</time>
      </trkpt>
      <trkpt lat="43.95193" lon="7.36518">
        <ele>1504.785</ele>
        <time>2016-07-08T11:42:45Z</time>
      </trkpt>
      <trkpt lat="43.95179" lon="7.36527">
        <ele>1504.757</ele>
        <time>2016-07-08T11:42:48Z</time>
      </trkpt>
      <trkpt lat="43.95156" lon="7.36549">
        <ele>1504.752</ele>
        <time>2016-07-08T11:42:52Z</time>
      </trkpt>
      <trkpt lat="43.95143" lon="7.36567">
        <ele>1504.124</ele>
        <time>2016-07-08T11:42:55Z</time>
      </trkpt>
      <trkpt lat="43.95131" lon="7.36592">
        <ele>1504.874</ele>
        <time>2016-07-08T11:42:59Z</time>
      </trkpt>
      <trkpt lat="43.95124" lon="7.36602">
        <ele>1504.599</ele>
        <time>2016-07-08T11:43:01Z</time>
      </trkpt>
      <trkpt lat="43.95099" lon="7.36629">
        <ele>1504.711</ele>
        <time>2016-07-08T11:43:06Z</time>
      </trkpt>
      <trkpt lat="43.95083" lon="7.36639">
        <ele>1505.048</ele>
        <time>2016-07-08T11:43:09Z</time>
      </trkpt>
      <trkpt lat="43.95075" lon="7.36641">
        <ele>1505.889</ele>
        <time>2016-07-08T11:43:10Z</time>
      </trkpt>
      <trkpt lat="43.95073" lon="7.36643">
        <ele>1506.721</ele>
        <time>2016-07-08T11:43:11Z</time>
      </trkpt>
      <trkpt lat="43.9501" lon="7.36663">
        <ele>1512.893</ele>
        <time>2016-07-08T11:43:21Z</time>
      </trkpt>
      <trkpt lat="43.94981" lon="7.3667">
        <ele>1512.11</ele>
        <time>2016-07-08T11:43:26Z</time>
      </trkpt>
      <trkpt lat="43.94828" lon="7.36686">
        <ele>1515.943</ele>
        <time>2016-07-08T11:43:52Z</time>
      </trkpt>
      <trkpt lat="43.94771" lon="7.36696">
        <ele>1514.687</ele>
        <time>2016-07-08T11:44:01Z</time>
      </trkpt>
      <trkpt lat="43.94731" lon="7.36697">
        <ele>1512.702</ele>
        <time>2016-07-08T11:44:08Z</time>
      </trkpt>
      <trkpt lat="43.94714" lon="7.36694">
        <ele>1511.888</ele>
        <time>2016-07-08T11:44:11Z</time>
      </trkpt>
      <trkpt lat="43.94701" lon="7.36689">
        <ele>1510.628</ele>
        <time>2016-07-08T11:44:13Z</time>
      </trkpt>
      <trkpt lat="43.94685" lon="7.36686">
        <ele>1510.892</ele>
        <time>2016-07-08T11:44:16Z</time>
      </trkpt>
      <trkpt lat="43.94601" lon="7.3665">
        <ele>1505.091</ele>
        <time>2016-07-08T11:44:30Z</time>
      </trkpt>
      <trkpt lat="43.94577" lon="7.36642">
        <ele>1504.702</ele>
        <time>2016-07-08T11:44:34Z</time>
      </trkpt>
      <trkpt lat="43.94495" lon="7.36622">
        <ele>1496.564</ele>
        <time>2016-07-08T11:44:48Z</time>
      </trkpt>
      <trkpt lat="43.94461" lon="7.36619">
        <ele>1493.776</ele>
        <time>2016-07-08T11:44:54Z</time>
      </trkpt>
      <trkpt lat="43.94448" lon="7.3662">
        <ele>1492.624</ele>
        <time>2016-07-08T11:44:56Z</time>
      </trkpt>
      <trkpt lat="43.94423" lon="7.36628">
        <ele>1489.759</ele>
        <time>2016-07-08T11:45:00Z</time>
      </trkpt>
      <trkpt lat="43.94411" lon="7.36634">
        <ele>1488.984</ele>
        <time>2016-07-08T11:45:02Z</time>
      </trkpt>
      <trkpt lat="43.94345" lon="7.36763">
        <ele>1509.734</ele>
        <time>2016-07-08T11:45:21Z</time>
      </trkpt>
      <trkpt lat="43.94328" lon="7.36798">
        <ele>1514.165</ele>
        <time>2016-07-08T11:45:26Z</time>
      </trkpt>
      <trkpt lat="43.94331" lon="7.36816">
        <ele>1516.674</ele>
        <time>2016-07-08T11:45:28Z</time>
      </trkpt>
      <trkpt lat="43.94347" lon="7.3684">
        <ele>1518.348</ele>
        <time>2016-07-08T11:45:32Z</time>
      </trkpt>
      <trkpt lat="43.94377" lon="7.36906">
        <ele>1516.246</ele>
        <time>2016-07-08T11:45:42Z</time>
      </trkpt>
      <trkpt lat="43.94385" lon="7.36946">
        <ele>1508.491</ele>
        <time>2016-07-08T11:45:47Z</time>
      </trkpt>
      <trkpt lat="43.94384" lon="7.36959">
        <ele>1505.421</ele>
        <time>2016-07-08T11:45:48Z</time>
      </trkpt>
      <trkpt lat="43.94374" lon="7.36948">
        <ele>1504.382</ele>
        <time>2016-07-08T11:45:50Z</time>
      </trkpt>
      <trkpt lat="43.94364" lon="7.36929">
        <ele>1505.766</ele>
        <time>2016-07-08T11:45:53Z</time>
      </trkpt>
      <trkpt lat="43.9435" lon="7.36912">
        <ele>1507.562</ele>
        <time>2016-07-08T11:45:56Z</time>
      </trkpt>
      <trkpt lat="43.94334" lon="7.36901">
        <ele>1508.026</ele>
        <time>2016-07-08T11:45:59Z</time>
      </trkpt>
      <trkpt lat="43.94304" lon="7.36926">
        <ele>1503.741</ele>
        <time>2016-07-08T11:46:05Z</time>
      </trkpt>
      <trkpt lat="43.94254" lon="7.36982">
        <ele>1504.045</ele>
        <time>2016-07-08T11:46:16Z</time>
      </trkpt>
      <trkpt lat="43.94251" lon="7.36999">
        <ele>1498.033</ele>
        <time>2016-07-08T11:46:18Z</time>
      </trkpt>
      <trkpt lat="43.94205" lon="7.37084">
        <ele>1494.362</ele>
        <time>2016-07-08T11:46:30Z</time>
      </trkpt>
      <trkpt lat="43.94192" lon="7.37099">
        <ele>1492.797</ele>
        <time>2016-07-08T11:46:33Z</time>
      </trkpt>
      <trkpt lat="43.94161" lon="7.37126">
        <ele>1484.828</ele>
        <time>2016-07-08T11:46:39Z</time>
      </trkpt>
      <trkpt lat="43.94144" lon="7.37134">
        <ele>1483.457</ele>
        <time>2016-07-08T11:46:42Z</time>
      </trkpt>
      <trkpt lat="43.94102" lon="7.37125">
        <ele>1495.796</ele>
        <time>2016-07-08T11:46:49Z</time>
      </trkpt>
      <trkpt lat="43.94084" lon="7.37124">
        <ele>1500.8</ele>
        <time>2016-07-08T11:46:52Z</time>
      </trkpt>
      <trkpt lat="43.94076" lon="7.37128">
        <ele>1501.954</ele>
        <time>2016-07-08T11:46:54Z</time>
      </trkpt>
      <trkpt lat="43.94073" lon="7.37133">
        <ele>1500.983</ele>
        <time>2016-07-08T11:46:54Z</time>
      </trkpt>
      <trkpt lat="43.94065" lon="7.37172">
        <ele>1492.896</ele>
        <time>2016-07-08T11:46:59Z</time>
      </trkpt>
      <trkpt lat="43.94059" lon="7.37227">
        <ele>1486.991</ele>
        <time>2016-07-08T11:47:06Z</time>
      </trkpt>
      <trkpt lat="43.94059" lon="7.37252">
        <ele>1490.118</ele>
        <time>2016-07-08T11:47:09Z</time>
      </trkpt>
      <trkpt lat="43.94066" lon="7.37286">
        <ele>1485.719</ele>
        <time>2016-07-08T11:47:13Z</time>
      </trkpt>
      <trkpt lat="43.94064" lon="7.37305">
        <ele>1484.4</ele>
        <time>2016-07-08T11:47:15Z</time>
      </trkpt>
      <trkpt lat="43.94052" lon="7.37349">
        <ele>1483.136</ele>
        <time>2016-07-08T11:47:21Z</time>
      </trkpt>
      <trkpt lat="43.9405" lon="7.37363">
        <ele>1479.883</ele>
        <time>2016-07-08T11:47:23Z</time>
      </trkpt>
      <trkpt lat="43.94055" lon="7.37394">
        <ele>1469.693</ele>
        <time>2016-07-08T11:47:27Z</time>
      </trkpt>
      <trkpt lat="43.94053" lon="7.37438">
        <ele>1455.639</ele>
        <time>2016-07-08T11:47:32Z</time>
      </trkpt>
      <trkpt lat="43.94057" lon="7.37441">
        <ele>1454.026</ele>
        <time>2016-07-08T11:47:33Z</time>
      </trkpt>
      <trkpt lat="43.94062" lon="7.37439">
        <ele>1453.987</ele>
        <time>2016-07-08T11:47:33Z</time>
      </trkpt>
      <trkpt lat="43.94066" lon="7.37434">
        <ele>1455.115</ele>
        <time>2016-07-08T11:47:34Z</time>
      </trkpt>
      <trkpt lat="43.94074" lon="7.37374">
        <ele>1466.332</ele>
        <time>2016-07-08T11:47:42Z</time>
      </trkpt>
      <trkpt lat="43.9408" lon="7.37353">
        <ele>1465.851</ele>
        <time>2016-07-08T11:47:44Z</time>
      </trkpt>
      <trkpt lat="43.941" lon="7.37306">
        <ele>1458.762</ele>
        <time>2016-07-08T11:47:51Z</time>
      </trkpt>
      <trkpt lat="43.94103" lon="7.37292">
        <ele>1458.428</ele>
        <time>2016-07-08T11:47:53Z</time>
      </trkpt>
      <trkpt lat="43.941" lon="7.37248">
        <ele>1464.373</ele>
        <time>2016-07-08T11:47:58Z</time>
      </trkpt>
      <trkpt lat="43.94101" lon="7.37236">
        <ele>1464.834</ele>
        <time>2016-07-08T11:47:59Z</time>
      </trkpt>
      <trkpt lat="43.94104" lon="7.37234">
        <ele>1463.322</ele>
        <time>2016-07-08T11:48:00Z</time>
      </trkpt>
      <trkpt lat="43.94107" lon="7.37234">
        <ele>1461.627</ele>
        <time>2016-07-08T11:48:00Z</time>
      </trkpt>
      <trkpt lat="43.94109" lon="7.37239">
        <ele>1459.832</ele>
        <time>2016-07-08T11:48:01Z</time>
      </trkpt>
      <trkpt lat="43.94112" lon="7.37265">
        <ele>1455.356</ele>
        <time>2016-07-08T11:48:04Z</time>
      </trkpt>
      <trkpt lat="43.9412" lon="7.373">
        <ele>1447.288</ele>
        <time>2016-07-08T11:48:09Z</time>
      </trkpt>
      <trkpt lat="43.94124" lon="7.37342">
        <ele>1442.294</ele>
        <time>2016-07-08T11:48:14Z</time>
      </trkpt>
      <trkpt lat="43.94132" lon="7.37398">
        <ele>1431.889</ele>
        <time>2016-07-08T11:48:20Z</time>
      </trkpt>
      <trkpt lat="43.94133" lon="7.37401">
        <ele>1431.036</ele>
        <time>2016-07-08T11:48:21Z</time>
      </trkpt>
      <trkpt lat="43.94136" lon="7.37401">
        <ele>1429.045</ele>
        <time>2016-07-08T11:48:21Z</time>
      </trkpt>
      <trkpt lat="43.94138" lon="7.37396">
        <ele>1428.072</ele>
        <time>2016-07-08T11:48:22Z</time>
      </trkpt>
      <trkpt lat="43.94138" lon="7.37348">
        <ele>1433.419</ele>
        <time>2016-07-08T11:48:28Z</time>
      </trkpt>
      <trkpt lat="43.94135" lon="7.37328">
        <ele>1437.319</ele>
        <time>2016-07-08T11:48:30Z</time>
      </trkpt>
      <trkpt lat="43.94136" lon="7.37322">
        <ele>1437.01</ele>
        <time>2016-07-08T11:48:31Z</time>
      </trkpt>
      <trkpt lat="43.94139" lon="7.37321">
        <ele>1435.384</ele>
        <time>2016-07-08T11:48:31Z</time>
      </trkpt>
      <trkpt lat="43.94142" lon="7.37323">
        <ele>1433.692</ele>
        <time>2016-07-08T11:48:32Z</time>
      </trkpt>
      <trkpt lat="43.94144" lon="7.37328">
        <ele>1432.432</ele>
        <time>2016-07-08T11:48:33Z</time>
      </trkpt>
      <trkpt lat="43.94146" lon="7.37354">
        <ele>1428.565</ele>
        <time>2016-07-08T11:48:36Z</time>
      </trkpt>
      <trkpt lat="43.9415" lon="7.37368">
        <ele>1425.056</ele>
        <time>2016-07-08T11:48:38Z</time>
      </trkpt>
      <trkpt lat="43.94156" lon="7.3738">
        <ele>1420.952</ele>
        <time>2016-07-08T11:48:39Z</time>
      </trkpt>
      <trkpt lat="43.94159" lon="7.37403">
        <ele>1415.733</ele>
        <time>2016-07-08T11:48:42Z</time>
      </trkpt>
      <trkpt lat="43.94158" lon="7.37433">
        <ele>1410.676</ele>
        <time>2016-07-08T11:48:46Z</time>
      </trkpt>
      <trkpt lat="43.94155" lon="7.37445">
        <ele>1410.438</ele>
        <time>2016-07-08T11:48:47Z</time>
      </trkpt>
      <trkpt lat="43.94125" lon="7.37502">
        <ele>1408.424</ele>
        <time>2016-07-08T11:48:56Z</time>
      </trkpt>
      <trkpt lat="43.94111" lon="7.37555">
        <ele>1399.144</ele>
        <time>2016-07-08T11:49:02Z</time>
      </trkpt>
      <trkpt lat="43.94106" lon="7.37562">
        <ele>1396.357</ele>
        <time>2016-07-08T11:49:04Z</time>
      </trkpt>
      <trkpt lat="43.94101" lon="7.37565">
        <ele>1395.16</ele>
        <time>2016-07-08T11:49:04Z</time>
      </trkpt>
      <trkpt lat="43.94091" lon="7.37567">
        <ele>1394.482</ele>
        <time>2016-07-08T11:49:06Z</time>
      </trkpt>
      <trkpt lat="43.94075" lon="7.37561">
        <ele>1397.276</ele>
        <time>2016-07-08T11:49:09Z</time>
      </trkpt>
      <trkpt lat="43.94062" lon="7.37554">
        <ele>1400.814</ele>
        <time>2016-07-08T11:49:11Z</time>
      </trkpt>
      <trkpt lat="43.94044" lon="7.37548">
        <ele>1402.416</ele>
        <time>2016-07-08T11:49:14Z</time>
      </trkpt>
      <trkpt lat="43.94034" lon="7.37548">
        <ele>1400.976</ele>
        <time>2016-07-08T11:49:16Z</time>
      </trkpt>
      <trkpt lat="43.94011" lon="7.37553">
        <ele>1397.324</ele>
        <time>2016-07-08T11:49:20Z</time>
      </trkpt>
      <trkpt lat="43.93994" lon="7.37554">
        <ele>1396.988</ele>
        <time>2016-07-08T11:49:23Z</time>
      </trkpt>
      <trkpt lat="43.93968" lon="7.37548">
        <ele>1401.683</ele>
        <time>2016-07-08T11:49:27Z</time>
      </trkpt>
      <trkpt lat="43.93951" lon="7.37546">
        <ele>1407.346</ele>
        <time>2016-07-08T11:49:30Z</time>
      </trkpt>
      <trkpt lat="43.93946" lon="7.37548">
        <ele>1407.658</ele>
        <time>2016-07-08T11:49:31Z</time>
      </trkpt>
      <trkpt lat="43.93943" lon="7.37552">
        <ele>1406.589</ele>
        <time>2016-07-08T11:49:31Z</time>
      </trkpt>
      <trkpt lat="43.93941" lon="7.3756">
        <ele>1403.852</ele>
        <time>2016-07-08T11:49:32Z</time>
      </trkpt>
      <trkpt lat="43.93942" lon="7.37574">
        <ele>1397.84</ele>
        <time>2016-07-08T11:49:34Z</time>
      </trkpt>
      <trkpt lat="43.93937" lon="7.37593">
        <ele>1393.513</ele>
        <time>2016-07-08T11:49:36Z</time>
      </trkpt>
      <trkpt lat="43.93925" lon="7.37615">
        <ele>1392.196</ele>
        <time>2016-07-08T11:49:40Z</time>
      </trkpt>
      <trkpt lat="43.9391" lon="7.37628">
        <ele>1398.872</ele>
        <time>2016-07-08T11:49:43Z</time>
      </trkpt>
      <trkpt lat="43.93908" lon="7.37632">
        <ele>1399.67</ele>
        <time>2016-07-08T11:49:43Z</time>
      </trkpt>
      <trkpt lat="43.93899" lon="7.37703">
        <ele>1395.28</ele>
        <time>2016-07-08T11:49:52Z</time>
      </trkpt>
      <trkpt lat="43.939" lon="7.37712">
        <ele>1394.062</ele>
        <time>2016-07-08T11:49:53Z</time>
      </trkpt>
      <trkpt lat="43.93914" lon="7.37743">
        <ele>1385.248</ele>
        <time>2016-07-08T11:49:57Z</time>
      </trkpt>
      <trkpt lat="43.93928" lon="7.37762">
        <ele>1379.84</ele>
        <time>2016-07-08T11:50:01Z</time>
      </trkpt>
      <trkpt lat="43.93938" lon="7.37785">
        <ele>1377.901</ele>
        <time>2016-07-08T11:50:04Z</time>
      </trkpt>
      <trkpt lat="43.93947" lon="7.37819">
        <ele>1377.98</ele>
        <time>2016-07-08T11:50:08Z</time>
      </trkpt>
      <trkpt lat="43.93959" lon="7.37847">
        <ele>1372.429</ele>
        <time>2016-07-08T11:50:12Z</time>
      </trkpt>
      <trkpt lat="43.93978" lon="7.37904">
        <ele>1364.05</ele>
        <time>2016-07-08T11:50:20Z</time>
      </trkpt>
      <trkpt lat="43.93978" lon="7.3791">
        <ele>1363.06</ele>
        <time>2016-07-08T11:50:20Z</time>
      </trkpt>
      <trkpt lat="43.93974" lon="7.37918">
        <ele>1362.29</ele>
        <time>2016-07-08T11:50:21Z</time>
      </trkpt>
      <trkpt lat="43.93959" lon="7.37928">
        <ele>1362.028</ele>
        <time>2016-07-08T11:50:24Z</time>
      </trkpt>
      <trkpt lat="43.9392" lon="7.37947">
        <ele>1367.919</ele>
        <time>2016-07-08T11:50:31Z</time>
      </trkpt>
      <trkpt lat="43.93907" lon="7.37956">
        <ele>1368.47</ele>
        <time>2016-07-08T11:50:33Z</time>
      </trkpt>
      <trkpt lat="43.93879" lon="7.37966">
        <ele>1373.684</ele>
        <time>2016-07-08T11:50:38Z</time>
      </trkpt>
      <trkpt lat="43.93864" lon="7.37978">
        <ele>1375.13</ele>
        <time>2016-07-08T11:50:41Z</time>
      </trkpt>
      <trkpt lat="43.93836" lon="7.38014">
        <ele>1379.584</ele>
        <time>2016-07-08T11:50:47Z</time>
      </trkpt>
      <trkpt lat="43.9383" lon="7.38024">
        <ele>1379.694</ele>
        <time>2016-07-08T11:50:49Z</time>
      </trkpt>
      <trkpt lat="43.93826" lon="7.38036">
        <ele>1379.162</ele>
        <time>2016-07-08T11:50:51Z</time>
      </trkpt>
      <trkpt lat="43.93823" lon="7.38066">
        <ele>1374.912</ele>
        <time>2016-07-08T11:50:54Z</time>
      </trkpt>
      <trkpt lat="43.93828" lon="7.38124">
        <ele>1365.425</ele>
        <time>2016-07-08T11:51:01Z</time>
      </trkpt>
      <trkpt lat="43.93823" lon="7.38152">
        <ele>1367.224</ele>
        <time>2016-07-08T11:51:05Z</time>
      </trkpt>
      <trkpt lat="43.93823" lon="7.38164">
        <ele>1366.792</ele>
        <time>2016-07-08T11:51:06Z</time>
      </trkpt>
      <trkpt lat="43.93825" lon="7.38174">
        <ele>1364.951</ele>
        <time>2016-07-08T11:51:07Z</time>
      </trkpt>
      <trkpt lat="43.93846" lon="7.38201">
        <ele>1351.492</ele>
        <time>2016-07-08T11:51:12Z</time>
      </trkpt>
      <trkpt lat="43.9385" lon="7.38211">
        <ele>1348.65</ele>
        <time>2016-07-08T11:51:13Z</time>
      </trkpt>
      <trkpt lat="43.93852" lon="7.38222">
        <ele>1346.613</ele>
        <time>2016-07-08T11:51:15Z</time>
      </trkpt>
      <trkpt lat="43.93852" lon="7.38239">
        <ele>1345.592</ele>
        <time>2016-07-08T11:51:17Z</time>
      </trkpt>
      <trkpt lat="43.93848" lon="7.38266">
        <ele>1344.392</ele>
        <time>2016-07-08T11:51:20Z</time>
      </trkpt>
      <trkpt lat="43.93842" lon="7.38287">
        <ele>1342.452</ele>
        <time>2016-07-08T11:51:23Z</time>
      </trkpt>
      <trkpt lat="43.93816" lon="7.38321">
        <ele>1340.015</ele>
        <time>2016-07-08T11:51:29Z</time>
      </trkpt>
      <trkpt lat="43.93796" lon="7.38336">
        <ele>1339.728</ele>
        <time>2016-07-08T11:51:32Z</time>
      </trkpt>
      <trkpt lat="43.93764" lon="7.38352">
        <ele>1349.869</ele>
        <time>2016-07-08T11:51:38Z</time>
      </trkpt>
      <trkpt lat="43.93756" lon="7.38358">
        <ele>1353.04</ele>
        <time>2016-07-08T11:51:40Z</time>
      </trkpt>
      <trkpt lat="43.9375" lon="7.38371">
        <ele>1352.44</ele>
        <time>2016-07-08T11:51:41Z</time>
      </trkpt>
      <trkpt lat="43.93751" lon="7.38388">
        <ele>1345.741</ele>
        <time>2016-07-08T11:51:44Z</time>
      </trkpt>
      <trkpt lat="43.93761" lon="7.38435">
        <ele>1335.349</ele>
        <time>2016-07-08T11:51:49Z</time>
      </trkpt>
      <trkpt lat="43.93775" lon="7.38477">
        <ele>1325.917</ele>
        <time>2016-07-08T11:51:55Z</time>
      </trkpt>
      <trkpt lat="43.93786" lon="7.3852">
        <ele>1313.121</ele>
        <time>2016-07-08T11:52:00Z</time>
      </trkpt>
      <trkpt lat="43.93786" lon="7.38535">
        <ele>1308.014</ele>
        <time>2016-07-08T11:52:02Z</time>
      </trkpt>
      <trkpt lat="43.93771" lon="7.38563">
        <ele>1304.932</ele>
        <time>2016-07-08T11:52:06Z</time>
      </trkpt>
      <trkpt lat="43.93755" lon="7.38578">
        <ele>1307.1</ele>
        <time>2016-07-08T11:52:10Z</time>
      </trkpt>
      <trkpt lat="43.93748" lon="7.38582">
        <ele>1308.392</ele>
        <time>2016-07-08T11:52:11Z</time>
      </trkpt>
      <trkpt lat="43.93721" lon="7.3859">
        <ele>1311.181</ele>
        <time>2016-07-08T11:52:15Z</time>
      </trkpt>
      <trkpt lat="43.93711" lon="7.38595">
        <ele>1308.619</ele>
        <time>2016-07-08T11:52:17Z</time>
      </trkpt>
      <trkpt lat="43.93697" lon="7.38598">
        <ele>1307.511</ele>
        <time>2016-07-08T11:52:19Z</time>
      </trkpt>
      <trkpt lat="43.93686" lon="7.38598">
        <ele>1306.679</ele>
        <time>2016-07-08T11:52:21Z</time>
      </trkpt>
      <trkpt lat="43.93675" lon="7.38594">
        <ele>1307.686</ele>
        <time>2016-07-08T11:52:23Z</time>
      </trkpt>
      <trkpt lat="43.93644" lon="7.38568">
        <ele>1316.834</ele>
        <time>2016-07-08T11:52:29Z</time>
      </trkpt>
      <trkpt lat="43.93624" lon="7.38545">
        <ele>1323.544</ele>
        <time>2016-07-08T11:52:33Z</time>
      </trkpt>
      <trkpt lat="43.93613" lon="7.38537">
        <ele>1324.323</ele>
        <time>2016-07-08T11:52:36Z</time>
      </trkpt>
      <trkpt lat="43.93608" lon="7.38536">
        <ele>1323.974</ele>
        <time>2016-07-08T11:52:36Z</time>
      </trkpt>
      <trkpt lat="43.93593" lon="7.38542">
        <ele>1318.836</ele>
        <time>2016-07-08T11:52:39Z</time>
      </trkpt>
      <trkpt lat="43.93574" lon="7.38544">
        <ele>1317.44</ele>
        <time>2016-07-08T11:52:42Z</time>
      </trkpt>
      <trkpt lat="43.93556" lon="7.38556">
        <ele>1310.696</ele>
        <time>2016-07-08T11:52:45Z</time>
      </trkpt>
      <trkpt lat="43.93539" lon="7.38559">
        <ele>1314.404</ele>
        <time>2016-07-08T11:52:48Z</time>
      </trkpt>
      <trkpt lat="43.93535" lon="7.38561">
        <ele>1314.618</ele>
        <time>2016-07-08T11:52:49Z</time>
      </trkpt>
      <trkpt lat="43.93495" lon="7.38606">
        <ele>1300.757</ele>
        <time>2016-07-08T11:52:58Z</time>
      </trkpt>
      <trkpt lat="43.93492" lon="7.38609">
        <ele>1298.846</ele>
        <time>2016-07-08T11:52:58Z</time>
      </trkpt>
      <trkpt lat="43.93488" lon="7.38609">
        <ele>1298.238</ele>
        <time>2016-07-08T11:52:59Z</time>
      </trkpt>
      <trkpt lat="43.93484" lon="7.38608">
        <ele>1298.07</ele>
        <time>2016-07-08T11:52:59Z</time>
      </trkpt>
      <trkpt lat="43.93469" lon="7.38589">
        <ele>1302.482</ele>
        <time>2016-07-08T11:53:03Z</time>
      </trkpt>
      <trkpt lat="43.93438" lon="7.38578">
        <ele>1293.417</ele>
        <time>2016-07-08T11:53:08Z</time>
      </trkpt>
      <trkpt lat="43.93434" lon="7.38572">
        <ele>1293.521</ele>
        <time>2016-07-08T11:53:09Z</time>
      </trkpt>
      <trkpt lat="43.93431" lon="7.38536">
        <ele>1301.515</ele>
        <time>2016-07-08T11:53:13Z</time>
      </trkpt>
      <trkpt lat="43.93426" lon="7.38519">
        <ele>1303.669</ele>
        <time>2016-07-08T11:53:16Z</time>
      </trkpt>
      <trkpt lat="43.93418" lon="7.3851">
        <ele>1302.966</ele>
        <time>2016-07-08T11:53:17Z</time>
      </trkpt>
      <trkpt lat="43.93409" lon="7.3851">
        <ele>1298.735</ele>
        <time>2016-07-08T11:53:19Z</time>
      </trkpt>
      <trkpt lat="43.93408" lon="7.38515">
        <ele>1296.569</ele>
        <time>2016-07-08T11:53:19Z</time>
      </trkpt>
      <trkpt lat="43.93416" lon="7.38524">
        <ele>1297.065</ele>
        <time>2016-07-08T11:53:21Z</time>
      </trkpt>
      <trkpt lat="43.93423" lon="7.38536">
        <ele>1297.281</ele>
        <time>2016-07-08T11:53:23Z</time>
      </trkpt>
      <trkpt lat="43.93425" lon="7.38551">
        <ele>1294.397</ele>
        <time>2016-07-08T11:53:25Z</time>
      </trkpt>
      <trkpt lat="43.93424" lon="7.38573">
        <ele>1289.355</ele>
        <time>2016-07-08T11:53:27Z</time>
      </trkpt>
      <trkpt lat="43.93428" lon="7.38584">
        <ele>1288.542</ele>
        <time>2016-07-08T11:53:29Z</time>
      </trkpt>
      <trkpt lat="43.93433" lon="7.38589">
        <ele>1289.152</ele>
        <time>2016-07-08T11:53:30Z</time>
      </trkpt>
      <trkpt lat="43.93455" lon="7.38601">
        <ele>1293.536</ele>
        <time>2016-07-08T11:53:34Z</time>
      </trkpt>
      <trkpt lat="43.93463" lon="7.38613">
        <ele>1292.177</ele>
        <time>2016-07-08T11:53:36Z</time>
      </trkpt>
      <trkpt lat="43.93466" lon="7.38622">
        <ele>1290.472</ele>
        <time>2016-07-08T11:53:37Z</time>
      </trkpt>
      <trkpt lat="43.93468" lon="7.38649">
        <ele>1284.056</ele>
        <time>2016-07-08T11:53:40Z</time>
      </trkpt>
      <trkpt lat="43.93468" lon="7.38664">
        <ele>1280.816</ele>
        <time>2016-07-08T11:53:42Z</time>
      </trkpt>
      <trkpt lat="43.93466" lon="7.38674">
        <ele>1278.619</ele>
        <time>2016-07-08T11:53:43Z</time>
      </trkpt>
      <trkpt lat="43.9345" lon="7.38709">
        <ele>1271.752</ele>
        <time>2016-07-08T11:53:48Z</time>
      </trkpt>
      <trkpt lat="43.93441" lon="7.38739">
        <ele>1270.754</ele>
        <time>2016-07-08T11:53:52Z</time>
      </trkpt>
      <trkpt lat="43.93431" lon="7.3875">
        <ele>1271</ele>
        <time>2016-07-08T11:53:54Z</time>
      </trkpt>
      <trkpt lat="43.93404" lon="7.38769">
        <ele>1272.248</ele>
        <time>2016-07-08T11:53:59Z</time>
      </trkpt>
      <trkpt lat="43.93397" lon="7.38776">
        <ele>1273.147</ele>
        <time>2016-07-08T11:54:01Z</time>
      </trkpt>
      <trkpt lat="43.93379" lon="7.38803">
        <ele>1279.944</ele>
        <time>2016-07-08T11:54:05Z</time>
      </trkpt>
      <trkpt lat="43.93366" lon="7.38812">
        <ele>1279.912</ele>
        <time>2016-07-08T11:54:08Z</time>
      </trkpt>
      <trkpt lat="43.93355" lon="7.38817">
        <ele>1277.785</ele>
        <time>2016-07-08T11:54:09Z</time>
      </trkpt>
      <trkpt lat="43.93341" lon="7.38818">
        <ele>1272.296</ele>
        <time>2016-07-08T11:54:12Z</time>
      </trkpt>
      <trkpt lat="43.93326" lon="7.38815">
        <ele>1266.178</ele>
        <time>2016-07-08T11:54:14Z</time>
      </trkpt>
      <trkpt lat="43.93319" lon="7.38819">
        <ele>1265.01</ele>
        <time>2016-07-08T11:54:16Z</time>
      </trkpt>
      <trkpt lat="43.93318" lon="7.38824">
        <ele>1265.865</ele>
        <time>2016-07-08T11:54:16Z</time>
      </trkpt>
      <trkpt lat="43.93323" lon="7.38848">
        <ele>1271.371</ele>
        <time>2016-07-08T11:54:19Z</time>
      </trkpt>
      <trkpt lat="43.93337" lon="7.38876">
        <ele>1279.524</ele>
        <time>2016-07-08T11:54:23Z</time>
      </trkpt>
      <trkpt lat="43.93339" lon="7.38883">
        <ele>1280.82</ele>
        <time>2016-07-08T11:54:24Z</time>
      </trkpt>
      <trkpt lat="43.93336" lon="7.38897">
        <ele>1280.696</ele>
        <time>2016-07-08T11:54:26Z</time>
      </trkpt>
      <trkpt lat="43.93333" lon="7.38901">
        <ele>1279.768</ele>
        <time>2016-07-08T11:54:27Z</time>
      </trkpt>
      <trkpt lat="43.93311" lon="7.38919">
        <ele>1275.995</ele>
        <time>2016-07-08T11:54:31Z</time>
      </trkpt>
      <trkpt lat="43.93306" lon="7.38937">
        <ele>1279.933</ele>
        <time>2016-07-08T11:54:33Z</time>
      </trkpt>
      <trkpt lat="43.93303" lon="7.3894">
        <ele>1280.72</ele>
        <time>2016-07-08T11:54:34Z</time>
      </trkpt>
      <trkpt lat="43.93272" lon="7.38918">
        <ele>1274.226</ele>
        <time>2016-07-08T11:54:39Z</time>
      </trkpt>
      <trkpt lat="43.93251" lon="7.38911">
        <ele>1271.404</ele>
        <time>2016-07-08T11:54:43Z</time>
      </trkpt>
      <trkpt lat="43.93213" lon="7.38894">
        <ele>1267.655</ele>
        <time>2016-07-08T11:54:50Z</time>
      </trkpt>
      <trkpt lat="43.93125" lon="7.38868">
        <ele>1261.1</ele>
        <time>2016-07-08T11:55:05Z</time>
      </trkpt>
      <trkpt lat="43.93095" lon="7.38857">
        <ele>1258.964</ele>
        <time>2016-07-08T11:55:10Z</time>
      </trkpt>
      <trkpt lat="43.93076" lon="7.38848">
        <ele>1259.392</ele>
        <time>2016-07-08T11:55:13Z</time>
      </trkpt>
      <trkpt lat="43.93064" lon="7.3884">
        <ele>1259.968</ele>
        <time>2016-07-08T11:55:15Z</time>
      </trkpt>
      <trkpt lat="43.93055" lon="7.38831">
        <ele>1259.143</ele>
        <time>2016-07-08T11:55:17Z</time>
      </trkpt>
      <trkpt lat="43.93029" lon="7.38786">
        <ele>1248.652</ele>
        <time>2016-07-08T11:55:24Z</time>
      </trkpt>
      <trkpt lat="43.9299" lon="7.38744">
        <ele>1240.84</ele>
        <time>2016-07-08T11:55:32Z</time>
      </trkpt>
      <trkpt lat="43.92981" lon="7.38738">
        <ele>1238.788</ele>
        <time>2016-07-08T11:55:34Z</time>
      </trkpt>
      <trkpt lat="43.92975" lon="7.38736">
        <ele>1237.78</ele>
        <time>2016-07-08T11:55:35Z</time>
      </trkpt>
      <trkpt lat="43.9297" lon="7.38739">
        <ele>1237.572</ele>
        <time>2016-07-08T11:55:36Z</time>
      </trkpt>
      <trkpt lat="43.92965" lon="7.38764">
        <ele>1240.96</ele>
        <time>2016-07-08T11:55:39Z</time>
      </trkpt>
      <trkpt lat="43.92963" lon="7.38799">
        <ele>1247.846</ele>
        <time>2016-07-08T11:55:43Z</time>
      </trkpt>
      <trkpt lat="43.92959" lon="7.38805">
        <ele>1248.49</ele>
        <time>2016-07-08T11:55:44Z</time>
      </trkpt>
      <trkpt lat="43.92953" lon="7.38808">
        <ele>1248.224</ele>
        <time>2016-07-08T11:55:45Z</time>
      </trkpt>
      <trkpt lat="43.92947" lon="7.38809">
        <ele>1247.53</ele>
        <time>2016-07-08T11:55:46Z</time>
      </trkpt>
      <trkpt lat="43.9294" lon="7.38808">
        <ele>1246.806</ele>
        <time>2016-07-08T11:55:47Z</time>
      </trkpt>
      <trkpt lat="43.92908" lon="7.3879">
        <ele>1242.731</ele>
        <time>2016-07-08T11:55:53Z</time>
      </trkpt>
      <trkpt lat="43.92897" lon="7.38786">
        <ele>1242.911</ele>
        <time>2016-07-08T11:55:55Z</time>
      </trkpt>
      <trkpt lat="43.92887" lon="7.38784">
        <ele>1243.859</ele>
        <time>2016-07-08T11:55:57Z</time>
      </trkpt>
      <trkpt lat="43.92865" lon="7.38786">
        <ele>1251.542</ele>
        <time>2016-07-08T11:56:00Z</time>
      </trkpt>
      <trkpt lat="43.92863" lon="7.38785">
        <ele>1251.951</ele>
        <time>2016-07-08T11:56:01Z</time>
      </trkpt>
      <trkpt lat="43.9284" lon="7.38735">
        <ele>1249.669</ele>
        <time>2016-07-08T11:56:08Z</time>
      </trkpt>
      <trkpt lat="43.92828" lon="7.38713">
        <ele>1246.753</ele>
        <time>2016-07-08T11:56:11Z</time>
      </trkpt>
      <trkpt lat="43.92812" lon="7.38697">
        <ele>1245.485</ele>
        <time>2016-07-08T11:56:14Z</time>
      </trkpt>
      <trkpt lat="43.92756" lon="7.38662">
        <ele>1248.644</ele>
        <time>2016-07-08T11:56:24Z</time>
      </trkpt>
      <trkpt lat="43.92712" lon="7.38627">
        <ele>1244.817</ele>
        <time>2016-07-08T11:56:33Z</time>
      </trkpt>
      <trkpt lat="43.92689" lon="7.3862">
        <ele>1245.869</ele>
        <time>2016-07-08T11:56:37Z</time>
      </trkpt>
      <trkpt lat="43.9268" lon="7.38614">
        <ele>1246.336</ele>
        <time>2016-07-08T11:56:38Z</time>
      </trkpt>
      <trkpt lat="43.92643" lon="7.3858">
        <ele>1250.968</ele>
        <time>2016-07-08T11:56:46Z</time>
      </trkpt>
      <trkpt lat="43.92597" lon="7.38544">
        <ele>1253.148</ele>
        <time>2016-07-08T11:56:55Z</time>
      </trkpt>
      <trkpt lat="43.92504" lon="7.38495">
        <ele>1268.904</ele>
        <time>2016-07-08T11:57:11Z</time>
      </trkpt>
      <trkpt lat="43.92479" lon="7.38478">
        <ele>1270.285</ele>
        <time>2016-07-08T11:57:16Z</time>
      </trkpt>
      <trkpt lat="43.9245" lon="7.38461">
        <ele>1271.56</ele>
        <time>2016-07-08T11:57:21Z</time>
      </trkpt>
      <trkpt lat="43.92424" lon="7.38449">
        <ele>1272.561</ele>
        <time>2016-07-08T11:57:25Z</time>
      </trkpt>
      <trkpt lat="43.92396" lon="7.38429">
        <ele>1272.986</ele>
        <time>2016-07-08T11:57:31Z</time>
      </trkpt>
      <trkpt lat="43.92382" lon="7.38417">
        <ele>1271.34</ele>
        <time>2016-07-08T11:57:33Z</time>
      </trkpt>
      <trkpt lat="43.92376" lon="7.38416">
        <ele>1270.464</ele>
        <time>2016-07-08T11:57:34Z</time>
      </trkpt>
      <trkpt lat="43.9236" lon="7.38428">
        <ele>1272.753</ele>
        <time>2016-07-08T11:57:37Z</time>
      </trkpt>
      <trkpt lat="43.92346" lon="7.38441">
        <ele>1273.817</ele>
        <time>2016-07-08T11:57:40Z</time>
      </trkpt>
      <trkpt lat="43.92295" lon="7.38471">
        <ele>1275.481</ele>
        <time>2016-07-08T11:57:49Z</time>
      </trkpt>
      <trkpt lat="43.92281" lon="7.38486">
        <ele>1278.487</ele>
        <time>2016-07-08T11:57:52Z</time>
      </trkpt>
      <trkpt lat="43.92271" lon="7.38509">
        <ele>1289.66</ele>
        <time>2016-07-08T11:57:55Z</time>
      </trkpt>
      <trkpt lat="43.92264" lon="7.38519">
        <ele>1292.864</ele>
        <time>2016-07-08T11:57:57Z</time>
      </trkpt>
      <trkpt lat="43.92255" lon="7.38526">
        <ele>1293.188</ele>
        <time>2016-07-08T11:57:59Z</time>
      </trkpt>
      <trkpt lat="43.92233" lon="7.38533">
        <ele>1288.161</ele>
        <time>2016-07-08T11:58:03Z</time>
      </trkpt>
      <trkpt lat="43.92196" lon="7.38539">
        <ele>1280.252</ele>
        <time>2016-07-08T11:58:09Z</time>
      </trkpt>
      <trkpt lat="43.92172" lon="7.38541">
        <ele>1274.248</ele>
        <time>2016-07-08T11:58:13Z</time>
      </trkpt>
      <trkpt lat="43.92165" lon="7.38544">
        <ele>1273.578</ele>
        <time>2016-07-08T11:58:14Z</time>
      </trkpt>
      <trkpt lat="43.92153" lon="7.38572">
        <ele>1281.304</ele>
        <time>2016-07-08T11:58:18Z</time>
      </trkpt>
      <trkpt lat="43.92129" lon="7.38608">
        <ele>1290.58</ele>
        <time>2016-07-08T11:58:24Z</time>
      </trkpt>
      <trkpt lat="43.92115" lon="7.38642">
        <ele>1308.016</ele>
        <time>2016-07-08T11:58:28Z</time>
      </trkpt>
      <trkpt lat="43.9211" lon="7.38645">
        <ele>1308.58</ele>
        <time>2016-07-08T11:58:29Z</time>
      </trkpt>
      <trkpt lat="43.92104" lon="7.38645">
        <ele>1307.068</ele>
        <time>2016-07-08T11:58:30Z</time>
      </trkpt>
      <trkpt lat="43.92055" lon="7.38638">
        <ele>1298.405</ele>
        <time>2016-07-08T11:58:39Z</time>
      </trkpt>
      <trkpt lat="43.92026" lon="7.38639">
        <ele>1289.659</ele>
        <time>2016-07-08T11:58:43Z</time>
      </trkpt>
      <trkpt lat="43.92003" lon="7.38645">
        <ele>1286.479</ele>
        <time>2016-07-08T11:58:47Z</time>
      </trkpt>
      <trkpt lat="43.91995" lon="7.3865">
        <ele>1285.148</ele>
        <time>2016-07-08T11:58:49Z</time>
      </trkpt>
      <trkpt lat="43.91985" lon="7.38664">
        <ele>1284.804</ele>
        <time>2016-07-08T11:58:51Z</time>
      </trkpt>
      <trkpt lat="43.91974" lon="7.38694">
        <ele>1284.893</ele>
        <time>2016-07-08T11:58:55Z</time>
      </trkpt>
      <trkpt lat="43.91972" lon="7.3871">
        <ele>1284.964</ele>
        <time>2016-07-08T11:58:57Z</time>
      </trkpt>
      <trkpt lat="43.91972" lon="7.38745">
        <ele>1286.668</ele>
        <time>2016-07-08T11:59:01Z</time>
      </trkpt>
      <trkpt lat="43.9197" lon="7.38773">
        <ele>1286.374</ele>
        <time>2016-07-08T11:59:05Z</time>
      </trkpt>
      <trkpt lat="43.91964" lon="7.38816">
        <ele>1290.632</ele>
        <time>2016-07-08T11:59:10Z</time>
      </trkpt>
      <trkpt lat="43.91948" lon="7.38857">
        <ele>1286.84</ele>
        <time>2016-07-08T11:59:15Z</time>
      </trkpt>
      <trkpt lat="43.9194" lon="7.38882">
        <ele>1287.433</ele>
        <time>2016-07-08T11:59:19Z</time>
      </trkpt>
      <trkpt lat="43.91929" lon="7.38899">
        <ele>1288.009</ele>
        <time>2016-07-08T11:59:21Z</time>
      </trkpt>
      <trkpt lat="43.91917" lon="7.38908">
        <ele>1286.695</ele>
        <time>2016-07-08T11:59:24Z</time>
      </trkpt>
      <trkpt lat="43.91803" lon="7.38953">
        <ele>1278.201</ele>
        <time>2016-07-08T11:59:43Z</time>
      </trkpt>
      <trkpt lat="43.91751" lon="7.38978">
        <ele>1275.648</ele>
        <time>2016-07-08T11:59:52Z</time>
      </trkpt>
      <trkpt lat="43.91734" lon="7.38984">
        <ele>1273.144</ele>
        <time>2016-07-08T11:59:55Z</time>
      </trkpt>
      <trkpt lat="43.91698" lon="7.38992">
        <ele>1268.669</ele>
        <time>2016-07-08T12:00:01Z</time>
      </trkpt>
      <trkpt lat="43.91651" lon="7.38988">
        <ele>1265.176</ele>
        <time>2016-07-08T12:00:09Z</time>
      </trkpt>
      <trkpt lat="43.91636" lon="7.3899">
        <ele>1263.605</ele>
        <time>2016-07-08T12:00:12Z</time>
      </trkpt>
      <trkpt lat="43.91602" lon="7.39002">
        <ele>1257.465</ele>
        <time>2016-07-08T12:00:17Z</time>
      </trkpt>
      <trkpt lat="43.91567" lon="7.39018">
        <ele>1250.78</ele>
        <time>2016-07-08T12:00:24Z</time>
      </trkpt>
      <trkpt lat="43.91545" lon="7.39031">
        <ele>1247.46</ele>
        <time>2016-07-08T12:00:28Z</time>
      </trkpt>
      <trkpt lat="43.91534" lon="7.3904">
        <ele>1245.613</ele>
        <time>2016-07-08T12:00:30Z</time>
      </trkpt>
      <trkpt lat="43.91529" lon="7.39048">
        <ele>1244.38</ele>
        <time>2016-07-08T12:00:31Z</time>
      </trkpt>
      <trkpt lat="43.9153" lon="7.3906">
        <ele>1244.186</ele>
        <time>2016-07-08T12:00:32Z</time>
      </trkpt>
      <trkpt lat="43.91535" lon="7.39073">
        <ele>1244.415</ele>
        <time>2016-07-08T12:00:34Z</time>
      </trkpt>
      <trkpt lat="43.91569" lon="7.3913">
        <ele>1247.861</ele>
        <time>2016-07-08T12:00:43Z</time>
      </trkpt>
      <trkpt lat="43.91584" lon="7.39161">
        <ele>1246.201</ele>
        <time>2016-07-08T12:00:47Z</time>
      </trkpt>
      <trkpt lat="43.91596" lon="7.39193">
        <ele>1241.36</ele>
        <time>2016-07-08T12:00:52Z</time>
      </trkpt>
      <trkpt lat="43.91615" lon="7.39235">
        <ele>1238.102</ele>
        <time>2016-07-08T12:00:58Z</time>
      </trkpt>
      <trkpt lat="43.91628" lon="7.39292">
        <ele>1235.871</ele>
        <time>2016-07-08T12:01:05Z</time>
      </trkpt>
      <trkpt lat="43.91631" lon="7.39319">
        <ele>1232.761</ele>
        <time>2016-07-08T12:01:08Z</time>
      </trkpt>
      <trkpt lat="43.91641" lon="7.39373">
        <ele>1222.697</ele>
        <time>2016-07-08T12:01:15Z</time>
      </trkpt>
      <trkpt lat="43.91644" lon="7.3938">
        <ele>1221.334</ele>
        <time>2016-07-08T12:01:16Z</time>
      </trkpt>
      <trkpt lat="43.91651" lon="7.39387">
        <ele>1221.188</ele>
        <time>2016-07-08T12:01:17Z</time>
      </trkpt>
      <trkpt lat="43.91674" lon="7.39399">
        <ele>1224.212</ele>
        <time>2016-07-08T12:01:21Z</time>
      </trkpt>
      <trkpt lat="43.91683" lon="7.39402">
        <ele>1225.002</ele>
        <time>2016-07-08T12:01:23Z</time>
      </trkpt>
      <trkpt lat="43.91836" lon="7.39421">
        <ele>1214.098</ele>
        <time>2016-07-08T12:01:48Z</time>
      </trkpt>
      <trkpt lat="43.91856" lon="7.39426">
        <ele>1211.42</ele>
        <time>2016-07-08T12:01:52Z</time>
      </trkpt>
      <trkpt lat="43.91876" lon="7.39434">
        <ele>1206.192</ele>
        <time>2016-07-08T12:01:55Z</time>
      </trkpt>
      <trkpt lat="43.91893" lon="7.39435">
        <ele>1204.76</ele>
        <time>2016-07-08T12:01:58Z</time>
      </trkpt>
      <trkpt lat="43.91927" lon="7.39435">
        <ele>1203.89</ele>
        <time>2016-07-08T12:02:04Z</time>
      </trkpt>
      <trkpt lat="43.91953" lon="7.39423">
        <ele>1205.502</ele>
        <time>2016-07-08T12:02:08Z</time>
      </trkpt>
      <trkpt lat="43.91992" lon="7.39414">
        <ele>1203.715</ele>
        <time>2016-07-08T12:02:15Z</time>
      </trkpt>
      <trkpt lat="43.92002" lon="7.39413">
        <ele>1203.613</ele>
        <time>2016-07-08T12:02:16Z</time>
      </trkpt>
      <trkpt lat="43.92054" lon="7.39398">
        <ele>1202.344</ele>
        <time>2016-07-08T12:02:25Z</time>
      </trkpt>
      <trkpt lat="43.9206" lon="7.39399">
        <ele>1201.516</ele>
        <time>2016-07-08T12:02:26Z</time>
      </trkpt>
      <trkpt lat="43.92068" lon="7.39404">
        <ele>1198.985</ele>
        <time>2016-07-08T12:02:28Z</time>
      </trkpt>
      <trkpt lat="43.92097" lon="7.39431">
        <ele>1185.808</ele>
        <time>2016-07-08T12:02:33Z</time>
      </trkpt>
      <trkpt lat="43.92111" lon="7.39439">
        <ele>1182.352</ele>
        <time>2016-07-08T12:02:36Z</time>
      </trkpt>
      <trkpt lat="43.92118" lon="7.39441">
        <ele>1182.17</ele>
        <time>2016-07-08T12:02:37Z</time>
      </trkpt>
      <trkpt lat="43.92199" lon="7.394">
        <ele>1181.793</ele>
        <time>2016-07-08T12:02:51Z</time>
      </trkpt>
      <trkpt lat="43.92214" lon="7.3939">
        <ele>1182.048</ele>
        <time>2016-07-08T12:02:54Z</time>
      </trkpt>
      <trkpt lat="43.92231" lon="7.39364">
        <ele>1190.496</ele>
        <time>2016-07-08T12:02:58Z</time>
      </trkpt>
      <trkpt lat="43.92236" lon="7.39361">
        <ele>1190.584</ele>
        <time>2016-07-08T12:02:59Z</time>
      </trkpt>
      <trkpt lat="43.9224" lon="7.39361">
        <ele>1189.577</ele>
        <time>2016-07-08T12:03:00Z</time>
      </trkpt>
      <trkpt lat="43.92244" lon="7.39365">
        <ele>1187.101</ele>
        <time>2016-07-08T12:03:01Z</time>
      </trkpt>
      <trkpt lat="43.92257" lon="7.39395">
        <ele>1175.876</ele>
        <time>2016-07-08T12:03:05Z</time>
      </trkpt>
      <trkpt lat="43.92269" lon="7.39416">
        <ele>1169.793</ele>
        <time>2016-07-08T12:03:08Z</time>
      </trkpt>
      <trkpt lat="43.92291" lon="7.39486">
        <ele>1156.228</ele>
        <time>2016-07-08T12:03:17Z</time>
      </trkpt>
      <trkpt lat="43.92301" lon="7.39508">
        <ele>1153.561</ele>
        <time>2016-07-08T12:03:20Z</time>
      </trkpt>
      <trkpt lat="43.92307" lon="7.39514">
        <ele>1153.82</ele>
        <time>2016-07-08T12:03:22Z</time>
      </trkpt>
      <trkpt lat="43.92314" lon="7.39518">
        <ele>1154</ele>
        <time>2016-07-08T12:03:23Z</time>
      </trkpt>
      <trkpt lat="43.9237" lon="7.3954">
        <ele>1155.224</ele>
        <time>2016-07-08T12:03:32Z</time>
      </trkpt>
      <trkpt lat="43.92406" lon="7.39547">
        <ele>1153.696</ele>
        <time>2016-07-08T12:03:38Z</time>
      </trkpt>
      <trkpt lat="43.92418" lon="7.39555">
        <ele>1150.62</ele>
        <time>2016-07-08T12:03:41Z</time>
      </trkpt>
      <trkpt lat="43.92432" lon="7.39558">
        <ele>1154.17</ele>
        <time>2016-07-08T12:03:43Z</time>
      </trkpt>
      <trkpt lat="43.92441" lon="7.39563">
        <ele>1156.607</ele>
        <time>2016-07-08T12:03:45Z</time>
      </trkpt>
      <trkpt lat="43.92444" lon="7.39568">
        <ele>1157.395</ele>
        <time>2016-07-08T12:03:45Z</time>
      </trkpt>
      <trkpt lat="43.92444" lon="7.39584">
        <ele>1156.878</ele>
        <time>2016-07-08T12:03:47Z</time>
      </trkpt>
      <trkpt lat="43.92435" lon="7.39599">
        <ele>1153.461</ele>
        <time>2016-07-08T12:03:50Z</time>
      </trkpt>
      <trkpt lat="43.92413" lon="7.39646">
        <ele>1139.334</ele>
        <time>2016-07-08T12:03:56Z</time>
      </trkpt>
      <trkpt lat="43.92405" lon="7.39671">
        <ele>1132.683</ele>
        <time>2016-07-08T12:04:00Z</time>
      </trkpt>
      <trkpt lat="43.92394" lon="7.39727">
        <ele>1122.881</ele>
        <time>2016-07-08T12:04:07Z</time>
      </trkpt>
      <trkpt lat="43.92395" lon="7.39747">
        <ele>1123.128</ele>
        <time>2016-07-08T12:04:09Z</time>
      </trkpt>
      <trkpt lat="43.924" lon="7.39762">
        <ele>1123.958</ele>
        <time>2016-07-08T12:04:11Z</time>
      </trkpt>
      <trkpt lat="43.92404" lon="7.39769">
        <ele>1124.82</ele>
        <time>2016-07-08T12:04:12Z</time>
      </trkpt>
      <trkpt lat="43.92418" lon="7.39784">
        <ele>1127.678</ele>
        <time>2016-07-08T12:04:15Z</time>
      </trkpt>
      <trkpt lat="43.92433" lon="7.39805">
        <ele>1129.564</ele>
        <time>2016-07-08T12:04:18Z</time>
      </trkpt>
      <trkpt lat="43.92437" lon="7.39813">
        <ele>1129.98</ele>
        <time>2016-07-08T12:04:20Z</time>
      </trkpt>
      <trkpt lat="43.92437" lon="7.39838">
        <ele>1124.834</ele>
        <time>2016-07-08T12:04:23Z</time>
      </trkpt>
      <trkpt lat="43.92407" lon="7.39915">
        <ele>1109.411</ele>
        <time>2016-07-08T12:04:33Z</time>
      </trkpt>
      <trkpt lat="43.92389" lon="7.39947">
        <ele>1102.624</ele>
        <time>2016-07-08T12:04:38Z</time>
      </trkpt>
      <trkpt lat="43.92384" lon="7.39959">
        <ele>1102.579</ele>
        <time>2016-07-08T12:04:40Z</time>
      </trkpt>
      <trkpt lat="43.92375" lon="7.39992">
        <ele>1103.204</ele>
        <time>2016-07-08T12:04:44Z</time>
      </trkpt>
      <trkpt lat="43.92374" lon="7.40008">
        <ele>1102.572</ele>
        <time>2016-07-08T12:04:46Z</time>
      </trkpt>
      <trkpt lat="43.92377" lon="7.40039">
        <ele>1098.353</ele>
        <time>2016-07-08T12:04:49Z</time>
      </trkpt>
      <trkpt lat="43.92383" lon="7.40055">
        <ele>1097.38</ele>
        <time>2016-07-08T12:04:52Z</time>
      </trkpt>
      <trkpt lat="43.9239" lon="7.40063">
        <ele>1098.909</ele>
        <time>2016-07-08T12:04:53Z</time>
      </trkpt>
      <trkpt lat="43.92434" lon="7.40107">
        <ele>1097.373</ele>
        <time>2016-07-08T12:05:02Z</time>
      </trkpt>
      <trkpt lat="43.9246" lon="7.4013">
        <ele>1098.098</ele>
        <time>2016-07-08T12:05:07Z</time>
      </trkpt>
      <trkpt lat="43.92481" lon="7.40164">
        <ele>1093.406</ele>
        <time>2016-07-08T12:05:13Z</time>
      </trkpt>
      <trkpt lat="43.92492" lon="7.40178">
        <ele>1092.628</ele>
        <time>2016-07-08T12:05:15Z</time>
      </trkpt>
      <trkpt lat="43.92497" lon="7.40222">
        <ele>1076.731</ele>
        <time>2016-07-08T12:05:20Z</time>
      </trkpt>
      <trkpt lat="43.92507" lon="7.40241">
        <ele>1077.28</ele>
        <time>2016-07-08T12:05:23Z</time>
      </trkpt>
      <trkpt lat="43.92519" lon="7.40251">
        <ele>1082.172</ele>
        <time>2016-07-08T12:05:25Z</time>
      </trkpt>
      <trkpt lat="43.92562" lon="7.40276">
        <ele>1085.247</ele>
        <time>2016-07-08T12:05:33Z</time>
      </trkpt>
      <trkpt lat="43.92572" lon="7.40285">
        <ele>1084.916</ele>
        <time>2016-07-08T12:05:35Z</time>
      </trkpt>
      <trkpt lat="43.92585" lon="7.40305">
        <ele>1080.808</ele>
        <time>2016-07-08T12:05:38Z</time>
      </trkpt>
      <trkpt lat="43.9259" lon="7.40321">
        <ele>1077.194</ele>
        <time>2016-07-08T12:05:41Z</time>
      </trkpt>
      <trkpt lat="43.92588" lon="7.40363">
        <ele>1061.905</ele>
        <time>2016-07-08T12:05:46Z</time>
      </trkpt>
      <trkpt lat="43.92589" lon="7.40395">
        <ele>1058.512</ele>
        <time>2016-07-08T12:05:49Z</time>
      </trkpt>
      <trkpt lat="43.92591" lon="7.40405">
        <ele>1059.708</ele>
        <time>2016-07-08T12:05:51Z</time>
      </trkpt>
      <trkpt lat="43.92603" lon="7.40437">
        <ele>1065.683</ele>
        <time>2016-07-08T12:05:55Z</time>
      </trkpt>
      <trkpt lat="43.92608" lon="7.4046">
        <ele>1066.228</ele>
        <time>2016-07-08T12:05:58Z</time>
      </trkpt>
      <trkpt lat="43.92614" lon="7.4054">
        <ele>1047.967</ele>
        <time>2016-07-08T12:06:07Z</time>
      </trkpt>
      <trkpt lat="43.92625" lon="7.40571">
        <ele>1046.552</ele>
        <time>2016-07-08T12:06:12Z</time>
      </trkpt>
      <trkpt lat="43.92635" lon="7.40589">
        <ele>1046.096</ele>
        <time>2016-07-08T12:06:14Z</time>
      </trkpt>
      <trkpt lat="43.92642" lon="7.40598">
        <ele>1047.157</ele>
        <time>2016-07-08T12:06:16Z</time>
      </trkpt>
      <trkpt lat="43.92662" lon="7.40618">
        <ele>1049</ele>
        <time>2016-07-08T12:06:20Z</time>
      </trkpt>
      <trkpt lat="43.92688" lon="7.40638">
        <ele>1053.251</ele>
        <time>2016-07-08T12:06:25Z</time>
      </trkpt>
      <trkpt lat="43.92719" lon="7.40674">
        <ele>1041.104</ele>
        <time>2016-07-08T12:06:32Z</time>
      </trkpt>
      <trkpt lat="43.92736" lon="7.40689">
        <ele>1033.955</ele>
        <time>2016-07-08T12:06:35Z</time>
      </trkpt>
      <trkpt lat="43.92742" lon="7.40692">
        <ele>1032.369</ele>
        <time>2016-07-08T12:06:36Z</time>
      </trkpt>
      <trkpt lat="43.9276" lon="7.40693">
        <ele>1030.867</ele>
        <time>2016-07-08T12:06:39Z</time>
      </trkpt>
      <trkpt lat="43.92761" lon="7.4069">
        <ele>1032.001</ele>
        <time>2016-07-08T12:06:39Z</time>
      </trkpt>
      <trkpt lat="43.92777" lon="7.40688">
        <ele>1031.389</ele>
        <time>2016-07-08T12:06:42Z</time>
      </trkpt>
      <trkpt lat="43.92792" lon="7.40679">
        <ele>1031.658</ele>
        <time>2016-07-08T12:06:45Z</time>
      </trkpt>
      <trkpt lat="43.92806" lon="7.40654">
        <ele>1036.668</ele>
        <time>2016-07-08T12:06:48Z</time>
      </trkpt>
      <trkpt lat="43.92816" lon="7.40603">
        <ele>1047.857</ele>
        <time>2016-07-08T12:06:55Z</time>
      </trkpt>
      <trkpt lat="43.92825" lon="7.40573">
        <ele>1054.096</ele>
        <time>2016-07-08T12:06:59Z</time>
      </trkpt>
      <trkpt lat="43.92845" lon="7.40542">
        <ele>1041.876</ele>
        <time>2016-07-08T12:07:04Z</time>
      </trkpt>
      <trkpt lat="43.92857" lon="7.40518">
        <ele>1035.483</ele>
        <time>2016-07-08T12:07:07Z</time>
      </trkpt>
      <trkpt lat="43.92861" lon="7.40514">
        <ele>1032.09</ele>
        <time>2016-07-08T12:07:08Z</time>
      </trkpt>
      <trkpt lat="43.9287" lon="7.40509">
        <ele>1025.368</ele>
        <time>2016-07-08T12:07:10Z</time>
      </trkpt>
      <trkpt lat="43.92883" lon="7.40507">
        <ele>1013.501</ele>
        <time>2016-07-08T12:07:12Z</time>
      </trkpt>
      <trkpt lat="43.92896" lon="7.40502">
        <ele>1005.548</ele>
        <time>2016-07-08T12:07:14Z</time>
      </trkpt>
      <trkpt lat="43.92904" lon="7.40484">
        <ele>1006.604</ele>
        <time>2016-07-08T12:07:16Z</time>
      </trkpt>
      <trkpt lat="43.9291" lon="7.40461">
        <ele>1009.531</ele>
        <time>2016-07-08T12:07:19Z</time>
      </trkpt>
      <trkpt lat="43.92912" lon="7.40441">
        <ele>1014.193</ele>
        <time>2016-07-08T12:07:22Z</time>
      </trkpt>
      <trkpt lat="43.92916" lon="7.40425">
        <ele>1018.834</ele>
        <time>2016-07-08T12:07:24Z</time>
      </trkpt>
      <trkpt lat="43.92928" lon="7.40406">
        <ele>1020.898</ele>
        <time>2016-07-08T12:07:27Z</time>
      </trkpt>
      <trkpt lat="43.92935" lon="7.40403">
        <ele>1017.19</ele>
        <time>2016-07-08T12:07:28Z</time>
      </trkpt>
      <trkpt lat="43.92955" lon="7.40387">
        <ele>1012.423</ele>
        <time>2016-07-08T12:07:32Z</time>
      </trkpt>
      <trkpt lat="43.92978" lon="7.40381">
        <ele>1006.03</ele>
        <time>2016-07-08T12:07:36Z</time>
      </trkpt>
      <trkpt lat="43.93003" lon="7.40365">
        <ele>1009.432</ele>
        <time>2016-07-08T12:07:40Z</time>
      </trkpt>
      <trkpt lat="43.9302" lon="7.4035">
        <ele>1009.928</ele>
        <time>2016-07-08T12:07:44Z</time>
      </trkpt>
      <trkpt lat="43.93039" lon="7.40317">
        <ele>1015.428</ele>
        <time>2016-07-08T12:07:49Z</time>
      </trkpt>
      <trkpt lat="43.93045" lon="7.40313">
        <ele>1014.852</ele>
        <time>2016-07-08T12:07:50Z</time>
      </trkpt>
      <trkpt lat="43.93049" lon="7.40313">
        <ele>1013.412</ele>
        <time>2016-07-08T12:07:51Z</time>
      </trkpt>
      <trkpt lat="43.93061" lon="7.40319">
        <ele>1008.581</ele>
        <time>2016-07-08T12:07:53Z</time>
      </trkpt>
      <trkpt lat="43.93077" lon="7.40324">
        <ele>1006.183</ele>
        <time>2016-07-08T12:07:55Z</time>
      </trkpt>
      <trkpt lat="43.93086" lon="7.40331">
        <ele>1003.664</ele>
        <time>2016-07-08T12:07:57Z</time>
      </trkpt>
      <trkpt lat="43.93089" lon="7.40335">
        <ele>1002.888</ele>
        <time>2016-07-08T12:07:58Z</time>
      </trkpt>
      <trkpt lat="43.93096" lon="7.40353">
        <ele>998.82</ele>
        <time>2016-07-08T12:08:00Z</time>
      </trkpt>
      <trkpt lat="43.93101" lon="7.4037">
        <ele>993.816</ele>
        <time>2016-07-08T12:08:02Z</time>
      </trkpt>
      <trkpt lat="43.93116" lon="7.40397">
        <ele>987.548</ele>
        <time>2016-07-08T12:08:06Z</time>
      </trkpt>
      <trkpt lat="43.93151" lon="7.40441">
        <ele>982.728</ele>
        <time>2016-07-08T12:08:14Z</time>
      </trkpt>
      <trkpt lat="43.9318" lon="7.40473">
        <ele>980.584</ele>
        <time>2016-07-08T12:08:20Z</time>
      </trkpt>
      <trkpt lat="43.93186" lon="7.40483">
        <ele>978.33</ele>
        <time>2016-07-08T12:08:22Z</time>
      </trkpt>
      <trkpt lat="43.93194" lon="7.40491">
        <ele>977.788</ele>
        <time>2016-07-08T12:08:24Z</time>
      </trkpt>
      <trkpt lat="43.93223" lon="7.40513">
        <ele>975.77</ele>
        <time>2016-07-08T12:08:29Z</time>
      </trkpt>
      <trkpt lat="43.9324" lon="7.40519">
        <ele>974.583</ele>
        <time>2016-07-08T12:08:32Z</time>
      </trkpt>
      <trkpt lat="43.93248" lon="7.40519">
        <ele>974.75</ele>
        <time>2016-07-08T12:08:33Z</time>
      </trkpt>
      <trkpt lat="43.93324" lon="7.40492">
        <ele>967.91</ele>
        <time>2016-07-08T12:08:46Z</time>
      </trkpt>
      <trkpt lat="43.93343" lon="7.40488">
        <ele>964.773</ele>
        <time>2016-07-08T12:08:50Z</time>
      </trkpt>
      <trkpt lat="43.93389" lon="7.40497">
        <ele>957.08</ele>
        <time>2016-07-08T12:08:57Z</time>
      </trkpt>
      <trkpt lat="43.93403" lon="7.40498">
        <ele>956.72</ele>
        <time>2016-07-08T12:09:00Z</time>
      </trkpt>
      <trkpt lat="43.93426" lon="7.40496">
        <ele>957.056</ele>
        <time>2016-07-08T12:09:03Z</time>
      </trkpt>
      <trkpt lat="43.93448" lon="7.40498">
        <ele>955.639</ele>
        <time>2016-07-08T12:09:07Z</time>
      </trkpt>
      <trkpt lat="43.93465" lon="7.40507">
        <ele>953.664</ele>
        <time>2016-07-08T12:09:10Z</time>
      </trkpt>
      <trkpt lat="43.93533" lon="7.40594">
        <ele>935.632</ele>
        <time>2016-07-08T12:09:25Z</time>
      </trkpt>
      <trkpt lat="43.93631" lon="7.40692">
        <ele>917.821</ele>
        <time>2016-07-08T12:09:45Z</time>
      </trkpt>
      <trkpt lat="43.93635" lon="7.40699">
        <ele>918.547</ele>
        <time>2016-07-08T12:09:47Z</time>
      </trkpt>
      <trkpt lat="43.93634" lon="7.4071">
        <ele>920.934</ele>
        <time>2016-07-08T12:09:48Z</time>
      </trkpt>
      <trkpt lat="43.9363" lon="7.40712">
        <ele>921.288</ele>
        <time>2016-07-08T12:09:49Z</time>
      </trkpt>
      <trkpt lat="43.93614" lon="7.40707">
        <ele>920.913</ele>
        <time>2016-07-08T12:09:51Z</time>
      </trkpt>
      <trkpt lat="43.93589" lon="7.40693">
        <ele>921.879</ele>
        <time>2016-07-08T12:09:56Z</time>
      </trkpt>
      <trkpt lat="43.93553" lon="7.40669">
        <ele>918.753</ele>
        <time>2016-07-08T12:10:02Z</time>
      </trkpt>
      <trkpt lat="43.93519" lon="7.40635">
        <ele>918.791</ele>
        <time>2016-07-08T12:10:09Z</time>
      </trkpt>
      <trkpt lat="43.93496" lon="7.40622">
        <ele>917.928</ele>
        <time>2016-07-08T12:10:13Z</time>
      </trkpt>
      <trkpt lat="43.93444" lon="7.40606">
        <ele>910.699</ele>
        <time>2016-07-08T12:10:22Z</time>
      </trkpt>
      <trkpt lat="43.93431" lon="7.40603">
        <ele>910.585</ele>
        <time>2016-07-08T12:10:24Z</time>
      </trkpt>
      <trkpt lat="43.93414" lon="7.40602">
        <ele>909.346</ele>
        <time>2016-07-08T12:10:27Z</time>
      </trkpt>
      <trkpt lat="43.93385" lon="7.4061">
        <ele>907.338</ele>
        <time>2016-07-08T12:10:32Z</time>
      </trkpt>
      <trkpt lat="43.93377" lon="7.40615">
        <ele>907.308</ele>
        <time>2016-07-08T12:10:34Z</time>
      </trkpt>
      <trkpt lat="43.93367" lon="7.40626">
        <ele>905.904</ele>
        <time>2016-07-08T12:10:36Z</time>
      </trkpt>
      <trkpt lat="43.93354" lon="7.40648">
        <ele>903.1</ele>
        <time>2016-07-08T12:10:39Z</time>
      </trkpt>
      <trkpt lat="43.93345" lon="7.40658">
        <ele>902.569</ele>
        <time>2016-07-08T12:10:41Z</time>
      </trkpt>
      <trkpt lat="43.93333" lon="7.40666">
        <ele>902.384</ele>
        <time>2016-07-08T12:10:43Z</time>
      </trkpt>
      <trkpt lat="43.93297" lon="7.40675">
        <ele>906.032</ele>
        <time>2016-07-08T12:10:49Z</time>
      </trkpt>
      <trkpt lat="43.93238" lon="7.40709">
        <ele>890.118</ele>
        <time>2016-07-08T12:11:00Z</time>
      </trkpt>
      <trkpt lat="43.93225" lon="7.40715">
        <ele>888.094</ele>
        <time>2016-07-08T12:11:02Z</time>
      </trkpt>
      <trkpt lat="43.93209" lon="7.40719">
        <ele>886.027</ele>
        <time>2016-07-08T12:11:05Z</time>
      </trkpt>
      <trkpt lat="43.93182" lon="7.40717">
        <ele>885.619</ele>
        <time>2016-07-08T12:11:09Z</time>
      </trkpt>
      <trkpt lat="43.93178" lon="7.40725">
        <ele>881.224</ele>
        <time>2016-07-08T12:11:11Z</time>
      </trkpt>
      <trkpt lat="43.93181" lon="7.40731">
        <ele>879.388</ele>
        <time>2016-07-08T12:11:11Z</time>
      </trkpt>
      <trkpt lat="43.93186" lon="7.40733">
        <ele>879.208</ele>
        <time>2016-07-08T12:11:12Z</time>
      </trkpt>
      <trkpt lat="43.93246" lon="7.40738">
        <ele>874.534</ele>
        <time>2016-07-08T12:11:22Z</time>
      </trkpt>
      <trkpt lat="43.93279" lon="7.40737">
        <ele>873.66</ele>
        <time>2016-07-08T12:11:28Z</time>
      </trkpt>
      <trkpt lat="43.93306" lon="7.4074">
        <ele>873.303</ele>
        <time>2016-07-08T12:11:32Z</time>
      </trkpt>
      <trkpt lat="43.9334" lon="7.40748">
        <ele>868.705</ele>
        <time>2016-07-08T12:11:38Z</time>
      </trkpt>
      <trkpt lat="43.93355" lon="7.40746">
        <ele>867.288</ele>
        <time>2016-07-08T12:11:40Z</time>
      </trkpt>
      <trkpt lat="43.93366" lon="7.4074">
        <ele>867.847</ele>
        <time>2016-07-08T12:11:42Z</time>
      </trkpt>
      <trkpt lat="43.93372" lon="7.4074">
        <ele>866.922</ele>
        <time>2016-07-08T12:11:43Z</time>
      </trkpt>
      <trkpt lat="43.93376" lon="7.40746">
        <ele>863.914</ele>
        <time>2016-07-08T12:11:44Z</time>
      </trkpt>
      <trkpt lat="43.93375" lon="7.40751">
        <ele>862.104</ele>
        <time>2016-07-08T12:11:45Z</time>
      </trkpt>
      <trkpt lat="43.93372" lon="7.40755">
        <ele>861.138</ele>
        <time>2016-07-08T12:11:46Z</time>
      </trkpt>
      <trkpt lat="43.93335" lon="7.40771">
        <ele>861.245</ele>
        <time>2016-07-08T12:11:52Z</time>
      </trkpt>
      <trkpt lat="43.93282" lon="7.4078">
        <ele>857.58</ele>
        <time>2016-07-08T12:12:01Z</time>
      </trkpt>
      <trkpt lat="43.93251" lon="7.40791">
        <ele>855.173</ele>
        <time>2016-07-08T12:12:06Z</time>
      </trkpt>
      <trkpt lat="43.93235" lon="7.40794">
        <ele>855.002</ele>
        <time>2016-07-08T12:12:09Z</time>
      </trkpt>
      <trkpt lat="43.93202" lon="7.4079">
        <ele>857.014</ele>
        <time>2016-07-08T12:12:14Z</time>
      </trkpt>
      <trkpt lat="43.93196" lon="7.40792">
        <ele>855.839</ele>
        <time>2016-07-08T12:12:15Z</time>
      </trkpt>
      <trkpt lat="43.93181" lon="7.40802">
        <ele>848.112</ele>
        <time>2016-07-08T12:12:18Z</time>
      </trkpt>
      <trkpt lat="43.93169" lon="7.40804">
        <ele>845.232</ele>
        <time>2016-07-08T12:12:20Z</time>
      </trkpt>
      <trkpt lat="43.93159" lon="7.40804">
        <ele>842.366</ele>
        <time>2016-07-08T12:12:22Z</time>
      </trkpt>
      <trkpt lat="43.93146" lon="7.40797">
        <ele>841.545</ele>
        <time>2016-07-08T12:12:24Z</time>
      </trkpt>
      <trkpt lat="43.93139" lon="7.40791">
        <ele>841.854</ele>
        <time>2016-07-08T12:12:26Z</time>
      </trkpt>
      <trkpt lat="43.93126" lon="7.40767">
        <ele>844.72</ele>
        <time>2016-07-08T12:12:29Z</time>
      </trkpt>
      <trkpt lat="43.93122" lon="7.40764">
        <ele>843.397</ele>
        <time>2016-07-08T12:12:30Z</time>
      </trkpt>
      <trkpt lat="43.93117" lon="7.40764">
        <ele>839.978</ele>
        <time>2016-07-08T12:12:31Z</time>
      </trkpt>
      <trkpt lat="43.93115" lon="7.40768">
        <ele>836.843</ele>
        <time>2016-07-08T12:12:31Z</time>
      </trkpt>
      <trkpt lat="43.93116" lon="7.40774">
        <ele>834.848</ele>
        <time>2016-07-08T12:12:32Z</time>
      </trkpt>
      <trkpt lat="43.9313" lon="7.40799">
        <ele>833.286</ele>
        <time>2016-07-08T12:12:36Z</time>
      </trkpt>
      <trkpt lat="43.93142" lon="7.40814">
        <ele>832.258</ele>
        <time>2016-07-08T12:12:39Z</time>
      </trkpt>
      <trkpt lat="43.9315" lon="7.4082">
        <ele>831.736</ele>
        <time>2016-07-08T12:12:40Z</time>
      </trkpt>
      <trkpt lat="43.9317" lon="7.40827">
        <ele>832.715</ele>
        <time>2016-07-08T12:12:43Z</time>
      </trkpt>
      <trkpt lat="43.93181" lon="7.40829">
        <ele>832.533</ele>
        <time>2016-07-08T12:12:45Z</time>
      </trkpt>
      <trkpt lat="43.93201" lon="7.40828">
        <ele>835.163</ele>
        <time>2016-07-08T12:12:49Z</time>
      </trkpt>
      <trkpt lat="43.93211" lon="7.40833">
        <ele>833.581</ele>
        <time>2016-07-08T12:12:50Z</time>
      </trkpt>
      <trkpt lat="43.93229" lon="7.40848">
        <ele>828.326</ele>
        <time>2016-07-08T12:12:54Z</time>
      </trkpt>
      <trkpt lat="43.93245" lon="7.40852">
        <ele>827.77</ele>
        <time>2016-07-08T12:12:57Z</time>
      </trkpt>
      <trkpt lat="43.93262" lon="7.40852">
        <ele>828.822</ele>
        <time>2016-07-08T12:12:59Z</time>
      </trkpt>
      <trkpt lat="43.93269" lon="7.40854">
        <ele>827.955</ele>
        <time>2016-07-08T12:13:01Z</time>
      </trkpt>
      <trkpt lat="43.93284" lon="7.40864">
        <ele>821.807</ele>
        <time>2016-07-08T12:13:03Z</time>
      </trkpt>
      <trkpt lat="43.93303" lon="7.40868">
        <ele>818.193</ele>
        <time>2016-07-08T12:13:07Z</time>
      </trkpt>
      <trkpt lat="43.9331" lon="7.40871">
        <ele>816.521</ele>
        <time>2016-07-08T12:13:08Z</time>
      </trkpt>
      <trkpt lat="43.93313" lon="7.40874">
        <ele>814.968</ele>
        <time>2016-07-08T12:13:08Z</time>
      </trkpt>
      <trkpt lat="43.93324" lon="7.40877">
        <ele>813.892</ele>
        <time>2016-07-08T12:13:10Z</time>
      </trkpt>
      <trkpt lat="43.93364" lon="7.40883">
        <ele>810.646</ele>
        <time>2016-07-08T12:13:17Z</time>
      </trkpt>
      <trkpt lat="43.93374" lon="7.40883">
        <ele>810.264</ele>
        <time>2016-07-08T12:13:19Z</time>
      </trkpt>
      <trkpt lat="43.93378" lon="7.40881">
        <ele>810.829</ele>
        <time>2016-07-08T12:13:19Z</time>
      </trkpt>
      <trkpt lat="43.93381" lon="7.40877">
        <ele>812.032</ele>
        <time>2016-07-08T12:13:20Z</time>
      </trkpt>
      <trkpt lat="43.93396" lon="7.40852">
        <ele>818</ele>
        <time>2016-07-08T12:13:24Z</time>
      </trkpt>
      <trkpt lat="43.93405" lon="7.4084">
        <ele>820.7</ele>
        <time>2016-07-08T12:13:26Z</time>
      </trkpt>
      <trkpt lat="43.93411" lon="7.40836">
        <ele>821.06</ele>
        <time>2016-07-08T12:13:27Z</time>
      </trkpt>
      <trkpt lat="43.93418" lon="7.40836">
        <ele>820.131</ele>
        <time>2016-07-08T12:13:28Z</time>
      </trkpt>
      <trkpt lat="43.93423" lon="7.40839">
        <ele>819.369</ele>
        <time>2016-07-08T12:13:29Z</time>
      </trkpt>
      <trkpt lat="43.9343" lon="7.40848">
        <ele>816.427</ele>
        <time>2016-07-08T12:13:31Z</time>
      </trkpt>
      <trkpt lat="43.93446" lon="7.40881">
        <ele>804.556</ele>
        <time>2016-07-08T12:13:35Z</time>
      </trkpt>
      <trkpt lat="43.93466" lon="7.40907">
        <ele>799.822</ele>
        <time>2016-07-08T12:13:40Z</time>
      </trkpt>
      <trkpt lat="43.93484" lon="7.40925">
        <ele>798.034</ele>
        <time>2016-07-08T12:13:44Z</time>
      </trkpt>
      <trkpt lat="43.9353" lon="7.40977">
        <ele>793.322</ele>
        <time>2016-07-08T12:13:53Z</time>
      </trkpt>
      <trkpt lat="43.93552" lon="7.40989">
        <ele>791.585</ele>
        <time>2016-07-08T12:13:57Z</time>
      </trkpt>
      <trkpt lat="43.93562" lon="7.40997">
        <ele>790.724</ele>
        <time>2016-07-08T12:13:59Z</time>
      </trkpt>
      <trkpt lat="43.93568" lon="7.41005">
        <ele>789.581</ele>
        <time>2016-07-08T12:14:01Z</time>
      </trkpt>
      <trkpt lat="43.93598" lon="7.41056">
        <ele>784.286</ele>
        <time>2016-07-08T12:14:09Z</time>
      </trkpt>
      <trkpt lat="43.93632" lon="7.41106">
        <ele>782.159</ele>
        <time>2016-07-08T12:14:17Z</time>
      </trkpt>
      <trkpt lat="43.93643" lon="7.41129">
        <ele>778.135</ele>
        <time>2016-07-08T12:14:20Z</time>
      </trkpt>
      <trkpt lat="43.93642" lon="7.41136">
        <ele>775.26</ele>
        <time>2016-07-08T12:14:21Z</time>
      </trkpt>
      <trkpt lat="43.9363" lon="7.41117">
        <ele>777.699</ele>
        <time>2016-07-08T12:14:24Z</time>
      </trkpt>
      <trkpt lat="43.9361" lon="7.41093">
        <ele>776.792</ele>
        <time>2016-07-08T12:14:28Z</time>
      </trkpt>
      <trkpt lat="43.93557" lon="7.41044">
        <ele>772.363</ele>
        <time>2016-07-08T12:14:39Z</time>
      </trkpt>
      <trkpt lat="43.93539" lon="7.41034">
        <ele>772.644</ele>
        <time>2016-07-08T12:14:42Z</time>
      </trkpt>
      <trkpt lat="43.93511" lon="7.41025">
        <ele>772.188</ele>
        <time>2016-07-08T12:14:47Z</time>
      </trkpt>
      <trkpt lat="43.93485" lon="7.41015">
        <ele>771.652</ele>
        <time>2016-07-08T12:14:51Z</time>
      </trkpt>
      <trkpt lat="43.93476" lon="7.4101">
        <ele>771.527</ele>
        <time>2016-07-08T12:14:53Z</time>
      </trkpt>
      <trkpt lat="43.93422" lon="7.40966">
        <ele>776.103</ele>
        <time>2016-07-08T12:15:03Z</time>
      </trkpt>
      <trkpt lat="43.93414" lon="7.40962">
        <ele>777.129</ele>
        <time>2016-07-08T12:15:05Z</time>
      </trkpt>
      <trkpt lat="43.93406" lon="7.4096">
        <ele>778.301</ele>
        <time>2016-07-08T12:15:06Z</time>
      </trkpt>
      <trkpt lat="43.93383" lon="7.40961">
        <ele>777.702</ele>
        <time>2016-07-08T12:15:10Z</time>
      </trkpt>
      <trkpt lat="43.93325" lon="7.40952">
        <ele>775.702</ele>
        <time>2016-07-08T12:15:20Z</time>
      </trkpt>
      <trkpt lat="43.93263" lon="7.40948">
        <ele>777.348</ele>
        <time>2016-07-08T12:15:30Z</time>
      </trkpt>
      <trkpt lat="43.93233" lon="7.40949">
        <ele>776.808</ele>
        <time>2016-07-08T12:15:35Z</time>
      </trkpt>
      <trkpt lat="43.93181" lon="7.40957">
        <ele>774.777</ele>
        <time>2016-07-08T12:15:44Z</time>
      </trkpt>
      <trkpt lat="43.93139" lon="7.4096">
        <ele>773.284</ele>
        <time>2016-07-08T12:15:50Z</time>
      </trkpt>
      <trkpt lat="43.93125" lon="7.40958">
        <ele>772.644</ele>
        <time>2016-07-08T12:15:53Z</time>
      </trkpt>
      <trkpt lat="43.93119" lon="7.40954">
        <ele>773.724</ele>
        <time>2016-07-08T12:15:54Z</time>
      </trkpt>
      <trkpt lat="43.931" lon="7.4093">
        <ele>779.68</ele>
        <time>2016-07-08T12:15:58Z</time>
      </trkpt>
      <trkpt lat="43.93091" lon="7.40922">
        <ele>780.652</ele>
        <time>2016-07-08T12:16:00Z</time>
      </trkpt>
      <trkpt lat="43.93076" lon="7.40921">
        <ele>780.429</ele>
        <time>2016-07-08T12:16:02Z</time>
      </trkpt>
      <trkpt lat="43.93067" lon="7.40923">
        <ele>780.846</ele>
        <time>2016-07-08T12:16:04Z</time>
      </trkpt>
      <trkpt lat="43.93056" lon="7.40929">
        <ele>780.393</ele>
        <time>2016-07-08T12:16:06Z</time>
      </trkpt>
      <trkpt lat="43.93049" lon="7.40935">
        <ele>781.25</ele>
        <time>2016-07-08T12:16:07Z</time>
      </trkpt>
      <trkpt lat="43.93034" lon="7.40954">
        <ele>777.048</ele>
        <time>2016-07-08T12:16:11Z</time>
      </trkpt>
      <trkpt lat="43.92989" lon="7.40995">
        <ele>779.359</ele>
        <time>2016-07-08T12:16:20Z</time>
      </trkpt>
      <trkpt lat="43.92963" lon="7.41024">
        <ele>784.804</ele>
        <time>2016-07-08T12:16:25Z</time>
      </trkpt>
      <trkpt lat="43.9294" lon="7.41058">
        <ele>785.376</ele>
        <time>2016-07-08T12:16:31Z</time>
      </trkpt>
      <trkpt lat="43.92918" lon="7.41098">
        <ele>785.111</ele>
        <time>2016-07-08T12:16:37Z</time>
      </trkpt>
      <trkpt lat="43.92902" lon="7.41144">
        <ele>774.312</ele>
        <time>2016-07-08T12:16:43Z</time>
      </trkpt>
      <trkpt lat="43.92893" lon="7.41158">
        <ele>772.656</ele>
        <time>2016-07-08T12:16:45Z</time>
      </trkpt>
      <trkpt lat="43.92882" lon="7.41166">
        <ele>772.256</ele>
        <time>2016-07-08T12:16:47Z</time>
      </trkpt>
      <trkpt lat="43.92839" lon="7.41185">
        <ele>776.087</ele>
        <time>2016-07-08T12:16:55Z</time>
      </trkpt>
      <trkpt lat="43.92831" lon="7.41193">
        <ele>776.036</ele>
        <time>2016-07-08T12:16:56Z</time>
      </trkpt>
      <trkpt lat="43.92822" lon="7.41206">
        <ele>776.6</ele>
        <time>2016-07-08T12:16:58Z</time>
      </trkpt>
      <trkpt lat="43.92804" lon="7.41242">
        <ele>777.944</ele>
        <time>2016-07-08T12:17:04Z</time>
      </trkpt>
      <trkpt lat="43.92795" lon="7.41273">
        <ele>776.283</ele>
        <time>2016-07-08T12:17:08Z</time>
      </trkpt>
      <trkpt lat="43.92792" lon="7.41312">
        <ele>771.362</ele>
        <time>2016-07-08T12:17:12Z</time>
      </trkpt>
      <trkpt lat="43.92796" lon="7.41365">
        <ele>764.064</ele>
        <time>2016-07-08T12:17:19Z</time>
      </trkpt>
      <trkpt lat="43.92793" lon="7.41388">
        <ele>760.513</ele>
        <time>2016-07-08T12:17:21Z</time>
      </trkpt>
      <trkpt lat="43.92787" lon="7.41397">
        <ele>758.96</ele>
        <time>2016-07-08T12:17:23Z</time>
      </trkpt>
      <trkpt lat="43.92775" lon="7.41402">
        <ele>757.896</ele>
        <time>2016-07-08T12:17:25Z</time>
      </trkpt>
      <trkpt lat="43.92771" lon="7.41401">
        <ele>756.996</ele>
        <time>2016-07-08T12:17:26Z</time>
      </trkpt>
      <trkpt lat="43.92761" lon="7.41395">
        <ele>755.628</ele>
        <time>2016-07-08T12:17:27Z</time>
      </trkpt>
      <trkpt lat="43.92757" lon="7.4139">
        <ele>755.736</ele>
        <time>2016-07-08T12:17:28Z</time>
      </trkpt>
      <trkpt lat="43.92753" lon="7.41379">
        <ele>755.73</ele>
        <time>2016-07-08T12:17:30Z</time>
      </trkpt>
      <trkpt lat="43.92743" lon="7.41314">
        <ele>762.944</ele>
        <time>2016-07-08T12:17:38Z</time>
      </trkpt>
      <trkpt lat="43.92738" lon="7.41291">
        <ele>768.417</ele>
        <time>2016-07-08T12:17:41Z</time>
      </trkpt>
      <trkpt lat="43.9272" lon="7.41254">
        <ele>772.061</ele>
        <time>2016-07-08T12:17:46Z</time>
      </trkpt>
      <trkpt lat="43.92697" lon="7.41214">
        <ele>776.418</ele>
        <time>2016-07-08T12:17:52Z</time>
      </trkpt>
      <trkpt lat="43.92686" lon="7.412">
        <ele>778.56</ele>
        <time>2016-07-08T12:17:55Z</time>
      </trkpt>
      <trkpt lat="43.92672" lon="7.41186">
        <ele>779.451</ele>
        <time>2016-07-08T12:17:57Z</time>
      </trkpt>
      <trkpt lat="43.92625" lon="7.41152">
        <ele>778.864</ele>
        <time>2016-07-08T12:18:06Z</time>
      </trkpt>
      <trkpt lat="43.92595" lon="7.41127">
        <ele>783.304</ele>
        <time>2016-07-08T12:18:12Z</time>
      </trkpt>
      <trkpt lat="43.92584" lon="7.41125">
        <ele>782.596</ele>
        <time>2016-07-08T12:18:14Z</time>
      </trkpt>
      <trkpt lat="43.9258" lon="7.41127">
        <ele>781.907</ele>
        <time>2016-07-08T12:18:15Z</time>
      </trkpt>
      <trkpt lat="43.9255" lon="7.41151">
        <ele>772.998</ele>
        <time>2016-07-08T12:18:20Z</time>
      </trkpt>
      <trkpt lat="43.9252" lon="7.41167">
        <ele>772.465</ele>
        <time>2016-07-08T12:18:26Z</time>
      </trkpt>
      <trkpt lat="43.92467" lon="7.41206">
        <ele>763.788</ele>
        <time>2016-07-08T12:18:36Z</time>
      </trkpt>
      <trkpt lat="43.92452" lon="7.41205">
        <ele>761.485</ele>
        <time>2016-07-08T12:18:38Z</time>
      </trkpt>
      <trkpt lat="43.92441" lon="7.41194">
        <ele>764.062</ele>
        <time>2016-07-08T12:18:40Z</time>
      </trkpt>
      <trkpt lat="43.92412" lon="7.41159">
        <ele>769.864</ele>
        <time>2016-07-08T12:18:47Z</time>
      </trkpt>
      <trkpt lat="43.924" lon="7.41149">
        <ele>771.54</ele>
        <time>2016-07-08T12:18:49Z</time>
      </trkpt>
      <trkpt lat="43.92382" lon="7.41141">
        <ele>771.897</ele>
        <time>2016-07-08T12:18:52Z</time>
      </trkpt>
      <trkpt lat="43.9237" lon="7.41138">
        <ele>770.839</ele>
        <time>2016-07-08T12:18:54Z</time>
      </trkpt>
      <trkpt lat="43.92326" lon="7.41134">
        <ele>770.149</ele>
        <time>2016-07-08T12:19:02Z</time>
      </trkpt>
      <trkpt lat="43.92307" lon="7.41134">
        <ele>768.419</ele>
        <time>2016-07-08T12:19:05Z</time>
      </trkpt>
      <trkpt lat="43.92287" lon="7.41138">
        <ele>763.573</ele>
        <time>2016-07-08T12:19:08Z</time>
      </trkpt>
      <trkpt lat="43.92274" lon="7.41138">
        <ele>761.318</ele>
        <time>2016-07-08T12:19:10Z</time>
      </trkpt>
      <trkpt lat="43.92264" lon="7.41131">
        <ele>759.599</ele>
        <time>2016-07-08T12:19:12Z</time>
      </trkpt>
      <trkpt lat="43.9226" lon="7.41109">
        <ele>758.91</ele>
        <time>2016-07-08T12:19:15Z</time>
      </trkpt>
      <trkpt lat="43.92262" lon="7.41096">
        <ele>757.638</ele>
        <time>2016-07-08T12:19:16Z</time>
      </trkpt>
      <trkpt lat="43.92291" lon="7.40993">
        <ele>756.704</ele>
        <time>2016-07-08T12:19:30Z</time>
      </trkpt>
      <trkpt lat="43.92293" lon="7.40974">
        <ele>756.338</ele>
        <time>2016-07-08T12:19:32Z</time>
      </trkpt>
      <trkpt lat="43.92292" lon="7.40966">
        <ele>755.621</ele>
        <time>2016-07-08T12:19:33Z</time>
      </trkpt>
      <trkpt lat="43.92288" lon="7.40955">
        <ele>752.844</ele>
        <time>2016-07-08T12:19:34Z</time>
      </trkpt>
      <trkpt lat="43.92275" lon="7.40935">
        <ele>745.274</ele>
        <time>2016-07-08T12:19:38Z</time>
      </trkpt>
      <trkpt lat="43.9226" lon="7.40905">
        <ele>742.875</ele>
        <time>2016-07-08T12:19:42Z</time>
      </trkpt>
      <trkpt lat="43.92251" lon="7.40876">
        <ele>740.265</ele>
        <time>2016-07-08T12:19:46Z</time>
      </trkpt>
      <trkpt lat="43.92248" lon="7.40856">
        <ele>734.8</ele>
        <time>2016-07-08T12:19:48Z</time>
      </trkpt>
      <trkpt lat="43.92251" lon="7.40845">
        <ele>737.244</ele>
        <time>2016-07-08T12:19:49Z</time>
      </trkpt>
      <trkpt lat="43.92258" lon="7.40834">
        <ele>743.189</ele>
        <time>2016-07-08T12:19:51Z</time>
      </trkpt>
      <trkpt lat="43.92262" lon="7.40824">
        <ele>750.259</ele>
        <time>2016-07-08T12:19:53Z</time>
      </trkpt>
      <trkpt lat="43.92266" lon="7.40794">
        <ele>765.225</ele>
        <time>2016-07-08T12:19:56Z</time>
      </trkpt>
      <trkpt lat="43.92265" lon="7.40775">
        <ele>769.97</ele>
        <time>2016-07-08T12:19:59Z</time>
      </trkpt>
      <trkpt lat="43.92259" lon="7.4076">
        <ele>764.667</ele>
        <time>2016-07-08T12:20:01Z</time>
      </trkpt>
      <trkpt lat="43.92253" lon="7.40753">
        <ele>760.11</ele>
        <time>2016-07-08T12:20:02Z</time>
      </trkpt>
      <trkpt lat="43.92239" lon="7.40747">
        <ele>744.417</ele>
        <time>2016-07-08T12:20:04Z</time>
      </trkpt>
      <trkpt lat="43.92221" lon="7.40731">
        <ele>727.548</ele>
        <time>2016-07-08T12:20:08Z</time>
      </trkpt>
      <trkpt lat="43.92218" lon="7.4073">
        <ele>725.568</ele>
        <time>2016-07-08T12:20:08Z</time>
      </trkpt>
      <trkpt lat="43.92214" lon="7.40732">
        <ele>721.968</ele>
        <time>2016-07-08T12:20:09Z</time>
      </trkpt>
      <trkpt lat="43.92213" lon="7.4074">
        <ele>718.908</ele>
        <time>2016-07-08T12:20:10Z</time>
      </trkpt>
      <trkpt lat="43.92216" lon="7.40744">
        <ele>720.024</ele>
        <time>2016-07-08T12:20:11Z</time>
      </trkpt>
      <trkpt lat="43.92226" lon="7.4075">
        <ele>727.76</ele>
        <time>2016-07-08T12:20:13Z</time>
      </trkpt>
      <trkpt lat="43.92245" lon="7.40754">
        <ele>751.464</ele>
        <time>2016-07-08T12:20:16Z</time>
      </trkpt>
      <trkpt lat="43.92247" lon="7.40756">
        <ele>753.835</ele>
        <time>2016-07-08T12:20:16Z</time>
      </trkpt>
      <trkpt lat="43.92249" lon="7.40764">
        <ele>755.768</ele>
        <time>2016-07-08T12:20:17Z</time>
      </trkpt>
      <trkpt lat="43.92246" lon="7.40768">
        <ele>751.851</ele>
        <time>2016-07-08T12:20:18Z</time>
      </trkpt>
      <trkpt lat="43.92244" lon="7.40768">
        <ele>749.424</ele>
        <time>2016-07-08T12:20:18Z</time>
      </trkpt>
      <trkpt lat="43.92213" lon="7.40748">
        <ele>716.604</ele>
        <time>2016-07-08T12:20:24Z</time>
      </trkpt>
      <trkpt lat="43.92208" lon="7.40742">
        <ele>714.552</ele>
        <time>2016-07-08T12:20:25Z</time>
      </trkpt>
      <trkpt lat="43.92205" lon="7.40731">
        <ele>715.452</ele>
        <time>2016-07-08T12:20:26Z</time>
      </trkpt>
      <trkpt lat="43.92204" lon="7.40719">
        <ele>719.033</ele>
        <time>2016-07-08T12:20:28Z</time>
      </trkpt>
      <trkpt lat="43.92207" lon="7.40702">
        <ele>730.293</ele>
        <time>2016-07-08T12:20:30Z</time>
      </trkpt>
      <trkpt lat="43.92213" lon="7.40688">
        <ele>739.749</ele>
        <time>2016-07-08T12:20:32Z</time>
      </trkpt>
      <trkpt lat="43.92217" lon="7.40671">
        <ele>747.967</ele>
        <time>2016-07-08T12:20:34Z</time>
      </trkpt>
      <trkpt lat="43.92215" lon="7.40656">
        <ele>751.761</ele>
        <time>2016-07-08T12:20:36Z</time>
      </trkpt>
      <trkpt lat="43.92212" lon="7.4065">
        <ele>751.67</ele>
        <time>2016-07-08T12:20:37Z</time>
      </trkpt>
      <trkpt lat="43.92207" lon="7.40646">
        <ele>749.462</ele>
        <time>2016-07-08T12:20:38Z</time>
      </trkpt>
      <trkpt lat="43.92165" lon="7.40635">
        <ele>733.874</ele>
        <time>2016-07-08T12:20:45Z</time>
      </trkpt>
      <trkpt lat="43.92144" lon="7.40641">
        <ele>726.48</ele>
        <time>2016-07-08T12:20:48Z</time>
      </trkpt>
      <trkpt lat="43.92137" lon="7.40641">
        <ele>724.683</ele>
        <time>2016-07-08T12:20:49Z</time>
      </trkpt>
      <trkpt lat="43.92097" lon="7.40639">
        <ele>715.902</ele>
        <time>2016-07-08T12:20:56Z</time>
      </trkpt>
      <trkpt lat="43.92058" lon="7.40633">
        <ele>712.937</ele>
        <time>2016-07-08T12:21:03Z</time>
      </trkpt>
      <trkpt lat="43.92041" lon="7.40627">
        <ele>713.356</ele>
        <time>2016-07-08T12:21:05Z</time>
      </trkpt>
      <trkpt lat="43.92004" lon="7.40609">
        <ele>708.194</ele>
        <time>2016-07-08T12:21:12Z</time>
      </trkpt>
      <trkpt lat="43.91997" lon="7.40611">
        <ele>703.319</ele>
        <time>2016-07-08T12:21:13Z</time>
      </trkpt>
      <trkpt lat="43.91996" lon="7.40616">
        <ele>700.132</ele>
        <time>2016-07-08T12:21:14Z</time>
      </trkpt>
      <trkpt lat="43.91997" lon="7.40621">
        <ele>698.047</ele>
        <time>2016-07-08T12:21:14Z</time>
      </trkpt>
      <trkpt lat="43.92004" lon="7.40626">
        <ele>699.032</ele>
        <time>2016-07-08T12:21:16Z</time>
      </trkpt>
      <trkpt lat="43.92101" lon="7.40654">
        <ele>710.09</ele>
        <time>2016-07-08T12:21:32Z</time>
      </trkpt>
      <trkpt lat="43.92121" lon="7.40656">
        <ele>714.319</ele>
        <time>2016-07-08T12:21:35Z</time>
      </trkpt>
      <trkpt lat="43.92133" lon="7.40654">
        <ele>718.417</ele>
        <time>2016-07-08T12:21:37Z</time>
      </trkpt>
      <trkpt lat="43.92138" lon="7.40656">
        <ele>718.98</ele>
        <time>2016-07-08T12:21:38Z</time>
      </trkpt>
      <trkpt lat="43.92138" lon="7.40665">
        <ele>715.406</ele>
        <time>2016-07-08T12:21:39Z</time>
      </trkpt>
      <trkpt lat="43.92135" lon="7.40667">
        <ele>713.715</ele>
        <time>2016-07-08T12:21:40Z</time>
      </trkpt>
      <trkpt lat="43.92131" lon="7.40667">
        <ele>712.567</ele>
        <time>2016-07-08T12:21:41Z</time>
      </trkpt>
      <trkpt lat="43.92127" lon="7.40665">
        <ele>712.262</ele>
        <time>2016-07-08T12:21:41Z</time>
      </trkpt>
      <trkpt lat="43.92103" lon="7.40663">
        <ele>706.579</ele>
        <time>2016-07-08T12:21:45Z</time>
      </trkpt>
      <trkpt lat="43.92082" lon="7.40658">
        <ele>703.732</ele>
        <time>2016-07-08T12:21:49Z</time>
      </trkpt>
      <trkpt lat="43.92027" lon="7.4064">
        <ele>701.882</ele>
        <time>2016-07-08T12:21:58Z</time>
      </trkpt>
      <trkpt lat="43.91994" lon="7.40634">
        <ele>689.718</ele>
        <time>2016-07-08T12:22:04Z</time>
      </trkpt>
      <trkpt lat="43.91989" lon="7.40628">
        <ele>690.266</ele>
        <time>2016-07-08T12:22:05Z</time>
      </trkpt>
      <trkpt lat="43.9198" lon="7.406">
        <ele>697.416</ele>
        <time>2016-07-08T12:22:09Z</time>
      </trkpt>
      <trkpt lat="43.91954" lon="7.40542">
        <ele>694.488</ele>
        <time>2016-07-08T12:22:17Z</time>
      </trkpt>
      <trkpt lat="43.91953" lon="7.40531">
        <ele>695.388</ele>
        <time>2016-07-08T12:22:18Z</time>
      </trkpt>
      <trkpt lat="43.91958" lon="7.40502">
        <ele>704.365</ele>
        <time>2016-07-08T12:22:22Z</time>
      </trkpt>
      <trkpt lat="43.91957" lon="7.40492">
        <ele>706.111</ele>
        <time>2016-07-08T12:22:23Z</time>
      </trkpt>
      <trkpt lat="43.91954" lon="7.4048">
        <ele>707.369</ele>
        <time>2016-07-08T12:22:24Z</time>
      </trkpt>
      <trkpt lat="43.91946" lon="7.40464">
        <ele>706.968</ele>
        <time>2016-07-08T12:22:27Z</time>
      </trkpt>
      <trkpt lat="43.91937" lon="7.40428">
        <ele>714.671</ele>
        <time>2016-07-08T12:22:31Z</time>
      </trkpt>
      <trkpt lat="43.91933" lon="7.40421">
        <ele>715.841</ele>
        <time>2016-07-08T12:22:32Z</time>
      </trkpt>
      <trkpt lat="43.91927" lon="7.40415">
        <ele>716.106</ele>
        <time>2016-07-08T12:22:33Z</time>
      </trkpt>
      <trkpt lat="43.91917" lon="7.40416">
        <ele>713.276</ele>
        <time>2016-07-08T12:22:35Z</time>
      </trkpt>
      <trkpt lat="43.91912" lon="7.40421">
        <ele>711.829</ele>
        <time>2016-07-08T12:22:36Z</time>
      </trkpt>
      <trkpt lat="43.91905" lon="7.40442">
        <ele>705.467</ele>
        <time>2016-07-08T12:22:39Z</time>
      </trkpt>
      <trkpt lat="43.91894" lon="7.40496">
        <ele>688.839</ele>
        <time>2016-07-08T12:22:46Z</time>
      </trkpt>
      <trkpt lat="43.91886" lon="7.40512">
        <ele>688.89</ele>
        <time>2016-07-08T12:22:48Z</time>
      </trkpt>
      <trkpt lat="43.91874" lon="7.40528">
        <ele>696.334</ele>
        <time>2016-07-08T12:22:51Z</time>
      </trkpt>
      <trkpt lat="43.91868" lon="7.4054">
        <ele>697.615</ele>
        <time>2016-07-08T12:22:52Z</time>
      </trkpt>
      <trkpt lat="43.91865" lon="7.40554">
        <ele>694.909</ele>
        <time>2016-07-08T12:22:54Z</time>
      </trkpt>
      <trkpt lat="43.91864" lon="7.40578">
        <ele>686.304</ele>
        <time>2016-07-08T12:22:57Z</time>
      </trkpt>
      <trkpt lat="43.91856" lon="7.40597">
        <ele>686.021</ele>
        <time>2016-07-08T12:23:00Z</time>
      </trkpt>
      <trkpt lat="43.91854" lon="7.4061">
        <ele>683.706</ele>
        <time>2016-07-08T12:23:01Z</time>
      </trkpt>
      <trkpt lat="43.91856" lon="7.40646">
        <ele>672.892</ele>
        <time>2016-07-08T12:23:06Z</time>
      </trkpt>
      <trkpt lat="43.91849" lon="7.40685">
        <ele>674.667</ele>
        <time>2016-07-08T12:23:10Z</time>
      </trkpt>
      <trkpt lat="43.91847" lon="7.40706">
        <ele>672.618</ele>
        <time>2016-07-08T12:23:13Z</time>
      </trkpt>
      <trkpt lat="43.9185" lon="7.40736">
        <ele>661.53</ele>
        <time>2016-07-08T12:23:17Z</time>
      </trkpt>
      <trkpt lat="43.91849" lon="7.40753">
        <ele>659.209</ele>
        <time>2016-07-08T12:23:19Z</time>
      </trkpt>
      <trkpt lat="43.9184" lon="7.40792">
        <ele>667.18</ele>
        <time>2016-07-08T12:23:23Z</time>
      </trkpt>
      <trkpt lat="43.91841" lon="7.40804">
        <ele>664.202</ele>
        <time>2016-07-08T12:23:25Z</time>
      </trkpt>
      <trkpt lat="43.91839" lon="7.4082">
        <ele>660.312</ele>
        <time>2016-07-08T12:23:27Z</time>
      </trkpt>
      <trkpt lat="43.91835" lon="7.40828">
        <ele>660.6</ele>
        <time>2016-07-08T12:23:28Z</time>
      </trkpt>
      <trkpt lat="43.91826" lon="7.40829">
        <ele>660.141</ele>
        <time>2016-07-08T12:23:30Z</time>
      </trkpt>
      <trkpt lat="43.91814" lon="7.40823">
        <ele>660.58</ele>
        <time>2016-07-08T12:23:32Z</time>
      </trkpt>
      <trkpt lat="43.91801" lon="7.40812">
        <ele>663.894</ele>
        <time>2016-07-08T12:23:34Z</time>
      </trkpt>
      <trkpt lat="43.91761" lon="7.40786">
        <ele>680.906</ele>
        <time>2016-07-08T12:23:41Z</time>
      </trkpt>
      <trkpt lat="43.91753" lon="7.40775">
        <ele>694.855</ele>
        <time>2016-07-08T12:23:43Z</time>
      </trkpt>
      <trkpt lat="43.91744" lon="7.40767">
        <ele>700.688</ele>
        <time>2016-07-08T12:23:45Z</time>
      </trkpt>
      <trkpt lat="43.91735" lon="7.40762">
        <ele>704.095</ele>
        <time>2016-07-08T12:23:47Z</time>
      </trkpt>
      <trkpt lat="43.91723" lon="7.40763">
        <ele>704.394</ele>
        <time>2016-07-08T12:23:49Z</time>
      </trkpt>
      <trkpt lat="43.91698" lon="7.40788">
        <ele>701.025</ele>
        <time>2016-07-08T12:23:54Z</time>
      </trkpt>
      <trkpt lat="43.91687" lon="7.40794">
        <ele>700.177</ele>
        <time>2016-07-08T12:23:56Z</time>
      </trkpt>
      <trkpt lat="43.91681" lon="7.40795">
        <ele>700.288</ele>
        <time>2016-07-08T12:23:57Z</time>
      </trkpt>
      <trkpt lat="43.91667" lon="7.40803">
        <ele>695.913</ele>
        <time>2016-07-08T12:23:59Z</time>
      </trkpt>
      <trkpt lat="43.91658" lon="7.40811">
        <ele>692.723</ele>
        <time>2016-07-08T12:24:01Z</time>
      </trkpt>
      <trkpt lat="43.91649" lon="7.40823">
        <ele>688.338</ele>
        <time>2016-07-08T12:24:03Z</time>
      </trkpt>
      <trkpt lat="43.91648" lon="7.40837">
        <ele>678.432</ele>
        <time>2016-07-08T12:24:05Z</time>
      </trkpt>
      <trkpt lat="43.91657" lon="7.40863">
        <ele>642.082</ele>
        <time>2016-07-08T12:24:08Z</time>
      </trkpt>
      <trkpt lat="43.91657" lon="7.4088">
        <ele>631.837</ele>
        <time>2016-07-08T12:24:10Z</time>
      </trkpt>
      <trkpt lat="43.91652" lon="7.40897">
        <ele>624.711</ele>
        <time>2016-07-08T12:24:13Z</time>
      </trkpt>
      <trkpt lat="43.91648" lon="7.40933">
        <ele>618.155</ele>
        <time>2016-07-08T12:24:17Z</time>
      </trkpt>
      <trkpt lat="43.91643" lon="7.40942">
        <ele>621.975</ele>
        <time>2016-07-08T12:24:18Z</time>
      </trkpt>
      <trkpt lat="43.91637" lon="7.40946">
        <ele>624.789</ele>
        <time>2016-07-08T12:24:19Z</time>
      </trkpt>
      <trkpt lat="43.91593" lon="7.40951">
        <ele>629.533</ele>
        <time>2016-07-08T12:24:27Z</time>
      </trkpt>
      <trkpt lat="43.91574" lon="7.40955">
        <ele>624.719</ele>
        <time>2016-07-08T12:24:30Z</time>
      </trkpt>
      <trkpt lat="43.91565" lon="7.40952">
        <ele>621.254</ele>
        <time>2016-07-08T12:24:31Z</time>
      </trkpt>
      <trkpt lat="43.91562" lon="7.40946">
        <ele>619.844</ele>
        <time>2016-07-08T12:24:32Z</time>
      </trkpt>
      <trkpt lat="43.91558" lon="7.40917">
        <ele>624.332</ele>
        <time>2016-07-08T12:24:36Z</time>
      </trkpt>
      <trkpt lat="43.91558" lon="7.40901">
        <ele>633.748</ele>
        <time>2016-07-08T12:24:38Z</time>
      </trkpt>
      <trkpt lat="43.91561" lon="7.40892">
        <ele>640.362</ele>
        <time>2016-07-08T12:24:39Z</time>
      </trkpt>
      <trkpt lat="43.91561" lon="7.40884">
        <ele>644.203</ele>
        <time>2016-07-08T12:24:40Z</time>
      </trkpt>
      <trkpt lat="43.91559" lon="7.40879">
        <ele>645.683</ele>
        <time>2016-07-08T12:24:41Z</time>
      </trkpt>
      <trkpt lat="43.91553" lon="7.40879">
        <ele>642.184</ele>
        <time>2016-07-08T12:24:42Z</time>
      </trkpt>
      <trkpt lat="43.91549" lon="7.40887">
        <ele>635.296</ele>
        <time>2016-07-08T12:24:43Z</time>
      </trkpt>
      <trkpt lat="43.91556" lon="7.40932">
        <ele>619.909</ele>
        <time>2016-07-08T12:24:48Z</time>
      </trkpt>
      <trkpt lat="43.91562" lon="7.40951">
        <ele>620.037</ele>
        <time>2016-07-08T12:24:51Z</time>
      </trkpt>
      <trkpt lat="43.91561" lon="7.40962">
        <ele>620.121</ele>
        <time>2016-07-08T12:24:52Z</time>
      </trkpt>
      <trkpt lat="43.91558" lon="7.40967">
        <ele>619.394</ele>
        <time>2016-07-08T12:24:53Z</time>
      </trkpt>
      <trkpt lat="43.91554" lon="7.40967">
        <ele>617.249</ele>
        <time>2016-07-08T12:24:53Z</time>
      </trkpt>
      <trkpt lat="43.91552" lon="7.40962">
        <ele>615.42</ele>
        <time>2016-07-08T12:24:54Z</time>
      </trkpt>
      <trkpt lat="43.91553" lon="7.40936">
        <ele>617.061</ele>
        <time>2016-07-08T12:24:57Z</time>
      </trkpt>
      <trkpt lat="43.91547" lon="7.40891">
        <ele>631.437</ele>
        <time>2016-07-08T12:25:03Z</time>
      </trkpt>
      <trkpt lat="43.91547" lon="7.40879">
        <ele>636.448</ele>
        <time>2016-07-08T12:25:04Z</time>
      </trkpt>
      <trkpt lat="43.9154" lon="7.40841">
        <ele>639.212</ele>
        <time>2016-07-08T12:25:09Z</time>
      </trkpt>
      <trkpt lat="43.9153" lon="7.40806">
        <ele>635.621</ele>
        <time>2016-07-08T12:25:13Z</time>
      </trkpt>
      <trkpt lat="43.9153" lon="7.40775">
        <ele>665.756</ele>
        <time>2016-07-08T12:25:17Z</time>
      </trkpt>
      <trkpt lat="43.91527" lon="7.40751">
        <ele>670.185</ele>
        <time>2016-07-08T12:25:20Z</time>
      </trkpt>
      <trkpt lat="43.91521" lon="7.40734">
        <ele>669.998</ele>
        <time>2016-07-08T12:25:22Z</time>
      </trkpt>
      <trkpt lat="43.91511" lon="7.40719">
        <ele>662.197</ele>
        <time>2016-07-08T12:25:25Z</time>
      </trkpt>
      <trkpt lat="43.91486" lon="7.40695">
        <ele>644.071</ele>
        <time>2016-07-08T12:25:30Z</time>
      </trkpt>
      <trkpt lat="43.91481" lon="7.40692">
        <ele>639.792</ele>
        <time>2016-07-08T12:25:31Z</time>
      </trkpt>
      <trkpt lat="43.9147" lon="7.40676">
        <ele>640.462</ele>
        <time>2016-07-08T12:25:33Z</time>
      </trkpt>
      <trkpt lat="43.91463" lon="7.40671">
        <ele>645.832</ele>
        <time>2016-07-08T12:25:35Z</time>
      </trkpt>
      <trkpt lat="43.91459" lon="7.40671">
        <ele>646.679</ele>
        <time>2016-07-08T12:25:35Z</time>
      </trkpt>
      <trkpt lat="43.91454" lon="7.40674">
        <ele>644.16</ele>
        <time>2016-07-08T12:25:36Z</time>
      </trkpt>
      <trkpt lat="43.91441" lon="7.40687">
        <ele>625.71</ele>
        <time>2016-07-08T12:25:39Z</time>
      </trkpt>
      <trkpt lat="43.91429" lon="7.40695">
        <ele>612.288</ele>
        <time>2016-07-08T12:25:41Z</time>
      </trkpt>
      <trkpt lat="43.91419" lon="7.40698">
        <ele>608.285</ele>
        <time>2016-07-08T12:25:43Z</time>
      </trkpt>
      <trkpt lat="43.91345" lon="7.40701">
        <ele>600.002</ele>
        <time>2016-07-08T12:25:55Z</time>
      </trkpt>
      <trkpt lat="43.91333" lon="7.40706">
        <ele>598.265</ele>
        <time>2016-07-08T12:25:57Z</time>
      </trkpt>
      <trkpt lat="43.91326" lon="7.4071">
        <ele>597.702</ele>
        <time>2016-07-08T12:25:58Z</time>
      </trkpt>
      <trkpt lat="43.91312" lon="7.40729">
        <ele>584.668</ele>
        <time>2016-07-08T12:26:02Z</time>
      </trkpt>
      <trkpt lat="43.91298" lon="7.40742">
        <ele>577.082</ele>
        <time>2016-07-08T12:26:04Z</time>
      </trkpt>
      <trkpt lat="43.91264" lon="7.40766">
        <ele>576.176</ele>
        <time>2016-07-08T12:26:11Z</time>
      </trkpt>
      <trkpt lat="43.91256" lon="7.4077">
        <ele>576.032</ele>
        <time>2016-07-08T12:26:12Z</time>
      </trkpt>
      <trkpt lat="43.91224" lon="7.40774">
        <ele>585.608</ele>
        <time>2016-07-08T12:26:17Z</time>
      </trkpt>
      <trkpt lat="43.91208" lon="7.40784">
        <ele>583.248</ele>
        <time>2016-07-08T12:26:20Z</time>
      </trkpt>
      <trkpt lat="43.91194" lon="7.4079">
        <ele>581.141</ele>
        <time>2016-07-08T12:26:23Z</time>
      </trkpt>
      <trkpt lat="43.91183" lon="7.4079">
        <ele>579.684</ele>
        <time>2016-07-08T12:26:25Z</time>
      </trkpt>
      <trkpt lat="43.91174" lon="7.40787">
        <ele>580.413</ele>
        <time>2016-07-08T12:26:26Z</time>
      </trkpt>
      <trkpt lat="43.91166" lon="7.40782">
        <ele>582.207</ele>
        <time>2016-07-08T12:26:28Z</time>
      </trkpt>
      <trkpt lat="43.91161" lon="7.40783">
        <ele>580.045</ele>
        <time>2016-07-08T12:26:28Z</time>
      </trkpt>
      <trkpt lat="43.91159" lon="7.40785">
        <ele>578.24</ele>
        <time>2016-07-08T12:26:29Z</time>
      </trkpt>
      <trkpt lat="43.9116" lon="7.40795">
        <ele>572.598</ele>
        <time>2016-07-08T12:26:30Z</time>
      </trkpt>
      <trkpt lat="43.91164" lon="7.40797">
        <ele>572.505</ele>
        <time>2016-07-08T12:26:31Z</time>
      </trkpt>
      <trkpt lat="43.91187" lon="7.40799">
        <ele>573.994</ele>
        <time>2016-07-08T12:26:34Z</time>
      </trkpt>
      <trkpt lat="43.91199" lon="7.40798">
        <ele>575.172</ele>
        <time>2016-07-08T12:26:36Z</time>
      </trkpt>
      <trkpt lat="43.9121" lon="7.40795">
        <ele>576.323</ele>
        <time>2016-07-08T12:26:38Z</time>
      </trkpt>
      <trkpt lat="43.91219" lon="7.4079">
        <ele>578.23</ele>
        <time>2016-07-08T12:26:40Z</time>
      </trkpt>
      <trkpt lat="43.91249" lon="7.40779">
        <ele>572.95</ele>
        <time>2016-07-08T12:26:45Z</time>
      </trkpt>
      <trkpt lat="43.91259" lon="7.40781">
        <ele>569.21</ele>
        <time>2016-07-08T12:26:47Z</time>
      </trkpt>
      <trkpt lat="43.9126" lon="7.40786">
        <ele>567.053</ele>
        <time>2016-07-08T12:26:47Z</time>
      </trkpt>
      <trkpt lat="43.91256" lon="7.40792">
        <ele>566.041</ele>
        <time>2016-07-08T12:26:48Z</time>
      </trkpt>
      <trkpt lat="43.91234" lon="7.40792">
        <ele>573.036</ele>
        <time>2016-07-08T12:26:52Z</time>
      </trkpt>
      <trkpt lat="43.91211" lon="7.40799">
        <ele>573.876</ele>
        <time>2016-07-08T12:26:56Z</time>
      </trkpt>
      <trkpt lat="43.9119" lon="7.40809">
        <ele>568.356</ele>
        <time>2016-07-08T12:27:00Z</time>
      </trkpt>
      <trkpt lat="43.9118" lon="7.40811">
        <ele>567.008</ele>
        <time>2016-07-08T12:27:01Z</time>
      </trkpt>
      <trkpt lat="43.91172" lon="7.40811">
        <ele>566.545</ele>
        <time>2016-07-08T12:27:03Z</time>
      </trkpt>
      <trkpt lat="43.91163" lon="7.40808">
        <ele>566.296</ele>
        <time>2016-07-08T12:27:04Z</time>
      </trkpt>
      <trkpt lat="43.91141" lon="7.40792">
        <ele>568.926</ele>
        <time>2016-07-08T12:27:08Z</time>
      </trkpt>
      <trkpt lat="43.91113" lon="7.40776">
        <ele>571.085</ele>
        <time>2016-07-08T12:27:13Z</time>
      </trkpt>
      <trkpt lat="43.91103" lon="7.40772">
        <ele>571.28</ele>
        <time>2016-07-08T12:27:15Z</time>
      </trkpt>
      <trkpt lat="43.91088" lon="7.40769">
        <ele>568.58</ele>
        <time>2016-07-08T12:27:18Z</time>
      </trkpt>
      <trkpt lat="43.91041" lon="7.40765">
        <ele>556.221</ele>
        <time>2016-07-08T12:27:25Z</time>
      </trkpt>
      <trkpt lat="43.91033" lon="7.40763">
        <ele>556.224</ele>
        <time>2016-07-08T12:27:27Z</time>
      </trkpt>
      <trkpt lat="43.91" lon="7.40737">
        <ele>567.892</ele>
        <time>2016-07-08T12:27:33Z</time>
      </trkpt>
      <trkpt lat="43.90995" lon="7.40738">
        <ele>565.359</ele>
        <time>2016-07-08T12:27:34Z</time>
      </trkpt>
      <trkpt lat="43.90993" lon="7.4074">
        <ele>563.179</ele>
        <time>2016-07-08T12:27:34Z</time>
      </trkpt>
      <trkpt lat="43.90992" lon="7.40748">
        <ele>556.995</ele>
        <time>2016-07-08T12:27:35Z</time>
      </trkpt>
      <trkpt lat="43.90997" lon="7.40753">
        <ele>555.182</ele>
        <time>2016-07-08T12:27:36Z</time>
      </trkpt>
      <trkpt lat="43.91012" lon="7.40759">
        <ele>554.236</ele>
        <time>2016-07-08T12:27:39Z</time>
      </trkpt>
      <trkpt lat="43.91022" lon="7.40769">
        <ele>548.961</ele>
        <time>2016-07-08T12:27:41Z</time>
      </trkpt>
      <trkpt lat="43.91027" lon="7.40772">
        <ele>548.133</ele>
        <time>2016-07-08T12:27:42Z</time>
      </trkpt>
      <trkpt lat="43.9104" lon="7.40775">
        <ele>547.992</ele>
        <time>2016-07-08T12:27:44Z</time>
      </trkpt>
      <trkpt lat="43.91069" lon="7.40777">
        <ele>554.01</ele>
        <time>2016-07-08T12:27:49Z</time>
      </trkpt>
      <trkpt lat="43.91085" lon="7.4078">
        <ele>558.405</ele>
        <time>2016-07-08T12:27:51Z</time>
      </trkpt>
      <trkpt lat="43.91094" lon="7.40784">
        <ele>559.566</ele>
        <time>2016-07-08T12:27:53Z</time>
      </trkpt>
      <trkpt lat="43.9111" lon="7.40797">
        <ele>558.884</ele>
        <time>2016-07-08T12:27:56Z</time>
      </trkpt>
      <trkpt lat="43.91137" lon="7.40811">
        <ele>558.984</ele>
        <time>2016-07-08T12:28:01Z</time>
      </trkpt>
      <trkpt lat="43.91139" lon="7.40819">
        <ele>557.154</ele>
        <time>2016-07-08T12:28:02Z</time>
      </trkpt>
      <trkpt lat="43.91134" lon="7.40823">
        <ele>554.588</ele>
        <time>2016-07-08T12:28:03Z</time>
      </trkpt>
      <trkpt lat="43.91099" lon="7.40792">
        <ele>557.249</ele>
        <time>2016-07-08T12:28:10Z</time>
      </trkpt>
      <trkpt lat="43.91088" lon="7.40789">
        <ele>554.688</ele>
        <time>2016-07-08T12:28:12Z</time>
      </trkpt>
      <trkpt lat="43.91075" lon="7.40789">
        <ele>550.004</ele>
        <time>2016-07-08T12:28:14Z</time>
      </trkpt>
      <trkpt lat="43.91066" lon="7.40787">
        <ele>547.778</ele>
        <time>2016-07-08T12:28:15Z</time>
      </trkpt>
      <trkpt lat="43.91055" lon="7.40784">
        <ele>545.259</ele>
        <time>2016-07-08T12:28:17Z</time>
      </trkpt>
      <trkpt lat="43.91051" lon="7.40781">
        <ele>546.066</ele>
        <time>2016-07-08T12:28:18Z</time>
      </trkpt>
      <trkpt lat="43.91034" lon="7.40775">
        <ele>547.063</ele>
        <time>2016-07-08T12:28:21Z</time>
      </trkpt>
      <trkpt lat="43.91001" lon="7.40768">
        <ele>543.734</ele>
        <time>2016-07-08T12:28:26Z</time>
      </trkpt>
      <trkpt lat="43.90977" lon="7.40761">
        <ele>541.527</ele>
        <time>2016-07-08T12:28:30Z</time>
      </trkpt>
      <trkpt lat="43.90941" lon="7.40741">
        <ele>544.371</ele>
        <time>2016-07-08T12:28:37Z</time>
      </trkpt>
      <trkpt lat="43.90926" lon="7.40735">
        <ele>543.001</ele>
        <time>2016-07-08T12:28:39Z</time>
      </trkpt>
      <trkpt lat="43.90907" lon="7.40722">
        <ele>545.062</ele>
        <time>2016-07-08T12:28:43Z</time>
      </trkpt>
      <trkpt lat="43.90899" lon="7.40718">
        <ele>545.889</ele>
        <time>2016-07-08T12:28:44Z</time>
      </trkpt>
      <trkpt lat="43.90892" lon="7.40717">
        <ele>545.321</ele>
        <time>2016-07-08T12:28:45Z</time>
      </trkpt>
      <trkpt lat="43.90887" lon="7.40719">
        <ele>544.252</ele>
        <time>2016-07-08T12:28:46Z</time>
      </trkpt>
      <trkpt lat="43.90882" lon="7.40728">
        <ele>540.025</ele>
        <time>2016-07-08T12:28:48Z</time>
      </trkpt>
      <trkpt lat="43.90872" lon="7.40739">
        <ele>533.814</ele>
        <time>2016-07-08T12:28:50Z</time>
      </trkpt>
      <trkpt lat="43.90854" lon="7.40749">
        <ele>528.618</ele>
        <time>2016-07-08T12:28:53Z</time>
      </trkpt>
      <trkpt lat="43.90847" lon="7.40751">
        <ele>528.671</ele>
        <time>2016-07-08T12:28:54Z</time>
      </trkpt>
      <trkpt lat="43.90832" lon="7.4076">
        <ele>527.468</ele>
        <time>2016-07-08T12:28:57Z</time>
      </trkpt>
      <trkpt lat="43.90823" lon="7.40768">
        <ele>526.869</ele>
        <time>2016-07-08T12:28:59Z</time>
      </trkpt>
      <trkpt lat="43.90818" lon="7.4078">
        <ele>523.447</ele>
        <time>2016-07-08T12:29:00Z</time>
      </trkpt>
      <trkpt lat="43.90819" lon="7.40814">
        <ele>518.225</ele>
        <time>2016-07-08T12:29:04Z</time>
      </trkpt>
      <trkpt lat="43.90814" lon="7.40824">
        <ele>517.903</ele>
        <time>2016-07-08T12:29:06Z</time>
      </trkpt>
      <trkpt lat="43.90809" lon="7.40829">
        <ele>517.515</ele>
        <time>2016-07-08T12:29:07Z</time>
      </trkpt>
      <trkpt lat="43.90795" lon="7.40838">
        <ele>520.504</ele>
        <time>2016-07-08T12:29:09Z</time>
      </trkpt>
      <trkpt lat="43.90765" lon="7.40873">
        <ele>535.636</ele>
        <time>2016-07-08T12:29:16Z</time>
      </trkpt>
      <trkpt lat="43.90749" lon="7.40896">
        <ele>536.246</ele>
        <time>2016-07-08T12:29:20Z</time>
      </trkpt>
      <trkpt lat="43.90745" lon="7.40909">
        <ele>530.404</ele>
        <time>2016-07-08T12:29:21Z</time>
      </trkpt>
      <trkpt lat="43.90739" lon="7.40921">
        <ele>525.192</ele>
        <time>2016-07-08T12:29:23Z</time>
      </trkpt>
      <trkpt lat="43.90729" lon="7.40931">
        <ele>524.333</ele>
        <time>2016-07-08T12:29:25Z</time>
      </trkpt>
      <trkpt lat="43.90721" lon="7.40935">
        <ele>523.495</ele>
        <time>2016-07-08T12:29:27Z</time>
      </trkpt>
      <trkpt lat="43.90705" lon="7.40938">
        <ele>528.053</ele>
        <time>2016-07-08T12:29:29Z</time>
      </trkpt>
      <trkpt lat="43.90695" lon="7.40942">
        <ele>527.909</ele>
        <time>2016-07-08T12:29:31Z</time>
      </trkpt>
      <trkpt lat="43.90689" lon="7.40949">
        <ele>556.502</ele>
        <time>2016-07-08T12:29:32Z</time>
      </trkpt>
      <trkpt lat="43.90689" lon="7.40962">
        <ele>576.428</ele>
        <time>2016-07-08T12:29:34Z</time>
      </trkpt>
      <trkpt lat="43.90698" lon="7.40985">
        <ele>581.744</ele>
        <time>2016-07-08T12:29:37Z</time>
      </trkpt>
      <trkpt lat="43.90699" lon="7.40997">
        <ele>581.888</ele>
        <time>2016-07-08T12:29:39Z</time>
      </trkpt>
      <trkpt lat="43.90694" lon="7.41008">
        <ele>592.615</ele>
        <time>2016-07-08T12:29:40Z</time>
      </trkpt>
      <trkpt lat="43.90682" lon="7.41022">
        <ele>601.57</ele>
        <time>2016-07-08T12:29:43Z</time>
      </trkpt>
      <trkpt lat="43.90675" lon="7.41038">
        <ele>600.352</ele>
        <time>2016-07-08T12:29:45Z</time>
      </trkpt>
      <trkpt lat="43.90674" lon="7.41047">
        <ele>593.943</ele>
        <time>2016-07-08T12:29:46Z</time>
      </trkpt>
      <trkpt lat="43.90675" lon="7.41124">
        <ele>558.704</ele>
        <time>2016-07-08T12:29:55Z</time>
      </trkpt>
      <trkpt lat="43.90677" lon="7.41151">
        <ele>564.45</ele>
        <time>2016-07-08T12:29:58Z</time>
      </trkpt>
      <trkpt lat="43.90676" lon="7.41172">
        <ele>567.82</ele>
        <time>2016-07-08T12:30:01Z</time>
      </trkpt>
      <trkpt lat="43.90674" lon="7.41181">
        <ele>572.282</ele>
        <time>2016-07-08T12:30:02Z</time>
      </trkpt>
      <trkpt lat="43.90663" lon="7.41205">
        <ele>576.977</ele>
        <time>2016-07-08T12:30:05Z</time>
      </trkpt>
      <trkpt lat="43.9066" lon="7.41218">
        <ele>575.454</ele>
        <time>2016-07-08T12:30:07Z</time>
      </trkpt>
      <trkpt lat="43.90657" lon="7.41258">
        <ele>555.974</ele>
        <time>2016-07-08T12:30:12Z</time>
      </trkpt>
      <trkpt lat="43.90657" lon="7.41283">
        <ele>542.508</ele>
        <time>2016-07-08T12:30:15Z</time>
      </trkpt>
      <trkpt lat="43.90653" lon="7.41306">
        <ele>529.221</ele>
        <time>2016-07-08T12:30:18Z</time>
      </trkpt>
      <trkpt lat="43.90644" lon="7.41325">
        <ele>519.695</ele>
        <time>2016-07-08T12:30:20Z</time>
      </trkpt>
      <trkpt lat="43.90606" lon="7.41388">
        <ele>502.132</ele>
        <time>2016-07-08T12:30:30Z</time>
      </trkpt>
      <trkpt lat="43.9059" lon="7.41407">
        <ele>499.293</ele>
        <time>2016-07-08T12:30:34Z</time>
      </trkpt>
      <trkpt lat="43.90549" lon="7.41439">
        <ele>498.035</ele>
        <time>2016-07-08T12:30:42Z</time>
      </trkpt>
      <trkpt lat="43.9053" lon="7.41448">
        <ele>495.512</ele>
        <time>2016-07-08T12:30:45Z</time>
      </trkpt>
      <trkpt lat="43.905" lon="7.41459">
        <ele>491.284</ele>
        <time>2016-07-08T12:30:50Z</time>
      </trkpt>
      <trkpt lat="43.90485" lon="7.41459">
        <ele>490.487</ele>
        <time>2016-07-08T12:30:53Z</time>
      </trkpt>
      <trkpt lat="43.90472" lon="7.41454">
        <ele>491.176</ele>
        <time>2016-07-08T12:30:55Z</time>
      </trkpt>
      <trkpt lat="43.90426" lon="7.41416">
        <ele>486.648</ele>
        <time>2016-07-08T12:31:04Z</time>
      </trkpt>
      <trkpt lat="43.90405" lon="7.41406">
        <ele>486.865</ele>
        <time>2016-07-08T12:31:07Z</time>
      </trkpt>
      <trkpt lat="43.90384" lon="7.41399">
        <ele>488.184</ele>
        <time>2016-07-08T12:31:11Z</time>
      </trkpt>
      <trkpt lat="43.90342" lon="7.41392">
        <ele>487.662</ele>
        <time>2016-07-08T12:31:18Z</time>
      </trkpt>
      <trkpt lat="43.90304" lon="7.41387">
        <ele>483.584</ele>
        <time>2016-07-08T12:31:24Z</time>
      </trkpt>
      <trkpt lat="43.90284" lon="7.41387">
        <ele>481.473</ele>
        <time>2016-07-08T12:31:28Z</time>
      </trkpt>
      <trkpt lat="43.90229" lon="7.41396">
        <ele>480.27</ele>
        <time>2016-07-08T12:31:37Z</time>
      </trkpt>
      <trkpt lat="43.9021" lon="7.41401">
        <ele>480.644</ele>
        <time>2016-07-08T12:31:40Z</time>
      </trkpt>
      <trkpt lat="43.90165" lon="7.41431">
        <ele>476.017</ele>
        <time>2016-07-08T12:31:48Z</time>
      </trkpt>
      <trkpt lat="43.90103" lon="7.41455">
        <ele>472.737</ele>
        <time>2016-07-08T12:31:59Z</time>
      </trkpt>
      <trkpt lat="43.9005" lon="7.41461">
        <ele>470.513</ele>
        <time>2016-07-08T12:32:08Z</time>
      </trkpt>
      <trkpt lat="43.89933" lon="7.41463">
        <ele>457.083</ele>
        <time>2016-07-08T12:32:27Z</time>
      </trkpt>
      <trkpt lat="43.89893" lon="7.41476">
        <ele>456.1</ele>
        <time>2016-07-08T12:32:34Z</time>
      </trkpt>
      <trkpt lat="43.89878" lon="7.41483">
        <ele>453.884</ele>
        <time>2016-07-08T12:32:37Z</time>
      </trkpt>
      <trkpt lat="43.89865" lon="7.41492">
        <ele>450.78</ele>
        <time>2016-07-08T12:32:39Z</time>
      </trkpt>
      <trkpt lat="43.89856" lon="7.41495">
        <ele>449.649</ele>
        <time>2016-07-08T12:32:41Z</time>
      </trkpt>
      <trkpt lat="43.89839" lon="7.41492">
        <ele>450.313</ele>
        <time>2016-07-08T12:32:43Z</time>
      </trkpt>
      <trkpt lat="43.89831" lon="7.41486">
        <ele>452.881</ele>
        <time>2016-07-08T12:32:45Z</time>
      </trkpt>
      <trkpt lat="43.89827" lon="7.41479">
        <ele>456.345</ele>
        <time>2016-07-08T12:32:46Z</time>
      </trkpt>
      <trkpt lat="43.89819" lon="7.41471">
        <ele>461.131</ele>
        <time>2016-07-08T12:32:48Z</time>
      </trkpt>
      <trkpt lat="43.89801" lon="7.41473">
        <ele>463.962</ele>
        <time>2016-07-08T12:32:51Z</time>
      </trkpt>
      <trkpt lat="43.89784" lon="7.41483">
        <ele>465.067</ele>
        <time>2016-07-08T12:32:54Z</time>
      </trkpt>
      <trkpt lat="43.89777" lon="7.4149">
        <ele>464.72</ele>
        <time>2016-07-08T12:32:55Z</time>
      </trkpt>
      <trkpt lat="43.8977" lon="7.41499">
        <ele>462.74</ele>
        <time>2016-07-08T12:32:57Z</time>
      </trkpt>
      <trkpt lat="43.89754" lon="7.41529">
        <ele>457.003</ele>
        <time>2016-07-08T12:33:01Z</time>
      </trkpt>
      <trkpt lat="43.89745" lon="7.41553">
        <ele>453.452</ele>
        <time>2016-07-08T12:33:04Z</time>
      </trkpt>
      <trkpt lat="43.89745" lon="7.41589">
        <ele>445.036</ele>
        <time>2016-07-08T12:33:09Z</time>
      </trkpt>
      <trkpt lat="43.89734" lon="7.41615">
        <ele>442.052</ele>
        <time>2016-07-08T12:33:12Z</time>
      </trkpt>
      <trkpt lat="43.89723" lon="7.41626">
        <ele>442.052</ele>
        <time>2016-07-08T12:33:15Z</time>
      </trkpt>
      <trkpt lat="43.89687" lon="7.41648">
        <ele>439.732</ele>
        <time>2016-07-08T12:33:21Z</time>
      </trkpt>
      <trkpt lat="43.89668" lon="7.41657">
        <ele>438.357</ele>
        <time>2016-07-08T12:33:24Z</time>
      </trkpt>
      <trkpt lat="43.89606" lon="7.4167">
        <ele>439.182</ele>
        <time>2016-07-08T12:33:35Z</time>
      </trkpt>
      <trkpt lat="43.89585" lon="7.41676">
        <ele>437.964</ele>
        <time>2016-07-08T12:33:38Z</time>
      </trkpt>
      <trkpt lat="43.89568" lon="7.41683">
        <ele>437.349</ele>
        <time>2016-07-08T12:33:41Z</time>
      </trkpt>
      <trkpt lat="43.89558" lon="7.4169">
        <ele>436.638</ele>
        <time>2016-07-08T12:33:43Z</time>
      </trkpt>
      <trkpt lat="43.89538" lon="7.41712">
        <ele>434.104</ele>
        <time>2016-07-08T12:33:47Z</time>
      </trkpt>
      <trkpt lat="43.89519" lon="7.41738">
        <ele>430.741</ele>
        <time>2016-07-08T12:33:52Z</time>
      </trkpt>
      <trkpt lat="43.89453" lon="7.41846">
        <ele>419.868</ele>
        <time>2016-07-08T12:34:09Z</time>
      </trkpt>
      <trkpt lat="43.8944" lon="7.41862">
        <ele>420.051</ele>
        <time>2016-07-08T12:34:12Z</time>
      </trkpt>
      <trkpt lat="43.89427" lon="7.41875">
        <ele>420.21</ele>
        <time>2016-07-08T12:34:14Z</time>
      </trkpt>
      <trkpt lat="43.89396" lon="7.41902">
        <ele>417.849</ele>
        <time>2016-07-08T12:34:20Z</time>
      </trkpt>
      <trkpt lat="43.89375" lon="7.41927">
        <ele>414.082</ele>
        <time>2016-07-08T12:34:25Z</time>
      </trkpt>
      <trkpt lat="43.89352" lon="7.41962">
        <ele>409.98</ele>
        <time>2016-07-08T12:34:31Z</time>
      </trkpt>
      <trkpt lat="43.89338" lon="7.41976">
        <ele>409.118</ele>
        <time>2016-07-08T12:34:33Z</time>
      </trkpt>
      <trkpt lat="43.8933" lon="7.41977">
        <ele>409.107</ele>
        <time>2016-07-08T12:34:35Z</time>
      </trkpt>
      <trkpt lat="43.89324" lon="7.41974">
        <ele>408.894</ele>
        <time>2016-07-08T12:34:36Z</time>
      </trkpt>
      <trkpt lat="43.89318" lon="7.41965">
        <ele>408.733</ele>
        <time>2016-07-08T12:34:37Z</time>
      </trkpt>
      <trkpt lat="43.89315" lon="7.41956">
        <ele>408.681</ele>
        <time>2016-07-08T12:34:38Z</time>
      </trkpt>
      <trkpt lat="43.89321" lon="7.41874">
        <ele>415.87</ele>
        <time>2016-07-08T12:34:48Z</time>
      </trkpt>
      <trkpt lat="43.89321" lon="7.41852">
        <ele>417.478</ele>
        <time>2016-07-08T12:34:51Z</time>
      </trkpt>
      <trkpt lat="43.89317" lon="7.41819">
        <ele>418.541</ele>
        <time>2016-07-08T12:34:55Z</time>
      </trkpt>
      <trkpt lat="43.89311" lon="7.41804">
        <ele>417.932</ele>
        <time>2016-07-08T12:34:57Z</time>
      </trkpt>
      <trkpt lat="43.89305" lon="7.41797">
        <ele>416.77</ele>
        <time>2016-07-08T12:34:58Z</time>
      </trkpt>
      <trkpt lat="43.89297" lon="7.41793">
        <ele>415.031</ele>
        <time>2016-07-08T12:35:00Z</time>
      </trkpt>
      <trkpt lat="43.89288" lon="7.41795">
        <ele>412.324</ele>
        <time>2016-07-08T12:35:01Z</time>
      </trkpt>
      <trkpt lat="43.89274" lon="7.41808">
        <ele>407.18</ele>
        <time>2016-07-08T12:35:04Z</time>
      </trkpt>
      <trkpt lat="43.89259" lon="7.4183">
        <ele>402.061</ele>
        <time>2016-07-08T12:35:08Z</time>
      </trkpt>
      <trkpt lat="43.89244" lon="7.41858">
        <ele>399.784</ele>
        <time>2016-07-08T12:35:12Z</time>
      </trkpt>
      <trkpt lat="43.89227" lon="7.41899">
        <ele>402.087</ele>
        <time>2016-07-08T12:35:17Z</time>
      </trkpt>
      <trkpt lat="43.8922" lon="7.41928">
        <ele>405.04</ele>
        <time>2016-07-08T12:35:21Z</time>
      </trkpt>
      <trkpt lat="43.89219" lon="7.41949">
        <ele>405.489</ele>
        <time>2016-07-08T12:35:24Z</time>
      </trkpt>
      <trkpt lat="43.89223" lon="7.42005">
        <ele>408.103</ele>
        <time>2016-07-08T12:35:30Z</time>
      </trkpt>
      <trkpt lat="43.89226" lon="7.42107">
        <ele>401.724</ele>
        <time>2016-07-08T12:35:43Z</time>
      </trkpt>
      <trkpt lat="43.89224" lon="7.42127">
        <ele>400.001</ele>
        <time>2016-07-08T12:35:45Z</time>
      </trkpt>
      <trkpt lat="43.89218" lon="7.42148">
        <ele>400.954</ele>
        <time>2016-07-08T12:35:48Z</time>
      </trkpt>
      <trkpt lat="43.89206" lon="7.42179">
        <ele>404.001</ele>
        <time>2016-07-08T12:35:52Z</time>
      </trkpt>
      <trkpt lat="43.89192" lon="7.42202">
        <ele>406.36</ele>
        <time>2016-07-08T12:35:56Z</time>
      </trkpt>
      <trkpt lat="43.89168" lon="7.42233">
        <ele>405.015</ele>
        <time>2016-07-08T12:36:01Z</time>
      </trkpt>
      <trkpt lat="43.89139" lon="7.42265">
        <ele>403.738</ele>
        <time>2016-07-08T12:36:07Z</time>
      </trkpt>
      <trkpt lat="43.89062" lon="7.42341">
        <ele>400.544</ele>
        <time>2016-07-08T12:36:23Z</time>
      </trkpt>
      <trkpt lat="43.89057" lon="7.42343">
        <ele>401.294</ele>
        <time>2016-07-08T12:36:24Z</time>
      </trkpt>
      <trkpt lat="43.89047" lon="7.42343">
        <ele>401.822</ele>
        <time>2016-07-08T12:36:25Z</time>
      </trkpt>
      <trkpt lat="43.8902" lon="7.42322">
        <ele>405.206</ele>
        <time>2016-07-08T12:36:30Z</time>
      </trkpt>
      <trkpt lat="43.88991" lon="7.42293">
        <ele>409.821</ele>
        <time>2016-07-08T12:36:36Z</time>
      </trkpt>
      <trkpt lat="43.88981" lon="7.42292">
        <ele>409.439</ele>
        <time>2016-07-08T12:36:38Z</time>
      </trkpt>
      <trkpt lat="43.88972" lon="7.42296">
        <ele>408.731</ele>
        <time>2016-07-08T12:36:40Z</time>
      </trkpt>
      <trkpt lat="43.88968" lon="7.423">
        <ele>409.19</ele>
        <time>2016-07-08T12:36:40Z</time>
      </trkpt>
      <trkpt lat="43.88962" lon="7.42308">
        <ele>409.576</ele>
        <time>2016-07-08T12:36:42Z</time>
      </trkpt>
      <trkpt lat="43.88959" lon="7.42315">
        <ele>409.36</ele>
        <time>2016-07-08T12:36:43Z</time>
      </trkpt>
      <trkpt lat="43.88956" lon="7.42331">
        <ele>408.172</ele>
        <time>2016-07-08T12:36:45Z</time>
      </trkpt>
      <trkpt lat="43.8896" lon="7.42372">
        <ele>406.515</ele>
        <time>2016-07-08T12:36:50Z</time>
      </trkpt>
      <trkpt lat="43.88959" lon="7.4239">
        <ele>406.449</ele>
        <time>2016-07-08T12:36:52Z</time>
      </trkpt>
      <trkpt lat="43.88957" lon="7.42398">
        <ele>406.792</ele>
        <time>2016-07-08T12:36:53Z</time>
      </trkpt>
      <trkpt lat="43.88949" lon="7.4241">
        <ele>407.633</ele>
        <time>2016-07-08T12:36:55Z</time>
      </trkpt>
      <trkpt lat="43.88904" lon="7.42457">
        <ele>415.122</ele>
        <time>2016-07-08T12:37:04Z</time>
      </trkpt>
      <trkpt lat="43.88878" lon="7.42491">
        <ele>415.843</ele>
        <time>2016-07-08T12:37:10Z</time>
      </trkpt>
      <trkpt lat="43.88841" lon="7.42558">
        <ele>414.548</ele>
        <time>2016-07-08T12:37:20Z</time>
      </trkpt>
      <trkpt lat="43.88802" lon="7.42633">
        <ele>411.892</ele>
        <time>2016-07-08T12:37:31Z</time>
      </trkpt>
      <trkpt lat="43.88781" lon="7.42669">
        <ele>410.349</ele>
        <time>2016-07-08T12:37:37Z</time>
      </trkpt>
      <trkpt lat="43.88758" lon="7.42716">
        <ele>410.785</ele>
        <time>2016-07-08T12:37:44Z</time>
      </trkpt>
      <trkpt lat="43.88731" lon="7.42778">
        <ele>410.033</ele>
        <time>2016-07-08T12:37:52Z</time>
      </trkpt>
      <trkpt lat="43.88722" lon="7.42792">
        <ele>409.976</ele>
        <time>2016-07-08T12:37:54Z</time>
      </trkpt>
      <trkpt lat="43.88692" lon="7.42816">
        <ele>408.336</ele>
        <time>2016-07-08T12:38:00Z</time>
      </trkpt>
      <trkpt lat="43.88651" lon="7.42845">
        <ele>407.304</ele>
        <time>2016-07-08T12:38:08Z</time>
      </trkpt>
      <trkpt lat="43.88632" lon="7.42854">
        <ele>406.953</ele>
        <time>2016-07-08T12:38:11Z</time>
      </trkpt>
      <trkpt lat="43.88595" lon="7.42868">
        <ele>405.384</ele>
        <time>2016-07-08T12:38:18Z</time>
      </trkpt>
      <trkpt lat="43.88576" lon="7.4288">
        <ele>404.584</ele>
        <time>2016-07-08T12:38:21Z</time>
      </trkpt>
      <trkpt lat="43.88554" lon="7.42899">
        <ele>404.748</ele>
        <time>2016-07-08T12:38:25Z</time>
      </trkpt>
      <trkpt lat="43.88521" lon="7.4294">
        <ele>404.115</ele>
        <time>2016-07-08T12:38:33Z</time>
      </trkpt>
      <trkpt lat="43.88508" lon="7.4295">
        <ele>402.573</ele>
        <time>2016-07-08T12:38:35Z</time>
      </trkpt>
      <trkpt lat="43.88495" lon="7.42954">
        <ele>401.788</ele>
        <time>2016-07-08T12:38:37Z</time>
      </trkpt>
      <trkpt lat="43.88481" lon="7.42952">
        <ele>401.5</ele>
        <time>2016-07-08T12:38:40Z</time>
      </trkpt>
      <trkpt lat="43.88467" lon="7.42943">
        <ele>402.104</ele>
        <time>2016-07-08T12:38:42Z</time>
      </trkpt>
      <trkpt lat="43.88443" lon="7.42919">
        <ele>403.784</ele>
        <time>2016-07-08T12:38:47Z</time>
      </trkpt>
      <trkpt lat="43.88436" lon="7.42916">
        <ele>403.751</ele>
        <time>2016-07-08T12:38:48Z</time>
      </trkpt>
      <trkpt lat="43.88428" lon="7.42916">
        <ele>403.47</ele>
        <time>2016-07-08T12:38:50Z</time>
      </trkpt>
      <trkpt lat="43.88417" lon="7.42923">
        <ele>402.781</ele>
        <time>2016-07-08T12:38:52Z</time>
      </trkpt>
      <trkpt lat="43.88384" lon="7.42969">
        <ele>402.252</ele>
        <time>2016-07-08T12:38:59Z</time>
      </trkpt>
      <trkpt lat="43.88373" lon="7.42981">
        <ele>401.187</ele>
        <time>2016-07-08T12:39:02Z</time>
      </trkpt>
      <trkpt lat="43.88354" lon="7.42994">
        <ele>399.648</ele>
        <time>2016-07-08T12:39:05Z</time>
      </trkpt>
      <trkpt lat="43.88352" lon="7.42985">
        <ele>400.62</ele>
        <time>2016-07-08T12:39:06Z</time>
      </trkpt>
      <trkpt lat="43.88358" lon="7.42929">
        <ele>407.004</ele>
        <time>2016-07-08T12:39:13Z</time>
      </trkpt>
      <trkpt lat="43.88363" lon="7.42902">
        <ele>408.78</ele>
        <time>2016-07-08T12:39:16Z</time>
      </trkpt>
      <trkpt lat="43.88362" lon="7.42884">
        <ele>409.675</ele>
        <time>2016-07-08T12:39:19Z</time>
      </trkpt>
      <trkpt lat="43.88355" lon="7.42858">
        <ele>409.88</ele>
        <time>2016-07-08T12:39:22Z</time>
      </trkpt>
      <trkpt lat="43.88333" lon="7.42812">
        <ele>413.798</ele>
        <time>2016-07-08T12:39:29Z</time>
      </trkpt>
      <trkpt lat="43.88327" lon="7.42804">
        <ele>414.611</ele>
        <time>2016-07-08T12:39:30Z</time>
      </trkpt>
      <trkpt lat="43.88311" lon="7.42794">
        <ele>416.522</ele>
        <time>2016-07-08T12:39:33Z</time>
      </trkpt>
      <trkpt lat="43.88307" lon="7.4278">
        <ele>417.784</ele>
        <time>2016-07-08T12:39:35Z</time>
      </trkpt>
      <trkpt lat="43.88309" lon="7.42773">
        <ele>418.241</ele>
        <time>2016-07-08T12:39:36Z</time>
      </trkpt>
      <trkpt lat="43.88317" lon="7.42759">
        <ele>419.219</ele>
        <time>2016-07-08T12:39:38Z</time>
      </trkpt>
      <trkpt lat="43.88332" lon="7.42739">
        <ele>421.188</ele>
        <time>2016-07-08T12:39:41Z</time>
      </trkpt>
      <trkpt lat="43.88336" lon="7.42737">
        <ele>421.404</ele>
        <time>2016-07-08T12:39:42Z</time>
      </trkpt>
      <trkpt lat="43.88343" lon="7.42738">
        <ele>421.296</ele>
        <time>2016-07-08T12:39:43Z</time>
      </trkpt>
      <trkpt lat="43.88356" lon="7.42749">
        <ele>420.108</ele>
        <time>2016-07-08T12:39:46Z</time>
      </trkpt>
      <trkpt lat="43.88362" lon="7.42749">
        <ele>420.077</ele>
        <time>2016-07-08T12:39:47Z</time>
      </trkpt>
      <trkpt lat="43.88376" lon="7.42733">
        <ele>421.628</ele>
        <time>2016-07-08T12:39:50Z</time>
      </trkpt>
      <trkpt lat="43.88392" lon="7.42702">
        <ele>424.09</ele>
        <time>2016-07-08T12:39:54Z</time>
      </trkpt>
      <trkpt lat="43.88397" lon="7.42666">
        <ele>426.763</ele>
        <time>2016-07-08T12:39:58Z</time>
      </trkpt>
      <trkpt lat="43.88403" lon="7.42644">
        <ele>428.539</ele>
        <time>2016-07-08T12:40:01Z</time>
      </trkpt>
      <trkpt lat="43.88406" lon="7.42598">
        <ele>432.054</ele>
        <time>2016-07-08T12:40:07Z</time>
      </trkpt>
      <trkpt lat="43.88411" lon="7.42559">
        <ele>434.468</ele>
        <time>2016-07-08T12:40:12Z</time>
      </trkpt>
      <trkpt lat="43.88411" lon="7.42473">
        <ele>438.558</ele>
        <time>2016-07-08T12:40:22Z</time>
      </trkpt>
      <trkpt lat="43.88414" lon="7.42429">
        <ele>439.904</ele>
        <time>2016-07-08T12:40:27Z</time>
      </trkpt>
      <trkpt lat="43.88391" lon="7.42338">
        <ele>445.189</ele>
        <time>2016-07-08T12:40:39Z</time>
      </trkpt>
      <trkpt lat="43.88391" lon="7.42324">
        <ele>446.856</ele>
        <time>2016-07-08T12:40:40Z</time>
      </trkpt>
      <trkpt lat="43.884" lon="7.4231">
        <ele>447.72</ele>
        <time>2016-07-08T12:40:43Z</time>
      </trkpt>
      <trkpt lat="43.8842" lon="7.42286">
        <ele>448.048</ele>
        <time>2016-07-08T12:40:47Z</time>
      </trkpt>
      <trkpt lat="43.88465" lon="7.42239">
        <ele>449.928</ele>
        <time>2016-07-08T12:40:56Z</time>
      </trkpt>
      <trkpt lat="43.88479" lon="7.4222">
        <ele>452.384</ele>
        <time>2016-07-08T12:41:00Z</time>
      </trkpt>
      <trkpt lat="43.88502" lon="7.42183">
        <ele>455.206</ele>
        <time>2016-07-08T12:41:05Z</time>
      </trkpt>
      <trkpt lat="43.88517" lon="7.42168">
        <ele>456.273</ele>
        <time>2016-07-08T12:41:08Z</time>
      </trkpt>
      <trkpt lat="43.88521" lon="7.42162">
        <ele>456.58</ele>
        <time>2016-07-08T12:41:09Z</time>
      </trkpt>
      <trkpt lat="43.88528" lon="7.42137">
        <ele>458.051</ele>
        <time>2016-07-08T12:41:13Z</time>
      </trkpt>
      <trkpt lat="43.88552" lon="7.42021">
        <ele>459.329</ele>
        <time>2016-07-08T12:41:27Z</time>
      </trkpt>
      <trkpt lat="43.88557" lon="7.41985">
        <ele>461.568</ele>
        <time>2016-07-08T12:41:31Z</time>
      </trkpt>
      <trkpt lat="43.88561" lon="7.41978">
        <ele>461.947</ele>
        <time>2016-07-08T12:41:33Z</time>
      </trkpt>
      <trkpt lat="43.88568" lon="7.41971">
        <ele>462.556</ele>
        <time>2016-07-08T12:41:34Z</time>
      </trkpt>
      <trkpt lat="43.8859" lon="7.41958">
        <ele>464.413</ele>
        <time>2016-07-08T12:41:38Z</time>
      </trkpt>
      <trkpt lat="43.88594" lon="7.41954">
        <ele>464.716</ele>
        <time>2016-07-08T12:41:39Z</time>
      </trkpt>
      <trkpt lat="43.88598" lon="7.41946">
        <ele>465.334</ele>
        <time>2016-07-08T12:41:40Z</time>
      </trkpt>
      <trkpt lat="43.88604" lon="7.41923">
        <ele>467.949</ele>
        <time>2016-07-08T12:41:43Z</time>
      </trkpt>
      <trkpt lat="43.88611" lon="7.41913">
        <ele>469.26</ele>
        <time>2016-07-08T12:41:44Z</time>
      </trkpt>
      <trkpt lat="43.88619" lon="7.41909">
        <ele>469.346</ele>
        <time>2016-07-08T12:41:46Z</time>
      </trkpt>
      <trkpt lat="43.88634" lon="7.41908">
        <ele>469.057</ele>
        <time>2016-07-08T12:41:48Z</time>
      </trkpt>
      <trkpt lat="43.88642" lon="7.41905">
        <ele>469.054</ele>
        <time>2016-07-08T12:41:50Z</time>
      </trkpt>
      <trkpt lat="43.88646" lon="7.41895">
        <ele>469.685</ele>
        <time>2016-07-08T12:41:51Z</time>
      </trkpt>
      <trkpt lat="43.88645" lon="7.41879">
        <ele>471.173</ele>
        <time>2016-07-08T12:41:53Z</time>
      </trkpt>
      <trkpt lat="43.88638" lon="7.41867">
        <ele>473.364</ele>
        <time>2016-07-08T12:41:55Z</time>
      </trkpt>
      <trkpt lat="43.88633" lon="7.41864">
        <ele>473.688</ele>
        <time>2016-07-08T12:41:56Z</time>
      </trkpt>
      <trkpt lat="43.88582" lon="7.41816">
        <ele>477.994</ele>
        <time>2016-07-08T12:42:06Z</time>
      </trkpt>
      <trkpt lat="43.88563" lon="7.41801">
        <ele>478.536</ele>
        <time>2016-07-08T12:42:10Z</time>
      </trkpt>
      <trkpt lat="43.88554" lon="7.41797">
        <ele>478.445</ele>
        <time>2016-07-08T12:42:11Z</time>
      </trkpt>
      <trkpt lat="43.88525" lon="7.41797">
        <ele>477.079</ele>
        <time>2016-07-08T12:42:16Z</time>
      </trkpt>
      <trkpt lat="43.8851" lon="7.41802">
        <ele>477.13</ele>
        <time>2016-07-08T12:42:19Z</time>
      </trkpt>
      <trkpt lat="43.88506" lon="7.41805">
        <ele>476.704</ele>
        <time>2016-07-08T12:42:19Z</time>
      </trkpt>
      <trkpt lat="43.88488" lon="7.41827">
        <ele>476.701</ele>
        <time>2016-07-08T12:42:23Z</time>
      </trkpt>
      <trkpt lat="43.88467" lon="7.41859">
        <ele>477.587</ele>
        <time>2016-07-08T12:42:28Z</time>
      </trkpt>
      <trkpt lat="43.88448" lon="7.41893">
        <ele>476.897</ele>
        <time>2016-07-08T12:42:34Z</time>
      </trkpt>
      <trkpt lat="43.88434" lon="7.41922">
        <ele>478</ele>
        <time>2016-07-08T12:42:38Z</time>
      </trkpt>
      <trkpt lat="43.88428" lon="7.41943">
        <ele>478.432</ele>
        <time>2016-07-08T12:42:40Z</time>
      </trkpt>
      <trkpt lat="43.88425" lon="7.41948">
        <ele>478.993</ele>
        <time>2016-07-08T12:42:41Z</time>
      </trkpt>
      <trkpt lat="43.8842" lon="7.41949">
        <ele>480.467</ele>
        <time>2016-07-08T12:42:42Z</time>
      </trkpt>
      <trkpt lat="43.88416" lon="7.41946">
        <ele>482</ele>
        <time>2016-07-08T12:42:43Z</time>
      </trkpt>
      <trkpt lat="43.88414" lon="7.41934">
        <ele>483.532</ele>
        <time>2016-07-08T12:42:44Z</time>
      </trkpt>
      <trkpt lat="43.88433" lon="7.41899">
        <ele>481.14</ele>
        <time>2016-07-08T12:42:50Z</time>
      </trkpt>
      <trkpt lat="43.88442" lon="7.41873">
        <ele>481.929</ele>
        <time>2016-07-08T12:42:53Z</time>
      </trkpt>
      <trkpt lat="43.88441" lon="7.41866">
        <ele>483.688</ele>
        <time>2016-07-08T12:42:54Z</time>
      </trkpt>
      <trkpt lat="43.88442" lon="7.41873">
        <ele>481.929</ele>
        <time>2016-07-08T12:42:55Z</time>
      </trkpt>
      <trkpt lat="43.88458" lon="7.41779">
        <ele>493.853</ele>
        <time>2016-07-08T12:43:06Z</time>
      </trkpt>
      <trkpt lat="43.88468" lon="7.41736">
        <ele>497.928</ele>
        <time>2016-07-08T12:43:12Z</time>
      </trkpt>
      <trkpt lat="43.88492" lon="7.41681">
        <ele>499.538</ele>
        <time>2016-07-08T12:43:19Z</time>
      </trkpt>
      <trkpt lat="43.88502" lon="7.41671">
        <ele>498.749</ele>
        <time>2016-07-08T12:43:21Z</time>
      </trkpt>
      <trkpt lat="43.88514" lon="7.41664">
        <ele>500.175</ele>
        <time>2016-07-08T12:43:24Z</time>
      </trkpt>
      <trkpt lat="43.88522" lon="7.41654">
        <ele>502.718</ele>
        <time>2016-07-08T12:43:25Z</time>
      </trkpt>
      <trkpt lat="43.88523" lon="7.41649">
        <ele>503.863</ele>
        <time>2016-07-08T12:43:26Z</time>
      </trkpt>
      <trkpt lat="43.88522" lon="7.41641">
        <ele>505.72</ele>
        <time>2016-07-08T12:43:27Z</time>
      </trkpt>
      <trkpt lat="43.88516" lon="7.41633">
        <ele>508.544</ele>
        <time>2016-07-08T12:43:28Z</time>
      </trkpt>
      <trkpt lat="43.88509" lon="7.41632">
        <ele>509.156</ele>
        <time>2016-07-08T12:43:29Z</time>
      </trkpt>
      <trkpt lat="43.88499" lon="7.41637">
        <ele>507.865</ele>
        <time>2016-07-08T12:43:31Z</time>
      </trkpt>
      <trkpt lat="43.88462" lon="7.41661">
        <ele>511.129</ele>
        <time>2016-07-08T12:43:38Z</time>
      </trkpt>
      <trkpt lat="43.8845" lon="7.41672">
        <ele>512.886</ele>
        <time>2016-07-08T12:43:40Z</time>
      </trkpt>
      <trkpt lat="43.88427" lon="7.41704">
        <ele>514.56</ele>
        <time>2016-07-08T12:43:46Z</time>
      </trkpt>
      <trkpt lat="43.88402" lon="7.41754">
        <ele>519.824</ele>
        <time>2016-07-08T12:43:53Z</time>
      </trkpt>
      <trkpt lat="43.88395" lon="7.41774">
        <ele>520.312</ele>
        <time>2016-07-08T12:43:56Z</time>
      </trkpt>
      <trkpt lat="43.88389" lon="7.41802">
        <ele>515.981</ele>
        <time>2016-07-08T12:43:59Z</time>
      </trkpt>
      <trkpt lat="43.88385" lon="7.41813">
        <ele>514.987</ele>
        <time>2016-07-08T12:44:01Z</time>
      </trkpt>
      <trkpt lat="43.88371" lon="7.41828">
        <ele>515.402</ele>
        <time>2016-07-08T12:44:04Z</time>
      </trkpt>
      <trkpt lat="43.88359" lon="7.41837">
        <ele>516.004</ele>
        <time>2016-07-08T12:44:06Z</time>
      </trkpt>
      <trkpt lat="43.88355" lon="7.41838">
        <ele>517.264</ele>
        <time>2016-07-08T12:44:07Z</time>
      </trkpt>
      <trkpt lat="43.88347" lon="7.41837">
        <ele>520.528</ele>
        <time>2016-07-08T12:44:08Z</time>
      </trkpt>
      <trkpt lat="43.88344" lon="7.41833">
        <ele>522.913</ele>
        <time>2016-07-08T12:44:09Z</time>
      </trkpt>
      <trkpt lat="43.88344" lon="7.41825">
        <ele>526.191</ele>
        <time>2016-07-08T12:44:10Z</time>
      </trkpt>
      <trkpt lat="43.88348" lon="7.41815">
        <ele>528.8</ele>
        <time>2016-07-08T12:44:11Z</time>
      </trkpt>
      <trkpt lat="43.88367" lon="7.41795">
        <ele>528.883</ele>
        <time>2016-07-08T12:44:15Z</time>
      </trkpt>
      <trkpt lat="43.88378" lon="7.41775">
        <ele>529.58</ele>
        <time>2016-07-08T12:44:18Z</time>
      </trkpt>
      <trkpt lat="43.88384" lon="7.41752">
        <ele>532.136</ele>
        <time>2016-07-08T12:44:21Z</time>
      </trkpt>
      <trkpt lat="43.88385" lon="7.4174">
        <ele>532.921</ele>
        <time>2016-07-08T12:44:22Z</time>
      </trkpt>
      <trkpt lat="43.88394" lon="7.417">
        <ele>531.566</ele>
        <time>2016-07-08T12:44:27Z</time>
      </trkpt>
      <trkpt lat="43.88403" lon="7.41647">
        <ele>540.404</ele>
        <time>2016-07-08T12:44:34Z</time>
      </trkpt>
      <trkpt lat="43.88411" lon="7.41615">
        <ele>545.736</ele>
        <time>2016-07-08T12:44:38Z</time>
      </trkpt>
      <trkpt lat="43.88418" lon="7.41598">
        <ele>546.801</ele>
        <time>2016-07-08T12:44:40Z</time>
      </trkpt>
      <trkpt lat="43.88428" lon="7.41585">
        <ele>546.116</ele>
        <time>2016-07-08T12:44:42Z</time>
      </trkpt>
      <trkpt lat="43.88451" lon="7.41565">
        <ele>543.816</ele>
        <time>2016-07-08T12:44:47Z</time>
      </trkpt>
      <trkpt lat="43.88463" lon="7.41551">
        <ele>544.355</ele>
        <time>2016-07-08T12:44:50Z</time>
      </trkpt>
      <trkpt lat="43.88487" lon="7.41539">
        <ele>540.157</ele>
        <time>2016-07-08T12:44:54Z</time>
      </trkpt>
      <trkpt lat="43.88494" lon="7.4153">
        <ele>539.844</ele>
        <time>2016-07-08T12:44:55Z</time>
      </trkpt>
      <trkpt lat="43.88496" lon="7.41511">
        <ele>541.222</ele>
        <time>2016-07-08T12:44:58Z</time>
      </trkpt>
      <trkpt lat="43.88491" lon="7.41496">
        <ele>543.861</ele>
        <time>2016-07-08T12:45:00Z</time>
      </trkpt>
      <trkpt lat="43.88482" lon="7.41482">
        <ele>547.636</ele>
        <time>2016-07-08T12:45:02Z</time>
      </trkpt>
      <trkpt lat="43.88475" lon="7.41479">
        <ele>550.99</ele>
        <time>2016-07-08T12:45:03Z</time>
      </trkpt>
      <trkpt lat="43.88468" lon="7.41482">
        <ele>553.518</ele>
        <time>2016-07-08T12:45:04Z</time>
      </trkpt>
      <trkpt lat="43.88464" lon="7.41491">
        <ele>554.132</ele>
        <time>2016-07-08T12:45:06Z</time>
      </trkpt>
      <trkpt lat="43.8846" lon="7.41509">
        <ele>553.946</ele>
        <time>2016-07-08T12:45:08Z</time>
      </trkpt>
      <trkpt lat="43.88451" lon="7.41522">
        <ele>555.192</ele>
        <time>2016-07-08T12:45:10Z</time>
      </trkpt>
      <trkpt lat="43.88445" lon="7.41529">
        <ele>555.55</ele>
        <time>2016-07-08T12:45:11Z</time>
      </trkpt>
      <trkpt lat="43.88436" lon="7.41536">
        <ele>556.574</ele>
        <time>2016-07-08T12:45:13Z</time>
      </trkpt>
      <trkpt lat="43.88423" lon="7.41542">
        <ele>558.969</ele>
        <time>2016-07-08T12:45:15Z</time>
      </trkpt>
      <trkpt lat="43.88411" lon="7.4155">
        <ele>561.007</ele>
        <time>2016-07-08T12:45:17Z</time>
      </trkpt>
      <trkpt lat="43.88405" lon="7.41556">
        <ele>561.951</ele>
        <time>2016-07-08T12:45:19Z</time>
      </trkpt>
      <trkpt lat="43.88376" lon="7.41613">
        <ele>564.015</ele>
        <time>2016-07-08T12:45:27Z</time>
      </trkpt>
      <trkpt lat="43.88366" lon="7.41655">
        <ele>558.544</ele>
        <time>2016-07-08T12:45:32Z</time>
      </trkpt>
      <trkpt lat="43.88328" lon="7.41719">
        <ele>561.621</ele>
        <time>2016-07-08T12:45:42Z</time>
      </trkpt>
      <trkpt lat="43.88326" lon="7.41721">
        <ele>562.103</ele>
        <time>2016-07-08T12:45:43Z</time>
      </trkpt>
      <trkpt lat="43.88321" lon="7.4172">
        <ele>564.275</ele>
        <time>2016-07-08T12:45:43Z</time>
      </trkpt>
      <trkpt lat="43.88316" lon="7.41715">
        <ele>567.228</ele>
        <time>2016-07-08T12:45:45Z</time>
      </trkpt>
      <trkpt lat="43.88313" lon="7.41707">
        <ele>570.046</ele>
        <time>2016-07-08T12:45:46Z</time>
      </trkpt>
      <trkpt lat="43.88319" lon="7.41693">
        <ele>570.122</ele>
        <time>2016-07-08T12:45:48Z</time>
      </trkpt>
      <trkpt lat="43.88346" lon="7.41658">
        <ele>568.112</ele>
        <time>2016-07-08T12:45:54Z</time>
      </trkpt>
      <trkpt lat="43.88355" lon="7.41642">
        <ele>568.184</ele>
        <time>2016-07-08T12:45:56Z</time>
      </trkpt>
      <trkpt lat="43.88367" lon="7.41603">
        <ele>570.094</ele>
        <time>2016-07-08T12:46:01Z</time>
      </trkpt>
      <trkpt lat="43.88402" lon="7.41511">
        <ele>573.828</ele>
        <time>2016-07-08T12:46:14Z</time>
      </trkpt>
      <trkpt lat="43.88405" lon="7.41499">
        <ele>574.83</ele>
        <time>2016-07-08T12:46:15Z</time>
      </trkpt>
      <trkpt lat="43.88407" lon="7.41478">
        <ele>578.339</ele>
        <time>2016-07-08T12:46:18Z</time>
      </trkpt>
      <trkpt lat="43.88412" lon="7.41464">
        <ele>578.91</ele>
        <time>2016-07-08T12:46:20Z</time>
      </trkpt>
      <trkpt lat="43.88423" lon="7.41443">
        <ele>577.58</ele>
        <time>2016-07-08T12:46:23Z</time>
      </trkpt>
      <trkpt lat="43.88433" lon="7.41429">
        <ele>572.18</ele>
        <time>2016-07-08T12:46:25Z</time>
      </trkpt>
      <trkpt lat="43.88438" lon="7.41411">
        <ele>569.779</ele>
        <time>2016-07-08T12:46:27Z</time>
      </trkpt>
      <trkpt lat="43.88438" lon="7.41395">
        <ele>570.622</ele>
        <time>2016-07-08T12:46:29Z</time>
      </trkpt>
      <trkpt lat="43.88392" lon="7.41295">
        <ele>594.016</ele>
        <time>2016-07-08T12:46:43Z</time>
      </trkpt>
      <trkpt lat="43.8839" lon="7.41287">
        <ele>594.448</ele>
        <time>2016-07-08T12:46:44Z</time>
      </trkpt>
      <trkpt lat="43.8839" lon="7.41256">
        <ele>590.893</ele>
        <time>2016-07-08T12:46:48Z</time>
      </trkpt>
      <trkpt lat="43.88381" lon="7.41214">
        <ele>591.84</ele>
        <time>2016-07-08T12:46:53Z</time>
      </trkpt>
      <trkpt lat="43.8837" lon="7.41183">
        <ele>596.743</ele>
        <time>2016-07-08T12:46:57Z</time>
      </trkpt>
      <trkpt lat="43.88366" lon="7.41143">
        <ele>602.064</ele>
        <time>2016-07-08T12:47:02Z</time>
      </trkpt>
      <trkpt lat="43.88372" lon="7.41127">
        <ele>600.6</ele>
        <time>2016-07-08T12:47:04Z</time>
      </trkpt>
      <trkpt lat="43.88373" lon="7.41086">
        <ele>604.015</ele>
        <time>2016-07-08T12:47:09Z</time>
      </trkpt>
      <trkpt lat="43.88385" lon="7.41059">
        <ele>603.267</ele>
        <time>2016-07-08T12:47:13Z</time>
      </trkpt>
      <trkpt lat="43.88388" lon="7.41042">
        <ele>607.601</ele>
        <time>2016-07-08T12:47:15Z</time>
      </trkpt>
      <trkpt lat="43.88388" lon="7.41023">
        <ele>613.53</ele>
        <time>2016-07-08T12:47:18Z</time>
      </trkpt>
      <trkpt lat="43.88386" lon="7.4101">
        <ele>617.573</ele>
        <time>2016-07-08T12:47:19Z</time>
      </trkpt>
      <trkpt lat="43.88383" lon="7.41001">
        <ele>620.568</ele>
        <time>2016-07-08T12:47:20Z</time>
      </trkpt>
      <trkpt lat="43.88379" lon="7.40998">
        <ele>621.496</ele>
        <time>2016-07-08T12:47:21Z</time>
      </trkpt>
      <trkpt lat="43.88375" lon="7.40998">
        <ele>622.072</ele>
        <time>2016-07-08T12:47:22Z</time>
      </trkpt>
      <trkpt lat="43.88372" lon="7.41003">
        <ele>621.634</ele>
        <time>2016-07-08T12:47:22Z</time>
      </trkpt>
      <trkpt lat="43.88376" lon="7.41031">
        <ele>613.437</ele>
        <time>2016-07-08T12:47:26Z</time>
      </trkpt>
      <trkpt lat="43.88374" lon="7.4104">
        <ele>611.428</ele>
        <time>2016-07-08T12:47:27Z</time>
      </trkpt>
      <trkpt lat="43.88362" lon="7.41066">
        <ele>610.648</ele>
        <time>2016-07-08T12:47:31Z</time>
      </trkpt>
      <trkpt lat="43.88345" lon="7.41131">
        <ele>624.951</ele>
        <time>2016-07-08T12:47:39Z</time>
      </trkpt>
      <trkpt lat="43.88344" lon="7.41147">
        <ele>624.647</ele>
        <time>2016-07-08T12:47:41Z</time>
      </trkpt>
      <trkpt lat="43.88344" lon="7.41233">
        <ele>630.845</ele>
        <time>2016-07-08T12:47:51Z</time>
      </trkpt>
      <trkpt lat="43.88356" lon="7.41314">
        <ele>625.184</ele>
        <time>2016-07-08T12:48:01Z</time>
      </trkpt>
      <trkpt lat="43.88363" lon="7.4134">
        <ele>620.708</ele>
        <time>2016-07-08T12:48:04Z</time>
      </trkpt>
      <trkpt lat="43.88363" lon="7.41345">
        <ele>620.708</ele>
        <time>2016-07-08T12:48:05Z</time>
      </trkpt>
      <trkpt lat="43.88359" lon="7.41352">
        <ele>623.521</ele>
        <time>2016-07-08T12:48:06Z</time>
      </trkpt>
      <trkpt lat="43.88354" lon="7.41349">
        <ele>627.041</ele>
        <time>2016-07-08T12:48:07Z</time>
      </trkpt>
      <trkpt lat="43.88351" lon="7.41345">
        <ele>629.011</ele>
        <time>2016-07-08T12:48:08Z</time>
      </trkpt>
      <trkpt lat="43.88347" lon="7.41329">
        <ele>631.065</ele>
        <time>2016-07-08T12:48:10Z</time>
      </trkpt>
      <trkpt lat="43.8834" lon="7.41277">
        <ele>635.276</ele>
        <time>2016-07-08T12:48:16Z</time>
      </trkpt>
      <trkpt lat="43.88326" lon="7.41234">
        <ele>647.856</ele>
        <time>2016-07-08T12:48:22Z</time>
      </trkpt>
      <trkpt lat="43.88324" lon="7.41183">
        <ele>644.649</ele>
        <time>2016-07-08T12:48:28Z</time>
      </trkpt>
      <trkpt lat="43.88318" lon="7.4117">
        <ele>648.791</ele>
        <time>2016-07-08T12:48:30Z</time>
      </trkpt>
      <trkpt lat="43.88316" lon="7.41157">
        <ele>649.887</ele>
        <time>2016-07-08T12:48:31Z</time>
      </trkpt>
      <trkpt lat="43.88316" lon="7.41136">
        <ele>649.727</ele>
        <time>2016-07-08T12:48:34Z</time>
      </trkpt>
      <trkpt lat="43.88319" lon="7.41126">
        <ele>648.473</ele>
        <time>2016-07-08T12:48:35Z</time>
      </trkpt>
      <trkpt lat="43.88317" lon="7.41073">
        <ele>651.941</ele>
        <time>2016-07-08T12:48:41Z</time>
      </trkpt>
      <trkpt lat="43.88322" lon="7.4103">
        <ele>650.989</ele>
        <time>2016-07-08T12:48:47Z</time>
      </trkpt>
      <trkpt lat="43.88317" lon="7.40945">
        <ele>647.337</ele>
        <time>2016-07-08T12:48:57Z</time>
      </trkpt>
      <trkpt lat="43.88304" lon="7.40909">
        <ele>656.303</ele>
        <time>2016-07-08T12:49:02Z</time>
      </trkpt>
      <trkpt lat="43.88301" lon="7.40896">
        <ele>658.894</ele>
        <time>2016-07-08T12:49:03Z</time>
      </trkpt>
      <trkpt lat="43.88303" lon="7.40861">
        <ele>655.556</ele>
        <time>2016-07-08T12:49:07Z</time>
      </trkpt>
      <trkpt lat="43.88309" lon="7.4084">
        <ele>647.935</ele>
        <time>2016-07-08T12:49:10Z</time>
      </trkpt>
      <trkpt lat="43.8831" lon="7.40829">
        <ele>646.897</ele>
        <time>2016-07-08T12:49:11Z</time>
      </trkpt>
      <trkpt lat="43.88305" lon="7.40792">
        <ele>650.53</ele>
        <time>2016-07-08T12:49:16Z</time>
      </trkpt>
      <trkpt lat="43.88286" lon="7.40743">
        <ele>669.87</ele>
        <time>2016-07-08T12:49:23Z</time>
      </trkpt>
      <trkpt lat="43.88284" lon="7.40732">
        <ele>671.768</ele>
        <time>2016-07-08T12:49:24Z</time>
      </trkpt>
      <trkpt lat="43.88284" lon="7.40694">
        <ele>675.51</ele>
        <time>2016-07-08T12:49:28Z</time>
      </trkpt>
      <trkpt lat="43.88288" lon="7.40661">
        <ele>680.271</ele>
        <time>2016-07-08T12:49:32Z</time>
      </trkpt>
      <trkpt lat="43.8829" lon="7.40622">
        <ele>686.124</ele>
        <time>2016-07-08T12:49:37Z</time>
      </trkpt>
      <trkpt lat="43.88296" lon="7.40608">
        <ele>688.7</ele>
        <time>2016-07-08T12:49:39Z</time>
      </trkpt>
      <trkpt lat="43.88302" lon="7.40605">
        <ele>688.84</ele>
        <time>2016-07-08T12:49:40Z</time>
      </trkpt>
      <trkpt lat="43.8831" lon="7.40606">
        <ele>689.859</ele>
        <time>2016-07-08T12:49:41Z</time>
      </trkpt>
      <trkpt lat="43.88318" lon="7.40614">
        <ele>690.429</ele>
        <time>2016-07-08T12:49:43Z</time>
      </trkpt>
      <trkpt lat="43.88324" lon="7.4063">
        <ele>687.063</ele>
        <time>2016-07-08T12:49:45Z</time>
      </trkpt>
      <trkpt lat="43.88336" lon="7.40676">
        <ele>675.208</ele>
        <time>2016-07-08T12:49:51Z</time>
      </trkpt>
      <trkpt lat="43.8834" lon="7.40685">
        <ele>674.398</ele>
        <time>2016-07-08T12:49:52Z</time>
      </trkpt>
      <trkpt lat="43.8836" lon="7.40707">
        <ele>677.896</ele>
        <time>2016-07-08T12:49:57Z</time>
      </trkpt>
      <trkpt lat="43.88376" lon="7.40719">
        <ele>687.452</ele>
        <time>2016-07-08T12:50:00Z</time>
      </trkpt>
      <trkpt lat="43.88392" lon="7.40734">
        <ele>693.85</ele>
        <time>2016-07-08T12:50:03Z</time>
      </trkpt>
      <trkpt lat="43.88405" lon="7.40751">
        <ele>693.029</ele>
        <time>2016-07-08T12:50:06Z</time>
      </trkpt>
      <trkpt lat="43.88413" lon="7.40771">
        <ele>690.208</ele>
        <time>2016-07-08T12:50:09Z</time>
      </trkpt>
      <trkpt lat="43.88423" lon="7.40814">
        <ele>682.252</ele>
        <time>2016-07-08T12:50:14Z</time>
      </trkpt>
      <trkpt lat="43.88428" lon="7.40816">
        <ele>685.096</ele>
        <time>2016-07-08T12:50:15Z</time>
      </trkpt>
      <trkpt lat="43.88431" lon="7.40814">
        <ele>687.673</ele>
        <time>2016-07-08T12:50:15Z</time>
      </trkpt>
      <trkpt lat="43.88433" lon="7.40802">
        <ele>691.997</ele>
        <time>2016-07-08T12:50:17Z</time>
      </trkpt>
      <trkpt lat="43.88429" lon="7.40785">
        <ele>694.551</ele>
        <time>2016-07-08T12:50:19Z</time>
      </trkpt>
      <trkpt lat="43.88419" lon="7.40757">
        <ele>699.362</ele>
        <time>2016-07-08T12:50:23Z</time>
      </trkpt>
      <trkpt lat="43.88397" lon="7.40707">
        <ele>711.964</ele>
        <time>2016-07-08T12:50:30Z</time>
      </trkpt>
      <trkpt lat="43.88385" lon="7.40686">
        <ele>708.463</ele>
        <time>2016-07-08T12:50:33Z</time>
      </trkpt>
      <trkpt lat="43.88363" lon="7.40655">
        <ele>697.175</ele>
        <time>2016-07-08T12:50:38Z</time>
      </trkpt>
      <trkpt lat="43.88359" lon="7.40639">
        <ele>699.059</ele>
        <time>2016-07-08T12:50:40Z</time>
      </trkpt>
      <trkpt lat="43.88358" lon="7.40623">
        <ele>703.804</ele>
        <time>2016-07-08T12:50:42Z</time>
      </trkpt>
      <trkpt lat="43.8834" lon="7.40573">
        <ele>708.747</ele>
        <time>2016-07-08T12:50:49Z</time>
      </trkpt>
      <trkpt lat="43.8834" lon="7.40552">
        <ele>711.913</ele>
        <time>2016-07-08T12:50:51Z</time>
      </trkpt>
      <trkpt lat="43.88326" lon="7.40531">
        <ele>706.779</ele>
        <time>2016-07-08T12:50:55Z</time>
      </trkpt>
      <trkpt lat="43.88324" lon="7.40525">
        <ele>706.804</ele>
        <time>2016-07-08T12:50:55Z</time>
      </trkpt>
      <trkpt lat="43.88322" lon="7.4049">
        <ele>713.311</ele>
        <time>2016-07-08T12:51:00Z</time>
      </trkpt>
      <trkpt lat="43.88284" lon="7.40396">
        <ele>726.833</ele>
        <time>2016-07-08T12:51:13Z</time>
      </trkpt>
      <trkpt lat="43.8828" lon="7.40361">
        <ele>732.597</ele>
        <time>2016-07-08T12:51:17Z</time>
      </trkpt>
      <trkpt lat="43.88272" lon="7.40343">
        <ele>736.837</ele>
        <time>2016-07-08T12:51:19Z</time>
      </trkpt>
      <trkpt lat="43.88264" lon="7.40333">
        <ele>738.192</ele>
        <time>2016-07-08T12:51:21Z</time>
      </trkpt>
      <trkpt lat="43.88258" lon="7.40318">
        <ele>744.222</ele>
        <time>2016-07-08T12:51:23Z</time>
      </trkpt>
      <trkpt lat="43.88252" lon="7.40308">
        <ele>747.419</ele>
        <time>2016-07-08T12:51:25Z</time>
      </trkpt>
      <trkpt lat="43.88244" lon="7.4031">
        <ele>745.047</ele>
        <time>2016-07-08T12:51:26Z</time>
      </trkpt>
      <trkpt lat="43.8824" lon="7.40313">
        <ele>743.295</ele>
        <time>2016-07-08T12:51:27Z</time>
      </trkpt>
      <trkpt lat="43.88237" lon="7.40327">
        <ele>737.792</ele>
        <time>2016-07-08T12:51:29Z</time>
      </trkpt>
      <trkpt lat="43.88232" lon="7.40379">
        <ele>729.766</ele>
        <time>2016-07-08T12:51:35Z</time>
      </trkpt>
      <trkpt lat="43.8823" lon="7.40387">
        <ele>730.428</ele>
        <time>2016-07-08T12:51:36Z</time>
      </trkpt>
      <trkpt lat="43.88224" lon="7.404">
        <ele>729.275</ele>
        <time>2016-07-08T12:51:38Z</time>
      </trkpt>
      <trkpt lat="43.88207" lon="7.40425">
        <ele>735.334</ele>
        <time>2016-07-08T12:51:42Z</time>
      </trkpt>
      <trkpt lat="43.882" lon="7.40442">
        <ele>736.216</ele>
        <time>2016-07-08T12:51:44Z</time>
      </trkpt>
      <trkpt lat="43.88194" lon="7.4048">
        <ele>735.155</ele>
        <time>2016-07-08T12:51:49Z</time>
      </trkpt>
      <trkpt lat="43.88182" lon="7.40522">
        <ele>738.992</ele>
        <time>2016-07-08T12:51:54Z</time>
      </trkpt>
      <trkpt lat="43.88181" lon="7.40531">
        <ele>739.719</ele>
        <time>2016-07-08T12:51:55Z</time>
      </trkpt>
      <trkpt lat="43.88185" lon="7.40584">
        <ele>737.528</ele>
        <time>2016-07-08T12:52:02Z</time>
      </trkpt>
      <trkpt lat="43.88182" lon="7.40589">
        <ele>739.893</ele>
        <time>2016-07-08T12:52:02Z</time>
      </trkpt>
      <trkpt lat="43.88178" lon="7.4059">
        <ele>742.29</ele>
        <time>2016-07-08T12:52:03Z</time>
      </trkpt>
      <trkpt lat="43.88174" lon="7.40586">
        <ele>744.089</ele>
        <time>2016-07-08T12:52:04Z</time>
      </trkpt>
      <trkpt lat="43.88173" lon="7.40558">
        <ele>743.856</ele>
        <time>2016-07-08T12:52:07Z</time>
      </trkpt>
      <trkpt lat="43.88169" lon="7.40517">
        <ele>746.81</ele>
        <time>2016-07-08T12:52:12Z</time>
      </trkpt>
      <trkpt lat="43.88174" lon="7.40487">
        <ele>745.945</ele>
        <time>2016-07-08T12:52:16Z</time>
      </trkpt>
      <trkpt lat="43.88177" lon="7.40443">
        <ele>753.101</ele>
        <time>2016-07-08T12:52:21Z</time>
      </trkpt>
      <trkpt lat="43.88182" lon="7.40414">
        <ele>755.256</ele>
        <time>2016-07-08T12:52:25Z</time>
      </trkpt>
      <trkpt lat="43.88184" lon="7.40389">
        <ele>755.76</ele>
        <time>2016-07-08T12:52:28Z</time>
      </trkpt>
      <trkpt lat="43.88192" lon="7.40357">
        <ele>750.992</ele>
        <time>2016-07-08T12:52:32Z</time>
      </trkpt>
      <trkpt lat="43.88193" lon="7.40341">
        <ele>748.04</ele>
        <time>2016-07-08T12:52:34Z</time>
      </trkpt>
      <trkpt lat="43.88187" lon="7.40319">
        <ele>753.266</ele>
        <time>2016-07-08T12:52:37Z</time>
      </trkpt>
      <trkpt lat="43.88161" lon="7.40282">
        <ele>768.359</ele>
        <time>2016-07-08T12:52:43Z</time>
      </trkpt>
      <trkpt lat="43.88159" lon="7.40266">
        <ele>770.956</ele>
        <time>2016-07-08T12:52:45Z</time>
      </trkpt>
      <trkpt lat="43.88169" lon="7.40242">
        <ele>768.448</ele>
        <time>2016-07-08T12:52:48Z</time>
      </trkpt>
      <trkpt lat="43.88169" lon="7.40234">
        <ele>769.073</ele>
        <time>2016-07-08T12:52:49Z</time>
      </trkpt>
      <trkpt lat="43.88162" lon="7.40196">
        <ele>774.755</ele>
        <time>2016-07-08T12:52:54Z</time>
      </trkpt>
      <trkpt lat="43.88163" lon="7.40189">
        <ele>775.21</ele>
        <time>2016-07-08T12:52:54Z</time>
      </trkpt>
      <trkpt lat="43.88192" lon="7.40165">
        <ele>772.92</ele>
        <time>2016-07-08T12:53:00Z</time>
      </trkpt>
      <trkpt lat="43.88195" lon="7.40159">
        <ele>774.188</ele>
        <time>2016-07-08T12:53:01Z</time>
      </trkpt>
      <trkpt lat="43.88194" lon="7.40155">
        <ele>775.44</ele>
        <time>2016-07-08T12:53:01Z</time>
      </trkpt>
      <trkpt lat="43.88189" lon="7.4015">
        <ele>777.78</ele>
        <time>2016-07-08T12:53:02Z</time>
      </trkpt>
      <trkpt lat="43.8818" lon="7.40155">
        <ele>777.96</ele>
        <time>2016-07-08T12:53:04Z</time>
      </trkpt>
      <trkpt lat="43.88148" lon="7.40181">
        <ele>782.003</ele>
        <time>2016-07-08T12:53:10Z</time>
      </trkpt>
      <trkpt lat="43.88145" lon="7.40186">
        <ele>782.559</ele>
        <time>2016-07-08T12:53:11Z</time>
      </trkpt>
      <trkpt lat="43.88144" lon="7.40192">
        <ele>782.256</ele>
        <time>2016-07-08T12:53:12Z</time>
      </trkpt>
      <trkpt lat="43.88148" lon="7.40217">
        <ele>779.859</ele>
        <time>2016-07-08T12:53:15Z</time>
      </trkpt>
      <trkpt lat="43.88148" lon="7.40223">
        <ele>779.718</ele>
        <time>2016-07-08T12:53:16Z</time>
      </trkpt>
      <trkpt lat="43.88145" lon="7.40231">
        <ele>781.001</ele>
        <time>2016-07-08T12:53:17Z</time>
      </trkpt>
      <trkpt lat="43.88141" lon="7.40238">
        <ele>782.926</ele>
        <time>2016-07-08T12:53:18Z</time>
      </trkpt>
      <trkpt lat="43.88135" lon="7.40244">
        <ele>786.149</ele>
        <time>2016-07-08T12:53:19Z</time>
      </trkpt>
      <trkpt lat="43.88117" lon="7.40256">
        <ele>797.04</ele>
        <time>2016-07-08T12:53:22Z</time>
      </trkpt>
      <trkpt lat="43.88115" lon="7.4026">
        <ele>798.48</ele>
        <time>2016-07-08T12:53:23Z</time>
      </trkpt>
      <trkpt lat="43.88116" lon="7.40267">
        <ele>798.408</ele>
        <time>2016-07-08T12:53:24Z</time>
      </trkpt>
      <trkpt lat="43.88133" lon="7.40282">
        <ele>789.664</ele>
        <time>2016-07-08T12:53:27Z</time>
      </trkpt>
      <trkpt lat="43.88144" lon="7.40297">
        <ele>783.534</ele>
        <time>2016-07-08T12:53:30Z</time>
      </trkpt>
      <trkpt lat="43.88152" lon="7.40328">
        <ele>776.181</ele>
        <time>2016-07-08T12:53:33Z</time>
      </trkpt>
      <trkpt lat="43.88151" lon="7.40357">
        <ele>777.413</ele>
        <time>2016-07-08T12:53:37Z</time>
      </trkpt>
      <trkpt lat="43.88146" lon="7.4039">
        <ele>780.252</ele>
        <time>2016-07-08T12:53:41Z</time>
      </trkpt>
      <trkpt lat="43.88129" lon="7.40449">
        <ele>788.551</ele>
        <time>2016-07-08T12:53:49Z</time>
      </trkpt>
      <trkpt lat="43.88122" lon="7.40467">
        <ele>792.577</ele>
        <time>2016-07-08T12:53:51Z</time>
      </trkpt>
      <trkpt lat="43.8811" lon="7.40511">
        <ele>798.428</ele>
        <time>2016-07-08T12:53:57Z</time>
      </trkpt>
      <trkpt lat="43.8809" lon="7.40628">
        <ele>803.258</ele>
        <time>2016-07-08T12:54:11Z</time>
      </trkpt>
      <trkpt lat="43.88086" lon="7.40679">
        <ele>806.288</ele>
        <time>2016-07-08T12:54:17Z</time>
      </trkpt>
      <trkpt lat="43.8809" lon="7.40705">
        <ele>807.695</ele>
        <time>2016-07-08T12:54:20Z</time>
      </trkpt>
      <trkpt lat="43.88089" lon="7.40711">
        <ele>809.626</ele>
        <time>2016-07-08T12:54:21Z</time>
      </trkpt>
      <trkpt lat="43.88085" lon="7.40716">
        <ele>813.346</ele>
        <time>2016-07-08T12:54:22Z</time>
      </trkpt>
      <trkpt lat="43.8808" lon="7.40718">
        <ele>817.049</ele>
        <time>2016-07-08T12:54:23Z</time>
      </trkpt>
      <trkpt lat="43.88074" lon="7.40714">
        <ele>820.038</ele>
        <time>2016-07-08T12:54:24Z</time>
      </trkpt>
      <trkpt lat="43.88071" lon="7.407">
        <ele>819.369</ele>
        <time>2016-07-08T12:54:26Z</time>
      </trkpt>
      <trkpt lat="43.88077" lon="7.40591">
        <ele>813.811</ele>
        <time>2016-07-08T12:54:39Z</time>
      </trkpt>
      <trkpt lat="43.88077" lon="7.4053">
        <ele>820.968</ele>
        <time>2016-07-08T12:54:46Z</time>
      </trkpt>
      <trkpt lat="43.88074" lon="7.40467">
        <ele>830.144</ele>
        <time>2016-07-08T12:54:54Z</time>
      </trkpt>
      <trkpt lat="43.88076" lon="7.40455">
        <ele>830.288</ele>
        <time>2016-07-08T12:54:55Z</time>
      </trkpt>
      <trkpt lat="43.88088" lon="7.40427">
        <ele>825.376</ele>
        <time>2016-07-08T12:54:59Z</time>
      </trkpt>
      <trkpt lat="43.88095" lon="7.40397">
        <ele>820.013</ele>
        <time>2016-07-08T12:55:03Z</time>
      </trkpt>
      <trkpt lat="43.88097" lon="7.40372">
        <ele>817.584</ele>
        <time>2016-07-08T12:55:06Z</time>
      </trkpt>
      <trkpt lat="43.88096" lon="7.40352">
        <ele>817.014</ele>
        <time>2016-07-08T12:55:08Z</time>
      </trkpt>
      <trkpt lat="43.8809" lon="7.40343">
        <ele>820.606</ele>
        <time>2016-07-08T12:55:10Z</time>
      </trkpt>
      <trkpt lat="43.8808" lon="7.40334">
        <ele>825.689</ele>
        <time>2016-07-08T12:55:12Z</time>
      </trkpt>
      <trkpt lat="43.87991" lon="7.4028">
        <ele>845.206</ele>
        <time>2016-07-08T12:55:28Z</time>
      </trkpt>
      <trkpt lat="43.87972" lon="7.40272">
        <ele>849.901</ele>
        <time>2016-07-08T12:55:31Z</time>
      </trkpt>
      <trkpt lat="43.87966" lon="7.40268">
        <ele>852.797</ele>
        <time>2016-07-08T12:55:32Z</time>
      </trkpt>
      <trkpt lat="43.87964" lon="7.40266">
        <ele>853.801</ele>
        <time>2016-07-08T12:55:32Z</time>
      </trkpt>
      <trkpt lat="43.8796" lon="7.40252">
        <ele>856.017</ele>
        <time>2016-07-08T12:55:34Z</time>
      </trkpt>
      <trkpt lat="43.87963" lon="7.40237">
        <ele>857.743</ele>
        <time>2016-07-08T12:55:36Z</time>
      </trkpt>
      <trkpt lat="43.87969" lon="7.40228">
        <ele>856.492</ele>
        <time>2016-07-08T12:55:38Z</time>
      </trkpt>
      <trkpt lat="43.87996" lon="7.40205">
        <ele>849.889</ele>
        <time>2016-07-08T12:55:43Z</time>
      </trkpt>
      <trkpt lat="43.88022" lon="7.40188">
        <ele>842.337</ele>
        <time>2016-07-08T12:55:48Z</time>
      </trkpt>
      <trkpt lat="43.8803" lon="7.40179">
        <ele>839.548</ele>
        <time>2016-07-08T12:55:49Z</time>
      </trkpt>
      <trkpt lat="43.88032" lon="7.40173">
        <ele>839.188</ele>
        <time>2016-07-08T12:55:50Z</time>
      </trkpt>
      <trkpt lat="43.88034" lon="7.40162">
        <ele>839.443</ele>
        <time>2016-07-08T12:55:51Z</time>
      </trkpt>
      <trkpt lat="43.88032" lon="7.40113">
        <ele>845.182</ele>
        <time>2016-07-08T12:55:57Z</time>
      </trkpt>
      <trkpt lat="43.88023" lon="7.40087">
        <ele>850.516</ele>
        <time>2016-07-08T12:56:01Z</time>
      </trkpt>
      <trkpt lat="43.8802" lon="7.40068">
        <ele>850.941</ele>
        <time>2016-07-08T12:56:03Z</time>
      </trkpt>
      <trkpt lat="43.8802" lon="7.40032">
        <ele>850.056</ele>
        <time>2016-07-08T12:56:07Z</time>
      </trkpt>
      <trkpt lat="43.88017" lon="7.40027">
        <ele>851.391</ele>
        <time>2016-07-08T12:56:08Z</time>
      </trkpt>
      <trkpt lat="43.88011" lon="7.40028">
        <ele>853.65</ele>
        <time>2016-07-08T12:56:09Z</time>
      </trkpt>
      <trkpt lat="43.88008" lon="7.40039">
        <ele>855.291</ele>
        <time>2016-07-08T12:56:11Z</time>
      </trkpt>
      <trkpt lat="43.88012" lon="7.4009">
        <ele>856.689</ele>
        <time>2016-07-08T12:56:17Z</time>
      </trkpt>
      <trkpt lat="43.88018" lon="7.40135">
        <ele>852.221</ele>
        <time>2016-07-08T12:56:22Z</time>
      </trkpt>
      <trkpt lat="43.88014" lon="7.40154">
        <ele>851.939</ele>
        <time>2016-07-08T12:56:25Z</time>
      </trkpt>
      <trkpt lat="43.8801" lon="7.40164">
        <ele>852.195</ele>
        <time>2016-07-08T12:56:26Z</time>
      </trkpt>
      <trkpt lat="43.87951" lon="7.40212">
        <ele>870.547</ele>
        <time>2016-07-08T12:56:37Z</time>
      </trkpt>
      <trkpt lat="43.87896" lon="7.40269">
        <ele>888.308</ele>
        <time>2016-07-08T12:56:49Z</time>
      </trkpt>
      <trkpt lat="43.87893" lon="7.40279">
        <ele>887.328</ele>
        <time>2016-07-08T12:56:50Z</time>
      </trkpt>
      <trkpt lat="43.87893" lon="7.40287">
        <ele>887.04</ele>
        <time>2016-07-08T12:56:51Z</time>
      </trkpt>
      <trkpt lat="43.87895" lon="7.40293">
        <ele>886.032</ele>
        <time>2016-07-08T12:56:52Z</time>
      </trkpt>
      <trkpt lat="43.87905" lon="7.40308">
        <ele>882.125</ele>
        <time>2016-07-08T12:56:54Z</time>
      </trkpt>
      <trkpt lat="43.87949" lon="7.4034">
        <ele>874.857</ele>
        <time>2016-07-08T12:57:02Z</time>
      </trkpt>
      <trkpt lat="43.87986" lon="7.4036">
        <ele>871.668</ele>
        <time>2016-07-08T12:57:09Z</time>
      </trkpt>
      <trkpt lat="43.88002" lon="7.40371">
        <ele>868.03</ele>
        <time>2016-07-08T12:57:12Z</time>
      </trkpt>
      <trkpt lat="43.88008" lon="7.40376">
        <ele>866.966</ele>
        <time>2016-07-08T12:57:13Z</time>
      </trkpt>
      <trkpt lat="43.88011" lon="7.40387">
        <ele>868.731</ele>
        <time>2016-07-08T12:57:15Z</time>
      </trkpt>
      <trkpt lat="43.87994" lon="7.40474">
        <ele>889.248</ele>
        <time>2016-07-08T12:57:25Z</time>
      </trkpt>
      <trkpt lat="43.8799" lon="7.40535">
        <ele>893.353</ele>
        <time>2016-07-08T12:57:33Z</time>
      </trkpt>
      <trkpt lat="43.87987" lon="7.40562">
        <ele>894.421</ele>
        <time>2016-07-08T12:57:36Z</time>
      </trkpt>
      <trkpt lat="43.87983" lon="7.40582">
        <ele>893.353</ele>
        <time>2016-07-08T12:57:38Z</time>
      </trkpt>
      <trkpt lat="43.87959" lon="7.40659">
        <ele>901.115</ele>
        <time>2016-07-08T12:57:48Z</time>
      </trkpt>
      <trkpt lat="43.87939" lon="7.40741">
        <ele>907.468</ele>
        <time>2016-07-08T12:57:59Z</time>
      </trkpt>
      <trkpt lat="43.87948" lon="7.40792">
        <ele>902.226</ele>
        <time>2016-07-08T12:58:05Z</time>
      </trkpt>
      <trkpt lat="43.87956" lon="7.40871">
        <ele>908.284</ele>
        <time>2016-07-08T12:58:15Z</time>
      </trkpt>
      <trkpt lat="43.87968" lon="7.40943">
        <ele>905.58</ele>
        <time>2016-07-08T12:58:23Z</time>
      </trkpt>
      <trkpt lat="43.87978" lon="7.41019">
        <ele>905.741</ele>
        <time>2016-07-08T12:58:33Z</time>
      </trkpt>
      <trkpt lat="43.87982" lon="7.41033">
        <ele>905.218</ele>
        <time>2016-07-08T12:58:34Z</time>
      </trkpt>
      <trkpt lat="43.88008" lon="7.41083">
        <ele>903.503</ele>
        <time>2016-07-08T12:58:42Z</time>
      </trkpt>
      <trkpt lat="43.8801" lon="7.41101">
        <ele>905.108</ele>
        <time>2016-07-08T12:58:44Z</time>
      </trkpt>
      <trkpt lat="43.88006" lon="7.4111">
        <ele>906.8</ele>
        <time>2016-07-08T12:58:45Z</time>
      </trkpt>
      <trkpt lat="43.88" lon="7.41113">
        <ele>908</ele>
        <time>2016-07-08T12:58:46Z</time>
      </trkpt>
      <trkpt lat="43.87993" lon="7.41108">
        <ele>909.513</ele>
        <time>2016-07-08T12:58:48Z</time>
      </trkpt>
      <trkpt lat="43.87989" lon="7.41101">
        <ele>910.112</ele>
        <time>2016-07-08T12:58:49Z</time>
      </trkpt>
      <trkpt lat="43.87979" lon="7.41067">
        <ele>910.065</ele>
        <time>2016-07-08T12:58:53Z</time>
      </trkpt>
      <trkpt lat="43.87971" lon="7.41054">
        <ele>911.722</ele>
        <time>2016-07-08T12:58:55Z</time>
      </trkpt>
      <trkpt lat="43.87938" lon="7.40903">
        <ele>921.884</ele>
        <time>2016-07-08T12:59:14Z</time>
      </trkpt>
      <trkpt lat="43.87929" lon="7.40874">
        <ele>927.398</ele>
        <time>2016-07-08T12:59:18Z</time>
      </trkpt>
      <trkpt lat="43.87912" lon="7.40794">
        <ele>930.26</ele>
        <time>2016-07-08T12:59:28Z</time>
      </trkpt>
      <trkpt lat="43.87897" lon="7.40762">
        <ele>940.839</ele>
        <time>2016-07-08T12:59:32Z</time>
      </trkpt>
      <trkpt lat="43.87896" lon="7.40754">
        <ele>940.979</ele>
        <time>2016-07-08T12:59:33Z</time>
      </trkpt>
      <trkpt lat="43.87902" lon="7.4071">
        <ele>937.759</ele>
        <time>2016-07-08T12:59:39Z</time>
      </trkpt>
      <trkpt lat="43.87903" lon="7.40647">
        <ele>949.197</ele>
        <time>2016-07-08T12:59:46Z</time>
      </trkpt>
      <trkpt lat="43.87928" lon="7.4057">
        <ele>940.063</ele>
        <time>2016-07-08T12:59:56Z</time>
      </trkpt>
      <trkpt lat="43.87933" lon="7.40548">
        <ele>937.764</ele>
        <time>2016-07-08T12:59:59Z</time>
      </trkpt>
      <trkpt lat="43.87932" lon="7.40524">
        <ele>938.537</ele>
        <time>2016-07-08T13:00:02Z</time>
      </trkpt>
      <trkpt lat="43.87925" lon="7.40488">
        <ele>938.751</ele>
        <time>2016-07-08T13:00:06Z</time>
      </trkpt>
      <trkpt lat="43.87914" lon="7.40472">
        <ele>940.262</ele>
        <time>2016-07-08T13:00:09Z</time>
      </trkpt>
      <trkpt lat="43.879" lon="7.40463">
        <ele>943.482</ele>
        <time>2016-07-08T13:00:12Z</time>
      </trkpt>
      <trkpt lat="43.87851" lon="7.40441">
        <ele>952.437</ele>
        <time>2016-07-08T13:00:20Z</time>
      </trkpt>
      <trkpt lat="43.87821" lon="7.40425">
        <ele>955.708</ele>
        <time>2016-07-08T13:00:25Z</time>
      </trkpt>
      <trkpt lat="43.8778" lon="7.4041">
        <ele>961.842</ele>
        <time>2016-07-08T13:00:32Z</time>
      </trkpt>
      <trkpt lat="43.87767" lon="7.40402">
        <ele>964.786</ele>
        <time>2016-07-08T13:00:35Z</time>
      </trkpt>
      <trkpt lat="43.87754" lon="7.4039">
        <ele>967.316</ele>
        <time>2016-07-08T13:00:37Z</time>
      </trkpt>
      <trkpt lat="43.8775" lon="7.40383">
        <ele>967.728</ele>
        <time>2016-07-08T13:00:38Z</time>
      </trkpt>
      <trkpt lat="43.87756" lon="7.40349">
        <ele>957.58</ele>
        <time>2016-07-08T13:00:43Z</time>
      </trkpt>
      <trkpt lat="43.87755" lon="7.40338">
        <ele>956.14</ele>
        <time>2016-07-08T13:00:44Z</time>
      </trkpt>
      <trkpt lat="43.8775" lon="7.40328">
        <ele>957.616</ele>
        <time>2016-07-08T13:00:45Z</time>
      </trkpt>
      <trkpt lat="43.87729" lon="7.40308">
        <ele>969.851</ele>
        <time>2016-07-08T13:00:50Z</time>
      </trkpt>
      <trkpt lat="43.87721" lon="7.40283">
        <ele>974.696</ele>
        <time>2016-07-08T13:00:53Z</time>
      </trkpt>
      <trkpt lat="43.87718" lon="7.40267">
        <ele>977.149</ele>
        <time>2016-07-08T13:00:55Z</time>
      </trkpt>
      <trkpt lat="43.87718" lon="7.40255">
        <ele>977.947</ele>
        <time>2016-07-08T13:00:56Z</time>
      </trkpt>
      <trkpt lat="43.87725" lon="7.40231">
        <ele>977.82</ele>
        <time>2016-07-08T13:00:59Z</time>
      </trkpt>
      <trkpt lat="43.87744" lon="7.40192">
        <ele>977.721</ele>
        <time>2016-07-08T13:01:05Z</time>
      </trkpt>
      <trkpt lat="43.87787" lon="7.4016">
        <ele>966.777</ele>
        <time>2016-07-08T13:01:13Z</time>
      </trkpt>
      <trkpt lat="43.87798" lon="7.40149">
        <ele>964.426</ele>
        <time>2016-07-08T13:01:15Z</time>
      </trkpt>
      <trkpt lat="43.87803" lon="7.40137">
        <ele>964.505</ele>
        <time>2016-07-08T13:01:17Z</time>
      </trkpt>
      <trkpt lat="43.87803" lon="7.40122">
        <ele>966.224</ele>
        <time>2016-07-08T13:01:19Z</time>
      </trkpt>
      <trkpt lat="43.87787" lon="7.40067">
        <ele>982.964</ele>
        <time>2016-07-08T13:01:26Z</time>
      </trkpt>
      <trkpt lat="43.87785" lon="7.40052">
        <ele>987.088</ele>
        <time>2016-07-08T13:01:28Z</time>
      </trkpt>
      <trkpt lat="43.87785" lon="7.40021">
        <ele>992.989</ele>
        <time>2016-07-08T13:01:31Z</time>
      </trkpt>
      <trkpt lat="43.87789" lon="7.39974">
        <ele>991.766</ele>
        <time>2016-07-08T13:01:37Z</time>
      </trkpt>
      <trkpt lat="43.87798" lon="7.39914">
        <ele>993.552</ele>
        <time>2016-07-08T13:01:44Z</time>
      </trkpt>
      <trkpt lat="43.87803" lon="7.39863">
        <ele>993.919</ele>
        <time>2016-07-08T13:01:51Z</time>
      </trkpt>
      <trkpt lat="43.87784" lon="7.39768">
        <ele>1012.395</ele>
        <time>2016-07-08T13:02:02Z</time>
      </trkpt>
      <trkpt lat="43.87784" lon="7.39735">
        <ele>1014.825</ele>
        <time>2016-07-08T13:02:06Z</time>
      </trkpt>
      <trkpt lat="43.87786" lon="7.39697">
        <ele>1017.185</ele>
        <time>2016-07-08T13:02:11Z</time>
      </trkpt>
      <trkpt lat="43.87803" lon="7.39574">
        <ele>1023.411</ele>
        <time>2016-07-08T13:02:26Z</time>
      </trkpt>
      <trkpt lat="43.87813" lon="7.39543">
        <ele>1030.985</ele>
        <time>2016-07-08T13:02:30Z</time>
      </trkpt>
      <trkpt lat="43.87824" lon="7.39531">
        <ele>1031.228</ele>
        <time>2016-07-08T13:02:32Z</time>
      </trkpt>
      <trkpt lat="43.87864" lon="7.39504">
        <ele>1029.226</ele>
        <time>2016-07-08T13:02:40Z</time>
      </trkpt>
      <trkpt lat="43.87891" lon="7.3948">
        <ele>1023.86</ele>
        <time>2016-07-08T13:02:45Z</time>
      </trkpt>
      <trkpt lat="43.87917" lon="7.39468">
        <ele>1019.364</ele>
        <time>2016-07-08T13:02:50Z</time>
      </trkpt>
      <trkpt lat="43.87936" lon="7.39465">
        <ele>1019.978</ele>
        <time>2016-07-08T13:02:53Z</time>
      </trkpt>
      <trkpt lat="43.87957" lon="7.39469">
        <ele>1019.611</ele>
        <time>2016-07-08T13:02:56Z</time>
      </trkpt>
      <trkpt lat="43.87973" lon="7.39463">
        <ele>1021.669</ele>
        <time>2016-07-08T13:02:59Z</time>
      </trkpt>
      <trkpt lat="43.88022" lon="7.39436">
        <ele>1022.295</ele>
        <time>2016-07-08T13:03:08Z</time>
      </trkpt>
      <trkpt lat="43.8803" lon="7.3943">
        <ele>1021.72</ele>
        <time>2016-07-08T13:03:09Z</time>
      </trkpt>
      <trkpt lat="43.88054" lon="7.3942">
        <ele>1018.984</ele>
        <time>2016-07-08T13:03:13Z</time>
      </trkpt>
      <trkpt lat="43.88058" lon="7.39416">
        <ele>1019.094</ele>
        <time>2016-07-08T13:03:14Z</time>
      </trkpt>
      <trkpt lat="43.88058" lon="7.39405">
        <ele>1020.643</ele>
        <time>2016-07-08T13:03:16Z</time>
      </trkpt>
      <trkpt lat="43.88053" lon="7.39399">
        <ele>1021.971</ele>
        <time>2016-07-08T13:03:17Z</time>
      </trkpt>
      <trkpt lat="43.88048" lon="7.39397">
        <ele>1023.113</ele>
        <time>2016-07-08T13:03:17Z</time>
      </trkpt>
      <trkpt lat="43.88033" lon="7.39398">
        <ele>1025.482</ele>
        <time>2016-07-08T13:03:20Z</time>
      </trkpt>
      <trkpt lat="43.88012" lon="7.3939">
        <ele>1030.617</ele>
        <time>2016-07-08T13:03:24Z</time>
      </trkpt>
      <trkpt lat="43.87972" lon="7.39397">
        <ele>1034.27</ele>
        <time>2016-07-08T13:03:30Z</time>
      </trkpt>
      <trkpt lat="43.87956" lon="7.39406">
        <ele>1033.696</ele>
        <time>2016-07-08T13:03:33Z</time>
      </trkpt>
      <trkpt lat="43.87942" lon="7.39426">
        <ele>1029.882</ele>
        <time>2016-07-08T13:03:36Z</time>
      </trkpt>
      <trkpt lat="43.8793" lon="7.39431">
        <ele>1029.68</ele>
        <time>2016-07-08T13:03:39Z</time>
      </trkpt>
      <trkpt lat="43.87893" lon="7.39427">
        <ele>1039.91</ele>
        <time>2016-07-08T13:03:45Z</time>
      </trkpt>
      <trkpt lat="43.87879" lon="7.39431">
        <ele>1043.94</ele>
        <time>2016-07-08T13:03:47Z</time>
      </trkpt>
      <trkpt lat="43.87868" lon="7.39442">
        <ele>1044.838</ele>
        <time>2016-07-08T13:03:49Z</time>
      </trkpt>
      <trkpt lat="43.8786" lon="7.39457">
        <ele>1044.174</ele>
        <time>2016-07-08T13:03:52Z</time>
      </trkpt>
      <trkpt lat="43.87847" lon="7.39469">
        <ele>1045.325</ele>
        <time>2016-07-08T13:03:54Z</time>
      </trkpt>
      <trkpt lat="43.87813" lon="7.39488">
        <ele>1046.904</ele>
        <time>2016-07-08T13:04:00Z</time>
      </trkpt>
      <trkpt lat="43.87777" lon="7.39535">
        <ele>1043.235</ele>
        <time>2016-07-08T13:04:08Z</time>
      </trkpt>
      <trkpt lat="43.87766" lon="7.39539">
        <ele>1043.131</ele>
        <time>2016-07-08T13:04:10Z</time>
      </trkpt>
      <trkpt lat="43.8776" lon="7.39537">
        <ele>1043.429</ele>
        <time>2016-07-08T13:04:11Z</time>
      </trkpt>
      <trkpt lat="43.87756" lon="7.39533">
        <ele>1043.731</ele>
        <time>2016-07-08T13:04:12Z</time>
      </trkpt>
      <trkpt lat="43.87744" lon="7.39511">
        <ele>1044.388</ele>
        <time>2016-07-08T13:04:15Z</time>
      </trkpt>
      <trkpt lat="43.87706" lon="7.39458">
        <ele>1042.557</ele>
        <time>2016-07-08T13:04:24Z</time>
      </trkpt>
      <trkpt lat="43.87684" lon="7.39436">
        <ele>1041.104</ele>
        <time>2016-07-08T13:04:29Z</time>
      </trkpt>
      <trkpt lat="43.87676" lon="7.39417">
        <ele>1041.32</ele>
        <time>2016-07-08T13:04:32Z</time>
      </trkpt>
      <trkpt lat="43.87666" lon="7.39399">
        <ele>1041.2</ele>
        <time>2016-07-08T13:04:34Z</time>
      </trkpt>
      <trkpt lat="43.87639" lon="7.39366">
        <ele>1042.311</ele>
        <time>2016-07-08T13:04:40Z</time>
      </trkpt>
      <trkpt lat="43.87633" lon="7.39367">
        <ele>1041.092</ele>
        <time>2016-07-08T13:04:41Z</time>
      </trkpt>
      <trkpt lat="43.87615" lon="7.39359">
        <ele>1039.221</ele>
        <time>2016-07-08T13:04:44Z</time>
      </trkpt>
      <trkpt lat="43.8757" lon="7.39344">
        <ele>1035.271</ele>
        <time>2016-07-08T13:04:52Z</time>
      </trkpt>
      <trkpt lat="43.8754" lon="7.39331">
        <ele>1033.751</ele>
        <time>2016-07-08T13:04:57Z</time>
      </trkpt>
      <trkpt lat="43.87438" lon="7.39279">
        <ele>1024.93</ele>
        <time>2016-07-08T13:05:15Z</time>
      </trkpt>
      <trkpt lat="43.87429" lon="7.39269">
        <ele>1024.689</ele>
        <time>2016-07-08T13:05:17Z</time>
      </trkpt>
      <trkpt lat="43.87425" lon="7.39259">
        <ele>1024.958</ele>
        <time>2016-07-08T13:05:19Z</time>
      </trkpt>
      <trkpt lat="43.87428" lon="7.3923">
        <ele>1028.608</ele>
        <time>2016-07-08T13:05:22Z</time>
      </trkpt>
      <trkpt lat="43.87423" lon="7.39223">
        <ele>1028.284</ele>
        <time>2016-07-08T13:05:23Z</time>
      </trkpt>
      <trkpt lat="43.87399" lon="7.39209">
        <ele>1024.959</ele>
        <time>2016-07-08T13:05:28Z</time>
      </trkpt>
      <trkpt lat="43.87378" lon="7.39193">
        <ele>1022.239</ele>
        <time>2016-07-08T13:05:31Z</time>
      </trkpt>
      <trkpt lat="43.87359" lon="7.39181">
        <ele>1019.51</ele>
        <time>2016-07-08T13:05:35Z</time>
      </trkpt>
      <trkpt lat="43.87348" lon="7.39178">
        <ele>1017.439</ele>
        <time>2016-07-08T13:05:37Z</time>
      </trkpt>
      <trkpt lat="43.87327" lon="7.39179">
        <ele>1013.312</ele>
        <time>2016-07-08T13:05:40Z</time>
      </trkpt>
      <trkpt lat="43.87318" lon="7.39174">
        <ele>1012.736</ele>
        <time>2016-07-08T13:05:42Z</time>
      </trkpt>
      <trkpt lat="43.87282" lon="7.39134">
        <ele>1014.038</ele>
        <time>2016-07-08T13:05:50Z</time>
      </trkpt>
      <trkpt lat="43.8727" lon="7.39118">
        <ele>1012.736</ele>
        <time>2016-07-08T13:05:52Z</time>
      </trkpt>
      <trkpt lat="43.87266" lon="7.39116">
        <ele>1011.656</ele>
        <time>2016-07-08T13:05:53Z</time>
      </trkpt>
      <trkpt lat="43.87262" lon="7.39118">
        <ele>1010.144</ele>
        <time>2016-07-08T13:05:54Z</time>
      </trkpt>
      <trkpt lat="43.87262" lon="7.39127">
        <ele>1009.172</ele>
        <time>2016-07-08T13:05:55Z</time>
      </trkpt>
      <trkpt lat="43.87271" lon="7.39142">
        <ele>1010.271</ele>
        <time>2016-07-08T13:05:57Z</time>
      </trkpt>
      <trkpt lat="43.87293" lon="7.39198">
        <ele>1004.322</ele>
        <time>2016-07-08T13:06:05Z</time>
      </trkpt>
      <trkpt lat="43.873" lon="7.39206">
        <ele>1003.555</ele>
        <time>2016-07-08T13:06:06Z</time>
      </trkpt>
      <trkpt lat="43.87305" lon="7.39208">
        <ele>1003.986</ele>
        <time>2016-07-08T13:06:07Z</time>
      </trkpt>
      <trkpt lat="43.87318" lon="7.39218">
        <ele>1004.528</ele>
        <time>2016-07-08T13:06:10Z</time>
      </trkpt>
      <trkpt lat="43.87326" lon="7.39231">
        <ele>1004.391</ele>
        <time>2016-07-08T13:06:12Z</time>
      </trkpt>
      <trkpt lat="43.87329" lon="7.39254">
        <ele>1001.476</ele>
        <time>2016-07-08T13:06:14Z</time>
      </trkpt>
      <trkpt lat="43.87323" lon="7.3928">
        <ele>997.286</ele>
        <time>2016-07-08T13:06:18Z</time>
      </trkpt>
      <trkpt lat="43.87321" lon="7.39295">
        <ele>995.997</ele>
        <time>2016-07-08T13:06:20Z</time>
      </trkpt>
      <trkpt lat="43.87321" lon="7.39311">
        <ele>995.121</ele>
        <time>2016-07-08T13:06:21Z</time>
      </trkpt>
      <trkpt lat="43.87328" lon="7.39337">
        <ele>994.487</ele>
        <time>2016-07-08T13:06:25Z</time>
      </trkpt>
      <trkpt lat="43.87349" lon="7.39374">
        <ele>993.266</ele>
        <time>2016-07-08T13:06:30Z</time>
      </trkpt>
      <trkpt lat="43.87358" lon="7.39385">
        <ele>993.124</ele>
        <time>2016-07-08T13:06:32Z</time>
      </trkpt>
      <trkpt lat="43.8737" lon="7.39395">
        <ele>994.07</ele>
        <time>2016-07-08T13:06:35Z</time>
      </trkpt>
      <trkpt lat="43.87378" lon="7.39404">
        <ele>994.205</ele>
        <time>2016-07-08T13:06:36Z</time>
      </trkpt>
      <trkpt lat="43.87388" lon="7.39421">
        <ele>993.189</ele>
        <time>2016-07-08T13:06:39Z</time>
      </trkpt>
      <trkpt lat="43.874" lon="7.39456">
        <ele>990.736</ele>
        <time>2016-07-08T13:06:44Z</time>
      </trkpt>
      <trkpt lat="43.87412" lon="7.39505">
        <ele>986.65</ele>
        <time>2016-07-08T13:06:50Z</time>
      </trkpt>
      <trkpt lat="43.87421" lon="7.39528">
        <ele>985.936</ele>
        <time>2016-07-08T13:06:53Z</time>
      </trkpt>
      <trkpt lat="43.8742" lon="7.39554">
        <ele>985.72</ele>
        <time>2016-07-08T13:06:56Z</time>
      </trkpt>
      <trkpt lat="43.87404" lon="7.39622">
        <ele>985.504</ele>
        <time>2016-07-08T13:07:05Z</time>
      </trkpt>
      <trkpt lat="43.87404" lon="7.39688">
        <ele>993.298</ele>
        <time>2016-07-08T13:07:13Z</time>
      </trkpt>
      <trkpt lat="43.874" lon="7.39706">
        <ele>994.698</ele>
        <time>2016-07-08T13:07:15Z</time>
      </trkpt>
      <trkpt lat="43.87388" lon="7.39727">
        <ele>994.507</ele>
        <time>2016-07-08T13:07:18Z</time>
      </trkpt>
      <trkpt lat="43.87375" lon="7.39739">
        <ele>994.02</ele>
        <time>2016-07-08T13:07:21Z</time>
      </trkpt>
      <trkpt lat="43.87359" lon="7.39748">
        <ele>993.416</ele>
        <time>2016-07-08T13:07:23Z</time>
      </trkpt>
      <trkpt lat="43.87349" lon="7.39756">
        <ele>994.114</ele>
        <time>2016-07-08T13:07:25Z</time>
      </trkpt>
      <trkpt lat="43.87339" lon="7.39768">
        <ele>995.132</ele>
        <time>2016-07-08T13:07:28Z</time>
      </trkpt>
      <trkpt lat="43.87302" lon="7.39839">
        <ele>998.33</ele>
        <time>2016-07-08T13:07:38Z</time>
      </trkpt>
      <trkpt lat="43.8727" lon="7.3988">
        <ele>1000.339</ele>
        <time>2016-07-08T13:07:45Z</time>
      </trkpt>
      <trkpt lat="43.87263" lon="7.39892">
        <ele>1001.16</ele>
        <time>2016-07-08T13:07:47Z</time>
      </trkpt>
      <trkpt lat="43.87257" lon="7.39919">
        <ele>1002.652</ele>
        <time>2016-07-08T13:07:50Z</time>
      </trkpt>
      <trkpt lat="43.87243" lon="7.39913">
        <ele>1001.703</ele>
        <time>2016-07-08T13:07:53Z</time>
      </trkpt>
      <trkpt lat="43.87227" lon="7.39901">
        <ele>1000.405</ele>
        <time>2016-07-08T13:07:56Z</time>
      </trkpt>
      <trkpt lat="43.87215" lon="7.399">
        <ele>1000.044</ele>
        <time>2016-07-08T13:07:58Z</time>
      </trkpt>
      <trkpt lat="43.87149" lon="7.39925">
        <ele>1004.454</ele>
        <time>2016-07-08T13:08:09Z</time>
      </trkpt>
      <trkpt lat="43.87074" lon="7.39957">
        <ele>1012.424</ele>
        <time>2016-07-08T13:08:22Z</time>
      </trkpt>
      <trkpt lat="43.87046" lon="7.39967">
        <ele>1016.4</ele>
        <time>2016-07-08T13:08:27Z</time>
      </trkpt>
      <trkpt lat="43.87018" lon="7.39974">
        <ele>1018.749</ele>
        <time>2016-07-08T13:08:32Z</time>
      </trkpt>
      <trkpt lat="43.86848" lon="7.40024">
        <ele>1030.352</ele>
        <time>2016-07-08T13:09:01Z</time>
      </trkpt>
      <trkpt lat="43.86814" lon="7.40037">
        <ele>1034.854</ele>
        <time>2016-07-08T13:09:06Z</time>
      </trkpt>
      <trkpt lat="43.86783" lon="7.40052">
        <ele>1036.636</ele>
        <time>2016-07-08T13:09:12Z</time>
      </trkpt>
      <trkpt lat="43.86733" lon="7.40071">
        <ele>1040.349</ele>
        <time>2016-07-08T13:09:21Z</time>
      </trkpt>
      <trkpt lat="43.86687" lon="7.40095">
        <ele>1045.743</ele>
        <time>2016-07-08T13:09:29Z</time>
      </trkpt>
      <trkpt lat="43.86628" lon="7.40123">
        <ele>1048.068</ele>
        <time>2016-07-08T13:09:39Z</time>
      </trkpt>
      <trkpt lat="43.86574" lon="7.40156">
        <ele>1056.566</ele>
        <time>2016-07-08T13:09:49Z</time>
      </trkpt>
      <trkpt lat="43.86527" lon="7.40177">
        <ele>1058.446</ele>
        <time>2016-07-08T13:09:57Z</time>
      </trkpt>
      <trkpt lat="43.86439" lon="7.40232">
        <ele>1059.317</ele>
        <time>2016-07-08T13:10:13Z</time>
      </trkpt>
      <trkpt lat="43.86432" lon="7.4024">
        <ele>1059.636</ele>
        <time>2016-07-08T13:10:15Z</time>
      </trkpt>
      <trkpt lat="43.86429" lon="7.40246">
        <ele>1060.04</ele>
        <time>2016-07-08T13:10:15Z</time>
      </trkpt>
      <trkpt lat="43.86432" lon="7.40276">
        <ele>1064.734</ele>
        <time>2016-07-08T13:10:19Z</time>
      </trkpt>
      <trkpt lat="43.86431" lon="7.40303">
        <ele>1065.142</ele>
        <time>2016-07-08T13:10:22Z</time>
      </trkpt>
      <trkpt lat="43.86435" lon="7.40325">
        <ele>1067.606</ele>
        <time>2016-07-08T13:10:25Z</time>
      </trkpt>
      <trkpt lat="43.86441" lon="7.40343">
        <ele>1071.531</ele>
        <time>2016-07-08T13:10:27Z</time>
      </trkpt>
      <trkpt lat="43.86458" lon="7.40381">
        <ele>1076.677</ele>
        <time>2016-07-08T13:10:33Z</time>
      </trkpt>
      <trkpt lat="43.86484" lon="7.40407">
        <ele>1075.708</ele>
        <time>2016-07-08T13:10:38Z</time>
      </trkpt>
      <trkpt lat="43.86494" lon="7.40421">
        <ele>1073.694</ele>
        <time>2016-07-08T13:10:40Z</time>
      </trkpt>
      <trkpt lat="43.86496" lon="7.40435">
        <ele>1071.833</ele>
        <time>2016-07-08T13:10:42Z</time>
      </trkpt>
      <trkpt lat="43.86491" lon="7.40469">
        <ele>1070.588</ele>
        <time>2016-07-08T13:10:46Z</time>
      </trkpt>
      <trkpt lat="43.86485" lon="7.4049">
        <ele>1071.466</ele>
        <time>2016-07-08T13:10:49Z</time>
      </trkpt>
      <trkpt lat="43.8646" lon="7.40558">
        <ele>1077.437</ele>
        <time>2016-07-08T13:10:58Z</time>
      </trkpt>
      <trkpt lat="43.86451" lon="7.40593">
        <ele>1077.311</ele>
        <time>2016-07-08T13:11:02Z</time>
      </trkpt>
      <trkpt lat="43.86443" lon="7.40633">
        <ele>1079.283</ele>
        <time>2016-07-08T13:11:07Z</time>
      </trkpt>
      <trkpt lat="43.86427" lon="7.40695">
        <ele>1084.568</ele>
        <time>2016-07-08T13:11:15Z</time>
      </trkpt>
      <trkpt lat="43.86416" lon="7.40717">
        <ele>1086.128</ele>
        <time>2016-07-08T13:11:19Z</time>
      </trkpt>
      <trkpt lat="43.8638" lon="7.40776">
        <ele>1092.36</ele>
        <time>2016-07-08T13:11:28Z</time>
      </trkpt>
      <trkpt lat="43.86377" lon="7.40787">
        <ele>1093.758</ele>
        <time>2016-07-08T13:11:29Z</time>
      </trkpt>
      <trkpt lat="43.86377" lon="7.40793">
        <ele>1094.529</ele>
        <time>2016-07-08T13:11:30Z</time>
      </trkpt>
      <trkpt lat="43.86373" lon="7.40805">
        <ele>1095.787</ele>
        <time>2016-07-08T13:11:31Z</time>
      </trkpt>
      <trkpt lat="43.8634" lon="7.40844">
        <ele>1100.588</ele>
        <time>2016-07-08T13:11:39Z</time>
      </trkpt>
      <trkpt lat="43.86327" lon="7.40844">
        <ele>1101.429</ele>
        <time>2016-07-08T13:11:41Z</time>
      </trkpt>
      <trkpt lat="43.86319" lon="7.40835">
        <ele>1100.786</ele>
        <time>2016-07-08T13:11:43Z</time>
      </trkpt>
      <trkpt lat="43.86306" lon="7.40799">
        <ele>1096.264</ele>
        <time>2016-07-08T13:11:47Z</time>
      </trkpt>
      <trkpt lat="43.86299" lon="7.4079">
        <ele>1094.376</ele>
        <time>2016-07-08T13:11:49Z</time>
      </trkpt>
      <trkpt lat="43.86292" lon="7.40791">
        <ele>1093.476</ele>
        <time>2016-07-08T13:11:50Z</time>
      </trkpt>
      <trkpt lat="43.86283" lon="7.408">
        <ele>1093.152</ele>
        <time>2016-07-08T13:11:52Z</time>
      </trkpt>
      <trkpt lat="43.86259" lon="7.40872">
        <ele>1100.061</ele>
        <time>2016-07-08T13:12:01Z</time>
      </trkpt>
      <trkpt lat="43.86242" lon="7.40896">
        <ele>1100.008</ele>
        <time>2016-07-08T13:12:05Z</time>
      </trkpt>
      <trkpt lat="43.86215" lon="7.40921">
        <ele>1097.959</ele>
        <time>2016-07-08T13:12:11Z</time>
      </trkpt>
      <trkpt lat="43.86205" lon="7.40923">
        <ele>1097.139</ele>
        <time>2016-07-08T13:12:13Z</time>
      </trkpt>
      <trkpt lat="43.86188" lon="7.40923">
        <ele>1095.912</ele>
        <time>2016-07-08T13:12:15Z</time>
      </trkpt>
      <trkpt lat="43.86176" lon="7.40916">
        <ele>1094.944</ele>
        <time>2016-07-08T13:12:17Z</time>
      </trkpt>
      <trkpt lat="43.86173" lon="7.40903">
        <ele>1093.904</ele>
        <time>2016-07-08T13:12:19Z</time>
      </trkpt>
      <trkpt lat="43.86175" lon="7.40772">
        <ele>1077.946</ele>
        <time>2016-07-08T13:12:35Z</time>
      </trkpt>
      <trkpt lat="43.86174" lon="7.40765">
        <ele>1077.465</ele>
        <time>2016-07-08T13:12:36Z</time>
      </trkpt>
      <trkpt lat="43.86169" lon="7.40759">
        <ele>1076.789</ele>
        <time>2016-07-08T13:12:37Z</time>
      </trkpt>
      <trkpt lat="43.86162" lon="7.40761">
        <ele>1075.144</ele>
        <time>2016-07-08T13:12:38Z</time>
      </trkpt>
      <trkpt lat="43.86151" lon="7.40783">
        <ele>1074.664</ele>
        <time>2016-07-08T13:12:41Z</time>
      </trkpt>
      <trkpt lat="43.86141" lon="7.40794">
        <ele>1075.102</ele>
        <time>2016-07-08T13:12:43Z</time>
      </trkpt>
      <trkpt lat="43.861" lon="7.40818">
        <ele>1073.874</ele>
        <time>2016-07-08T13:12:51Z</time>
      </trkpt>
      <trkpt lat="43.86089" lon="7.4082">
        <ele>1073.26</ele>
        <time>2016-07-08T13:12:52Z</time>
      </trkpt>
      <trkpt lat="43.86067" lon="7.40816">
        <ele>1070.31</ele>
        <time>2016-07-08T13:12:56Z</time>
      </trkpt>
      <trkpt lat="43.86046" lon="7.40817">
        <ele>1068.595</ele>
        <time>2016-07-08T13:13:00Z</time>
      </trkpt>
      <trkpt lat="43.85997" lon="7.40828">
        <ele>1065.908</ele>
        <time>2016-07-08T13:13:08Z</time>
      </trkpt>
      <trkpt lat="43.85983" lon="7.40828">
        <ele>1064.396</ele>
        <time>2016-07-08T13:13:10Z</time>
      </trkpt>
      <trkpt lat="43.85972" lon="7.40824">
        <ele>1062.659</ele>
        <time>2016-07-08T13:13:12Z</time>
      </trkpt>
      <trkpt lat="43.85938" lon="7.408">
        <ele>1060.603</ele>
        <time>2016-07-08T13:13:18Z</time>
      </trkpt>
      <trkpt lat="43.85922" lon="7.40792">
        <ele>1060.195</ele>
        <time>2016-07-08T13:13:21Z</time>
      </trkpt>
      <trkpt lat="43.85882" lon="7.40782">
        <ele>1055.358</ele>
        <time>2016-07-08T13:13:28Z</time>
      </trkpt>
      <trkpt lat="43.85838" lon="7.40778">
        <ele>1047.911</ele>
        <time>2016-07-08T13:13:35Z</time>
      </trkpt>
      <trkpt lat="43.85826" lon="7.40781">
        <ele>1045.871</ele>
        <time>2016-07-08T13:13:37Z</time>
      </trkpt>
      <trkpt lat="43.85821" lon="7.40784">
        <ele>1045.265</ele>
        <time>2016-07-08T13:13:38Z</time>
      </trkpt>
      <trkpt lat="43.85815" lon="7.40791">
        <ele>1045.376</ele>
        <time>2016-07-08T13:13:40Z</time>
      </trkpt>
      <trkpt lat="43.85801" lon="7.40814">
        <ele>1045.726</ele>
        <time>2016-07-08T13:13:43Z</time>
      </trkpt>
      <trkpt lat="43.85789" lon="7.40844">
        <ele>1046.825</ele>
        <time>2016-07-08T13:13:47Z</time>
      </trkpt>
      <trkpt lat="43.85782" lon="7.40857">
        <ele>1046.49</ele>
        <time>2016-07-08T13:13:49Z</time>
      </trkpt>
      <trkpt lat="43.85762" lon="7.40873">
        <ele>1044.259</ele>
        <time>2016-07-08T13:13:53Z</time>
      </trkpt>
      <trkpt lat="43.85749" lon="7.4088">
        <ele>1042.909</ele>
        <time>2016-07-08T13:13:55Z</time>
      </trkpt>
      <trkpt lat="43.85738" lon="7.40882">
        <ele>1041.746</ele>
        <time>2016-07-08T13:13:57Z</time>
      </trkpt>
      <trkpt lat="43.85727" lon="7.40881">
        <ele>1040.194</ele>
        <time>2016-07-08T13:13:59Z</time>
      </trkpt>
      <trkpt lat="43.85718" lon="7.40878">
        <ele>1039.496</ele>
        <time>2016-07-08T13:14:01Z</time>
      </trkpt>
      <trkpt lat="43.85699" lon="7.40867">
        <ele>1039.568</ele>
        <time>2016-07-08T13:14:04Z</time>
      </trkpt>
      <trkpt lat="43.85672" lon="7.40848">
        <ele>1041.216</ele>
        <time>2016-07-08T13:14:09Z</time>
      </trkpt>
      <trkpt lat="43.85663" lon="7.40839">
        <ele>1041.497</ele>
        <time>2016-07-08T13:14:11Z</time>
      </trkpt>
      <trkpt lat="43.85644" lon="7.40805">
        <ele>1035.525</ele>
        <time>2016-07-08T13:14:16Z</time>
      </trkpt>
      <trkpt lat="43.85629" lon="7.40786">
        <ele>1032.229</ele>
        <time>2016-07-08T13:14:19Z</time>
      </trkpt>
      <trkpt lat="43.85605" lon="7.40765">
        <ele>1027.478</ele>
        <time>2016-07-08T13:14:24Z</time>
      </trkpt>
      <trkpt lat="43.85593" lon="7.40761">
        <ele>1026.892</ele>
        <time>2016-07-08T13:14:26Z</time>
      </trkpt>
      <trkpt lat="43.8558" lon="7.40759">
        <ele>1026.754</ele>
        <time>2016-07-08T13:14:28Z</time>
      </trkpt>
      <trkpt lat="43.85565" lon="7.4076">
        <ele>1027.725</ele>
        <time>2016-07-08T13:14:31Z</time>
      </trkpt>
      <trkpt lat="43.85446" lon="7.4078">
        <ele>1016.704</ele>
        <time>2016-07-08T13:14:51Z</time>
      </trkpt>
      <trkpt lat="43.85436" lon="7.40786">
        <ele>1017.596</ele>
        <time>2016-07-08T13:14:52Z</time>
      </trkpt>
      <trkpt lat="43.85406" lon="7.40817">
        <ele>1022.004</ele>
        <time>2016-07-08T13:14:59Z</time>
      </trkpt>
      <trkpt lat="43.85392" lon="7.40826">
        <ele>1023.984</ele>
        <time>2016-07-08T13:15:01Z</time>
      </trkpt>
      <trkpt lat="43.85368" lon="7.40835">
        <ele>1026.609</ele>
        <time>2016-07-08T13:15:05Z</time>
      </trkpt>
      <trkpt lat="43.85362" lon="7.40841">
        <ele>1027.479</ele>
        <time>2016-07-08T13:15:07Z</time>
      </trkpt>
      <trkpt lat="43.85339" lon="7.40873">
        <ele>1032.097</ele>
        <time>2016-07-08T13:15:12Z</time>
      </trkpt>
      <trkpt lat="43.85299" lon="7.40909">
        <ele>1034.3</ele>
        <time>2016-07-08T13:15:20Z</time>
      </trkpt>
      <trkpt lat="43.85274" lon="7.40923">
        <ele>1034.935</ele>
        <time>2016-07-08T13:15:24Z</time>
      </trkpt>
      <trkpt lat="43.85238" lon="7.40935">
        <ele>1041.465</ele>
        <time>2016-07-08T13:15:30Z</time>
      </trkpt>
      <trkpt lat="43.852" lon="7.40943">
        <ele>1047.304</ele>
        <time>2016-07-08T13:15:37Z</time>
      </trkpt>
      <trkpt lat="43.85193" lon="7.40948">
        <ele>1047.956</ele>
        <time>2016-07-08T13:15:38Z</time>
      </trkpt>
      <trkpt lat="43.85186" lon="7.40957">
        <ele>1048.928</ele>
        <time>2016-07-08T13:15:40Z</time>
      </trkpt>
      <trkpt lat="43.85177" lon="7.40993">
        <ele>1045.251</ele>
        <time>2016-07-08T13:15:44Z</time>
      </trkpt>
      <trkpt lat="43.85172" lon="7.41002">
        <ele>1044.3</ele>
        <time>2016-07-08T13:15:46Z</time>
      </trkpt>
      <trkpt lat="43.85163" lon="7.41012">
        <ele>1042.58</ele>
        <time>2016-07-08T13:15:48Z</time>
      </trkpt>
      <trkpt lat="43.85157" lon="7.41014">
        <ele>1041.962</ele>
        <time>2016-07-08T13:15:49Z</time>
      </trkpt>
      <trkpt lat="43.85148" lon="7.41013">
        <ele>1042.342</ele>
        <time>2016-07-08T13:15:50Z</time>
      </trkpt>
      <trkpt lat="43.85123" lon="7.40998">
        <ele>1047.004</ele>
        <time>2016-07-08T13:15:55Z</time>
      </trkpt>
      <trkpt lat="43.85072" lon="7.40976">
        <ele>1054.04</ele>
        <time>2016-07-08T13:16:03Z</time>
      </trkpt>
      <trkpt lat="43.85051" lon="7.40971">
        <ele>1060.926</ele>
        <time>2016-07-08T13:16:07Z</time>
      </trkpt>
      <trkpt lat="43.85041" lon="7.40976">
        <ele>1063.495</ele>
        <time>2016-07-08T13:16:09Z</time>
      </trkpt>
      <trkpt lat="43.85006" lon="7.41023">
        <ele>1063.67</ele>
        <time>2016-07-08T13:16:17Z</time>
      </trkpt>
      <trkpt lat="43.84995" lon="7.41034">
        <ele>1060.911</ele>
        <time>2016-07-08T13:16:19Z</time>
      </trkpt>
      <trkpt lat="43.84987" lon="7.41038">
        <ele>1058.799</ele>
        <time>2016-07-08T13:16:20Z</time>
      </trkpt>
      <trkpt lat="43.84941" lon="7.41015">
        <ele>1063.021</ele>
        <time>2016-07-08T13:16:29Z</time>
      </trkpt>
      <trkpt lat="43.84881" lon="7.4101">
        <ele>1065.96</ele>
        <time>2016-07-08T13:16:39Z</time>
      </trkpt>
      <trkpt lat="43.84838" lon="7.4101">
        <ele>1070.952</ele>
        <time>2016-07-08T13:16:46Z</time>
      </trkpt>
      <trkpt lat="43.84818" lon="7.41012">
        <ele>1074.653</ele>
        <time>2016-07-08T13:16:49Z</time>
      </trkpt>
      <trkpt lat="43.84794" lon="7.41015">
        <ele>1077.035</ele>
        <time>2016-07-08T13:16:53Z</time>
      </trkpt>
      <trkpt lat="43.84756" lon="7.41025">
        <ele>1074.095</ele>
        <time>2016-07-08T13:16:59Z</time>
      </trkpt>
      <trkpt lat="43.84653" lon="7.41026">
        <ele>1085.911</ele>
        <time>2016-07-08T13:17:17Z</time>
      </trkpt>
      <trkpt lat="43.84635" lon="7.41032">
        <ele>1085.363</ele>
        <time>2016-07-08T13:17:20Z</time>
      </trkpt>
      <trkpt lat="43.84613" lon="7.41042">
        <ele>1085.915</ele>
        <time>2016-07-08T13:17:23Z</time>
      </trkpt>
      <trkpt lat="43.84544" lon="7.41089">
        <ele>1085.117</ele>
        <time>2016-07-08T13:17:36Z</time>
      </trkpt>
      <trkpt lat="43.84516" lon="7.41102">
        <ele>1083.879</ele>
        <time>2016-07-08T13:17:41Z</time>
      </trkpt>
      <trkpt lat="43.84485" lon="7.41135">
        <ele>1081.453</ele>
        <time>2016-07-08T13:17:48Z</time>
      </trkpt>
      <trkpt lat="43.84479" lon="7.41139">
        <ele>1081.777</ele>
        <time>2016-07-08T13:17:49Z</time>
      </trkpt>
      <trkpt lat="43.84468" lon="7.41143">
        <ele>1082.199</ele>
        <time>2016-07-08T13:17:51Z</time>
      </trkpt>
      <trkpt lat="43.84435" lon="7.4115">
        <ele>1080.18</ele>
        <time>2016-07-08T13:17:56Z</time>
      </trkpt>
      <trkpt lat="43.84412" lon="7.41152">
        <ele>1078.889</ele>
        <time>2016-07-08T13:18:00Z</time>
      </trkpt>
      <trkpt lat="43.8436" lon="7.41146">
        <ele>1079.43</ele>
        <time>2016-07-08T13:18:09Z</time>
      </trkpt>
      <trkpt lat="43.84334" lon="7.41154">
        <ele>1078.981</ele>
        <time>2016-07-08T13:18:13Z</time>
      </trkpt>
      <trkpt lat="43.84319" lon="7.41156">
        <ele>1077.798</ele>
        <time>2016-07-08T13:18:15Z</time>
      </trkpt>
      <trkpt lat="43.84252" lon="7.41156">
        <ele>1076.392</ele>
        <time>2016-07-08T13:18:27Z</time>
      </trkpt>
      <trkpt lat="43.84212" lon="7.41161">
        <ele>1080.402</ele>
        <time>2016-07-08T13:18:33Z</time>
      </trkpt>
      <trkpt lat="43.84193" lon="7.41168">
        <ele>1083.166</ele>
        <time>2016-07-08T13:18:37Z</time>
      </trkpt>
      <trkpt lat="43.84169" lon="7.41173">
        <ele>1079.575</ele>
        <time>2016-07-08T13:18:41Z</time>
      </trkpt>
      <trkpt lat="43.84146" lon="7.41186">
        <ele>1072.913</ele>
        <time>2016-07-08T13:18:45Z</time>
      </trkpt>
      <trkpt lat="43.84135" lon="7.41196">
        <ele>1071.631</ele>
        <time>2016-07-08T13:18:47Z</time>
      </trkpt>
      <trkpt lat="43.8412" lon="7.41214">
        <ele>1072.435</ele>
        <time>2016-07-08T13:18:50Z</time>
      </trkpt>
      <trkpt lat="43.84097" lon="7.41234">
        <ele>1071.77</ele>
        <time>2016-07-08T13:18:55Z</time>
      </trkpt>
      <trkpt lat="43.84053" lon="7.41291">
        <ele>1074.311</ele>
        <time>2016-07-08T13:19:05Z</time>
      </trkpt>
      <trkpt lat="43.8404" lon="7.41304">
        <ele>1074.362</ele>
        <time>2016-07-08T13:19:07Z</time>
      </trkpt>
      <trkpt lat="43.83992" lon="7.4133">
        <ele>1068.984</ele>
        <time>2016-07-08T13:19:16Z</time>
      </trkpt>
      <trkpt lat="43.83981" lon="7.41331">
        <ele>1064.7</ele>
        <time>2016-07-08T13:19:18Z</time>
      </trkpt>
      <trkpt lat="43.83956" lon="7.41352">
        <ele>1059.705</ele>
        <time>2016-07-08T13:19:23Z</time>
      </trkpt>
      <trkpt lat="43.83947" lon="7.41364">
        <ele>1059.617</ele>
        <time>2016-07-08T13:19:25Z</time>
      </trkpt>
      <trkpt lat="43.83941" lon="7.41379">
        <ele>1059.252</ele>
        <time>2016-07-08T13:19:27Z</time>
      </trkpt>
      <trkpt lat="43.83935" lon="7.41415">
        <ele>1062.539</ele>
        <time>2016-07-08T13:19:31Z</time>
      </trkpt>
      <trkpt lat="43.83923" lon="7.41462">
        <ele>1062.352</ele>
        <time>2016-07-08T13:19:37Z</time>
      </trkpt>
      <trkpt lat="43.83889" lon="7.4154">
        <ele>1043.037</ele>
        <time>2016-07-08T13:19:48Z</time>
      </trkpt>
      <trkpt lat="43.83885" lon="7.41568">
        <ele>1045.044</ele>
        <time>2016-07-08T13:19:51Z</time>
      </trkpt>
      <trkpt lat="43.83877" lon="7.4159">
        <ele>1046.208</ele>
        <time>2016-07-08T13:19:54Z</time>
      </trkpt>
      <trkpt lat="43.83864" lon="7.41648">
        <ele>1051.114</ele>
        <time>2016-07-08T13:20:02Z</time>
      </trkpt>
      <trkpt lat="43.83847" lon="7.41748">
        <ele>1054.139</ele>
        <time>2016-07-08T13:20:14Z</time>
      </trkpt>
      <trkpt lat="43.8384" lon="7.41768">
        <ele>1054.078</ele>
        <time>2016-07-08T13:20:17Z</time>
      </trkpt>
      <trkpt lat="43.838" lon="7.41852">
        <ele>1044.835</ele>
        <time>2016-07-08T13:20:29Z</time>
      </trkpt>
      <trkpt lat="43.83786" lon="7.41912">
        <ele>1046.933</ele>
        <time>2016-07-08T13:20:36Z</time>
      </trkpt>
      <trkpt lat="43.83785" lon="7.4194">
        <ele>1046.202</ele>
        <time>2016-07-08T13:20:39Z</time>
      </trkpt>
      <trkpt lat="43.83794" lon="7.42013">
        <ele>1051.992</ele>
        <time>2016-07-08T13:20:48Z</time>
      </trkpt>
      <trkpt lat="43.83791" lon="7.42049">
        <ele>1050.256</ele>
        <time>2016-07-08T13:20:53Z</time>
      </trkpt>
      <trkpt lat="43.8376" lon="7.42146">
        <ele>1052.88</ele>
        <time>2016-07-08T13:21:05Z</time>
      </trkpt>
      <trkpt lat="43.83733" lon="7.422">
        <ele>1044.518</ele>
        <time>2016-07-08T13:21:13Z</time>
      </trkpt>
      <trkpt lat="43.83728" lon="7.42244">
        <ele>1039.76</ele>
        <time>2016-07-08T13:21:19Z</time>
      </trkpt>
      <trkpt lat="43.83746" lon="7.42353">
        <ele>1043.654</ele>
        <time>2016-07-08T13:21:32Z</time>
      </trkpt>
      <trkpt lat="43.83747" lon="7.42398">
        <ele>1047.25</ele>
        <time>2016-07-08T13:21:37Z</time>
      </trkpt>
      <trkpt lat="43.83743" lon="7.4243">
        <ele>1049.269</ele>
        <time>2016-07-08T13:21:41Z</time>
      </trkpt>
      <trkpt lat="43.8374" lon="7.42438">
        <ele>1049.388</ele>
        <time>2016-07-08T13:21:42Z</time>
      </trkpt>
      <trkpt lat="43.83724" lon="7.42452">
        <ele>1046.509</ele>
        <time>2016-07-08T13:21:45Z</time>
      </trkpt>
      <trkpt lat="43.83711" lon="7.42459">
        <ele>1047.072</ele>
        <time>2016-07-08T13:21:48Z</time>
      </trkpt>
      <trkpt lat="43.83645" lon="7.42487">
        <ele>1039.197</ele>
        <time>2016-07-08T13:21:59Z</time>
      </trkpt>
      <trkpt lat="43.83637" lon="7.42498">
        <ele>1037.625</ele>
        <time>2016-07-08T13:22:01Z</time>
      </trkpt>
      <trkpt lat="43.83629" lon="7.42526">
        <ele>1038.007</ele>
        <time>2016-07-08T13:22:05Z</time>
      </trkpt>
      <trkpt lat="43.83625" lon="7.42573">
        <ele>1039.942</ele>
        <time>2016-07-08T13:22:10Z</time>
      </trkpt>
      <trkpt lat="43.83625" lon="7.42598">
        <ele>1039.444</ele>
        <time>2016-07-08T13:22:13Z</time>
      </trkpt>
      <trkpt lat="43.83628" lon="7.42616">
        <ele>1038.703</ele>
        <time>2016-07-08T13:22:16Z</time>
      </trkpt>
      <trkpt lat="43.83632" lon="7.42623">
        <ele>1038.67</ele>
        <time>2016-07-08T13:22:17Z</time>
      </trkpt>
      <trkpt lat="43.83641" lon="7.42631">
        <ele>1039.75</ele>
        <time>2016-07-08T13:22:18Z</time>
      </trkpt>
      <trkpt lat="43.83648" lon="7.42632">
        <ele>1041.033</ele>
        <time>2016-07-08T13:22:20Z</time>
      </trkpt>
      <trkpt lat="43.83678" lon="7.42628">
        <ele>1046.528</ele>
        <time>2016-07-08T13:22:25Z</time>
      </trkpt>
      <trkpt lat="43.83701" lon="7.4263">
        <ele>1046.503</ele>
        <time>2016-07-08T13:22:28Z</time>
      </trkpt>
      <trkpt lat="43.8372" lon="7.42635">
        <ele>1046.358</ele>
        <time>2016-07-08T13:22:32Z</time>
      </trkpt>
      <trkpt lat="43.83747" lon="7.42646">
        <ele>1046.187</ele>
        <time>2016-07-08T13:22:36Z</time>
      </trkpt>
      <trkpt lat="43.83762" lon="7.42649">
        <ele>1046.878</ele>
        <time>2016-07-08T13:22:39Z</time>
      </trkpt>
      <trkpt lat="43.83777" lon="7.42648">
        <ele>1049.29</ele>
        <time>2016-07-08T13:22:41Z</time>
      </trkpt>
      <trkpt lat="43.8379" lon="7.42653">
        <ele>1048.739</ele>
        <time>2016-07-08T13:22:43Z</time>
      </trkpt>
      <trkpt lat="43.83807" lon="7.42667">
        <ele>1046.291</ele>
        <time>2016-07-08T13:22:47Z</time>
      </trkpt>
      <trkpt lat="43.8384" lon="7.42715">
        <ele>1041.33</ele>
        <time>2016-07-08T13:22:55Z</time>
      </trkpt>
      <trkpt lat="43.83852" lon="7.42724">
        <ele>1037.888</ele>
        <time>2016-07-08T13:22:57Z</time>
      </trkpt>
      <trkpt lat="43.83859" lon="7.42722">
        <ele>1038.23</ele>
        <time>2016-07-08T13:22:58Z</time>
      </trkpt>
      <trkpt lat="43.83863" lon="7.42719">
        <ele>1038.652</ele>
        <time>2016-07-08T13:22:59Z</time>
      </trkpt>
      <trkpt lat="43.83878" lon="7.42696">
        <ele>1040.888</ele>
        <time>2016-07-08T13:23:03Z</time>
      </trkpt>
      <trkpt lat="43.83881" lon="7.42689">
        <ele>1040.993</ele>
        <time>2016-07-08T13:23:04Z</time>
      </trkpt>
      <trkpt lat="43.83885" lon="7.42674">
        <ele>1042.014</ele>
        <time>2016-07-08T13:23:05Z</time>
      </trkpt>
      <trkpt lat="43.83891" lon="7.42632">
        <ele>1043.538</ele>
        <time>2016-07-08T13:23:11Z</time>
      </trkpt>
      <trkpt lat="43.83906" lon="7.42575">
        <ele>1047.208</ele>
        <time>2016-07-08T13:23:18Z</time>
      </trkpt>
      <trkpt lat="43.83911" lon="7.4257">
        <ele>1045.408</ele>
        <time>2016-07-08T13:23:19Z</time>
      </trkpt>
      <trkpt lat="43.83916" lon="7.42568">
        <ele>1043.392</ele>
        <time>2016-07-08T13:23:20Z</time>
      </trkpt>
      <trkpt lat="43.83925" lon="7.42571">
        <ele>1043.121</ele>
        <time>2016-07-08T13:23:21Z</time>
      </trkpt>
      <trkpt lat="43.83931" lon="7.42576">
        <ele>1042.557</ele>
        <time>2016-07-08T13:23:22Z</time>
      </trkpt>
      <trkpt lat="43.83944" lon="7.42592">
        <ele>1038.525</ele>
        <time>2016-07-08T13:23:25Z</time>
      </trkpt>
      <trkpt lat="43.83976" lon="7.4264">
        <ele>1033.091</ele>
        <time>2016-07-08T13:23:33Z</time>
      </trkpt>
      <trkpt lat="43.83997" lon="7.42678">
        <ele>1027.336</ele>
        <time>2016-07-08T13:23:39Z</time>
      </trkpt>
      <trkpt lat="43.84024" lon="7.42738">
        <ele>1024.8</ele>
        <time>2016-07-08T13:23:47Z</time>
      </trkpt>
      <trkpt lat="43.84043" lon="7.42805">
        <ele>1015.62</ele>
        <time>2016-07-08T13:23:56Z</time>
      </trkpt>
      <trkpt lat="43.84071" lon="7.42865">
        <ele>1013.598</ele>
        <time>2016-07-08T13:24:04Z</time>
      </trkpt>
      <trkpt lat="43.84103" lon="7.42924">
        <ele>1010.655</ele>
        <time>2016-07-08T13:24:13Z</time>
      </trkpt>
      <trkpt lat="43.84104" lon="7.42931">
        <ele>1009.988</ele>
        <time>2016-07-08T13:24:14Z</time>
      </trkpt>
      <trkpt lat="43.84102" lon="7.42934">
        <ele>1008.691</ele>
        <time>2016-07-08T13:24:15Z</time>
      </trkpt>
      <trkpt lat="43.84098" lon="7.42934">
        <ele>1007.017</ele>
        <time>2016-07-08T13:24:15Z</time>
      </trkpt>
      <trkpt lat="43.84083" lon="7.42913">
        <ele>1004.837</ele>
        <time>2016-07-08T13:24:19Z</time>
      </trkpt>
      <trkpt lat="43.84051" lon="7.42893">
        <ele>1000.276</ele>
        <time>2016-07-08T13:24:25Z</time>
      </trkpt>
      <trkpt lat="43.84044" lon="7.42887">
        <ele>999.855</ele>
        <time>2016-07-08T13:24:26Z</time>
      </trkpt>
      <trkpt lat="43.84015" lon="7.42856">
        <ele>997.991</ele>
        <time>2016-07-08T13:24:32Z</time>
      </trkpt>
      <trkpt lat="43.8395" lon="7.42795">
        <ele>992.52</ele>
        <time>2016-07-08T13:24:45Z</time>
      </trkpt>
      <trkpt lat="43.83944" lon="7.42793">
        <ele>991.885</ele>
        <time>2016-07-08T13:24:46Z</time>
      </trkpt>
      <trkpt lat="43.83941" lon="7.42797">
        <ele>991.757</ele>
        <time>2016-07-08T13:24:47Z</time>
      </trkpt>
      <trkpt lat="43.83942" lon="7.42802">
        <ele>990.821</ele>
        <time>2016-07-08T13:24:47Z</time>
      </trkpt>
      <trkpt lat="43.83964" lon="7.42831">
        <ele>988.94</ele>
        <time>2016-07-08T13:24:53Z</time>
      </trkpt>
      <trkpt lat="43.83974" lon="7.42853">
        <ele>986.999</ele>
        <time>2016-07-08T13:24:56Z</time>
      </trkpt>
      <trkpt lat="43.84003" lon="7.42951">
        <ele>977.837</ele>
        <time>2016-07-08T13:25:08Z</time>
      </trkpt>
      <trkpt lat="43.84012" lon="7.42988">
        <ele>975.752</ele>
        <time>2016-07-08T13:25:13Z</time>
      </trkpt>
      <trkpt lat="43.84035" lon="7.43146">
        <ele>966.084</ele>
        <time>2016-07-08T13:25:32Z</time>
      </trkpt>
      <trkpt lat="43.84032" lon="7.43167">
        <ele>964.352</ele>
        <time>2016-07-08T13:25:35Z</time>
      </trkpt>
      <trkpt lat="43.84017" lon="7.43205">
        <ele>959.517</ele>
        <time>2016-07-08T13:25:40Z</time>
      </trkpt>
      <trkpt lat="43.84014" lon="7.43222">
        <ele>959.028</ele>
        <time>2016-07-08T13:25:42Z</time>
      </trkpt>
      <trkpt lat="43.84012" lon="7.43363">
        <ele>954.204</ele>
        <time>2016-07-08T13:25:59Z</time>
      </trkpt>
      <trkpt lat="43.84002" lon="7.43452">
        <ele>948.032</ele>
        <time>2016-07-08T13:26:10Z</time>
      </trkpt>
      <trkpt lat="43.84002" lon="7.43474">
        <ele>946.384</ele>
        <time>2016-07-08T13:26:12Z</time>
      </trkpt>
      <trkpt lat="43.84003" lon="7.43479">
        <ele>946.132</ele>
        <time>2016-07-08T13:26:13Z</time>
      </trkpt>
      <trkpt lat="43.84015" lon="7.43501">
        <ele>947.19</ele>
        <time>2016-07-08T13:26:16Z</time>
      </trkpt>
      <trkpt lat="43.84029" lon="7.43517">
        <ele>948.204</ele>
        <time>2016-07-08T13:26:19Z</time>
      </trkpt>
      <trkpt lat="43.8404" lon="7.43535">
        <ele>948.006</ele>
        <time>2016-07-08T13:26:22Z</time>
      </trkpt>
      <trkpt lat="43.84043" lon="7.43553">
        <ele>946.974</ele>
        <time>2016-07-08T13:26:24Z</time>
      </trkpt>
      <trkpt lat="43.84046" lon="7.4367">
        <ele>951.053</ele>
        <time>2016-07-08T13:26:38Z</time>
      </trkpt>
      <trkpt lat="43.84041" lon="7.43677">
        <ele>951.574</ele>
        <time>2016-07-08T13:26:40Z</time>
      </trkpt>
      <trkpt lat="43.84035" lon="7.43681">
        <ele>951.56</ele>
        <time>2016-07-08T13:26:41Z</time>
      </trkpt>
      <trkpt lat="43.83969" lon="7.43704">
        <ele>948.724</ele>
        <time>2016-07-08T13:26:52Z</time>
      </trkpt>
      <trkpt lat="43.83919" lon="7.43749">
        <ele>950.156</ele>
        <time>2016-07-08T13:27:02Z</time>
      </trkpt>
      <trkpt lat="43.83876" lon="7.43774">
        <ele>951.528</ele>
        <time>2016-07-08T13:27:10Z</time>
      </trkpt>
      <trkpt lat="43.83839" lon="7.43798">
        <ele>952.617</ele>
        <time>2016-07-08T13:27:16Z</time>
      </trkpt>
      <trkpt lat="43.8383" lon="7.43808">
        <ele>953.069</ele>
        <time>2016-07-08T13:27:18Z</time>
      </trkpt>
      <trkpt lat="43.83769" lon="7.43894">
        <ele>958.062</ele>
        <time>2016-07-08T13:27:33Z</time>
      </trkpt>
      <trkpt lat="43.8376" lon="7.43903">
        <ele>957.909</ele>
        <time>2016-07-08T13:27:35Z</time>
      </trkpt>
      <trkpt lat="43.83749" lon="7.43919">
        <ele>957.051</ele>
        <time>2016-07-08T13:27:37Z</time>
      </trkpt>
      <trkpt lat="43.8374" lon="7.43946">
        <ele>956.82</ele>
        <time>2016-07-08T13:27:41Z</time>
      </trkpt>
      <trkpt lat="43.83737" lon="7.43962">
        <ele>955.896</ele>
        <time>2016-07-08T13:27:43Z</time>
      </trkpt>
      <trkpt lat="43.83739" lon="7.44037">
        <ele>955.956</ele>
        <time>2016-07-08T13:27:52Z</time>
      </trkpt>
      <trkpt lat="43.83726" lon="7.44078">
        <ele>954.514</ele>
        <time>2016-07-08T13:27:57Z</time>
      </trkpt>
      <trkpt lat="43.83723" lon="7.44181">
        <ele>953.67</ele>
        <time>2016-07-08T13:28:09Z</time>
      </trkpt>
      <trkpt lat="43.83721" lon="7.44191">
        <ele>953.689</ele>
        <time>2016-07-08T13:28:11Z</time>
      </trkpt>
      <trkpt lat="43.83707" lon="7.44231">
        <ele>955.756</ele>
        <time>2016-07-08T13:28:16Z</time>
      </trkpt>
      <trkpt lat="43.83704" lon="7.4426">
        <ele>958.456</ele>
        <time>2016-07-08T13:28:19Z</time>
      </trkpt>
      <trkpt lat="43.83698" lon="7.4428">
        <ele>959.752</ele>
        <time>2016-07-08T13:28:22Z</time>
      </trkpt>
      <trkpt lat="43.83693" lon="7.4429">
        <ele>960.112</ele>
        <time>2016-07-08T13:28:23Z</time>
      </trkpt>
      <trkpt lat="43.83656" lon="7.44335">
        <ele>958.389</ele>
        <time>2016-07-08T13:28:32Z</time>
      </trkpt>
      <trkpt lat="43.8365" lon="7.44351">
        <ele>959.326</ele>
        <time>2016-07-08T13:28:34Z</time>
      </trkpt>
      <trkpt lat="43.83601" lon="7.44398">
        <ele>960.564</ele>
        <time>2016-07-08T13:28:44Z</time>
      </trkpt>
      <trkpt lat="43.83557" lon="7.44465">
        <ele>961.754</ele>
        <time>2016-07-08T13:28:55Z</time>
      </trkpt>
      <trkpt lat="43.83552" lon="7.44467">
        <ele>962.348</ele>
        <time>2016-07-08T13:28:55Z</time>
      </trkpt>
      <trkpt lat="43.83542" lon="7.44465">
        <ele>963.819</ele>
        <time>2016-07-08T13:28:57Z</time>
      </trkpt>
      <trkpt lat="43.83533" lon="7.4446">
        <ele>965.165</ele>
        <time>2016-07-08T13:28:59Z</time>
      </trkpt>
      <trkpt lat="43.83529" lon="7.4445">
        <ele>965.789</ele>
        <time>2016-07-08T13:29:00Z</time>
      </trkpt>
      <trkpt lat="43.83504" lon="7.44331">
        <ele>972.732</ele>
        <time>2016-07-08T13:29:15Z</time>
      </trkpt>
      <trkpt lat="43.835" lon="7.44285">
        <ele>970.52</ele>
        <time>2016-07-08T13:29:20Z</time>
      </trkpt>
      <trkpt lat="43.83495" lon="7.44268">
        <ele>970.734</ele>
        <time>2016-07-08T13:29:23Z</time>
      </trkpt>
      <trkpt lat="43.83491" lon="7.44261">
        <ele>971.165</ele>
        <time>2016-07-08T13:29:24Z</time>
      </trkpt>
      <trkpt lat="43.83464" lon="7.44233">
        <ele>972.11</ele>
        <time>2016-07-08T13:29:29Z</time>
      </trkpt>
      <trkpt lat="43.83458" lon="7.44228">
        <ele>971.949</ele>
        <time>2016-07-08T13:29:30Z</time>
      </trkpt>
      <trkpt lat="43.83449" lon="7.44225">
        <ele>972.983</ele>
        <time>2016-07-08T13:29:32Z</time>
      </trkpt>
      <trkpt lat="43.83436" lon="7.44216">
        <ele>974.336</ele>
        <time>2016-07-08T13:29:34Z</time>
      </trkpt>
      <trkpt lat="43.83412" lon="7.44186">
        <ele>973.871</ele>
        <time>2016-07-08T13:29:40Z</time>
      </trkpt>
      <trkpt lat="43.83394" lon="7.44169">
        <ele>975.238</ele>
        <time>2016-07-08T13:29:43Z</time>
      </trkpt>
      <trkpt lat="43.83378" lon="7.4415">
        <ele>973.317</ele>
        <time>2016-07-08T13:29:47Z</time>
      </trkpt>
      <trkpt lat="43.83373" lon="7.44148">
        <ele>973.672</ele>
        <time>2016-07-08T13:29:48Z</time>
      </trkpt>
      <trkpt lat="43.8336" lon="7.44149">
        <ele>976.261</ele>
        <time>2016-07-08T13:29:50Z</time>
      </trkpt>
      <trkpt lat="43.83351" lon="7.44152">
        <ele>977.076</ele>
        <time>2016-07-08T13:29:51Z</time>
      </trkpt>
      <trkpt lat="43.83341" lon="7.4416">
        <ele>979.29</ele>
        <time>2016-07-08T13:29:53Z</time>
      </trkpt>
      <trkpt lat="43.83329" lon="7.44174">
        <ele>983.239</ele>
        <time>2016-07-08T13:29:56Z</time>
      </trkpt>
      <trkpt lat="43.83315" lon="7.44203">
        <ele>992.297</ele>
        <time>2016-07-08T13:30:00Z</time>
      </trkpt>
      <trkpt lat="43.83294" lon="7.44215">
        <ele>992.245</ele>
        <time>2016-07-08T13:30:04Z</time>
      </trkpt>
      <trkpt lat="43.83276" lon="7.44232">
        <ele>995.862</ele>
        <time>2016-07-08T13:30:07Z</time>
      </trkpt>
      <trkpt lat="43.83238" lon="7.44239">
        <ele>1008.899</ele>
        <time>2016-07-08T13:30:14Z</time>
      </trkpt>
      <trkpt lat="43.83232" lon="7.44237">
        <ele>1011.407</ele>
        <time>2016-07-08T13:30:15Z</time>
      </trkpt>
      <trkpt lat="43.83224" lon="7.44229">
        <ele>1012.676</ele>
        <time>2016-07-08T13:30:16Z</time>
      </trkpt>
      <trkpt lat="43.83201" lon="7.44181">
        <ele>1002.555</ele>
        <time>2016-07-08T13:30:23Z</time>
      </trkpt>
      <trkpt lat="43.83183" lon="7.44157">
        <ele>1001.969</ele>
        <time>2016-07-08T13:30:28Z</time>
      </trkpt>
      <trkpt lat="43.83164" lon="7.44137">
        <ele>1004.081</ele>
        <time>2016-07-08T13:30:31Z</time>
      </trkpt>
      <trkpt lat="43.83154" lon="7.44131">
        <ele>1004.678</ele>
        <time>2016-07-08T13:30:33Z</time>
      </trkpt>
      <trkpt lat="43.83143" lon="7.44128">
        <ele>1006.562</ele>
        <time>2016-07-08T13:30:35Z</time>
      </trkpt>
      <trkpt lat="43.83126" lon="7.44129">
        <ele>1008.548</ele>
        <time>2016-07-08T13:30:38Z</time>
      </trkpt>
      <trkpt lat="43.83092" lon="7.44137">
        <ele>1014.77</ele>
        <time>2016-07-08T13:30:44Z</time>
      </trkpt>
      <trkpt lat="43.83029" lon="7.44138">
        <ele>1013.713</ele>
        <time>2016-07-08T13:30:54Z</time>
      </trkpt>
      <trkpt lat="43.83017" lon="7.4414">
        <ele>1014.899</ele>
        <time>2016-07-08T13:30:56Z</time>
      </trkpt>
      <trkpt lat="43.83004" lon="7.44144">
        <ele>1017.379</ele>
        <time>2016-07-08T13:30:58Z</time>
      </trkpt>
      <trkpt lat="43.82983" lon="7.44156">
        <ele>1026.307</ele>
        <time>2016-07-08T13:31:02Z</time>
      </trkpt>
      <trkpt lat="43.82954" lon="7.44159">
        <ele>1024.526</ele>
        <time>2016-07-08T13:31:07Z</time>
      </trkpt>
      <trkpt lat="43.82905" lon="7.44186">
        <ele>1026.491</ele>
        <time>2016-07-08T13:31:16Z</time>
      </trkpt>
      <trkpt lat="43.82899" lon="7.44188">
        <ele>1027.107</ele>
        <time>2016-07-08T13:31:17Z</time>
      </trkpt>
      <trkpt lat="43.82881" lon="7.44191">
        <ele>1027.99</ele>
        <time>2016-07-08T13:31:20Z</time>
      </trkpt>
      <trkpt lat="43.82845" lon="7.44189">
        <ele>1027.017</ele>
        <time>2016-07-08T13:31:26Z</time>
      </trkpt>
      <trkpt lat="43.82821" lon="7.44196">
        <ele>1026.178</ele>
        <time>2016-07-08T13:31:30Z</time>
      </trkpt>
      <trkpt lat="43.82791" lon="7.44208">
        <ele>1019.091</ele>
        <time>2016-07-08T13:31:35Z</time>
      </trkpt>
      <trkpt lat="43.8268" lon="7.44267">
        <ele>1004.306</ele>
        <time>2016-07-08T13:31:55Z</time>
      </trkpt>
      <trkpt lat="43.82575" lon="7.44333">
        <ele>994.998</ele>
        <time>2016-07-08T13:32:14Z</time>
      </trkpt>
      <trkpt lat="43.82544" lon="7.44355">
        <ele>987.795</ele>
        <time>2016-07-08T13:32:20Z</time>
      </trkpt>
      <trkpt lat="43.82522" lon="7.44376">
        <ele>986.843</ele>
        <time>2016-07-08T13:32:24Z</time>
      </trkpt>
      <trkpt lat="43.82507" lon="7.44393">
        <ele>986.572</ele>
        <time>2016-07-08T13:32:27Z</time>
      </trkpt>
      <trkpt lat="43.82492" lon="7.44414">
        <ele>986.407</ele>
        <time>2016-07-08T13:32:31Z</time>
      </trkpt>
      <trkpt lat="43.82458" lon="7.44468">
        <ele>983.456</ele>
        <time>2016-07-08T13:32:39Z</time>
      </trkpt>
      <trkpt lat="43.82422" lon="7.44511">
        <ele>978.2</ele>
        <time>2016-07-08T13:32:47Z</time>
      </trkpt>
      <trkpt lat="43.82385" lon="7.4454">
        <ele>972.66</ele>
        <time>2016-07-08T13:32:54Z</time>
      </trkpt>
      <trkpt lat="43.82328" lon="7.44575">
        <ele>969.448</ele>
        <time>2016-07-08T13:33:05Z</time>
      </trkpt>
      <trkpt lat="43.82284" lon="7.44597">
        <ele>961.009</ele>
        <time>2016-07-08T13:33:12Z</time>
      </trkpt>
      <trkpt lat="43.82238" lon="7.44641">
        <ele>955.086</ele>
        <time>2016-07-08T13:33:22Z</time>
      </trkpt>
      <trkpt lat="43.82206" lon="7.44676">
        <ele>955.324</ele>
        <time>2016-07-08T13:33:28Z</time>
      </trkpt>
      <trkpt lat="43.82135" lon="7.4477">
        <ele>947.362</ele>
        <time>2016-07-08T13:33:45Z</time>
      </trkpt>
      <trkpt lat="43.82131" lon="7.44773">
        <ele>947.162</ele>
        <time>2016-07-08T13:33:45Z</time>
      </trkpt>
      <trkpt lat="43.82125" lon="7.44772">
        <ele>946.584</ele>
        <time>2016-07-08T13:33:46Z</time>
      </trkpt>
      <trkpt lat="43.82121" lon="7.44768">
        <ele>945.907</ele>
        <time>2016-07-08T13:33:47Z</time>
      </trkpt>
      <trkpt lat="43.82119" lon="7.44762">
        <ele>945.187</ele>
        <time>2016-07-08T13:33:48Z</time>
      </trkpt>
      <trkpt lat="43.82121" lon="7.44751">
        <ele>944.506</ele>
        <time>2016-07-08T13:33:49Z</time>
      </trkpt>
      <trkpt lat="43.8216" lon="7.44692">
        <ele>943.901</ele>
        <time>2016-07-08T13:33:59Z</time>
      </trkpt>
      <trkpt lat="43.82166" lon="7.44678">
        <ele>942.886</ele>
        <time>2016-07-08T13:34:01Z</time>
      </trkpt>
      <trkpt lat="43.82199" lon="7.44616">
        <ele>938.515</ele>
        <time>2016-07-08T13:34:10Z</time>
      </trkpt>
      <trkpt lat="43.82222" lon="7.44566">
        <ele>929.965</ele>
        <time>2016-07-08T13:34:17Z</time>
      </trkpt>
      <trkpt lat="43.82283" lon="7.44473">
        <ele>926.551</ele>
        <time>2016-07-08T13:34:32Z</time>
      </trkpt>
      <trkpt lat="43.823" lon="7.44439">
        <ele>920.75</ele>
        <time>2016-07-08T13:34:37Z</time>
      </trkpt>
      <trkpt lat="43.82312" lon="7.44408">
        <ele>916.463</ele>
        <time>2016-07-08T13:34:41Z</time>
      </trkpt>
      <trkpt lat="43.8232" lon="7.44354">
        <ele>911.731</ele>
        <time>2016-07-08T13:34:48Z</time>
      </trkpt>
      <trkpt lat="43.82322" lon="7.44321">
        <ele>910.072</ele>
        <time>2016-07-08T13:34:52Z</time>
      </trkpt>
      <trkpt lat="43.8233" lon="7.44285">
        <ele>909.482</ele>
        <time>2016-07-08T13:34:57Z</time>
      </trkpt>
      <trkpt lat="43.82327" lon="7.4427">
        <ele>907.996</ele>
        <time>2016-07-08T13:34:58Z</time>
      </trkpt>
      <trkpt lat="43.82324" lon="7.44268">
        <ele>907.059</ele>
        <time>2016-07-08T13:34:59Z</time>
      </trkpt>
      <trkpt lat="43.82316" lon="7.44267">
        <ele>904.76</ele>
        <time>2016-07-08T13:35:00Z</time>
      </trkpt>
      <trkpt lat="43.82307" lon="7.44272">
        <ele>902.762</ele>
        <time>2016-07-08T13:35:02Z</time>
      </trkpt>
      <trkpt lat="43.82298" lon="7.44284">
        <ele>901.074</ele>
        <time>2016-07-08T13:35:04Z</time>
      </trkpt>
      <trkpt lat="43.82286" lon="7.44306">
        <ele>900.423</ele>
        <time>2016-07-08T13:35:07Z</time>
      </trkpt>
      <trkpt lat="43.82277" lon="7.44331">
        <ele>901.44</ele>
        <time>2016-07-08T13:35:11Z</time>
      </trkpt>
      <trkpt lat="43.82269" lon="7.44376">
        <ele>901.86</ele>
        <time>2016-07-08T13:35:16Z</time>
      </trkpt>
      <trkpt lat="43.82265" lon="7.44379">
        <ele>901.068</ele>
        <time>2016-07-08T13:35:17Z</time>
      </trkpt>
      <trkpt lat="43.8226" lon="7.44379">
        <ele>899.808</ele>
        <time>2016-07-08T13:35:18Z</time>
      </trkpt>
      <trkpt lat="43.82255" lon="7.44373">
        <ele>898.116</ele>
        <time>2016-07-08T13:35:19Z</time>
      </trkpt>
      <trkpt lat="43.82253" lon="7.44367">
        <ele>897.18</ele>
        <time>2016-07-08T13:35:20Z</time>
      </trkpt>
      <trkpt lat="43.82251" lon="7.44334">
        <ele>894.335</ele>
        <time>2016-07-08T13:35:24Z</time>
      </trkpt>
      <trkpt lat="43.82252" lon="7.44316">
        <ele>892.08</ele>
        <time>2016-07-08T13:35:26Z</time>
      </trkpt>
      <trkpt lat="43.82256" lon="7.443">
        <ele>890.101</ele>
        <time>2016-07-08T13:35:28Z</time>
      </trkpt>
      <trkpt lat="43.82268" lon="7.44266">
        <ele>886.782</ele>
        <time>2016-07-08T13:35:32Z</time>
      </trkpt>
      <trkpt lat="43.82287" lon="7.44238">
        <ele>892.22</ele>
        <time>2016-07-08T13:35:37Z</time>
      </trkpt>
      <trkpt lat="43.82288" lon="7.44229">
        <ele>892.292</ele>
        <time>2016-07-08T13:35:38Z</time>
      </trkpt>
      <trkpt lat="43.82285" lon="7.44223">
        <ele>890.888</ele>
        <time>2016-07-08T13:35:39Z</time>
      </trkpt>
      <trkpt lat="43.82277" lon="7.4422">
        <ele>887.532</ele>
        <time>2016-07-08T13:35:40Z</time>
      </trkpt>
      <trkpt lat="43.82244" lon="7.44272">
        <ele>877.331</ele>
        <time>2016-07-08T13:35:49Z</time>
      </trkpt>
      <trkpt lat="43.8223" lon="7.44288">
        <ele>876.392</ele>
        <time>2016-07-08T13:35:52Z</time>
      </trkpt>
      <trkpt lat="43.82207" lon="7.4431">
        <ele>876.087</ele>
        <time>2016-07-08T13:35:56Z</time>
      </trkpt>
      <trkpt lat="43.82191" lon="7.44335">
        <ele>881.762</ele>
        <time>2016-07-08T13:36:00Z</time>
      </trkpt>
      <trkpt lat="43.82185" lon="7.44338">
        <ele>881.479</ele>
        <time>2016-07-08T13:36:01Z</time>
      </trkpt>
      <trkpt lat="43.82172" lon="7.44332">
        <ele>877.432</ele>
        <time>2016-07-08T13:36:03Z</time>
      </trkpt>
      <trkpt lat="43.82167" lon="7.44328">
        <ele>874.948</ele>
        <time>2016-07-08T13:36:04Z</time>
      </trkpt>
      <trkpt lat="43.82158" lon="7.44325">
        <ele>870.611</ele>
        <time>2016-07-08T13:36:06Z</time>
      </trkpt>
      <trkpt lat="43.82152" lon="7.44325">
        <ele>868.473</ele>
        <time>2016-07-08T13:36:07Z</time>
      </trkpt>
      <trkpt lat="43.82127" lon="7.44332">
        <ele>865.678</ele>
        <time>2016-07-08T13:36:11Z</time>
      </trkpt>
      <trkpt lat="43.82104" lon="7.44344">
        <ele>864.985</ele>
        <time>2016-07-08T13:36:15Z</time>
      </trkpt>
      <trkpt lat="43.82083" lon="7.44361">
        <ele>861.8</ele>
        <time>2016-07-08T13:36:19Z</time>
      </trkpt>
      <trkpt lat="43.82065" lon="7.44386">
        <ele>857.171</ele>
        <time>2016-07-08T13:36:24Z</time>
      </trkpt>
      <trkpt lat="43.82043" lon="7.44453">
        <ele>867.613</ele>
        <time>2016-07-08T13:36:32Z</time>
      </trkpt>
      <trkpt lat="43.82034" lon="7.44466">
        <ele>867.294</ele>
        <time>2016-07-08T13:36:35Z</time>
      </trkpt>
      <trkpt lat="43.82029" lon="7.44469">
        <ele>865.611</ele>
        <time>2016-07-08T13:36:35Z</time>
      </trkpt>
      <trkpt lat="43.82017" lon="7.44471">
        <ele>861.656</ele>
        <time>2016-07-08T13:36:37Z</time>
      </trkpt>
      <trkpt lat="43.81978" lon="7.44469">
        <ele>847.364</ele>
        <time>2016-07-08T13:36:44Z</time>
      </trkpt>
      <trkpt lat="43.81963" lon="7.4447">
        <ele>844.765</ele>
        <time>2016-07-08T13:36:46Z</time>
      </trkpt>
      <trkpt lat="43.8194" lon="7.44479">
        <ele>842.468</ele>
        <time>2016-07-08T13:36:50Z</time>
      </trkpt>
      <trkpt lat="43.81925" lon="7.44494">
        <ele>838.688</ele>
        <time>2016-07-08T13:36:53Z</time>
      </trkpt>
      <trkpt lat="43.81894" lon="7.44545">
        <ele>844.97</ele>
        <time>2016-07-08T13:37:01Z</time>
      </trkpt>
      <trkpt lat="43.81892" lon="7.44551">
        <ele>847.551</ele>
        <time>2016-07-08T13:37:02Z</time>
      </trkpt>
      <trkpt lat="43.81882" lon="7.44565">
        <ele>849.352</ele>
        <time>2016-07-08T13:37:05Z</time>
      </trkpt>
      <trkpt lat="43.81877" lon="7.44565">
        <ele>846.894</ele>
        <time>2016-07-08T13:37:05Z</time>
      </trkpt>
      <trkpt lat="43.81874" lon="7.44559">
        <ele>842.926</ele>
        <time>2016-07-08T13:37:06Z</time>
      </trkpt>
      <trkpt lat="43.81876" lon="7.44551">
        <ele>840.184</ele>
        <time>2016-07-08T13:37:07Z</time>
      </trkpt>
      <trkpt lat="43.81899" lon="7.44517">
        <ele>833.358</ele>
        <time>2016-07-08T13:37:13Z</time>
      </trkpt>
      <trkpt lat="43.81907" lon="7.44499">
        <ele>830.528</ele>
        <time>2016-07-08T13:37:15Z</time>
      </trkpt>
      <trkpt lat="43.81922" lon="7.44476">
        <ele>832.64</ele>
        <time>2016-07-08T13:37:19Z</time>
      </trkpt>
      <trkpt lat="43.81925" lon="7.44466">
        <ele>831.565</ele>
        <time>2016-07-08T13:37:20Z</time>
      </trkpt>
      <trkpt lat="43.81922" lon="7.44458">
        <ele>828.006</ele>
        <time>2016-07-08T13:37:21Z</time>
      </trkpt>
      <trkpt lat="43.81917" lon="7.44458">
        <ele>825.578</ele>
        <time>2016-07-08T13:37:22Z</time>
      </trkpt>
      <trkpt lat="43.81913" lon="7.44461">
        <ele>824.299</ele>
        <time>2016-07-08T13:37:23Z</time>
      </trkpt>
      <trkpt lat="43.8189" lon="7.44505">
        <ele>823.746</ele>
        <time>2016-07-08T13:37:30Z</time>
      </trkpt>
      <trkpt lat="43.81866" lon="7.44541">
        <ele>830.807</ele>
        <time>2016-07-08T13:37:35Z</time>
      </trkpt>
      <trkpt lat="43.81853" lon="7.44557">
        <ele>832.875</ele>
        <time>2016-07-08T13:37:38Z</time>
      </trkpt>
      <trkpt lat="43.81842" lon="7.44562">
        <ele>830.315</ele>
        <time>2016-07-08T13:37:40Z</time>
      </trkpt>
      <trkpt lat="43.81814" lon="7.44567">
        <ele>823.391</ele>
        <time>2016-07-08T13:37:45Z</time>
      </trkpt>
      <trkpt lat="43.81775" lon="7.44567">
        <ele>818.778</ele>
        <time>2016-07-08T13:37:51Z</time>
      </trkpt>
      <trkpt lat="43.81769" lon="7.44565">
        <ele>817.853</ele>
        <time>2016-07-08T13:37:52Z</time>
      </trkpt>
      <trkpt lat="43.81764" lon="7.44561">
        <ele>816.794</ele>
        <time>2016-07-08T13:37:53Z</time>
      </trkpt>
      <trkpt lat="43.81749" lon="7.44537">
        <ele>810.968</ele>
        <time>2016-07-08T13:37:57Z</time>
      </trkpt>
      <trkpt lat="43.81745" lon="7.44533">
        <ele>809.982</ele>
        <time>2016-07-08T13:37:58Z</time>
      </trkpt>
      <trkpt lat="43.8174" lon="7.4453">
        <ele>809.149</ele>
        <time>2016-07-08T13:37:59Z</time>
      </trkpt>
      <trkpt lat="43.81727" lon="7.44528">
        <ele>808.227</ele>
        <time>2016-07-08T13:38:01Z</time>
      </trkpt>
      <trkpt lat="43.81723" lon="7.44524">
        <ele>807.076</ele>
        <time>2016-07-08T13:38:02Z</time>
      </trkpt>
      <trkpt lat="43.81722" lon="7.44519">
        <ele>805.78</ele>
        <time>2016-07-08T13:38:02Z</time>
      </trkpt>
      <trkpt lat="43.81724" lon="7.4451">
        <ele>803.584</ele>
        <time>2016-07-08T13:38:04Z</time>
      </trkpt>
      <trkpt lat="43.81745" lon="7.44508">
        <ele>803.836</ele>
        <time>2016-07-08T13:38:07Z</time>
      </trkpt>
      <trkpt lat="43.81758" lon="7.44511">
        <ele>803.962</ele>
        <time>2016-07-08T13:38:09Z</time>
      </trkpt>
      <trkpt lat="43.81769" lon="7.44517">
        <ele>804.804</ele>
        <time>2016-07-08T13:38:11Z</time>
      </trkpt>
      <trkpt lat="43.81782" lon="7.44533">
        <ele>809.322</ele>
        <time>2016-07-08T13:38:14Z</time>
      </trkpt>
      <trkpt lat="43.81793" lon="7.44536">
        <ele>809.507</ele>
        <time>2016-07-08T13:38:16Z</time>
      </trkpt>
      <trkpt lat="43.81816" lon="7.4453">
        <ele>810.728</ele>
        <time>2016-07-08T13:38:20Z</time>
      </trkpt>
      <trkpt lat="43.81828" lon="7.44521">
        <ele>812.566</ele>
        <time>2016-07-08T13:38:22Z</time>
      </trkpt>
      <trkpt lat="43.81834" lon="7.44513">
        <ele>811.23</ele>
        <time>2016-07-08T13:38:24Z</time>
      </trkpt>
      <trkpt lat="43.81867" lon="7.4438">
        <ele>781.841</ele>
        <time>2016-07-08T13:38:40Z</time>
      </trkpt>
      <trkpt lat="43.81874" lon="7.44364">
        <ele>782.177</ele>
        <time>2016-07-08T13:38:43Z</time>
      </trkpt>
      <trkpt lat="43.81883" lon="7.44355">
        <ele>784.276</ele>
        <time>2016-07-08T13:38:44Z</time>
      </trkpt>
      <trkpt lat="43.81893" lon="7.44352">
        <ele>787.07</ele>
        <time>2016-07-08T13:38:46Z</time>
      </trkpt>
      <trkpt lat="43.81901" lon="7.44345">
        <ele>787.249</ele>
        <time>2016-07-08T13:38:48Z</time>
      </trkpt>
      <trkpt lat="43.81902" lon="7.44339">
        <ele>785.873</ele>
        <time>2016-07-08T13:38:48Z</time>
      </trkpt>
      <trkpt lat="43.81899" lon="7.44329">
        <ele>782.515</ele>
        <time>2016-07-08T13:38:50Z</time>
      </trkpt>
      <trkpt lat="43.81895" lon="7.44327">
        <ele>781.226</ele>
        <time>2016-07-08T13:38:50Z</time>
      </trkpt>
      <trkpt lat="43.81868" lon="7.44334">
        <ele>775.322</ele>
        <time>2016-07-08T13:38:55Z</time>
      </trkpt>
      <trkpt lat="43.81861" lon="7.44338">
        <ele>773.461</ele>
        <time>2016-07-08T13:38:56Z</time>
      </trkpt>
      <trkpt lat="43.81854" lon="7.4435">
        <ele>771.626</ele>
        <time>2016-07-08T13:38:58Z</time>
      </trkpt>
      <trkpt lat="43.8184" lon="7.44391">
        <ele>770.938</ele>
        <time>2016-07-08T13:39:04Z</time>
      </trkpt>
      <trkpt lat="43.81821" lon="7.44415">
        <ele>774.649</ele>
        <time>2016-07-08T13:39:08Z</time>
      </trkpt>
      <trkpt lat="43.81809" lon="7.44434">
        <ele>779.608</ele>
        <time>2016-07-08T13:39:11Z</time>
      </trkpt>
      <trkpt lat="43.81803" lon="7.44438">
        <ele>780.129</ele>
        <time>2016-07-08T13:39:12Z</time>
      </trkpt>
      <trkpt lat="43.81794" lon="7.44441">
        <ele>780.285</ele>
        <time>2016-07-08T13:39:13Z</time>
      </trkpt>
      <trkpt lat="43.81776" lon="7.44438">
        <ele>777.048</ele>
        <time>2016-07-08T13:39:16Z</time>
      </trkpt>
      <trkpt lat="43.81756" lon="7.44425">
        <ele>771.684</ele>
        <time>2016-07-08T13:39:20Z</time>
      </trkpt>
      <trkpt lat="43.81742" lon="7.44401">
        <ele>763.751</ele>
        <time>2016-07-08T13:39:24Z</time>
      </trkpt>
      <trkpt lat="43.81733" lon="7.44395">
        <ele>762.473</ele>
        <time>2016-07-08T13:39:25Z</time>
      </trkpt>
      <trkpt lat="43.81715" lon="7.44391">
        <ele>761.115</ele>
        <time>2016-07-08T13:39:28Z</time>
      </trkpt>
      <trkpt lat="43.81692" lon="7.44396">
        <ele>760.769</ele>
        <time>2016-07-08T13:39:32Z</time>
      </trkpt>
      <trkpt lat="43.81678" lon="7.44404">
        <ele>759.966</ele>
        <time>2016-07-08T13:39:35Z</time>
      </trkpt>
      <trkpt lat="43.81645" lon="7.44419">
        <ele>753.488</ele>
        <time>2016-07-08T13:39:41Z</time>
      </trkpt>
      <trkpt lat="43.81626" lon="7.44431">
        <ele>751.86</ele>
        <time>2016-07-08T13:39:44Z</time>
      </trkpt>
      <trkpt lat="43.81566" lon="7.44476">
        <ele>745.712</ele>
        <time>2016-07-08T13:39:55Z</time>
      </trkpt>
      <trkpt lat="43.81546" lon="7.44494">
        <ele>743.318</ele>
        <time>2016-07-08T13:39:59Z</time>
      </trkpt>
      <trkpt lat="43.81498" lon="7.44529">
        <ele>731.707</ele>
        <time>2016-07-08T13:40:08Z</time>
      </trkpt>
      <trkpt lat="43.81456" lon="7.44582">
        <ele>736.412</ele>
        <time>2016-07-08T13:40:18Z</time>
      </trkpt>
      <trkpt lat="43.81433" lon="7.44618">
        <ele>739.15</ele>
        <time>2016-07-08T13:40:24Z</time>
      </trkpt>
      <trkpt lat="43.81404" lon="7.44638">
        <ele>742.31</ele>
        <time>2016-07-08T13:40:29Z</time>
      </trkpt>
      <trkpt lat="43.81367" lon="7.44678">
        <ele>739.23</ele>
        <time>2016-07-08T13:40:37Z</time>
      </trkpt>
      <trkpt lat="43.81355" lon="7.44686">
        <ele>737.941</ele>
        <time>2016-07-08T13:40:39Z</time>
      </trkpt>
      <trkpt lat="43.81332" lon="7.4469">
        <ele>740.016</ele>
        <time>2016-07-08T13:40:43Z</time>
      </trkpt>
      <trkpt lat="43.81312" lon="7.4469">
        <ele>740.851</ele>
        <time>2016-07-08T13:40:46Z</time>
      </trkpt>
      <trkpt lat="43.81299" lon="7.44694">
        <ele>742.955</ele>
        <time>2016-07-08T13:40:48Z</time>
      </trkpt>
      <trkpt lat="43.81285" lon="7.44701">
        <ele>746.765</ele>
        <time>2016-07-08T13:40:51Z</time>
      </trkpt>
      <trkpt lat="43.81275" lon="7.44708">
        <ele>748.869</ele>
        <time>2016-07-08T13:40:53Z</time>
      </trkpt>
      <trkpt lat="43.81264" lon="7.44711">
        <ele>754.768</ele>
        <time>2016-07-08T13:40:54Z</time>
      </trkpt>
      <trkpt lat="43.81259" lon="7.44714">
        <ele>756.928</ele>
        <time>2016-07-08T13:40:55Z</time>
      </trkpt>
      <trkpt lat="43.81257" lon="7.44718">
        <ele>756.87</ele>
        <time>2016-07-08T13:40:56Z</time>
      </trkpt>
      <trkpt lat="43.81257" lon="7.44726">
        <ele>754.479</ele>
        <time>2016-07-08T13:40:57Z</time>
      </trkpt>
      <trkpt lat="43.81266" lon="7.44742">
        <ele>745.166</ele>
        <time>2016-07-08T13:40:59Z</time>
      </trkpt>
      <trkpt lat="43.81267" lon="7.44749">
        <ele>743.042</ele>
        <time>2016-07-08T13:41:00Z</time>
      </trkpt>
      <trkpt lat="43.81248" lon="7.44806">
        <ele>733.591</ele>
        <time>2016-07-08T13:41:08Z</time>
      </trkpt>
      <trkpt lat="43.81239" lon="7.44823">
        <ele>731.687</ele>
        <time>2016-07-08T13:41:10Z</time>
      </trkpt>
      <trkpt lat="43.81217" lon="7.44848">
        <ele>726.895</ele>
        <time>2016-07-08T13:41:15Z</time>
      </trkpt>
      <trkpt lat="43.81206" lon="7.44857">
        <ele>723.154</ele>
        <time>2016-07-08T13:41:17Z</time>
      </trkpt>
      <trkpt lat="43.81194" lon="7.44857">
        <ele>723.906</ele>
        <time>2016-07-08T13:41:19Z</time>
      </trkpt>
      <trkpt lat="43.81182" lon="7.44852">
        <ele>725.669</ele>
        <time>2016-07-08T13:41:21Z</time>
      </trkpt>
      <trkpt lat="43.81141" lon="7.44846">
        <ele>722.405</ele>
        <time>2016-07-08T13:41:28Z</time>
      </trkpt>
      <trkpt lat="43.8112" lon="7.44827">
        <ele>724.971</ele>
        <time>2016-07-08T13:41:32Z</time>
      </trkpt>
      <trkpt lat="43.81103" lon="7.44819">
        <ele>724.463</ele>
        <time>2016-07-08T13:41:35Z</time>
      </trkpt>
      <trkpt lat="43.811" lon="7.44816">
        <ele>725.237</ele>
        <time>2016-07-08T13:41:36Z</time>
      </trkpt>
      <trkpt lat="43.81097" lon="7.44808">
        <ele>728.301</ele>
        <time>2016-07-08T13:41:37Z</time>
      </trkpt>
      <trkpt lat="43.81095" lon="7.44785">
        <ele>737.198</ele>
        <time>2016-07-08T13:41:40Z</time>
      </trkpt>
      <trkpt lat="43.81093" lon="7.44779">
        <ele>739.243</ele>
        <time>2016-07-08T13:41:40Z</time>
      </trkpt>
      <trkpt lat="43.81091" lon="7.44776">
        <ele>739.938</ele>
        <time>2016-07-08T13:41:41Z</time>
      </trkpt>
      <trkpt lat="43.81087" lon="7.44774">
        <ele>739.866</ele>
        <time>2016-07-08T13:41:42Z</time>
      </trkpt>
      <trkpt lat="43.81079" lon="7.44776">
        <ele>739.96</ele>
        <time>2016-07-08T13:41:43Z</time>
      </trkpt>
      <trkpt lat="43.81073" lon="7.4479">
        <ele>735.577</ele>
        <time>2016-07-08T13:41:45Z</time>
      </trkpt>
      <trkpt lat="43.8106" lon="7.4484">
        <ele>722.242</ele>
        <time>2016-07-08T13:41:51Z</time>
      </trkpt>
      <trkpt lat="43.81045" lon="7.4486">
        <ele>729.11</ele>
        <time>2016-07-08T13:41:55Z</time>
      </trkpt>
      <trkpt lat="43.81042" lon="7.44866">
        <ele>731.162</ele>
        <time>2016-07-08T13:41:56Z</time>
      </trkpt>
      <trkpt lat="43.81041" lon="7.44876">
        <ele>731.723</ele>
        <time>2016-07-08T13:41:57Z</time>
      </trkpt>
      <trkpt lat="43.81044" lon="7.44894">
        <ele>728.875</ele>
        <time>2016-07-08T13:41:59Z</time>
      </trkpt>
      <trkpt lat="43.81049" lon="7.44908">
        <ele>724.182</ele>
        <time>2016-07-08T13:42:01Z</time>
      </trkpt>
      <trkpt lat="43.81047" lon="7.44937">
        <ele>723.388</ele>
        <time>2016-07-08T13:42:04Z</time>
      </trkpt>
      <trkpt lat="43.81062" lon="7.44966">
        <ele>708.892</ele>
        <time>2016-07-08T13:42:09Z</time>
      </trkpt>
      <trkpt lat="43.81067" lon="7.44999">
        <ele>700.728</ele>
        <time>2016-07-08T13:42:13Z</time>
      </trkpt>
      <trkpt lat="43.81066" lon="7.4501">
        <ele>699.207</ele>
        <time>2016-07-08T13:42:14Z</time>
      </trkpt>
      <trkpt lat="43.81061" lon="7.45018">
        <ele>700.711</ele>
        <time>2016-07-08T13:42:15Z</time>
      </trkpt>
      <trkpt lat="43.81053" lon="7.45023">
        <ele>703.831</ele>
        <time>2016-07-08T13:42:17Z</time>
      </trkpt>
      <trkpt lat="43.81026" lon="7.45021">
        <ele>713.594</ele>
        <time>2016-07-08T13:42:21Z</time>
      </trkpt>
      <trkpt lat="43.81022" lon="7.45022">
        <ele>715.859</ele>
        <time>2016-07-08T13:42:22Z</time>
      </trkpt>
      <trkpt lat="43.81017" lon="7.4503">
        <ele>717.088</ele>
        <time>2016-07-08T13:42:23Z</time>
      </trkpt>
      <trkpt lat="43.81014" lon="7.45036">
        <ele>718.245</ele>
        <time>2016-07-08T13:42:24Z</time>
      </trkpt>
      <trkpt lat="43.81013" lon="7.45044">
        <ele>717.697</ele>
        <time>2016-07-08T13:42:25Z</time>
      </trkpt>
      <trkpt lat="43.81021" lon="7.45066">
        <ele>710.073</ele>
        <time>2016-07-08T13:42:28Z</time>
      </trkpt>
      <trkpt lat="43.8102" lon="7.4509">
        <ele>706.667</ele>
        <time>2016-07-08T13:42:31Z</time>
      </trkpt>
      <trkpt lat="43.80978" lon="7.45168">
        <ele>708.092</ele>
        <time>2016-07-08T13:42:42Z</time>
      </trkpt>
      <trkpt lat="43.8097" lon="7.45189">
        <ele>703.195</ele>
        <time>2016-07-08T13:42:45Z</time>
      </trkpt>
      <trkpt lat="43.80965" lon="7.45211">
        <ele>699.606</ele>
        <time>2016-07-08T13:42:48Z</time>
      </trkpt>
      <trkpt lat="43.80961" lon="7.4522">
        <ele>698.597</ele>
        <time>2016-07-08T13:42:49Z</time>
      </trkpt>
      <trkpt lat="43.8095" lon="7.45237">
        <ele>696.314</ele>
        <time>2016-07-08T13:42:52Z</time>
      </trkpt>
      <trkpt lat="43.80931" lon="7.45254">
        <ele>692.392</ele>
        <time>2016-07-08T13:42:56Z</time>
      </trkpt>
      <trkpt lat="43.80914" lon="7.4526">
        <ele>688.867</ele>
        <time>2016-07-08T13:42:59Z</time>
      </trkpt>
      <trkpt lat="43.80876" lon="7.45254">
        <ele>683.022</ele>
        <time>2016-07-08T13:43:05Z</time>
      </trkpt>
      <trkpt lat="43.80872" lon="7.45251">
        <ele>682.104</ele>
        <time>2016-07-08T13:43:06Z</time>
      </trkpt>
      <trkpt lat="43.80865" lon="7.45238">
        <ele>684.05</ele>
        <time>2016-07-08T13:43:08Z</time>
      </trkpt>
      <trkpt lat="43.80863" lon="7.45224">
        <ele>688.789</ele>
        <time>2016-07-08T13:43:09Z</time>
      </trkpt>
      <trkpt lat="43.80863" lon="7.45202">
        <ele>692.487</ele>
        <time>2016-07-08T13:43:12Z</time>
      </trkpt>
      <trkpt lat="43.80857" lon="7.45169">
        <ele>696.572</ele>
        <time>2016-07-08T13:43:16Z</time>
      </trkpt>
      <trkpt lat="43.80834" lon="7.45145">
        <ele>694.798</ele>
        <time>2016-07-08T13:43:21Z</time>
      </trkpt>
      <trkpt lat="43.80812" lon="7.45139">
        <ele>688.502</ele>
        <time>2016-07-08T13:43:25Z</time>
      </trkpt>
      <trkpt lat="43.808" lon="7.45134">
        <ele>686.053</ele>
        <time>2016-07-08T13:43:27Z</time>
      </trkpt>
      <trkpt lat="43.80795" lon="7.4513">
        <ele>685.858</ele>
        <time>2016-07-08T13:43:28Z</time>
      </trkpt>
      <trkpt lat="43.80784" lon="7.45113">
        <ele>688.857</ele>
        <time>2016-07-08T13:43:30Z</time>
      </trkpt>
      <trkpt lat="43.80772" lon="7.4509">
        <ele>694.434</ele>
        <time>2016-07-08T13:43:34Z</time>
      </trkpt>
      <trkpt lat="43.80763" lon="7.45086">
        <ele>692.419</ele>
        <time>2016-07-08T13:43:35Z</time>
      </trkpt>
      <trkpt lat="43.80747" lon="7.45086">
        <ele>685.434</ele>
        <time>2016-07-08T13:43:38Z</time>
      </trkpt>
      <trkpt lat="43.80731" lon="7.45075">
        <ele>683.229</ele>
        <time>2016-07-08T13:43:41Z</time>
      </trkpt>
      <trkpt lat="43.807" lon="7.45062">
        <ele>675.134</ele>
        <time>2016-07-08T13:43:46Z</time>
      </trkpt>
      <trkpt lat="43.80688" lon="7.45047">
        <ele>675.422</ele>
        <time>2016-07-08T13:43:49Z</time>
      </trkpt>
      <trkpt lat="43.80679" lon="7.4498">
        <ele>694.165</ele>
        <time>2016-07-08T13:43:57Z</time>
      </trkpt>
      <trkpt lat="43.80677" lon="7.44975">
        <ele>695.322</ele>
        <time>2016-07-08T13:43:58Z</time>
      </trkpt>
      <trkpt lat="43.80667" lon="7.44971">
        <ele>694.115</ele>
        <time>2016-07-08T13:44:00Z</time>
      </trkpt>
      <trkpt lat="43.80659" lon="7.44972">
        <ele>694.328</ele>
        <time>2016-07-08T13:44:01Z</time>
      </trkpt>
      <trkpt lat="43.80652" lon="7.44976">
        <ele>693.329</ele>
        <time>2016-07-08T13:44:02Z</time>
      </trkpt>
      <trkpt lat="43.80613" lon="7.45021">
        <ele>678.469</ele>
        <time>2016-07-08T13:44:11Z</time>
      </trkpt>
      <trkpt lat="43.80598" lon="7.45044">
        <ele>672.17</ele>
        <time>2016-07-08T13:44:14Z</time>
      </trkpt>
      <trkpt lat="43.80586" lon="7.45069">
        <ele>669.861</ele>
        <time>2016-07-08T13:44:18Z</time>
      </trkpt>
      <trkpt lat="43.80587" lon="7.4509">
        <ele>665.218</ele>
        <time>2016-07-08T13:44:20Z</time>
      </trkpt>
      <trkpt lat="43.80593" lon="7.45126">
        <ele>658.22</ele>
        <time>2016-07-08T13:44:25Z</time>
      </trkpt>
      <trkpt lat="43.80594" lon="7.45144">
        <ele>656.861</ele>
        <time>2016-07-08T13:44:27Z</time>
      </trkpt>
      <trkpt lat="43.80592" lon="7.45158">
        <ele>657.437</ele>
        <time>2016-07-08T13:44:29Z</time>
      </trkpt>
      <trkpt lat="43.80595" lon="7.45206">
        <ele>652.72</ele>
        <time>2016-07-08T13:44:35Z</time>
      </trkpt>
      <trkpt lat="43.80586" lon="7.45243">
        <ele>653.412</ele>
        <time>2016-07-08T13:44:39Z</time>
      </trkpt>
      <trkpt lat="43.80564" lon="7.45273">
        <ele>663.707</ele>
        <time>2016-07-08T13:44:44Z</time>
      </trkpt>
      <trkpt lat="43.80557" lon="7.45287">
        <ele>664.443</ele>
        <time>2016-07-08T13:44:46Z</time>
      </trkpt>
      <trkpt lat="43.80558" lon="7.45305">
        <ele>658.578</ele>
        <time>2016-07-08T13:44:49Z</time>
      </trkpt>
      <trkpt lat="43.80569" lon="7.45327">
        <ele>644.714</ele>
        <time>2016-07-08T13:44:52Z</time>
      </trkpt>
      <trkpt lat="43.80572" lon="7.45339">
        <ele>639.591</ele>
        <time>2016-07-08T13:44:53Z</time>
      </trkpt>
      <trkpt lat="43.80572" lon="7.45352">
        <ele>636.506</ele>
        <time>2016-07-08T13:44:55Z</time>
      </trkpt>
      <trkpt lat="43.80569" lon="7.45366">
        <ele>634.698</ele>
        <time>2016-07-08T13:44:57Z</time>
      </trkpt>
      <trkpt lat="43.80552" lon="7.45388">
        <ele>637.256</ele>
        <time>2016-07-08T13:45:00Z</time>
      </trkpt>
      <trkpt lat="43.80535" lon="7.45431">
        <ele>632.334</ele>
        <time>2016-07-08T13:45:06Z</time>
      </trkpt>
      <trkpt lat="43.80515" lon="7.4546">
        <ele>630</ele>
        <time>2016-07-08T13:45:11Z</time>
      </trkpt>
      <trkpt lat="43.80485" lon="7.45492">
        <ele>626.351</ele>
        <time>2016-07-08T13:45:17Z</time>
      </trkpt>
      <trkpt lat="43.80459" lon="7.45529">
        <ele>619.017</ele>
        <time>2016-07-08T13:45:24Z</time>
      </trkpt>
      <trkpt lat="43.80455" lon="7.45532">
        <ele>617.969</ele>
        <time>2016-07-08T13:45:24Z</time>
      </trkpt>
      <trkpt lat="43.80449" lon="7.45533">
        <ele>617.672</ele>
        <time>2016-07-08T13:45:25Z</time>
      </trkpt>
      <trkpt lat="43.804" lon="7.4553">
        <ele>629.976</ele>
        <time>2016-07-08T13:45:33Z</time>
      </trkpt>
      <trkpt lat="43.80396" lon="7.45532">
        <ele>630.538</ele>
        <time>2016-07-08T13:45:34Z</time>
      </trkpt>
      <trkpt lat="43.80388" lon="7.45545">
        <ele>627.961</ele>
        <time>2016-07-08T13:45:36Z</time>
      </trkpt>
      <trkpt lat="43.80376" lon="7.45594">
        <ele>608.881</ele>
        <time>2016-07-08T13:45:42Z</time>
      </trkpt>
      <trkpt lat="43.8037" lon="7.45601">
        <ele>607.507</ele>
        <time>2016-07-08T13:45:44Z</time>
      </trkpt>
      <trkpt lat="43.80359" lon="7.45604">
        <ele>608.966</ele>
        <time>2016-07-08T13:45:46Z</time>
      </trkpt>
      <trkpt lat="43.80323" lon="7.45605">
        <ele>612.96</ele>
        <time>2016-07-08T13:45:51Z</time>
      </trkpt>
      <trkpt lat="43.803" lon="7.45611">
        <ele>610.067</ele>
        <time>2016-07-08T13:45:55Z</time>
      </trkpt>
      <trkpt lat="43.80281" lon="7.45604">
        <ele>616.67</ele>
        <time>2016-07-08T13:45:59Z</time>
      </trkpt>
      <trkpt lat="43.80273" lon="7.45604">
        <ele>618.748</ele>
        <time>2016-07-08T13:46:00Z</time>
      </trkpt>
      <trkpt lat="43.8027" lon="7.45606">
        <ele>618.956</ele>
        <time>2016-07-08T13:46:01Z</time>
      </trkpt>
      <trkpt lat="43.80257" lon="7.45642">
        <ele>616.303</ele>
        <time>2016-07-08T13:46:05Z</time>
      </trkpt>
      <trkpt lat="43.80248" lon="7.45686">
        <ele>610.346</ele>
        <time>2016-07-08T13:46:11Z</time>
      </trkpt>
      <trkpt lat="43.80237" lon="7.45728">
        <ele>608.669</ele>
        <time>2016-07-08T13:46:16Z</time>
      </trkpt>
      <trkpt lat="43.80235" lon="7.45766">
        <ele>605.316</ele>
        <time>2016-07-08T13:46:21Z</time>
      </trkpt>
      <trkpt lat="43.80239" lon="7.45806">
        <ele>600.165</ele>
        <time>2016-07-08T13:46:26Z</time>
      </trkpt>
      <trkpt lat="43.80238" lon="7.4583">
        <ele>600.196</ele>
        <time>2016-07-08T13:46:28Z</time>
      </trkpt>
      <trkpt lat="43.80229" lon="7.45848">
        <ele>602.965</ele>
        <time>2016-07-08T13:46:31Z</time>
      </trkpt>
      <trkpt lat="43.80226" lon="7.45851">
        <ele>603.678</ele>
        <time>2016-07-08T13:46:32Z</time>
      </trkpt>
      <trkpt lat="43.80219" lon="7.45852">
        <ele>604.382</ele>
        <time>2016-07-08T13:46:33Z</time>
      </trkpt>
      <trkpt lat="43.80218" lon="7.45836">
        <ele>603.329</ele>
        <time>2016-07-08T13:46:35Z</time>
      </trkpt>
      <trkpt lat="43.80215" lon="7.45829">
        <ele>603.531</ele>
        <time>2016-07-08T13:46:36Z</time>
      </trkpt>
      <trkpt lat="43.80206" lon="7.45816">
        <ele>604.468</ele>
        <time>2016-07-08T13:46:38Z</time>
      </trkpt>
      <trkpt lat="43.80178" lon="7.45799">
        <ele>606.06</ele>
        <time>2016-07-08T13:46:43Z</time>
      </trkpt>
      <trkpt lat="43.80152" lon="7.45792">
        <ele>607.403</ele>
        <time>2016-07-08T13:46:47Z</time>
      </trkpt>
      <trkpt lat="43.80115" lon="7.45775">
        <ele>610.42</ele>
        <time>2016-07-08T13:46:54Z</time>
      </trkpt>
      <trkpt lat="43.80088" lon="7.4576">
        <ele>608.811</ele>
        <time>2016-07-08T13:46:59Z</time>
      </trkpt>
      <trkpt lat="43.80073" lon="7.45748">
        <ele>609.46</ele>
        <time>2016-07-08T13:47:02Z</time>
      </trkpt>
      <trkpt lat="43.80054" lon="7.45728">
        <ele>613.247</ele>
        <time>2016-07-08T13:47:05Z</time>
      </trkpt>
      <trkpt lat="43.80047" lon="7.45718">
        <ele>615.39</ele>
        <time>2016-07-08T13:47:07Z</time>
      </trkpt>
      <trkpt lat="43.80039" lon="7.45714">
        <ele>615.937</ele>
        <time>2016-07-08T13:47:09Z</time>
      </trkpt>
      <trkpt lat="43.80011" lon="7.45713">
        <ele>616.057</ele>
        <time>2016-07-08T13:47:13Z</time>
      </trkpt>
      <trkpt lat="43.79972" lon="7.45701">
        <ele>621.366</ele>
        <time>2016-07-08T13:47:20Z</time>
      </trkpt>
      <trkpt lat="43.79937" lon="7.45676">
        <ele>625.518</ele>
        <time>2016-07-08T13:47:26Z</time>
      </trkpt>
      <trkpt lat="43.79895" lon="7.45652">
        <ele>625.676</ele>
        <time>2016-07-08T13:47:34Z</time>
      </trkpt>
      <trkpt lat="43.79867" lon="7.45629">
        <ele>630.764</ele>
        <time>2016-07-08T13:47:39Z</time>
      </trkpt>
      <trkpt lat="43.79851" lon="7.45622">
        <ele>630.061</ele>
        <time>2016-07-08T13:47:42Z</time>
      </trkpt>
      <trkpt lat="43.7983" lon="7.45617">
        <ele>626.587</ele>
        <time>2016-07-08T13:47:46Z</time>
      </trkpt>
      <trkpt lat="43.79802" lon="7.45604">
        <ele>626.953</ele>
        <time>2016-07-08T13:47:51Z</time>
      </trkpt>
      <trkpt lat="43.79786" lon="7.45592">
        <ele>629.564</ele>
        <time>2016-07-08T13:47:54Z</time>
      </trkpt>
      <trkpt lat="43.79751" lon="7.45555">
        <ele>633.523</ele>
        <time>2016-07-08T13:48:01Z</time>
      </trkpt>
      <trkpt lat="43.79742" lon="7.4554">
        <ele>635.812</ele>
        <time>2016-07-08T13:48:03Z</time>
      </trkpt>
      <trkpt lat="43.79737" lon="7.45518">
        <ele>642.57</ele>
        <time>2016-07-08T13:48:06Z</time>
      </trkpt>
      <trkpt lat="43.79731" lon="7.45509">
        <ele>644.975</ele>
        <time>2016-07-08T13:48:07Z</time>
      </trkpt>
      <trkpt lat="43.79727" lon="7.45506">
        <ele>645.247</ele>
        <time>2016-07-08T13:48:08Z</time>
      </trkpt>
      <trkpt lat="43.79695" lon="7.45496">
        <ele>644.946</ele>
        <time>2016-07-08T13:48:14Z</time>
      </trkpt>
      <trkpt lat="43.79609" lon="7.45489">
        <ele>644.599</ele>
        <time>2016-07-08T13:48:28Z</time>
      </trkpt>
      <trkpt lat="43.796" lon="7.45484">
        <ele>643.501</ele>
        <time>2016-07-08T13:48:29Z</time>
      </trkpt>
      <trkpt lat="43.79587" lon="7.4547">
        <ele>643.957</ele>
        <time>2016-07-08T13:48:32Z</time>
      </trkpt>
      <trkpt lat="43.79574" lon="7.45461">
        <ele>647.741</ele>
        <time>2016-07-08T13:48:35Z</time>
      </trkpt>
      <trkpt lat="43.79519" lon="7.45432">
        <ele>659.271</ele>
        <time>2016-07-08T13:48:44Z</time>
      </trkpt>
      <trkpt lat="43.79513" lon="7.45431">
        <ele>659.892</ele>
        <time>2016-07-08T13:48:45Z</time>
      </trkpt>
      <trkpt lat="43.79503" lon="7.45432">
        <ele>660.087</ele>
        <time>2016-07-08T13:48:47Z</time>
      </trkpt>
      <trkpt lat="43.79486" lon="7.45443">
        <ele>662.475</ele>
        <time>2016-07-08T13:48:50Z</time>
      </trkpt>
      <trkpt lat="43.79477" lon="7.45458">
        <ele>661.78</ele>
        <time>2016-07-08T13:48:53Z</time>
      </trkpt>
      <trkpt lat="43.79464" lon="7.45499">
        <ele>649.515</ele>
        <time>2016-07-08T13:48:58Z</time>
      </trkpt>
      <trkpt lat="43.79461" lon="7.45504">
        <ele>646.141</ele>
        <time>2016-07-08T13:48:59Z</time>
      </trkpt>
      <trkpt lat="43.79456" lon="7.45507">
        <ele>643.797</ele>
        <time>2016-07-08T13:49:00Z</time>
      </trkpt>
      <trkpt lat="43.7945" lon="7.45503">
        <ele>645.786</ele>
        <time>2016-07-08T13:49:01Z</time>
      </trkpt>
      <trkpt lat="43.7944" lon="7.45489">
        <ele>651.904</ele>
        <time>2016-07-08T13:49:03Z</time>
      </trkpt>
      <trkpt lat="43.79428" lon="7.45467">
        <ele>661.64</ele>
        <time>2016-07-08T13:49:06Z</time>
      </trkpt>
      <trkpt lat="43.79398" lon="7.45431">
        <ele>675.288</ele>
        <time>2016-07-08T13:49:13Z</time>
      </trkpt>
      <trkpt lat="43.7939" lon="7.45428">
        <ele>673.541</ele>
        <time>2016-07-08T13:49:14Z</time>
      </trkpt>
      <trkpt lat="43.79365" lon="7.45423">
        <ele>677.331</ele>
        <time>2016-07-08T13:49:18Z</time>
      </trkpt>
      <trkpt lat="43.7935" lon="7.45424">
        <ele>679.221</ele>
        <time>2016-07-08T13:49:21Z</time>
      </trkpt>
      <trkpt lat="43.79346" lon="7.45425">
        <ele>679.466</ele>
        <time>2016-07-08T13:49:22Z</time>
      </trkpt>
      <trkpt lat="43.79337" lon="7.45432">
        <ele>678.181</ele>
        <time>2016-07-08T13:49:23Z</time>
      </trkpt>
      <trkpt lat="43.79325" lon="7.45448">
        <ele>669.839</ele>
        <time>2016-07-08T13:49:26Z</time>
      </trkpt>
      <trkpt lat="43.79321" lon="7.4545">
        <ele>667.758</ele>
        <time>2016-07-08T13:49:27Z</time>
      </trkpt>
      <trkpt lat="43.79314" lon="7.45447">
        <ele>667.756</ele>
        <time>2016-07-08T13:49:28Z</time>
      </trkpt>
      <trkpt lat="43.79304" lon="7.45431">
        <ele>673.568</ele>
        <time>2016-07-08T13:49:31Z</time>
      </trkpt>
      <trkpt lat="43.79298" lon="7.45418">
        <ele>676.774</ele>
        <time>2016-07-08T13:49:32Z</time>
      </trkpt>
      <trkpt lat="43.79273" lon="7.45346">
        <ele>674.792</ele>
        <time>2016-07-08T13:49:42Z</time>
      </trkpt>
      <trkpt lat="43.79272" lon="7.45327">
        <ele>670.467</ele>
        <time>2016-07-08T13:49:44Z</time>
      </trkpt>
      <trkpt lat="43.79281" lon="7.45289">
        <ele>675.682</ele>
        <time>2016-07-08T13:49:49Z</time>
      </trkpt>
      <trkpt lat="43.79279" lon="7.45254">
        <ele>666.656</ele>
        <time>2016-07-08T13:49:53Z</time>
      </trkpt>
      <trkpt lat="43.7928" lon="7.45246">
        <ele>665.455</ele>
        <time>2016-07-08T13:49:54Z</time>
      </trkpt>
      <trkpt lat="43.79284" lon="7.45235">
        <ele>665.494</ele>
        <time>2016-07-08T13:49:56Z</time>
      </trkpt>
      <trkpt lat="43.79293" lon="7.45222">
        <ele>668.928</ele>
        <time>2016-07-08T13:49:58Z</time>
      </trkpt>
      <trkpt lat="43.793" lon="7.45218">
        <ele>673.392</ele>
        <time>2016-07-08T13:49:59Z</time>
      </trkpt>
      <trkpt lat="43.79321" lon="7.45218">
        <ele>687.098</ele>
        <time>2016-07-08T13:50:03Z</time>
      </trkpt>
      <trkpt lat="43.79326" lon="7.45216">
        <ele>690.111</ele>
        <time>2016-07-08T13:50:03Z</time>
      </trkpt>
      <trkpt lat="43.79333" lon="7.4521">
        <ele>694.34</ele>
        <time>2016-07-08T13:50:05Z</time>
      </trkpt>
      <trkpt lat="43.7934" lon="7.45194">
        <ele>697.316</ele>
        <time>2016-07-08T13:50:07Z</time>
      </trkpt>
      <trkpt lat="43.79344" lon="7.45177">
        <ele>697.397</ele>
        <time>2016-07-08T13:50:09Z</time>
      </trkpt>
      <trkpt lat="43.79345" lon="7.45156">
        <ele>695.629</ele>
        <time>2016-07-08T13:50:12Z</time>
      </trkpt>
      <trkpt lat="43.79344" lon="7.45145">
        <ele>694.184</ele>
        <time>2016-07-08T13:50:13Z</time>
      </trkpt>
      <trkpt lat="43.7934" lon="7.45126">
        <ele>691.416</ele>
        <time>2016-07-08T13:50:15Z</time>
      </trkpt>
      <trkpt lat="43.79331" lon="7.45103">
        <ele>686.908</ele>
        <time>2016-07-08T13:50:19Z</time>
      </trkpt>
      <trkpt lat="43.79331" lon="7.45096">
        <ele>686.908</ele>
        <time>2016-07-08T13:50:19Z</time>
      </trkpt>
      <trkpt lat="43.79333" lon="7.45081">
        <ele>687.344</ele>
        <time>2016-07-08T13:50:21Z</time>
      </trkpt>
      <trkpt lat="43.79343" lon="7.45053">
        <ele>683.964</ele>
        <time>2016-07-08T13:50:25Z</time>
      </trkpt>
      <trkpt lat="43.7935" lon="7.45044">
        <ele>681.909</ele>
        <time>2016-07-08T13:50:27Z</time>
      </trkpt>
      <trkpt lat="43.79364" lon="7.45037">
        <ele>683.555</ele>
        <time>2016-07-08T13:50:29Z</time>
      </trkpt>
      <trkpt lat="43.79374" lon="7.45037">
        <ele>690.156</ele>
        <time>2016-07-08T13:50:31Z</time>
      </trkpt>
      <trkpt lat="43.79387" lon="7.45041">
        <ele>700.485</ele>
        <time>2016-07-08T13:50:33Z</time>
      </trkpt>
      <trkpt lat="43.79395" lon="7.45041">
        <ele>705.117</ele>
        <time>2016-07-08T13:50:34Z</time>
      </trkpt>
      <trkpt lat="43.79402" lon="7.45038">
        <ele>707.67</ele>
        <time>2016-07-08T13:50:35Z</time>
      </trkpt>
      <trkpt lat="43.79416" lon="7.45027">
        <ele>710.219</ele>
        <time>2016-07-08T13:50:38Z</time>
      </trkpt>
      <trkpt lat="43.79434" lon="7.45002">
        <ele>710.763</ele>
        <time>2016-07-08T13:50:42Z</time>
      </trkpt>
      <trkpt lat="43.79452" lon="7.44948">
        <ele>695.416</ele>
        <time>2016-07-08T13:50:49Z</time>
      </trkpt>
      <trkpt lat="43.79473" lon="7.44916">
        <ele>692.461</ele>
        <time>2016-07-08T13:50:55Z</time>
      </trkpt>
      <trkpt lat="43.79482" lon="7.44894">
        <ele>690.74</ele>
        <time>2016-07-08T13:50:58Z</time>
      </trkpt>
      <trkpt lat="43.79489" lon="7.44866">
        <ele>684.277</ele>
        <time>2016-07-08T13:51:01Z</time>
      </trkpt>
      <trkpt lat="43.79534" lon="7.44815">
        <ele>692.324</ele>
        <time>2016-07-08T13:51:11Z</time>
      </trkpt>
      <trkpt lat="43.79542" lon="7.4481">
        <ele>692.774</ele>
        <time>2016-07-08T13:51:12Z</time>
      </trkpt>
      <trkpt lat="43.7955" lon="7.4481">
        <ele>695.504</ele>
        <time>2016-07-08T13:51:14Z</time>
      </trkpt>
      <trkpt lat="43.79579" lon="7.44822">
        <ele>714.663</ele>
        <time>2016-07-08T13:51:19Z</time>
      </trkpt>
      <trkpt lat="43.79583" lon="7.44822">
        <ele>716.503</ele>
        <time>2016-07-08T13:51:19Z</time>
      </trkpt>
      <trkpt lat="43.79592" lon="7.44817">
        <ele>717.05</ele>
        <time>2016-07-08T13:51:21Z</time>
      </trkpt>
      <trkpt lat="43.79606" lon="7.44802">
        <ele>711.125</ele>
        <time>2016-07-08T13:51:24Z</time>
      </trkpt>
      <trkpt lat="43.79646" lon="7.44783">
        <ele>717.047</ele>
        <time>2016-07-08T13:51:31Z</time>
      </trkpt>
      <trkpt lat="43.79681" lon="7.44758">
        <ele>711.328</ele>
        <time>2016-07-08T13:51:37Z</time>
      </trkpt>
      <trkpt lat="43.79697" lon="7.44749">
        <ele>708.454</ele>
        <time>2016-07-08T13:51:40Z</time>
      </trkpt>
      <trkpt lat="43.79723" lon="7.44756">
        <ele>727.866</ele>
        <time>2016-07-08T13:51:45Z</time>
      </trkpt>
      <trkpt lat="43.79732" lon="7.44757">
        <ele>736.582</ele>
        <time>2016-07-08T13:51:46Z</time>
      </trkpt>
      <trkpt lat="43.79741" lon="7.44755">
        <ele>742.855</ele>
        <time>2016-07-08T13:51:48Z</time>
      </trkpt>
      <trkpt lat="43.79757" lon="7.44747">
        <ele>744.228</ele>
        <time>2016-07-08T13:51:50Z</time>
      </trkpt>
      <trkpt lat="43.79761" lon="7.44747">
        <ele>743.94</ele>
        <time>2016-07-08T13:51:51Z</time>
      </trkpt>
      <trkpt lat="43.79769" lon="7.44751">
        <ele>746.093</ele>
        <time>2016-07-08T13:51:53Z</time>
      </trkpt>
      <trkpt lat="43.79786" lon="7.44766">
        <ele>739.303</ele>
        <time>2016-07-08T13:51:56Z</time>
      </trkpt>
      <trkpt lat="43.79797" lon="7.44783">
        <ele>727.002</ele>
        <time>2016-07-08T13:51:59Z</time>
      </trkpt>
      <trkpt lat="43.79801" lon="7.44801">
        <ele>725.713</ele>
        <time>2016-07-08T13:52:01Z</time>
      </trkpt>
      <trkpt lat="43.79805" lon="7.4481">
        <ele>723.371</ele>
        <time>2016-07-08T13:52:02Z</time>
      </trkpt>
      <trkpt lat="43.79811" lon="7.4482">
        <ele>727.238</ele>
        <time>2016-07-08T13:52:04Z</time>
      </trkpt>
      <trkpt lat="43.79818" lon="7.44826">
        <ele>729.206</ele>
        <time>2016-07-08T13:52:05Z</time>
      </trkpt>
      <trkpt lat="43.79828" lon="7.44827">
        <ele>727.688</ele>
        <time>2016-07-08T13:52:07Z</time>
      </trkpt>
      <trkpt lat="43.79852" lon="7.44815">
        <ele>722.56</ele>
        <time>2016-07-08T13:52:11Z</time>
      </trkpt>
      <trkpt lat="43.79865" lon="7.44814">
        <ele>723.986</ele>
        <time>2016-07-08T13:52:13Z</time>
      </trkpt>
      <trkpt lat="43.79895" lon="7.4482">
        <ele>734.102</ele>
        <time>2016-07-08T13:52:18Z</time>
      </trkpt>
      <trkpt lat="43.79905" lon="7.44815">
        <ele>734.131</ele>
        <time>2016-07-08T13:52:20Z</time>
      </trkpt>
      <trkpt lat="43.79909" lon="7.44811">
        <ele>733.2</ele>
        <time>2016-07-08T13:52:21Z</time>
      </trkpt>
      <trkpt lat="43.79939" lon="7.44767">
        <ele>721.748</ele>
        <time>2016-07-08T13:52:28Z</time>
      </trkpt>
      <trkpt lat="43.79963" lon="7.4474">
        <ele>720.499</ele>
        <time>2016-07-08T13:52:33Z</time>
      </trkpt>
      <trkpt lat="43.79975" lon="7.44719">
        <ele>714.788</ele>
        <time>2016-07-08T13:52:36Z</time>
      </trkpt>
      <trkpt lat="43.79982" lon="7.44711">
        <ele>714.414</ele>
        <time>2016-07-08T13:52:38Z</time>
      </trkpt>
      <trkpt lat="43.80033" lon="7.44684">
        <ele>723.324</ele>
        <time>2016-07-08T13:52:47Z</time>
      </trkpt>
      <trkpt lat="43.80046" lon="7.44679">
        <ele>724.134</ele>
        <time>2016-07-08T13:52:49Z</time>
      </trkpt>
      <trkpt lat="43.8012" lon="7.44666">
        <ele>740.786</ele>
        <time>2016-07-08T13:53:01Z</time>
      </trkpt>
      <trkpt lat="43.80162" lon="7.44638">
        <ele>737.992</ele>
        <time>2016-07-08T13:53:09Z</time>
      </trkpt>
      <trkpt lat="43.80182" lon="7.44616">
        <ele>734.478</ele>
        <time>2016-07-08T13:53:13Z</time>
      </trkpt>
      <trkpt lat="43.80193" lon="7.44588">
        <ele>728.836</ele>
        <time>2016-07-08T13:53:17Z</time>
      </trkpt>
      <trkpt lat="43.80212" lon="7.4456">
        <ele>732.428</ele>
        <time>2016-07-08T13:53:22Z</time>
      </trkpt>
      <trkpt lat="43.80231" lon="7.44518">
        <ele>729.792</ele>
        <time>2016-07-08T13:53:28Z</time>
      </trkpt>
      <trkpt lat="43.80247" lon="7.44497">
        <ele>733.469</ele>
        <time>2016-07-08T13:53:31Z</time>
      </trkpt>
      <trkpt lat="43.80263" lon="7.44467">
        <ele>740.46</ele>
        <time>2016-07-08T13:53:36Z</time>
      </trkpt>
      <trkpt lat="43.80282" lon="7.44442">
        <ele>748.325</ele>
        <time>2016-07-08T13:53:40Z</time>
      </trkpt>
      <trkpt lat="43.80287" lon="7.44432">
        <ele>747.515</ele>
        <time>2016-07-08T13:53:42Z</time>
      </trkpt>
      <trkpt lat="43.80296" lon="7.44391">
        <ele>735.747</ele>
        <time>2016-07-08T13:53:47Z</time>
      </trkpt>
      <trkpt lat="43.80319" lon="7.44356">
        <ele>745.263</ele>
        <time>2016-07-08T13:53:53Z</time>
      </trkpt>
      <trkpt lat="43.80331" lon="7.44333">
        <ele>745.129</ele>
        <time>2016-07-08T13:53:56Z</time>
      </trkpt>
      <trkpt lat="43.8036" lon="7.44271">
        <ele>764.173</ele>
        <time>2016-07-08T13:54:05Z</time>
      </trkpt>
      <trkpt lat="43.80375" lon="7.4423">
        <ele>767.9</ele>
        <time>2016-07-08T13:54:10Z</time>
      </trkpt>
      <trkpt lat="43.80391" lon="7.44207">
        <ele>772.673</ele>
        <time>2016-07-08T13:54:14Z</time>
      </trkpt>
      <trkpt lat="43.80402" lon="7.44182">
        <ele>770.552</ele>
        <time>2016-07-08T13:54:18Z</time>
      </trkpt>
      <trkpt lat="43.80426" lon="7.44146">
        <ele>775.744</ele>
        <time>2016-07-08T13:54:23Z</time>
      </trkpt>
      <trkpt lat="43.80442" lon="7.44109">
        <ele>775.993</ele>
        <time>2016-07-08T13:54:29Z</time>
      </trkpt>
      <trkpt lat="43.8045" lon="7.44075">
        <ele>782.48</ele>
        <time>2016-07-08T13:54:33Z</time>
      </trkpt>
      <trkpt lat="43.80452" lon="7.44035">
        <ele>786.999</ele>
        <time>2016-07-08T13:54:38Z</time>
      </trkpt>
      <trkpt lat="43.80446" lon="7.43971">
        <ele>790.97</ele>
        <time>2016-07-08T13:54:45Z</time>
      </trkpt>
      <trkpt lat="43.80438" lon="7.43939">
        <ele>795.079</ele>
        <time>2016-07-08T13:54:50Z</time>
      </trkpt>
      <trkpt lat="43.80427" lon="7.43922">
        <ele>793.357</ele>
        <time>2016-07-08T13:54:52Z</time>
      </trkpt>
      <trkpt lat="43.80404" lon="7.43912">
        <ele>785.463</ele>
        <time>2016-07-08T13:54:56Z</time>
      </trkpt>
      <trkpt lat="43.804" lon="7.43906">
        <ele>785.227</ele>
        <time>2016-07-08T13:54:57Z</time>
      </trkpt>
      <trkpt lat="43.80397" lon="7.43892">
        <ele>786.879</ele>
        <time>2016-07-08T13:54:59Z</time>
      </trkpt>
      <trkpt lat="43.80397" lon="7.43878">
        <ele>789.072</ele>
        <time>2016-07-08T13:55:01Z</time>
      </trkpt>
      <trkpt lat="43.80405" lon="7.43814">
        <ele>799.303</ele>
        <time>2016-07-08T13:55:08Z</time>
      </trkpt>
      <trkpt lat="43.80403" lon="7.43755">
        <ele>800.394</ele>
        <time>2016-07-08T13:55:15Z</time>
      </trkpt>
      <trkpt lat="43.80404" lon="7.43742">
        <ele>799.552</ele>
        <time>2016-07-08T13:55:17Z</time>
      </trkpt>
      <trkpt lat="43.80409" lon="7.43718">
        <ele>798.824</ele>
        <time>2016-07-08T13:55:20Z</time>
      </trkpt>
      <trkpt lat="43.80416" lon="7.43694">
        <ele>798.536</ele>
        <time>2016-07-08T13:55:23Z</time>
      </trkpt>
      <trkpt lat="43.80429" lon="7.43666">
        <ele>800.987</ele>
        <time>2016-07-08T13:55:27Z</time>
      </trkpt>
      <trkpt lat="43.80456" lon="7.43646">
        <ele>811.05</ele>
        <time>2016-07-08T13:55:32Z</time>
      </trkpt>
      <trkpt lat="43.80464" lon="7.43638">
        <ele>813.088</ele>
        <time>2016-07-08T13:55:34Z</time>
      </trkpt>
      <trkpt lat="43.80474" lon="7.43619">
        <ele>816.647</ele>
        <time>2016-07-08T13:55:37Z</time>
      </trkpt>
      <trkpt lat="43.80482" lon="7.43579">
        <ele>819.983</ele>
        <time>2016-07-08T13:55:42Z</time>
      </trkpt>
      <trkpt lat="43.80485" lon="7.43547">
        <ele>822.941</ele>
        <time>2016-07-08T13:55:45Z</time>
      </trkpt>
      <trkpt lat="43.80484" lon="7.43485">
        <ele>832.337</ele>
        <time>2016-07-08T13:55:53Z</time>
      </trkpt>
      <trkpt lat="43.8048" lon="7.43464">
        <ele>834.037</ele>
        <time>2016-07-08T13:55:56Z</time>
      </trkpt>
      <trkpt lat="43.80474" lon="7.43455">
        <ele>832.892</ele>
        <time>2016-07-08T13:55:57Z</time>
      </trkpt>
      <trkpt lat="43.8046" lon="7.43448">
        <ele>828.407</ele>
        <time>2016-07-08T13:55:59Z</time>
      </trkpt>
      <trkpt lat="43.80445" lon="7.43438">
        <ele>824.162</ele>
        <time>2016-07-08T13:56:02Z</time>
      </trkpt>
      <trkpt lat="43.80438" lon="7.43429">
        <ele>822.44</ele>
        <time>2016-07-08T13:56:04Z</time>
      </trkpt>
      <trkpt lat="43.80434" lon="7.43416">
        <ele>822.527</ele>
        <time>2016-07-08T13:56:05Z</time>
      </trkpt>
      <trkpt lat="43.80434" lon="7.43395">
        <ele>823.755</ele>
        <time>2016-07-08T13:56:08Z</time>
      </trkpt>
      <trkpt lat="43.80437" lon="7.43368">
        <ele>824.764</ele>
        <time>2016-07-08T13:56:11Z</time>
      </trkpt>
      <trkpt lat="43.80442" lon="7.43354">
        <ele>826.879</ele>
        <time>2016-07-08T13:56:13Z</time>
      </trkpt>
      <trkpt lat="43.80462" lon="7.4332">
        <ele>837.656</ele>
        <time>2016-07-08T13:56:18Z</time>
      </trkpt>
      <trkpt lat="43.80465" lon="7.4331">
        <ele>840.14</ele>
        <time>2016-07-08T13:56:20Z</time>
      </trkpt>
      <trkpt lat="43.80465" lon="7.43293">
        <ele>842.527</ele>
        <time>2016-07-08T13:56:22Z</time>
      </trkpt>
      <trkpt lat="43.80458" lon="7.43276">
        <ele>840.936</ele>
        <time>2016-07-08T13:56:24Z</time>
      </trkpt>
      <trkpt lat="43.80454" lon="7.43258">
        <ele>839.928</ele>
        <time>2016-07-08T13:56:26Z</time>
      </trkpt>
      <trkpt lat="43.80458" lon="7.43209">
        <ele>849.163</ele>
        <time>2016-07-08T13:56:32Z</time>
      </trkpt>
      <trkpt lat="43.80455" lon="7.43197">
        <ele>850.126</ele>
        <time>2016-07-08T13:56:34Z</time>
      </trkpt>
      <trkpt lat="43.8045" lon="7.43186">
        <ele>849.824</ele>
        <time>2016-07-08T13:56:35Z</time>
      </trkpt>
      <trkpt lat="43.80442" lon="7.43177">
        <ele>847.767</ele>
        <time>2016-07-08T13:56:37Z</time>
      </trkpt>
      <trkpt lat="43.80436" lon="7.43173">
        <ele>846.219</ele>
        <time>2016-07-08T13:56:38Z</time>
      </trkpt>
      <trkpt lat="43.80431" lon="7.43166">
        <ele>845.833</ele>
        <time>2016-07-08T13:56:39Z</time>
      </trkpt>
      <trkpt lat="43.80429" lon="7.4316">
        <ele>846.404</ele>
        <time>2016-07-08T13:56:40Z</time>
      </trkpt>
      <trkpt lat="43.80428" lon="7.43146">
        <ele>849.119</ele>
        <time>2016-07-08T13:56:42Z</time>
      </trkpt>
      <trkpt lat="43.8043" lon="7.43111">
        <ele>856.248</ele>
        <time>2016-07-08T13:56:46Z</time>
      </trkpt>
      <trkpt lat="43.80422" lon="7.43071">
        <ele>855.197</ele>
        <time>2016-07-08T13:56:51Z</time>
      </trkpt>
      <trkpt lat="43.80427" lon="7.43043">
        <ele>857.064</ele>
        <time>2016-07-08T13:56:54Z</time>
      </trkpt>
      <trkpt lat="43.80438" lon="7.43008">
        <ele>862.304</ele>
        <time>2016-07-08T13:56:59Z</time>
      </trkpt>
      <trkpt lat="43.80443" lon="7.42973">
        <ele>863.505</ele>
        <time>2016-07-08T13:57:03Z</time>
      </trkpt>
      <trkpt lat="43.80443" lon="7.42946">
        <ele>862.536</ele>
        <time>2016-07-08T13:57:06Z</time>
      </trkpt>
      <trkpt lat="43.8044" lon="7.42905">
        <ele>865.113</ele>
        <time>2016-07-08T13:57:11Z</time>
      </trkpt>
      <trkpt lat="43.80447" lon="7.42854">
        <ele>874.313</ele>
        <time>2016-07-08T13:57:18Z</time>
      </trkpt>
      <trkpt lat="43.80441" lon="7.42816">
        <ele>880.438</ele>
        <time>2016-07-08T13:57:22Z</time>
      </trkpt>
      <trkpt lat="43.80438" lon="7.42784">
        <ele>890.132</ele>
        <time>2016-07-08T13:57:26Z</time>
      </trkpt>
      <trkpt lat="43.80433" lon="7.42778">
        <ele>891.682</ele>
        <time>2016-07-08T13:57:27Z</time>
      </trkpt>
      <trkpt lat="43.80423" lon="7.42777">
        <ele>890.938</ele>
        <time>2016-07-08T13:57:29Z</time>
      </trkpt>
      <trkpt lat="43.80386" lon="7.42785">
        <ele>888.853</ele>
        <time>2016-07-08T13:57:35Z</time>
      </trkpt>
      <trkpt lat="43.8031" lon="7.42818">
        <ele>886.952</ele>
        <time>2016-07-08T13:57:48Z</time>
      </trkpt>
      <trkpt lat="43.80291" lon="7.42821">
        <ele>886.71</ele>
        <time>2016-07-08T13:57:51Z</time>
      </trkpt>
      <trkpt lat="43.80281" lon="7.4282">
        <ele>886.891</ele>
        <time>2016-07-08T13:57:53Z</time>
      </trkpt>
      <trkpt lat="43.8027" lon="7.4281">
        <ele>888.835</ele>
        <time>2016-07-08T13:57:55Z</time>
      </trkpt>
      <trkpt lat="43.80262" lon="7.42791">
        <ele>894.536</ele>
        <time>2016-07-08T13:57:58Z</time>
      </trkpt>
      <trkpt lat="43.80254" lon="7.42782">
        <ele>896.912</ele>
        <time>2016-07-08T13:58:00Z</time>
      </trkpt>
      <trkpt lat="43.80207" lon="7.42748">
        <ele>894.775</ele>
        <time>2016-07-08T13:58:08Z</time>
      </trkpt>
      <trkpt lat="43.80184" lon="7.42729">
        <ele>888.536</ele>
        <time>2016-07-08T13:58:13Z</time>
      </trkpt>
      <trkpt lat="43.80169" lon="7.42705">
        <ele>887.212</ele>
        <time>2016-07-08T13:58:17Z</time>
      </trkpt>
      <trkpt lat="43.80153" lon="7.4266">
        <ele>887.312</ele>
        <time>2016-07-08T13:58:23Z</time>
      </trkpt>
      <trkpt lat="43.80153" lon="7.42645">
        <ele>888.94</ele>
        <time>2016-07-08T13:58:25Z</time>
      </trkpt>
      <trkpt lat="43.80155" lon="7.42638">
        <ele>890.521</ele>
        <time>2016-07-08T13:58:25Z</time>
      </trkpt>
      <trkpt lat="43.80159" lon="7.42629">
        <ele>892.154</ele>
        <time>2016-07-08T13:58:27Z</time>
      </trkpt>
      <trkpt lat="43.8018" lon="7.42599">
        <ele>899.976</ele>
        <time>2016-07-08T13:58:32Z</time>
      </trkpt>
      <trkpt lat="43.80239" lon="7.42533">
        <ele>908.524</ele>
        <time>2016-07-08T13:58:44Z</time>
      </trkpt>
      <trkpt lat="43.80259" lon="7.42517">
        <ele>909.848</ele>
        <time>2016-07-08T13:58:48Z</time>
      </trkpt>
      <trkpt lat="43.80277" lon="7.42512">
        <ele>915.716</ele>
        <time>2016-07-08T13:58:51Z</time>
      </trkpt>
      <trkpt lat="43.803" lon="7.42515">
        <ele>920.652</ele>
        <time>2016-07-08T13:58:55Z</time>
      </trkpt>
      <trkpt lat="43.80317" lon="7.42513">
        <ele>921.816</ele>
        <time>2016-07-08T13:58:58Z</time>
      </trkpt>
      <trkpt lat="43.80327" lon="7.42516">
        <ele>922.5</ele>
        <time>2016-07-08T13:58:59Z</time>
      </trkpt>
      <trkpt lat="43.80345" lon="7.42529">
        <ele>926.283</ele>
        <time>2016-07-08T13:59:03Z</time>
      </trkpt>
      <trkpt lat="43.80347" lon="7.42529">
        <ele>926.637</ele>
        <time>2016-07-08T13:59:03Z</time>
      </trkpt>
      <trkpt lat="43.80353" lon="7.42523">
        <ele>927.146</ele>
        <time>2016-07-08T13:59:04Z</time>
      </trkpt>
      <trkpt lat="43.80355" lon="7.42517">
        <ele>927.039</ele>
        <time>2016-07-08T13:59:05Z</time>
      </trkpt>
      <trkpt lat="43.80356" lon="7.42477">
        <ele>924.763</ele>
        <time>2016-07-08T13:59:10Z</time>
      </trkpt>
      <trkpt lat="43.80353" lon="7.42448">
        <ele>924.536</ele>
        <time>2016-07-08T13:59:14Z</time>
      </trkpt>
      <trkpt lat="43.80349" lon="7.42429">
        <ele>925.422</ele>
        <time>2016-07-08T13:59:16Z</time>
      </trkpt>
      <trkpt lat="43.80337" lon="7.42398">
        <ele>926.029</ele>
        <time>2016-07-08T13:59:20Z</time>
      </trkpt>
      <trkpt lat="43.80323" lon="7.42382">
        <ele>924.108</ele>
        <time>2016-07-08T13:59:23Z</time>
      </trkpt>
      <trkpt lat="43.80316" lon="7.42366">
        <ele>923.594</ele>
        <time>2016-07-08T13:59:25Z</time>
      </trkpt>
      <trkpt lat="43.80311" lon="7.42347">
        <ele>924.205</ele>
        <time>2016-07-08T13:59:28Z</time>
      </trkpt>
      <trkpt lat="43.80308" lon="7.42317">
        <ele>926.733</ele>
        <time>2016-07-08T13:59:31Z</time>
      </trkpt>
      <trkpt lat="43.80299" lon="7.42263">
        <ele>929.948</ele>
        <time>2016-07-08T13:59:38Z</time>
      </trkpt>
      <trkpt lat="43.80299" lon="7.42255">
        <ele>930.236</ele>
        <time>2016-07-08T13:59:39Z</time>
      </trkpt>
      <trkpt lat="43.80303" lon="7.4225">
        <ele>929.552</ele>
        <time>2016-07-08T13:59:40Z</time>
      </trkpt>
      <trkpt lat="43.80322" lon="7.42247">
        <ele>924.352</ele>
        <time>2016-07-08T13:59:43Z</time>
      </trkpt>
      <trkpt lat="43.80339" lon="7.42242">
        <ele>919.804</ele>
        <time>2016-07-08T13:59:46Z</time>
      </trkpt>
      <trkpt lat="43.80346" lon="7.42235">
        <ele>917.981</ele>
        <time>2016-07-08T13:59:47Z</time>
      </trkpt>
      <trkpt lat="43.80356" lon="7.42219">
        <ele>914.609</ele>
        <time>2016-07-08T13:59:50Z</time>
      </trkpt>
      <trkpt lat="43.80361" lon="7.42201">
        <ele>913.799</ele>
        <time>2016-07-08T13:59:52Z</time>
      </trkpt>
      <trkpt lat="43.80362" lon="7.42169">
        <ele>916.372</ele>
        <time>2016-07-08T13:59:56Z</time>
      </trkpt>
      <trkpt lat="43.80365" lon="7.42145">
        <ele>914.54</ele>
        <time>2016-07-08T13:59:59Z</time>
      </trkpt>
      <trkpt lat="43.80364" lon="7.42131">
        <ele>913.586</ele>
        <time>2016-07-08T14:00:01Z</time>
      </trkpt>
      <trkpt lat="43.80348" lon="7.42079">
        <ele>913.772</ele>
        <time>2016-07-08T14:00:07Z</time>
      </trkpt>
      <trkpt lat="43.80337" lon="7.42052">
        <ele>915.265</ele>
        <time>2016-07-08T14:00:11Z</time>
      </trkpt>
      <trkpt lat="43.80332" lon="7.42019">
        <ele>911.839</ele>
        <time>2016-07-08T14:00:15Z</time>
      </trkpt>
      <trkpt lat="43.80333" lon="7.41963">
        <ele>902.844</ele>
        <time>2016-07-08T14:00:22Z</time>
      </trkpt>
      <trkpt lat="43.80348" lon="7.41888">
        <ele>902.848</ele>
        <time>2016-07-08T14:00:31Z</time>
      </trkpt>
      <trkpt lat="43.80361" lon="7.41864">
        <ele>901.624</ele>
        <time>2016-07-08T14:00:35Z</time>
      </trkpt>
      <trkpt lat="43.80379" lon="7.41797">
        <ele>895.531</ele>
        <time>2016-07-08T14:00:43Z</time>
      </trkpt>
      <trkpt lat="43.80407" lon="7.4158">
        <ele>879.676</ele>
        <time>2016-07-08T14:01:10Z</time>
      </trkpt>
      <trkpt lat="43.80408" lon="7.41538">
        <ele>876.91</ele>
        <time>2016-07-08T14:01:15Z</time>
      </trkpt>
      <trkpt lat="43.80402" lon="7.41503">
        <ele>877.194</ele>
        <time>2016-07-08T14:01:19Z</time>
      </trkpt>
      <trkpt lat="43.80401" lon="7.41472">
        <ele>875.315</ele>
        <time>2016-07-08T14:01:23Z</time>
      </trkpt>
      <trkpt lat="43.80405" lon="7.41411">
        <ele>868.126</ele>
        <time>2016-07-08T14:01:30Z</time>
      </trkpt>
      <trkpt lat="43.80395" lon="7.41337">
        <ele>864.225</ele>
        <time>2016-07-08T14:01:39Z</time>
      </trkpt>
      <trkpt lat="43.80396" lon="7.41323">
        <ele>862.696</ele>
        <time>2016-07-08T14:01:41Z</time>
      </trkpt>
      <trkpt lat="43.80393" lon="7.41304">
        <ele>862.551</ele>
        <time>2016-07-08T14:01:43Z</time>
      </trkpt>
      <trkpt lat="43.80394" lon="7.41296">
        <ele>862.314</ele>
        <time>2016-07-08T14:01:44Z</time>
      </trkpt>
      <trkpt lat="43.80402" lon="7.41269">
        <ele>858.399</ele>
        <time>2016-07-08T14:01:48Z</time>
      </trkpt>
      <trkpt lat="43.80403" lon="7.41258">
        <ele>857.322</ele>
        <time>2016-07-08T14:01:49Z</time>
      </trkpt>
      <trkpt lat="43.80404" lon="7.41214">
        <ele>850.177</ele>
        <time>2016-07-08T14:01:54Z</time>
      </trkpt>
      <trkpt lat="43.80401" lon="7.41195">
        <ele>846.483</ele>
        <time>2016-07-08T14:01:57Z</time>
      </trkpt>
      <trkpt lat="43.80397" lon="7.41182">
        <ele>844.545</ele>
        <time>2016-07-08T14:01:58Z</time>
      </trkpt>
      <trkpt lat="43.80362" lon="7.41145">
        <ele>845.724</ele>
        <time>2016-07-08T14:02:06Z</time>
      </trkpt>
      <trkpt lat="43.8034" lon="7.41125">
        <ele>846.96</ele>
        <time>2016-07-08T14:02:10Z</time>
      </trkpt>
      <trkpt lat="43.8031" lon="7.41101">
        <ele>844.618</ele>
        <time>2016-07-08T14:02:16Z</time>
      </trkpt>
      <trkpt lat="43.80298" lon="7.41095">
        <ele>843.472</ele>
        <time>2016-07-08T14:02:18Z</time>
      </trkpt>
      <trkpt lat="43.80288" lon="7.41093">
        <ele>843.112</ele>
        <time>2016-07-08T14:02:19Z</time>
      </trkpt>
      <trkpt lat="43.80276" lon="7.41094">
        <ele>843.84</ele>
        <time>2016-07-08T14:02:21Z</time>
      </trkpt>
      <trkpt lat="43.8025" lon="7.41101">
        <ele>846.36</ele>
        <time>2016-07-08T14:02:26Z</time>
      </trkpt>
      <trkpt lat="43.80246" lon="7.41101">
        <ele>847.617</ele>
        <time>2016-07-08T14:02:26Z</time>
      </trkpt>
      <trkpt lat="43.80238" lon="7.41096">
        <ele>848.486</ele>
        <time>2016-07-08T14:02:28Z</time>
      </trkpt>
      <trkpt lat="43.80226" lon="7.41073">
        <ele>845.444</ele>
        <time>2016-07-08T14:02:31Z</time>
      </trkpt>
      <trkpt lat="43.80214" lon="7.41045">
        <ele>842.976</ele>
        <time>2016-07-08T14:02:35Z</time>
      </trkpt>
      <trkpt lat="43.80202" lon="7.41005">
        <ele>842.043</ele>
        <time>2016-07-08T14:02:40Z</time>
      </trkpt>
      <trkpt lat="43.80179" lon="7.40948">
        <ele>834.085</ele>
        <time>2016-07-08T14:02:48Z</time>
      </trkpt>
      <trkpt lat="43.80164" lon="7.40914">
        <ele>829.551</ele>
        <time>2016-07-08T14:02:53Z</time>
      </trkpt>
      <trkpt lat="43.80154" lon="7.40897">
        <ele>824.656</ele>
        <time>2016-07-08T14:02:56Z</time>
      </trkpt>
      <trkpt lat="43.80148" lon="7.4089">
        <ele>821.356</ele>
        <time>2016-07-08T14:02:57Z</time>
      </trkpt>
      <trkpt lat="43.80138" lon="7.40886">
        <ele>817.328</ele>
        <time>2016-07-08T14:02:59Z</time>
      </trkpt>
      <trkpt lat="43.80133" lon="7.40887">
        <ele>815.996</ele>
        <time>2016-07-08T14:02:59Z</time>
      </trkpt>
      <trkpt lat="43.80126" lon="7.40891">
        <ele>815.307</ele>
        <time>2016-07-08T14:03:01Z</time>
      </trkpt>
      <trkpt lat="43.80117" lon="7.40899">
        <ele>815.775</ele>
        <time>2016-07-08T14:03:03Z</time>
      </trkpt>
      <trkpt lat="43.80111" lon="7.40907">
        <ele>817.429</ele>
        <time>2016-07-08T14:03:04Z</time>
      </trkpt>
      <trkpt lat="43.80103" lon="7.40929">
        <ele>825.578</ele>
        <time>2016-07-08T14:03:07Z</time>
      </trkpt>
      <trkpt lat="43.80097" lon="7.40937">
        <ele>827.764</ele>
        <time>2016-07-08T14:03:08Z</time>
      </trkpt>
      <trkpt lat="43.80093" lon="7.40941">
        <ele>828.539</ele>
        <time>2016-07-08T14:03:09Z</time>
      </trkpt>
      <trkpt lat="43.80078" lon="7.40947">
        <ele>826.77</ele>
        <time>2016-07-08T14:03:12Z</time>
      </trkpt>
      <trkpt lat="43.80062" lon="7.40957">
        <ele>827.531</ele>
        <time>2016-07-08T14:03:15Z</time>
      </trkpt>
      <trkpt lat="43.80054" lon="7.4096">
        <ele>827.281</ele>
        <time>2016-07-08T14:03:16Z</time>
      </trkpt>
      <trkpt lat="43.80035" lon="7.40963">
        <ele>827.291</ele>
        <time>2016-07-08T14:03:19Z</time>
      </trkpt>
      <trkpt lat="43.80025" lon="7.40962">
        <ele>826.79</ele>
        <time>2016-07-08T14:03:21Z</time>
      </trkpt>
      <trkpt lat="43.80013" lon="7.40958">
        <ele>827.549</ele>
        <time>2016-07-08T14:03:23Z</time>
      </trkpt>
      <trkpt lat="43.79987" lon="7.4094">
        <ele>830.252</ele>
        <time>2016-07-08T14:03:28Z</time>
      </trkpt>
      <trkpt lat="43.7998" lon="7.40931">
        <ele>831.634</ele>
        <time>2016-07-08T14:03:29Z</time>
      </trkpt>
      <trkpt lat="43.79971" lon="7.40893">
        <ele>825.133</ele>
        <time>2016-07-08T14:03:34Z</time>
      </trkpt>
      <trkpt lat="43.79959" lon="7.40868">
        <ele>823.014</ele>
        <time>2016-07-08T14:03:38Z</time>
      </trkpt>
      <trkpt lat="43.79949" lon="7.4084">
        <ele>820.259</ele>
        <time>2016-07-08T14:03:41Z</time>
      </trkpt>
      <trkpt lat="43.79944" lon="7.40831">
        <ele>820.163</ele>
        <time>2016-07-08T14:03:43Z</time>
      </trkpt>
      <trkpt lat="43.79922" lon="7.40816">
        <ele>820.07</ele>
        <time>2016-07-08T14:03:47Z</time>
      </trkpt>
      <trkpt lat="43.79902" lon="7.40813">
        <ele>820.334</ele>
        <time>2016-07-08T14:03:50Z</time>
      </trkpt>
      <trkpt lat="43.79886" lon="7.40805">
        <ele>816.371</ele>
        <time>2016-07-08T14:03:53Z</time>
      </trkpt>
      <trkpt lat="43.79857" lon="7.4078">
        <ele>803.679</ele>
        <time>2016-07-08T14:03:59Z</time>
      </trkpt>
      <trkpt lat="43.79837" lon="7.40765">
        <ele>799.952</ele>
        <time>2016-07-08T14:04:02Z</time>
      </trkpt>
      <trkpt lat="43.79832" lon="7.40764">
        <ele>800.194</ele>
        <time>2016-07-08T14:04:03Z</time>
      </trkpt>
      <trkpt lat="43.79791" lon="7.40767">
        <ele>804.877</ele>
        <time>2016-07-08T14:04:10Z</time>
      </trkpt>
      <trkpt lat="43.79784" lon="7.40766">
        <ele>804.082</ele>
        <time>2016-07-08T14:04:11Z</time>
      </trkpt>
      <trkpt lat="43.79773" lon="7.4076">
        <ele>802.648</ele>
        <time>2016-07-08T14:04:13Z</time>
      </trkpt>
      <trkpt lat="43.79763" lon="7.40752">
        <ele>801.665</ele>
        <time>2016-07-08T14:04:15Z</time>
      </trkpt>
      <trkpt lat="43.79756" lon="7.40743">
        <ele>798.851</ele>
        <time>2016-07-08T14:04:17Z</time>
      </trkpt>
      <trkpt lat="43.79752" lon="7.40734">
        <ele>795.349</ele>
        <time>2016-07-08T14:04:18Z</time>
      </trkpt>
      <trkpt lat="43.79738" lon="7.4072">
        <ele>794.259</ele>
        <time>2016-07-08T14:04:21Z</time>
      </trkpt>
      <trkpt lat="43.7972" lon="7.40694">
        <ele>790.936</ele>
        <time>2016-07-08T14:04:25Z</time>
      </trkpt>
      <trkpt lat="43.7971" lon="7.40693">
        <ele>791.152</ele>
        <time>2016-07-08T14:04:27Z</time>
      </trkpt>
      <trkpt lat="43.7969" lon="7.40697">
        <ele>793.197</ele>
        <time>2016-07-08T14:04:30Z</time>
      </trkpt>
      <trkpt lat="43.79653" lon="7.40699">
        <ele>789.689</ele>
        <time>2016-07-08T14:04:36Z</time>
      </trkpt>
      <trkpt lat="43.79639" lon="7.40693">
        <ele>787.161</ele>
        <time>2016-07-08T14:04:39Z</time>
      </trkpt>
      <trkpt lat="43.79613" lon="7.40698">
        <ele>787.141</ele>
        <time>2016-07-08T14:04:43Z</time>
      </trkpt>
      <trkpt lat="43.79608" lon="7.40694">
        <ele>785.037</ele>
        <time>2016-07-08T14:04:44Z</time>
      </trkpt>
      <trkpt lat="43.79593" lon="7.40665">
        <ele>775.696</ele>
        <time>2016-07-08T14:04:48Z</time>
      </trkpt>
      <trkpt lat="43.7958" lon="7.40655">
        <ele>776.699</ele>
        <time>2016-07-08T14:04:51Z</time>
      </trkpt>
      <trkpt lat="43.79557" lon="7.40641">
        <ele>785.92</ele>
        <time>2016-07-08T14:04:55Z</time>
      </trkpt>
      <trkpt lat="43.79542" lon="7.40623">
        <ele>782.425</ele>
        <time>2016-07-08T14:04:58Z</time>
      </trkpt>
      <trkpt lat="43.79524" lon="7.40615">
        <ele>782.284</ele>
        <time>2016-07-08T14:05:01Z</time>
      </trkpt>
      <trkpt lat="43.79515" lon="7.40607">
        <ele>782.22</ele>
        <time>2016-07-08T14:05:03Z</time>
      </trkpt>
      <trkpt lat="43.79503" lon="7.4059">
        <ele>779.088</ele>
        <time>2016-07-08T14:05:06Z</time>
      </trkpt>
      <trkpt lat="43.79494" lon="7.40566">
        <ele>773.697</ele>
        <time>2016-07-08T14:05:09Z</time>
      </trkpt>
      <trkpt lat="43.79486" lon="7.4055">
        <ele>772.275</ele>
        <time>2016-07-08T14:05:11Z</time>
      </trkpt>
      <trkpt lat="43.79469" lon="7.40524">
        <ele>772.112</ele>
        <time>2016-07-08T14:05:16Z</time>
      </trkpt>
      <trkpt lat="43.79457" lon="7.40511">
        <ele>772.697</ele>
        <time>2016-07-08T14:05:18Z</time>
      </trkpt>
      <trkpt lat="43.79437" lon="7.40478">
        <ele>770.21</ele>
        <time>2016-07-08T14:05:23Z</time>
      </trkpt>
      <trkpt lat="43.79416" lon="7.40424">
        <ele>759.736</ele>
        <time>2016-07-08T14:05:31Z</time>
      </trkpt>
      <trkpt lat="43.79375" lon="7.40351">
        <ele>757.452</ele>
        <time>2016-07-08T14:05:42Z</time>
      </trkpt>
      <trkpt lat="43.79363" lon="7.40325">
        <ele>754.92</ele>
        <time>2016-07-08T14:05:45Z</time>
      </trkpt>
      <trkpt lat="43.79346" lon="7.40275">
        <ele>747.214</ele>
        <time>2016-07-08T14:05:52Z</time>
      </trkpt>
      <trkpt lat="43.79332" lon="7.40261">
        <ele>745.366</ele>
        <time>2016-07-08T14:05:55Z</time>
      </trkpt>
      <trkpt lat="43.79317" lon="7.40256">
        <ele>743.962</ele>
        <time>2016-07-08T14:05:58Z</time>
      </trkpt>
      <trkpt lat="43.79289" lon="7.40269">
        <ele>745.684</ele>
        <time>2016-07-08T14:06:02Z</time>
      </trkpt>
      <trkpt lat="43.79259" lon="7.40274">
        <ele>741.764</ele>
        <time>2016-07-08T14:06:07Z</time>
      </trkpt>
      <trkpt lat="43.79226" lon="7.40286">
        <ele>738.224</ele>
        <time>2016-07-08T14:06:13Z</time>
      </trkpt>
      <trkpt lat="43.79202" lon="7.4029">
        <ele>734.88</ele>
        <time>2016-07-08T14:06:17Z</time>
      </trkpt>
      <trkpt lat="43.79189" lon="7.40294">
        <ele>733.3</ele>
        <time>2016-07-08T14:06:19Z</time>
      </trkpt>
      <trkpt lat="43.79179" lon="7.40299">
        <ele>732.22</ele>
        <time>2016-07-08T14:06:21Z</time>
      </trkpt>
      <trkpt lat="43.79159" lon="7.40316">
        <ele>730.12</ele>
        <time>2016-07-08T14:06:25Z</time>
      </trkpt>
      <trkpt lat="43.79154" lon="7.40318">
        <ele>728.68</ele>
        <time>2016-07-08T14:06:26Z</time>
      </trkpt>
      <trkpt lat="43.7915" lon="7.40316">
        <ele>726.88</ele>
        <time>2016-07-08T14:06:27Z</time>
      </trkpt>
      <trkpt lat="43.79148" lon="7.40306">
        <ele>724.36</ele>
        <time>2016-07-08T14:06:28Z</time>
      </trkpt>
      <trkpt lat="43.7915" lon="7.40297">
        <ele>722.906</ele>
        <time>2016-07-08T14:06:29Z</time>
      </trkpt>
      <trkpt lat="43.79153" lon="7.40294">
        <ele>723.161</ele>
        <time>2016-07-08T14:06:30Z</time>
      </trkpt>
      <trkpt lat="43.7916" lon="7.40289">
        <ele>724.118</ele>
        <time>2016-07-08T14:06:31Z</time>
      </trkpt>
      <trkpt lat="43.79191" lon="7.40274">
        <ele>727.925</ele>
        <time>2016-07-08T14:06:36Z</time>
      </trkpt>
      <trkpt lat="43.79202" lon="7.40267">
        <ele>727.868</ele>
        <time>2016-07-08T14:06:38Z</time>
      </trkpt>
      <trkpt lat="43.79251" lon="7.40217">
        <ele>722.712</ele>
        <time>2016-07-08T14:06:48Z</time>
      </trkpt>
      <trkpt lat="43.79296" lon="7.4018">
        <ele>719.808</ele>
        <time>2016-07-08T14:06:57Z</time>
      </trkpt>
      <trkpt lat="43.79296" lon="7.40169">
        <ele>716.64</ele>
        <time>2016-07-08T14:06:58Z</time>
      </trkpt>
      <trkpt lat="43.79292" lon="7.40157">
        <ele>713.1</ele>
        <time>2016-07-08T14:07:00Z</time>
      </trkpt>
      <trkpt lat="43.79289" lon="7.40153">
        <ele>711.768</ele>
        <time>2016-07-08T14:07:01Z</time>
      </trkpt>
      <trkpt lat="43.79253" lon="7.40184">
        <ele>713.975</ele>
        <time>2016-07-08T14:07:08Z</time>
      </trkpt>
      <trkpt lat="43.7922" lon="7.40201">
        <ele>710.427</ele>
        <time>2016-07-08T14:07:14Z</time>
      </trkpt>
      <trkpt lat="43.79196" lon="7.40209">
        <ele>708.023</ele>
        <time>2016-07-08T14:07:18Z</time>
      </trkpt>
      <trkpt lat="43.79121" lon="7.40217">
        <ele>698.397</ele>
        <time>2016-07-08T14:07:30Z</time>
      </trkpt>
      <trkpt lat="43.79104" lon="7.40222">
        <ele>696.154</ele>
        <time>2016-07-08T14:07:33Z</time>
      </trkpt>
      <trkpt lat="43.79079" lon="7.40241">
        <ele>693.859</ele>
        <time>2016-07-08T14:07:38Z</time>
      </trkpt>
      <trkpt lat="43.7905" lon="7.40275">
        <ele>691.92</ele>
        <time>2016-07-08T14:07:44Z</time>
      </trkpt>
      <trkpt lat="43.79044" lon="7.40278">
        <ele>690.691</ele>
        <time>2016-07-08T14:07:45Z</time>
      </trkpt>
      <trkpt lat="43.79038" lon="7.40274">
        <ele>688.35</ele>
        <time>2016-07-08T14:07:46Z</time>
      </trkpt>
      <trkpt lat="43.79038" lon="7.40262">
        <ele>686.463</ele>
        <time>2016-07-08T14:07:48Z</time>
      </trkpt>
      <trkpt lat="43.79085" lon="7.40179">
        <ele>683.036</ele>
        <time>2016-07-08T14:08:00Z</time>
      </trkpt>
      <trkpt lat="43.7909" lon="7.40173">
        <ele>682.796</ele>
        <time>2016-07-08T14:08:01Z</time>
      </trkpt>
      <trkpt lat="43.79098" lon="7.40167">
        <ele>682.651</ele>
        <time>2016-07-08T14:08:03Z</time>
      </trkpt>
      <trkpt lat="43.79149" lon="7.40155">
        <ele>684.999</ele>
        <time>2016-07-08T14:08:11Z</time>
      </trkpt>
      <trkpt lat="43.79157" lon="7.40151">
        <ele>684.64</ele>
        <time>2016-07-08T14:08:13Z</time>
      </trkpt>
      <trkpt lat="43.79175" lon="7.40135">
        <ele>682.36</ele>
        <time>2016-07-08T14:08:16Z</time>
      </trkpt>
      <trkpt lat="43.79192" lon="7.40117">
        <ele>680.92</ele>
        <time>2016-07-08T14:08:20Z</time>
      </trkpt>
      <trkpt lat="43.79244" lon="7.40043">
        <ele>675.971</ele>
        <time>2016-07-08T14:08:32Z</time>
      </trkpt>
      <trkpt lat="43.79265" lon="7.4002">
        <ele>675.709</ele>
        <time>2016-07-08T14:08:37Z</time>
      </trkpt>
      <trkpt lat="43.79266" lon="7.40013">
        <ele>674.978</ele>
        <time>2016-07-08T14:08:38Z</time>
      </trkpt>
      <trkpt lat="43.79262" lon="7.40005">
        <ele>673.346</ele>
        <time>2016-07-08T14:08:39Z</time>
      </trkpt>
      <trkpt lat="43.79192" lon="7.40074">
        <ele>671.514</ele>
        <time>2016-07-08T14:08:53Z</time>
      </trkpt>
      <trkpt lat="43.79174" lon="7.40087">
        <ele>671.209</ele>
        <time>2016-07-08T14:08:56Z</time>
      </trkpt>
      <trkpt lat="43.7906" lon="7.40124">
        <ele>666.658</ele>
        <time>2016-07-08T14:09:16Z</time>
      </trkpt>
      <trkpt lat="43.79036" lon="7.40133">
        <ele>665.36</ele>
        <time>2016-07-08T14:09:20Z</time>
      </trkpt>
      <trkpt lat="43.79031" lon="7.40137">
        <ele>665.236</ele>
        <time>2016-07-08T14:09:21Z</time>
      </trkpt>
      <trkpt lat="43.7902" lon="7.40149">
        <ele>664.412</ele>
        <time>2016-07-08T14:09:23Z</time>
      </trkpt>
      <trkpt lat="43.78919" lon="7.40298">
        <ele>660.691</ele>
        <time>2016-07-08T14:09:48Z</time>
      </trkpt>
      <trkpt lat="43.78906" lon="7.40324">
        <ele>661.61</ele>
        <time>2016-07-08T14:09:51Z</time>
      </trkpt>
      <trkpt lat="43.78877" lon="7.40403">
        <ele>662.892</ele>
        <time>2016-07-08T14:10:02Z</time>
      </trkpt>
      <trkpt lat="43.78867" lon="7.40418">
        <ele>665.308</ele>
        <time>2016-07-08T14:10:05Z</time>
      </trkpt>
      <trkpt lat="43.78859" lon="7.40423">
        <ele>666.181</ele>
        <time>2016-07-08T14:10:06Z</time>
      </trkpt>
      <trkpt lat="43.78816" lon="7.40428">
        <ele>661.767</ele>
        <time>2016-07-08T14:10:13Z</time>
      </trkpt>
      <trkpt lat="43.78785" lon="7.40441">
        <ele>657.2</ele>
        <time>2016-07-08T14:10:19Z</time>
      </trkpt>
      <trkpt lat="43.78769" lon="7.4045">
        <ele>655.114</ele>
        <time>2016-07-08T14:10:21Z</time>
      </trkpt>
      <trkpt lat="43.78742" lon="7.40475">
        <ele>652.39</ele>
        <time>2016-07-08T14:10:27Z</time>
      </trkpt>
      <trkpt lat="43.78731" lon="7.40492">
        <ele>653.562</ele>
        <time>2016-07-08T14:10:30Z</time>
      </trkpt>
      <trkpt lat="43.78725" lon="7.40502">
        <ele>653.96</ele>
        <time>2016-07-08T14:10:31Z</time>
      </trkpt>
      <trkpt lat="43.7871" lon="7.40545">
        <ele>659.793</ele>
        <time>2016-07-08T14:10:37Z</time>
      </trkpt>
      <trkpt lat="43.78706" lon="7.40553">
        <ele>661.058</ele>
        <time>2016-07-08T14:10:38Z</time>
      </trkpt>
      <trkpt lat="43.78696" lon="7.40566">
        <ele>663.232</ele>
        <time>2016-07-08T14:10:40Z</time>
      </trkpt>
      <trkpt lat="43.78683" lon="7.40575">
        <ele>663.087</ele>
        <time>2016-07-08T14:10:43Z</time>
      </trkpt>
      <trkpt lat="43.78635" lon="7.40602">
        <ele>662.316</ele>
        <time>2016-07-08T14:10:51Z</time>
      </trkpt>
      <trkpt lat="43.78564" lon="7.40657">
        <ele>661.331</ele>
        <time>2016-07-08T14:11:05Z</time>
      </trkpt>
      <trkpt lat="43.78493" lon="7.40721">
        <ele>658.246</ele>
        <time>2016-07-08T14:11:19Z</time>
      </trkpt>
      <trkpt lat="43.78473" lon="7.40732">
        <ele>656.319</ele>
        <time>2016-07-08T14:11:22Z</time>
      </trkpt>
      <trkpt lat="43.78453" lon="7.40737">
        <ele>654.748</ele>
        <time>2016-07-08T14:11:26Z</time>
      </trkpt>
      <trkpt lat="43.78439" lon="7.40739">
        <ele>654.412</ele>
        <time>2016-07-08T14:11:28Z</time>
      </trkpt>
      <trkpt lat="43.78432" lon="7.40738">
        <ele>654.736</ele>
        <time>2016-07-08T14:11:29Z</time>
      </trkpt>
      <trkpt lat="43.78419" lon="7.40733">
        <ele>654.772</ele>
        <time>2016-07-08T14:11:31Z</time>
      </trkpt>
      <trkpt lat="43.78407" lon="7.40725">
        <ele>655.553</ele>
        <time>2016-07-08T14:11:34Z</time>
      </trkpt>
      <trkpt lat="43.78395" lon="7.40712">
        <ele>656.576</ele>
        <time>2016-07-08T14:11:36Z</time>
      </trkpt>
      <trkpt lat="43.78385" lon="7.40694">
        <ele>657.108</ele>
        <time>2016-07-08T14:11:39Z</time>
      </trkpt>
      <trkpt lat="43.78381" lon="7.4068">
        <ele>658.047</ele>
        <time>2016-07-08T14:11:41Z</time>
      </trkpt>
      <trkpt lat="43.7838" lon="7.40667">
        <ele>658.204</ele>
        <time>2016-07-08T14:11:42Z</time>
      </trkpt>
      <trkpt lat="43.78383" lon="7.40641">
        <ele>656.588</ele>
        <time>2016-07-08T14:11:45Z</time>
      </trkpt>
      <trkpt lat="43.78403" lon="7.40541">
        <ele>649.896</ele>
        <time>2016-07-08T14:11:58Z</time>
      </trkpt>
      <trkpt lat="43.78409" lon="7.40529">
        <ele>647.292</ele>
        <time>2016-07-08T14:12:00Z</time>
      </trkpt>
      <trkpt lat="43.78419" lon="7.40517">
        <ele>644.253</ele>
        <time>2016-07-08T14:12:02Z</time>
      </trkpt>
      <trkpt lat="43.78434" lon="7.40504">
        <ele>642.412</ele>
        <time>2016-07-08T14:12:05Z</time>
      </trkpt>
      <trkpt lat="43.78438" lon="7.40494">
        <ele>642.276</ele>
        <time>2016-07-08T14:12:06Z</time>
      </trkpt>
      <trkpt lat="43.78439" lon="7.40487">
        <ele>642.265</ele>
        <time>2016-07-08T14:12:07Z</time>
      </trkpt>
      <trkpt lat="43.78438" lon="7.40481">
        <ele>642.527</ele>
        <time>2016-07-08T14:12:08Z</time>
      </trkpt>
      <trkpt lat="43.78434" lon="7.40473">
        <ele>643.121</ele>
        <time>2016-07-08T14:12:09Z</time>
      </trkpt>
      <trkpt lat="43.78361" lon="7.40403">
        <ele>642.554</ele>
        <time>2016-07-08T14:12:24Z</time>
      </trkpt>
      <trkpt lat="43.78344" lon="7.40389">
        <ele>640.648</ele>
        <time>2016-07-08T14:12:27Z</time>
      </trkpt>
      <trkpt lat="43.78333" lon="7.40385">
        <ele>639.493</ele>
        <time>2016-07-08T14:12:29Z</time>
      </trkpt>
      <trkpt lat="43.78274" lon="7.40387">
        <ele>643.853</ele>
        <time>2016-07-08T14:12:39Z</time>
      </trkpt>
      <trkpt lat="43.78251" lon="7.40386">
        <ele>641.82</ele>
        <time>2016-07-08T14:12:42Z</time>
      </trkpt>
      <trkpt lat="43.78208" lon="7.40376">
        <ele>643.682</ele>
        <time>2016-07-08T14:12:50Z</time>
      </trkpt>
      <trkpt lat="43.78096" lon="7.40342">
        <ele>641.205</ele>
        <time>2016-07-08T14:13:09Z</time>
      </trkpt>
      <trkpt lat="43.78021" lon="7.40316">
        <ele>640.268</ele>
        <time>2016-07-08T14:13:21Z</time>
      </trkpt>
      <trkpt lat="43.78015" lon="7.40316">
        <ele>641.051</ele>
        <time>2016-07-08T14:13:22Z</time>
      </trkpt>
      <trkpt lat="43.77999" lon="7.40311">
        <ele>641.647</ele>
        <time>2016-07-08T14:13:25Z</time>
      </trkpt>
      <trkpt lat="43.77989" lon="7.40307">
        <ele>641.229</ele>
        <time>2016-07-08T14:13:27Z</time>
      </trkpt>
      <trkpt lat="43.77981" lon="7.403">
        <ele>640.694</ele>
        <time>2016-07-08T14:13:28Z</time>
      </trkpt>
      <trkpt lat="43.77978" lon="7.40295">
        <ele>640.222</ele>
        <time>2016-07-08T14:13:29Z</time>
      </trkpt>
      <trkpt lat="43.77974" lon="7.40278">
        <ele>638.031</ele>
        <time>2016-07-08T14:13:31Z</time>
      </trkpt>
      <trkpt lat="43.77977" lon="7.40262">
        <ele>640.938</ele>
        <time>2016-07-08T14:13:33Z</time>
      </trkpt>
      <trkpt lat="43.77982" lon="7.40255">
        <ele>642.389</ele>
        <time>2016-07-08T14:13:35Z</time>
      </trkpt>
      <trkpt lat="43.77988" lon="7.4025">
        <ele>643.568</ele>
        <time>2016-07-08T14:13:36Z</time>
      </trkpt>
      <trkpt lat="43.77998" lon="7.40248">
        <ele>644.576</ele>
        <time>2016-07-08T14:13:37Z</time>
      </trkpt>
      <trkpt lat="43.7803" lon="7.40247">
        <ele>639.751</ele>
        <time>2016-07-08T14:13:43Z</time>
      </trkpt>
      <trkpt lat="43.78045" lon="7.40244">
        <ele>638.546</ele>
        <time>2016-07-08T14:13:45Z</time>
      </trkpt>
      <trkpt lat="43.78085" lon="7.40232">
        <ele>638.042</ele>
        <time>2016-07-08T14:13:52Z</time>
      </trkpt>
      <trkpt lat="43.78164" lon="7.40197">
        <ele>637.267</ele>
        <time>2016-07-08T14:14:06Z</time>
      </trkpt>
      <trkpt lat="43.78174" lon="7.40195">
        <ele>636.735</ele>
        <time>2016-07-08T14:14:07Z</time>
      </trkpt>
      <trkpt lat="43.78191" lon="7.40195">
        <ele>634.311</ele>
        <time>2016-07-08T14:14:10Z</time>
      </trkpt>
      <trkpt lat="43.78223" lon="7.40203">
        <ele>629.415</ele>
        <time>2016-07-08T14:14:16Z</time>
      </trkpt>
      <trkpt lat="43.78229" lon="7.40206">
        <ele>627.594</ele>
        <time>2016-07-08T14:14:17Z</time>
      </trkpt>
      <trkpt lat="43.78238" lon="7.40206">
        <ele>626.164</ele>
        <time>2016-07-08T14:14:18Z</time>
      </trkpt>
      <trkpt lat="43.78262" lon="7.40192">
        <ele>626.732</ele>
        <time>2016-07-08T14:14:22Z</time>
      </trkpt>
      <trkpt lat="43.78281" lon="7.40177">
        <ele>627.767</ele>
        <time>2016-07-08T14:14:26Z</time>
      </trkpt>
      <trkpt lat="43.78314" lon="7.40141">
        <ele>626.458</ele>
        <time>2016-07-08T14:14:33Z</time>
      </trkpt>
      <trkpt lat="43.7832" lon="7.4013">
        <ele>626.08</ele>
        <time>2016-07-08T14:14:35Z</time>
      </trkpt>
      <trkpt lat="43.78331" lon="7.40098">
        <ele>625.193</ele>
        <time>2016-07-08T14:14:39Z</time>
      </trkpt>
      <trkpt lat="43.78334" lon="7.4008">
        <ele>624.364</ele>
        <time>2016-07-08T14:14:41Z</time>
      </trkpt>
      <trkpt lat="43.78337" lon="7.40046">
        <ele>620.985</ele>
        <time>2016-07-08T14:14:45Z</time>
      </trkpt>
      <trkpt lat="43.78333" lon="7.40027">
        <ele>622.111</ele>
        <time>2016-07-08T14:14:48Z</time>
      </trkpt>
      <trkpt lat="43.78324" lon="7.40002">
        <ele>624.345</ele>
        <time>2016-07-08T14:14:51Z</time>
      </trkpt>
      <trkpt lat="43.78277" lon="7.39932">
        <ele>625.234</ele>
        <time>2016-07-08T14:15:02Z</time>
      </trkpt>
      <trkpt lat="43.78259" lon="7.39911">
        <ele>625.074</ele>
        <time>2016-07-08T14:15:06Z</time>
      </trkpt>
      <trkpt lat="43.7824" lon="7.39898">
        <ele>624.72</ele>
        <time>2016-07-08T14:15:10Z</time>
      </trkpt>
      <trkpt lat="43.7822" lon="7.39894">
        <ele>625.935</ele>
        <time>2016-07-08T14:15:13Z</time>
      </trkpt>
      <trkpt lat="43.78206" lon="7.39894">
        <ele>626.027</ele>
        <time>2016-07-08T14:15:16Z</time>
      </trkpt>
      <trkpt lat="43.78045" lon="7.39907">
        <ele>623.476</ele>
        <time>2016-07-08T14:15:42Z</time>
      </trkpt>
      <trkpt lat="43.77988" lon="7.39917">
        <ele>624.502</ele>
        <time>2016-07-08T14:15:52Z</time>
      </trkpt>
      <trkpt lat="43.77968" lon="7.39918">
        <ele>625.481</ele>
        <time>2016-07-08T14:15:55Z</time>
      </trkpt>
      <trkpt lat="43.77941" lon="7.3991">
        <ele>624.8</ele>
        <time>2016-07-08T14:16:00Z</time>
      </trkpt>
      <trkpt lat="43.77918" lon="7.39898">
        <ele>622.64</ele>
        <time>2016-07-08T14:16:04Z</time>
      </trkpt>
      <trkpt lat="43.77904" lon="7.39885">
        <ele>622.34</ele>
        <time>2016-07-08T14:16:07Z</time>
      </trkpt>
      <trkpt lat="43.77845" lon="7.39817">
        <ele>623.462</ele>
        <time>2016-07-08T14:16:19Z</time>
      </trkpt>
      <trkpt lat="43.77835" lon="7.39811">
        <ele>623.64</ele>
        <time>2016-07-08T14:16:21Z</time>
      </trkpt>
      <trkpt lat="43.77825" lon="7.39808">
        <ele>623.378</ele>
        <time>2016-07-08T14:16:23Z</time>
      </trkpt>
      <trkpt lat="43.77764" lon="7.39801">
        <ele>622.172</ele>
        <time>2016-07-08T14:16:33Z</time>
      </trkpt>
      <trkpt lat="43.77716" lon="7.398">
        <ele>623.714</ele>
        <time>2016-07-08T14:16:41Z</time>
      </trkpt>
      <trkpt lat="43.77673" lon="7.39786">
        <ele>622.005</ele>
        <time>2016-07-08T14:16:48Z</time>
      </trkpt>
      <trkpt lat="43.77617" lon="7.39757">
        <ele>620.088</ele>
        <time>2016-07-08T14:16:58Z</time>
      </trkpt>
      <trkpt lat="43.77604" lon="7.39753">
        <ele>619.904</ele>
        <time>2016-07-08T14:17:00Z</time>
      </trkpt>
      <trkpt lat="43.77581" lon="7.3975">
        <ele>620</ele>
        <time>2016-07-08T14:17:04Z</time>
      </trkpt>
      <trkpt lat="43.77521" lon="7.39747">
        <ele>618.838</ele>
        <time>2016-07-08T14:17:14Z</time>
      </trkpt>
      <trkpt lat="43.77497" lon="7.39752">
        <ele>618.188</ele>
        <time>2016-07-08T14:17:18Z</time>
      </trkpt>
      <trkpt lat="43.77462" lon="7.39763">
        <ele>617.812</ele>
        <time>2016-07-08T14:17:24Z</time>
      </trkpt>
      <trkpt lat="43.77441" lon="7.39767">
        <ele>617.88</ele>
        <time>2016-07-08T14:17:28Z</time>
      </trkpt>
      <trkpt lat="43.77403" lon="7.39772">
        <ele>621.738</ele>
        <time>2016-07-08T14:17:34Z</time>
      </trkpt>
      <trkpt lat="43.77371" lon="7.39774">
        <ele>618.136</ele>
        <time>2016-07-08T14:17:39Z</time>
      </trkpt>
      <trkpt lat="43.77346" lon="7.3978">
        <ele>614.891</ele>
        <time>2016-07-08T14:17:44Z</time>
      </trkpt>
      <trkpt lat="43.77311" lon="7.39796">
        <ele>617.653</ele>
        <time>2016-07-08T14:17:50Z</time>
      </trkpt>
      <trkpt lat="43.77295" lon="7.39807">
        <ele>619.636</ele>
        <time>2016-07-08T14:17:53Z</time>
      </trkpt>
      <trkpt lat="43.7727" lon="7.3982">
        <ele>620.24</ele>
        <time>2016-07-08T14:17:57Z</time>
      </trkpt>
      <trkpt lat="43.77203" lon="7.39849">
        <ele>616.616</ele>
        <time>2016-07-08T14:18:09Z</time>
      </trkpt>
      <trkpt lat="43.77182" lon="7.3986">
        <ele>615.09</ele>
        <time>2016-07-08T14:18:12Z</time>
      </trkpt>
      <trkpt lat="43.7717" lon="7.39869">
        <ele>614.708</ele>
        <time>2016-07-08T14:18:15Z</time>
      </trkpt>
      <trkpt lat="43.77146" lon="7.39893">
        <ele>612.634</ele>
        <time>2016-07-08T14:18:20Z</time>
      </trkpt>
      <trkpt lat="43.77091" lon="7.39959">
        <ele>616.641</ele>
        <time>2016-07-08T14:18:32Z</time>
      </trkpt>
      <trkpt lat="43.77078" lon="7.39966">
        <ele>617.091</ele>
        <time>2016-07-08T14:18:34Z</time>
      </trkpt>
      <trkpt lat="43.77063" lon="7.39964">
        <ele>615.681</ele>
        <time>2016-07-08T14:18:36Z</time>
      </trkpt>
      <trkpt lat="43.77054" lon="7.39958">
        <ele>614.04</ele>
        <time>2016-07-08T14:18:38Z</time>
      </trkpt>
      <trkpt lat="43.77034" lon="7.39938">
        <ele>610.8</ele>
        <time>2016-07-08T14:18:42Z</time>
      </trkpt>
      <trkpt lat="43.77021" lon="7.39928">
        <ele>609.628</ele>
        <time>2016-07-08T14:18:45Z</time>
      </trkpt>
      <trkpt lat="43.77004" lon="7.39926">
        <ele>612.536</ele>
        <time>2016-07-08T14:18:48Z</time>
      </trkpt>
      <trkpt lat="43.76984" lon="7.39928">
        <ele>611.893</ele>
        <time>2016-07-08T14:18:51Z</time>
      </trkpt>
      <trkpt lat="43.76971" lon="7.39933">
        <ele>611.352</ele>
        <time>2016-07-08T14:18:53Z</time>
      </trkpt>
      <trkpt lat="43.76943" lon="7.39951">
        <ele>611.444</ele>
        <time>2016-07-08T14:18:58Z</time>
      </trkpt>
      <trkpt lat="43.76846" lon="7.40021">
        <ele>606.257</ele>
        <time>2016-07-08T14:19:16Z</time>
      </trkpt>
      <trkpt lat="43.76839" lon="7.40034">
        <ele>604.807</ele>
        <time>2016-07-08T14:19:18Z</time>
      </trkpt>
      <trkpt lat="43.76837" lon="7.40043">
        <ele>603.349</ele>
        <time>2016-07-08T14:19:19Z</time>
      </trkpt>
      <trkpt lat="43.76837" lon="7.40049">
        <ele>602.542</ele>
        <time>2016-07-08T14:19:20Z</time>
      </trkpt>
      <trkpt lat="43.76842" lon="7.40064">
        <ele>600.432</ele>
        <time>2016-07-08T14:19:22Z</time>
      </trkpt>
      <trkpt lat="43.76851" lon="7.40079">
        <ele>598.272</ele>
        <time>2016-07-08T14:19:24Z</time>
      </trkpt>
      <trkpt lat="43.76865" lon="7.40097">
        <ele>596.041</ele>
        <time>2016-07-08T14:19:28Z</time>
      </trkpt>
      <trkpt lat="43.76917" lon="7.40159">
        <ele>606.826</ele>
        <time>2016-07-08T14:19:39Z</time>
      </trkpt>
      <trkpt lat="43.7693" lon="7.40181">
        <ele>610.384</ele>
        <time>2016-07-08T14:19:42Z</time>
      </trkpt>
      <trkpt lat="43.7694" lon="7.40206">
        <ele>612.293</ele>
        <time>2016-07-08T14:19:46Z</time>
      </trkpt>
      <trkpt lat="43.76963" lon="7.40316">
        <ele>609.642</ele>
        <time>2016-07-08T14:20:00Z</time>
      </trkpt>
      <trkpt lat="43.76981" lon="7.40351">
        <ele>615.869</ele>
        <time>2016-07-08T14:20:05Z</time>
      </trkpt>
      <trkpt lat="43.76984" lon="7.40362">
        <ele>616.181</ele>
        <time>2016-07-08T14:20:06Z</time>
      </trkpt>
      <trkpt lat="43.76991" lon="7.40419">
        <ele>615.114</ele>
        <time>2016-07-08T14:20:13Z</time>
      </trkpt>
      <trkpt lat="43.7699" lon="7.40431">
        <ele>614.904</ele>
        <time>2016-07-08T14:20:14Z</time>
      </trkpt>
      <trkpt lat="43.76988" lon="7.40441">
        <ele>614.231</ele>
        <time>2016-07-08T14:20:16Z</time>
      </trkpt>
      <trkpt lat="43.76983" lon="7.40448">
        <ele>612.879</ele>
        <time>2016-07-08T14:20:17Z</time>
      </trkpt>
      <trkpt lat="43.76976" lon="7.40454">
        <ele>610.966</ele>
        <time>2016-07-08T14:20:18Z</time>
      </trkpt>
      <trkpt lat="43.76961" lon="7.40459">
        <ele>612.232</ele>
        <time>2016-07-08T14:20:21Z</time>
      </trkpt>
      <trkpt lat="43.76954" lon="7.40458">
        <ele>613.138</ele>
        <time>2016-07-08T14:20:22Z</time>
      </trkpt>
      <trkpt lat="43.76941" lon="7.40451">
        <ele>611.353</ele>
        <time>2016-07-08T14:20:24Z</time>
      </trkpt>
      <trkpt lat="43.76931" lon="7.40442">
        <ele>607.109</ele>
        <time>2016-07-08T14:20:26Z</time>
      </trkpt>
      <trkpt lat="43.76916" lon="7.40421">
        <ele>591.727</ele>
        <time>2016-07-08T14:20:30Z</time>
      </trkpt>
      <trkpt lat="43.7683" lon="7.40319">
        <ele>596.588</ele>
        <time>2016-07-08T14:20:49Z</time>
      </trkpt>
      <trkpt lat="43.76816" lon="7.40309">
        <ele>584.735</ele>
        <time>2016-07-08T14:20:51Z</time>
      </trkpt>
      <trkpt lat="43.76802" lon="7.40306">
        <ele>581.29</ele>
        <time>2016-07-08T14:20:54Z</time>
      </trkpt>
      <trkpt lat="43.76762" lon="7.40306">
        <ele>591.33</ele>
        <time>2016-07-08T14:21:00Z</time>
      </trkpt>
      <trkpt lat="43.76593" lon="7.40319">
        <ele>591.724</ele>
        <time>2016-07-08T14:21:28Z</time>
      </trkpt>
      <trkpt lat="43.76553" lon="7.40339">
        <ele>600.338</ele>
        <time>2016-07-08T14:21:35Z</time>
      </trkpt>
      <trkpt lat="43.76534" lon="7.40346">
        <ele>603.268</ele>
        <time>2016-07-08T14:21:39Z</time>
      </trkpt>
      <trkpt lat="43.76522" lon="7.40348">
        <ele>602.88</ele>
        <time>2016-07-08T14:21:41Z</time>
      </trkpt>
      <trkpt lat="43.76454" lon="7.40342">
        <ele>590.7</ele>
        <time>2016-07-08T14:21:52Z</time>
      </trkpt>
      <trkpt lat="43.76419" lon="7.40341">
        <ele>587.878</ele>
        <time>2016-07-08T14:21:58Z</time>
      </trkpt>
      <trkpt lat="43.76386" lon="7.40346">
        <ele>585.286</ele>
        <time>2016-07-08T14:22:03Z</time>
      </trkpt>
      <trkpt lat="43.76337" lon="7.40357">
        <ele>584.604</ele>
        <time>2016-07-08T14:22:11Z</time>
      </trkpt>
      <trkpt lat="43.76313" lon="7.40365">
        <ele>584.03</ele>
        <time>2016-07-08T14:22:16Z</time>
      </trkpt>
      <trkpt lat="43.76297" lon="7.40381">
        <ele>586.017</ele>
        <time>2016-07-08T14:22:19Z</time>
      </trkpt>
      <trkpt lat="43.76264" lon="7.40438">
        <ele>595.571</ele>
        <time>2016-07-08T14:22:28Z</time>
      </trkpt>
      <trkpt lat="43.76253" lon="7.40452">
        <ele>595.607</ele>
        <time>2016-07-08T14:22:30Z</time>
      </trkpt>
      <trkpt lat="43.76247" lon="7.40457">
        <ele>595.577</ele>
        <time>2016-07-08T14:22:31Z</time>
      </trkpt>
      <trkpt lat="43.76233" lon="7.40462">
        <ele>595.015</ele>
        <time>2016-07-08T14:22:34Z</time>
      </trkpt>
      <trkpt lat="43.76224" lon="7.40462">
        <ele>593.6</ele>
        <time>2016-07-08T14:22:35Z</time>
      </trkpt>
      <trkpt lat="43.76164" lon="7.40453">
        <ele>589.723</ele>
        <time>2016-07-08T14:22:45Z</time>
      </trkpt>
      <trkpt lat="43.76144" lon="7.40454">
        <ele>587.998</ele>
        <time>2016-07-08T14:22:48Z</time>
      </trkpt>
      <trkpt lat="43.76123" lon="7.4046">
        <ele>584.772</ele>
        <time>2016-07-08T14:22:52Z</time>
      </trkpt>
      <trkpt lat="43.76104" lon="7.40469">
        <ele>582.646</ele>
        <time>2016-07-08T14:22:55Z</time>
      </trkpt>
      <trkpt lat="43.76056" lon="7.40503">
        <ele>587.147</ele>
        <time>2016-07-08T14:23:04Z</time>
      </trkpt>
      <trkpt lat="43.76034" lon="7.40523">
        <ele>585.877</ele>
        <time>2016-07-08T14:23:09Z</time>
      </trkpt>
      <trkpt lat="43.76001" lon="7.4056">
        <ele>583.486</ele>
        <time>2016-07-08T14:23:16Z</time>
      </trkpt>
      <trkpt lat="43.75987" lon="7.40573">
        <ele>583.816</ele>
        <time>2016-07-08T14:23:18Z</time>
      </trkpt>
      <trkpt lat="43.75978" lon="7.40578">
        <ele>582.72</ele>
        <time>2016-07-08T14:23:20Z</time>
      </trkpt>
      <trkpt lat="43.75967" lon="7.4058">
        <ele>582.61</ele>
        <time>2016-07-08T14:23:22Z</time>
      </trkpt>
      <trkpt lat="43.75957" lon="7.40577">
        <ele>583.729</ele>
        <time>2016-07-08T14:23:24Z</time>
      </trkpt>
      <trkpt lat="43.7595" lon="7.40572">
        <ele>583.291</ele>
        <time>2016-07-08T14:23:25Z</time>
      </trkpt>
      <trkpt lat="43.75913" lon="7.40533">
        <ele>577.76</ele>
        <time>2016-07-08T14:23:33Z</time>
      </trkpt>
      <trkpt lat="43.75882" lon="7.40504">
        <ele>575.539</ele>
        <time>2016-07-08T14:23:39Z</time>
      </trkpt>
      <trkpt lat="43.75802" lon="7.40446">
        <ele>566.73</ele>
        <time>2016-07-08T14:23:54Z</time>
      </trkpt>
      <trkpt lat="43.75716" lon="7.40416">
        <ele>571.256</ele>
        <time>2016-07-08T14:24:09Z</time>
      </trkpt>
      <trkpt lat="43.75695" lon="7.40414">
        <ele>569.074</ele>
        <time>2016-07-08T14:24:12Z</time>
      </trkpt>
      <trkpt lat="43.75649" lon="7.40417">
        <ele>568.108</ele>
        <time>2016-07-08T14:24:20Z</time>
      </trkpt>
      <trkpt lat="43.75629" lon="7.40416">
        <ele>568.173</ele>
        <time>2016-07-08T14:24:23Z</time>
      </trkpt>
      <trkpt lat="43.75598" lon="7.40407">
        <ele>568.431</ele>
        <time>2016-07-08T14:24:28Z</time>
      </trkpt>
      <trkpt lat="43.75548" lon="7.40387">
        <ele>569.649</ele>
        <time>2016-07-08T14:24:37Z</time>
      </trkpt>
      <trkpt lat="43.75509" lon="7.40376">
        <ele>571.225</ele>
        <time>2016-07-08T14:24:43Z</time>
      </trkpt>
      <trkpt lat="43.75474" lon="7.40369">
        <ele>569.528</ele>
        <time>2016-07-08T14:24:49Z</time>
      </trkpt>
      <trkpt lat="43.75399" lon="7.40358">
        <ele>561.236</ele>
        <time>2016-07-08T14:25:02Z</time>
      </trkpt>
      <trkpt lat="43.75381" lon="7.40358">
        <ele>561.855</ele>
        <time>2016-07-08T14:25:05Z</time>
      </trkpt>
      <trkpt lat="43.75368" lon="7.40365">
        <ele>562.055</ele>
        <time>2016-07-08T14:25:07Z</time>
      </trkpt>
      <trkpt lat="43.75352" lon="7.40385">
        <ele>560.064</ele>
        <time>2016-07-08T14:25:11Z</time>
      </trkpt>
      <trkpt lat="43.75346" lon="7.40401">
        <ele>559.087</ele>
        <time>2016-07-08T14:25:13Z</time>
      </trkpt>
      <trkpt lat="43.75322" lon="7.40503">
        <ele>556.916</ele>
        <time>2016-07-08T14:25:26Z</time>
      </trkpt>
      <trkpt lat="43.75312" lon="7.40567">
        <ele>550.002</ele>
        <time>2016-07-08T14:25:34Z</time>
      </trkpt>
      <trkpt lat="43.75312" lon="7.40583">
        <ele>552.657</ele>
        <time>2016-07-08T14:25:36Z</time>
      </trkpt>
      <trkpt lat="43.75315" lon="7.40618">
        <ele>553.448</ele>
        <time>2016-07-08T14:25:40Z</time>
      </trkpt>
      <trkpt lat="43.75321" lon="7.40658">
        <ele>555.208</ele>
        <time>2016-07-08T14:25:45Z</time>
      </trkpt>
      <trkpt lat="43.75325" lon="7.40708">
        <ele>555.419</ele>
        <time>2016-07-08T14:25:51Z</time>
      </trkpt>
      <trkpt lat="43.75324" lon="7.40719">
        <ele>554.146</ele>
        <time>2016-07-08T14:25:52Z</time>
      </trkpt>
      <trkpt lat="43.7532" lon="7.40733">
        <ele>550.568</ele>
        <time>2016-07-08T14:25:54Z</time>
      </trkpt>
      <trkpt lat="43.75314" lon="7.40736">
        <ele>546.674</ele>
        <time>2016-07-08T14:25:55Z</time>
      </trkpt>
      <trkpt lat="43.75309" lon="7.40735">
        <ele>543.658</ele>
        <time>2016-07-08T14:25:56Z</time>
      </trkpt>
      <trkpt lat="43.75305" lon="7.40725">
        <ele>541.648</ele>
        <time>2016-07-08T14:25:57Z</time>
      </trkpt>
      <trkpt lat="43.75303" lon="7.4066">
        <ele>544.746</ele>
        <time>2016-07-08T14:26:05Z</time>
      </trkpt>
      <trkpt lat="43.75298" lon="7.4064">
        <ele>542.347</ele>
        <time>2016-07-08T14:26:07Z</time>
      </trkpt>
      <trkpt lat="43.75291" lon="7.40625">
        <ele>538.33</ele>
        <time>2016-07-08T14:26:10Z</time>
      </trkpt>
      <trkpt lat="43.75286" lon="7.40602">
        <ele>534.963</ele>
        <time>2016-07-08T14:26:12Z</time>
      </trkpt>
      <trkpt lat="43.75284" lon="7.40527">
        <ele>529.038</ele>
        <time>2016-07-08T14:26:21Z</time>
      </trkpt>
      <trkpt lat="43.75279" lon="7.40502">
        <ele>525.833</ele>
        <time>2016-07-08T14:26:25Z</time>
      </trkpt>
      <trkpt lat="43.75274" lon="7.40462">
        <ele>522.7</ele>
        <time>2016-07-08T14:26:29Z</time>
      </trkpt>
      <trkpt lat="43.75268" lon="7.40389">
        <ele>529.464</ele>
        <time>2016-07-08T14:26:38Z</time>
      </trkpt>
      <trkpt lat="43.7526" lon="7.40357">
        <ele>530.968</ele>
        <time>2016-07-08T14:26:42Z</time>
      </trkpt>
      <trkpt lat="43.7525" lon="7.40333">
        <ele>533.036</ele>
        <time>2016-07-08T14:26:46Z</time>
      </trkpt>
      <trkpt lat="43.75227" lon="7.40304">
        <ele>527.535</ele>
        <time>2016-07-08T14:26:51Z</time>
      </trkpt>
      <trkpt lat="43.75194" lon="7.40269">
        <ele>530.755</ele>
        <time>2016-07-08T14:26:58Z</time>
      </trkpt>
      <trkpt lat="43.75167" lon="7.40236">
        <ele>536.256</ele>
        <time>2016-07-08T14:27:04Z</time>
      </trkpt>
      <trkpt lat="43.75149" lon="7.40225">
        <ele>537.295</ele>
        <time>2016-07-08T14:27:07Z</time>
      </trkpt>
      <trkpt lat="43.75111" lon="7.40209">
        <ele>530.897</ele>
        <time>2016-07-08T14:27:13Z</time>
      </trkpt>
      <trkpt lat="43.75053" lon="7.40192">
        <ele>520.072</ele>
        <time>2016-07-08T14:27:23Z</time>
      </trkpt>
      <trkpt lat="43.74961" lon="7.40191">
        <ele>502.538</ele>
        <time>2016-07-08T14:27:39Z</time>
      </trkpt>
      <trkpt lat="43.74839" lon="7.40161">
        <ele>495.452</ele>
        <time>2016-07-08T14:27:59Z</time>
      </trkpt>
      <trkpt lat="43.74803" lon="7.40137">
        <ele>496.862</ele>
        <time>2016-07-08T14:28:06Z</time>
      </trkpt>
      <trkpt lat="43.74792" lon="7.40133">
        <ele>495.447</ele>
        <time>2016-07-08T14:28:08Z</time>
      </trkpt>
      <trkpt lat="43.74749" lon="7.40127">
        <ele>487.249</ele>
        <time>2016-07-08T14:28:15Z</time>
      </trkpt>
      <trkpt lat="43.74721" lon="7.40126">
        <ele>482.547</ele>
        <time>2016-07-08T14:28:19Z</time>
      </trkpt>
      <trkpt lat="43.74692" lon="7.40118">
        <ele>478.08</ele>
        <time>2016-07-08T14:28:24Z</time>
      </trkpt>
      <trkpt lat="43.74667" lon="7.40096">
        <ele>480.839</ele>
        <time>2016-07-08T14:28:29Z</time>
      </trkpt>
      <trkpt lat="43.74658" lon="7.40086">
        <ele>483.076</ele>
        <time>2016-07-08T14:28:31Z</time>
      </trkpt>
      <trkpt lat="43.74652" lon="7.40085">
        <ele>483.115</ele>
        <time>2016-07-08T14:28:32Z</time>
      </trkpt>
      <trkpt lat="43.74644" lon="7.4009">
        <ele>481.896</ele>
        <time>2016-07-08T14:28:34Z</time>
      </trkpt>
      <trkpt lat="43.74609" lon="7.40079">
        <ele>482.08</ele>
        <time>2016-07-08T14:28:40Z</time>
      </trkpt>
      <trkpt lat="43.74596" lon="7.40073">
        <ele>481.828</ele>
        <time>2016-07-08T14:28:42Z</time>
      </trkpt>
      <trkpt lat="43.74572" lon="7.40055">
        <ele>482.032</ele>
        <time>2016-07-08T14:28:46Z</time>
      </trkpt>
      <trkpt lat="43.7456" lon="7.40041">
        <ele>482.608</ele>
        <time>2016-07-08T14:28:49Z</time>
      </trkpt>
      <trkpt lat="43.74554" lon="7.40028">
        <ele>482.993</ele>
        <time>2016-07-08T14:28:51Z</time>
      </trkpt>
      <trkpt lat="43.74548" lon="7.40006">
        <ele>483.928</ele>
        <time>2016-07-08T14:28:54Z</time>
      </trkpt>
      <trkpt lat="43.74531" lon="7.40012">
        <ele>482.63</ele>
        <time>2016-07-08T14:28:57Z</time>
      </trkpt>
      <trkpt lat="43.74521" lon="7.40013">
        <ele>482.079</ele>
        <time>2016-07-08T14:28:58Z</time>
      </trkpt>
      <trkpt lat="43.74516" lon="7.4001">
        <ele>481.546</ele>
        <time>2016-07-08T14:28:59Z</time>
      </trkpt>
      <trkpt lat="43.74509" lon="7.4">
        <ele>479.972</ele>
        <time>2016-07-08T14:29:01Z</time>
      </trkpt>
      <trkpt lat="43.74499" lon="7.4001">
        <ele>480.322</ele>
        <time>2016-07-08T14:29:03Z</time>
      </trkpt>
      <trkpt lat="43.74482" lon="7.40022">
        <ele>480.602</ele>
        <time>2016-07-08T14:29:06Z</time>
      </trkpt>
      <trkpt lat="43.74472" lon="7.40024">
        <ele>480.168</ele>
        <time>2016-07-08T14:29:08Z</time>
      </trkpt>
      <trkpt lat="43.74457" lon="7.40019">
        <ele>478.008</ele>
        <time>2016-07-08T14:29:10Z</time>
      </trkpt>
      <trkpt lat="43.74421" lon="7.40013">
        <ele>475.808</ele>
        <time>2016-07-08T14:29:16Z</time>
      </trkpt>
      <trkpt lat="43.74413" lon="7.4001">
        <ele>475.028</ele>
        <time>2016-07-08T14:29:18Z</time>
      </trkpt>
      <trkpt lat="43.74348" lon="7.39996">
        <ele>472.54</ele>
        <time>2016-07-08T14:29:29Z</time>
      </trkpt>
      <trkpt lat="43.743" lon="7.39973">
        <ele>468.63</ele>
        <time>2016-07-08T14:29:37Z</time>
      </trkpt>
      <trkpt lat="43.74252" lon="7.39947">
        <ele>467.421</ele>
        <time>2016-07-08T14:29:45Z</time>
      </trkpt>
      <trkpt lat="43.74225" lon="7.39935">
        <ele>467.966</ele>
        <time>2016-07-08T14:29:50Z</time>
      </trkpt>
      <trkpt lat="43.74219" lon="7.3993">
        <ele>467.753</ele>
        <time>2016-07-08T14:29:51Z</time>
      </trkpt>
      <trkpt lat="43.74172" lon="7.39867">
        <ele>460.888</ele>
        <time>2016-07-08T14:30:02Z</time>
      </trkpt>
      <trkpt lat="43.74162" lon="7.39856">
        <ele>458.728</ele>
        <time>2016-07-08T14:30:04Z</time>
      </trkpt>
      <trkpt lat="43.74147" lon="7.39843">
        <ele>455.38</ele>
        <time>2016-07-08T14:30:07Z</time>
      </trkpt>
      <trkpt lat="43.74115" lon="7.39826">
        <ele>450.065</ele>
        <time>2016-07-08T14:30:13Z</time>
      </trkpt>
      <trkpt lat="43.74083" lon="7.39818">
        <ele>447.918</ele>
        <time>2016-07-08T14:30:18Z</time>
      </trkpt>
      <trkpt lat="43.73953" lon="7.39832">
        <ele>440.265</ele>
        <time>2016-07-08T14:30:40Z</time>
      </trkpt>
      <trkpt lat="43.73928" lon="7.39831">
        <ele>439.954</ele>
        <time>2016-07-08T14:30:44Z</time>
      </trkpt>
      <trkpt lat="43.73914" lon="7.39827">
        <ele>439.429</ele>
        <time>2016-07-08T14:30:46Z</time>
      </trkpt>
      <trkpt lat="43.73903" lon="7.39822">
        <ele>438.5</ele>
        <time>2016-07-08T14:30:48Z</time>
      </trkpt>
      <trkpt lat="43.7382" lon="7.39754">
        <ele>426.166</ele>
        <time>2016-07-08T14:31:04Z</time>
      </trkpt>
      <trkpt lat="43.73803" lon="7.39742">
        <ele>424.906</ele>
        <time>2016-07-08T14:31:08Z</time>
      </trkpt>
      <trkpt lat="43.73769" lon="7.39723">
        <ele>422.512</ele>
        <time>2016-07-08T14:31:14Z</time>
      </trkpt>
      <trkpt lat="43.73709" lon="7.3968">
        <ele>410.167</ele>
        <time>2016-07-08T14:31:25Z</time>
      </trkpt>
      <trkpt lat="43.73698" lon="7.39676">
        <ele>407.201</ele>
        <time>2016-07-08T14:31:27Z</time>
      </trkpt>
      <trkpt lat="43.73683" lon="7.39673">
        <ele>405.824</ele>
        <time>2016-07-08T14:31:29Z</time>
      </trkpt>
      <trkpt lat="43.73649" lon="7.39673">
        <ele>407.587</ele>
        <time>2016-07-08T14:31:35Z</time>
      </trkpt>
      <trkpt lat="43.73607" lon="7.39664">
        <ele>404.768</ele>
        <time>2016-07-08T14:31:42Z</time>
      </trkpt>
      <trkpt lat="43.73462" lon="7.39649">
        <ele>393.196</ele>
        <time>2016-07-08T14:32:06Z</time>
      </trkpt>
      <trkpt lat="43.73442" lon="7.3964">
        <ele>389.751</ele>
        <time>2016-07-08T14:32:10Z</time>
      </trkpt>
      <trkpt lat="43.73421" lon="7.39616">
        <ele>382.468</ele>
        <time>2016-07-08T14:32:14Z</time>
      </trkpt>
      <trkpt lat="43.73401" lon="7.3959">
        <ele>378.109</ele>
        <time>2016-07-08T14:32:19Z</time>
      </trkpt>
      <trkpt lat="43.73394" lon="7.39585">
        <ele>377.188</ele>
        <time>2016-07-08T14:32:20Z</time>
      </trkpt>
      <trkpt lat="43.73379" lon="7.39578">
        <ele>374.572</ele>
        <time>2016-07-08T14:32:23Z</time>
      </trkpt>
      <trkpt lat="43.73371" lon="7.39576">
        <ele>373.738</ele>
        <time>2016-07-08T14:32:24Z</time>
      </trkpt>
      <trkpt lat="43.73353" lon="7.39578">
        <ele>373.012</ele>
        <time>2016-07-08T14:32:27Z</time>
      </trkpt>
      <trkpt lat="43.73319" lon="7.39592">
        <ele>372.605</ele>
        <time>2016-07-08T14:32:33Z</time>
      </trkpt>
      <trkpt lat="43.73294" lon="7.39599">
        <ele>372.608</ele>
        <time>2016-07-08T14:32:37Z</time>
      </trkpt>
      <trkpt lat="43.73286" lon="7.39598">
        <ele>371.981</ele>
        <time>2016-07-08T14:32:38Z</time>
      </trkpt>
      <trkpt lat="43.73272" lon="7.39592">
        <ele>370.264</ele>
        <time>2016-07-08T14:32:41Z</time>
      </trkpt>
      <trkpt lat="43.73263" lon="7.39584">
        <ele>368.392</ele>
        <time>2016-07-08T14:32:43Z</time>
      </trkpt>
      <trkpt lat="43.73198" lon="7.39491">
        <ele>354.015</ele>
        <time>2016-07-08T14:32:58Z</time>
      </trkpt>
      <trkpt lat="43.73174" lon="7.39463">
        <ele>354.778</ele>
        <time>2016-07-08T14:33:03Z</time>
      </trkpt>
      <trkpt lat="43.73138" lon="7.39426">
        <ele>350.779</ele>
        <time>2016-07-08T14:33:11Z</time>
      </trkpt>
      <trkpt lat="43.73069" lon="7.3936">
        <ele>340.743</ele>
        <time>2016-07-08T14:33:25Z</time>
      </trkpt>
      <trkpt lat="43.72998" lon="7.39311">
        <ele>334.08</ele>
        <time>2016-07-08T14:33:38Z</time>
      </trkpt>
      <trkpt lat="43.72983" lon="7.39306">
        <ele>333.712</ele>
        <time>2016-07-08T14:33:40Z</time>
      </trkpt>
      <trkpt lat="43.72963" lon="7.39303">
        <ele>332.927</ele>
        <time>2016-07-08T14:33:44Z</time>
      </trkpt>
      <trkpt lat="43.72903" lon="7.393">
        <ele>330.845</ele>
        <time>2016-07-08T14:33:54Z</time>
      </trkpt>
      <trkpt lat="43.72889" lon="7.39298">
        <ele>326.942</ele>
        <time>2016-07-08T14:33:56Z</time>
      </trkpt>
      <trkpt lat="43.72817" lon="7.39278">
        <ele>315.696</ele>
        <time>2016-07-08T14:34:08Z</time>
      </trkpt>
      <trkpt lat="43.728" lon="7.39279">
        <ele>312.95</ele>
        <time>2016-07-08T14:34:11Z</time>
      </trkpt>
      <trkpt lat="43.7279" lon="7.39282">
        <ele>310.993</ele>
        <time>2016-07-08T14:34:13Z</time>
      </trkpt>
      <trkpt lat="43.7277" lon="7.39313">
        <ele>306.231</ele>
        <time>2016-07-08T14:34:18Z</time>
      </trkpt>
      <trkpt lat="43.72762" lon="7.39343">
        <ele>303.198</ele>
        <time>2016-07-08T14:34:21Z</time>
      </trkpt>
      <trkpt lat="43.72761" lon="7.39365">
        <ele>302.715</ele>
        <time>2016-07-08T14:34:24Z</time>
      </trkpt>
      <trkpt lat="43.7277" lon="7.39428">
        <ele>300.562</ele>
        <time>2016-07-08T14:34:32Z</time>
      </trkpt>
      <trkpt lat="43.72814" lon="7.39553">
        <ele>301.852</ele>
        <time>2016-07-08T14:34:49Z</time>
      </trkpt>
      <trkpt lat="43.72814" lon="7.3956">
        <ele>299.765</ele>
        <time>2016-07-08T14:34:49Z</time>
      </trkpt>
      <trkpt lat="43.72808" lon="7.39563">
        <ele>294.79</ele>
        <time>2016-07-08T14:34:50Z</time>
      </trkpt>
      <trkpt lat="43.72804" lon="7.39559">
        <ele>293.257</ele>
        <time>2016-07-08T14:34:51Z</time>
      </trkpt>
      <trkpt lat="43.728" lon="7.39542">
        <ele>295.997</ele>
        <time>2016-07-08T14:34:53Z</time>
      </trkpt>
      <trkpt lat="43.72794" lon="7.39526">
        <ele>296.859</ele>
        <time>2016-07-08T14:34:56Z</time>
      </trkpt>
      <trkpt lat="43.72742" lon="7.39428">
        <ele>286.115</ele>
        <time>2016-07-08T14:35:10Z</time>
      </trkpt>
      <trkpt lat="43.72716" lon="7.39347">
        <ele>282.392</ele>
        <time>2016-07-08T14:35:21Z</time>
      </trkpt>
      <trkpt lat="43.72707" lon="7.39307">
        <ele>281.006</ele>
        <time>2016-07-08T14:35:26Z</time>
      </trkpt>
      <trkpt lat="43.72702" lon="7.39263">
        <ele>280.367</ele>
        <time>2016-07-08T14:35:31Z</time>
      </trkpt>
      <trkpt lat="43.727" lon="7.39238">
        <ele>281.637</ele>
        <time>2016-07-08T14:35:34Z</time>
      </trkpt>
      <trkpt lat="43.72701" lon="7.39196">
        <ele>284.802</ele>
        <time>2016-07-08T14:35:39Z</time>
      </trkpt>
      <trkpt lat="43.727" lon="7.39176">
        <ele>284.202</ele>
        <time>2016-07-08T14:35:42Z</time>
      </trkpt>
      <trkpt lat="43.72694" lon="7.39176">
        <ele>282.787</ele>
        <time>2016-07-08T14:35:43Z</time>
      </trkpt>
      <trkpt lat="43.72689" lon="7.3918">
        <ele>280.358</ele>
        <time>2016-07-08T14:35:43Z</time>
      </trkpt>
      <trkpt lat="43.72684" lon="7.3925">
        <ele>274.112</ele>
        <time>2016-07-08T14:35:52Z</time>
      </trkpt>
      <trkpt lat="43.72695" lon="7.39404">
        <ele>264.084</ele>
        <time>2016-07-08T14:36:10Z</time>
      </trkpt>
      <trkpt lat="43.72698" lon="7.39419">
        <ele>263.36</ele>
        <time>2016-07-08T14:36:12Z</time>
      </trkpt>
      <trkpt lat="43.72708" lon="7.39448">
        <ele>265.04</ele>
        <time>2016-07-08T14:36:16Z</time>
      </trkpt>
      <trkpt lat="43.72734" lon="7.39511">
        <ele>263.872</ele>
        <time>2016-07-08T14:36:25Z</time>
      </trkpt>
      <trkpt lat="43.72758" lon="7.39599">
        <ele>261.113</ele>
        <time>2016-07-08T14:36:36Z</time>
      </trkpt>
      <trkpt lat="43.72765" lon="7.39637">
        <ele>261.353</ele>
        <time>2016-07-08T14:36:41Z</time>
      </trkpt>
      <trkpt lat="43.72773" lon="7.397">
        <ele>258.485</ele>
        <time>2016-07-08T14:36:49Z</time>
      </trkpt>
      <trkpt lat="43.72776" lon="7.39735">
        <ele>256.829</ele>
        <time>2016-07-08T14:36:53Z</time>
      </trkpt>
      <trkpt lat="43.72776" lon="7.39791">
        <ele>254.358</ele>
        <time>2016-07-08T14:36:59Z</time>
      </trkpt>
      <trkpt lat="43.72769" lon="7.3986">
        <ele>254.219</ele>
        <time>2016-07-08T14:37:08Z</time>
      </trkpt>
      <trkpt lat="43.72752" lon="7.39924">
        <ele>246.862</ele>
        <time>2016-07-08T14:37:16Z</time>
      </trkpt>
      <trkpt lat="43.72739" lon="7.39963">
        <ele>240.812</ele>
        <time>2016-07-08T14:37:21Z</time>
      </trkpt>
      <trkpt lat="43.72716" lon="7.40023">
        <ele>236.656</ele>
        <time>2016-07-08T14:37:29Z</time>
      </trkpt>
      <trkpt lat="43.72665" lon="7.40148">
        <ele>234.353</ele>
        <time>2016-07-08T14:37:46Z</time>
      </trkpt>
      <trkpt lat="43.72651" lon="7.40193">
        <ele>232.503</ele>
        <time>2016-07-08T14:37:52Z</time>
      </trkpt>
      <trkpt lat="43.72643" lon="7.40226">
        <ele>232.585</ele>
        <time>2016-07-08T14:37:57Z</time>
      </trkpt>
      <trkpt lat="43.72643" lon="7.40247">
        <ele>231.52</ele>
        <time>2016-07-08T14:37:59Z</time>
      </trkpt>
      <trkpt lat="43.72645" lon="7.40265">
        <ele>231.732</ele>
        <time>2016-07-08T14:38:01Z</time>
      </trkpt>
      <trkpt lat="43.72643" lon="7.40269">
        <ele>230.025</ele>
        <time>2016-07-08T14:38:02Z</time>
      </trkpt>
      <trkpt lat="43.72637" lon="7.4027">
        <ele>225.684</ele>
        <time>2016-07-08T14:38:03Z</time>
      </trkpt>
      <trkpt lat="43.72634" lon="7.40263">
        <ele>224.604</ele>
        <time>2016-07-08T14:38:04Z</time>
      </trkpt>
      <trkpt lat="43.72636" lon="7.40216">
        <ele>227.438</ele>
        <time>2016-07-08T14:38:09Z</time>
      </trkpt>
      <trkpt lat="43.72643" lon="7.40168">
        <ele>218.601</ele>
        <time>2016-07-08T14:38:15Z</time>
      </trkpt>
      <trkpt lat="43.72648" lon="7.40141">
        <ele>216.11</ele>
        <time>2016-07-08T14:38:19Z</time>
      </trkpt>
      <trkpt lat="43.72692" lon="7.39971">
        <ele>214.376</ele>
        <time>2016-07-08T14:38:40Z</time>
      </trkpt>
      <trkpt lat="43.72704" lon="7.39897">
        <ele>211.136</ele>
        <time>2016-07-08T14:38:49Z</time>
      </trkpt>
      <trkpt lat="43.72706" lon="7.39825">
        <ele>210.847</ele>
        <time>2016-07-08T14:38:58Z</time>
      </trkpt>
      <trkpt lat="43.72708" lon="7.39818">
        <ele>212.683</ele>
        <time>2016-07-08T14:38:59Z</time>
      </trkpt>
      <trkpt lat="43.72707" lon="7.39763">
        <ele>215.555</ele>
        <time>2016-07-08T14:39:06Z</time>
      </trkpt>
      <trkpt lat="43.72699" lon="7.39712">
        <ele>214.092</ele>
        <time>2016-07-08T14:39:12Z</time>
      </trkpt>
      <trkpt lat="43.72686" lon="7.39663">
        <ele>210.507</ele>
        <time>2016-07-08T14:39:18Z</time>
      </trkpt>
      <trkpt lat="43.72671" lon="7.39625">
        <ele>206.23</ele>
        <time>2016-07-08T14:39:23Z</time>
      </trkpt>
      <trkpt lat="43.72665" lon="7.39617">
        <ele>204.451</ele>
        <time>2016-07-08T14:39:25Z</time>
      </trkpt>
      <trkpt lat="43.72644" lon="7.39569">
        <ele>203.477</ele>
        <time>2016-07-08T14:39:31Z</time>
      </trkpt>
      <trkpt lat="43.72626" lon="7.3954">
        <ele>202.004</ele>
        <time>2016-07-08T14:39:36Z</time>
      </trkpt>
      <trkpt lat="43.72593" lon="7.39497">
        <ele>198.45</ele>
        <time>2016-07-08T14:39:43Z</time>
      </trkpt>
      <trkpt lat="43.72526" lon="7.3942">
        <ele>185.704</ele>
        <time>2016-07-08T14:39:58Z</time>
      </trkpt>
      <trkpt lat="43.72498" lon="7.3937">
        <ele>182.977</ele>
        <time>2016-07-08T14:40:05Z</time>
      </trkpt>
      <trkpt lat="43.7249" lon="7.39347">
        <ele>183.249</ele>
        <time>2016-07-08T14:40:09Z</time>
      </trkpt>
      <trkpt lat="43.7248" lon="7.39304">
        <ele>186.008</ele>
        <time>2016-07-08T14:40:14Z</time>
      </trkpt>
      <trkpt lat="43.72474" lon="7.3926">
        <ele>186.936</ele>
        <time>2016-07-08T14:40:19Z</time>
      </trkpt>
      <trkpt lat="43.72475" lon="7.39243">
        <ele>186.169</ele>
        <time>2016-07-08T14:40:21Z</time>
      </trkpt>
      <trkpt lat="43.72477" lon="7.39235">
        <ele>186.021</ele>
        <time>2016-07-08T14:40:22Z</time>
      </trkpt>
      <trkpt lat="43.72487" lon="7.39214">
        <ele>188.339</ele>
        <time>2016-07-08T14:40:25Z</time>
      </trkpt>
      <trkpt lat="43.72487" lon="7.39203">
        <ele>188.364</ele>
        <time>2016-07-08T14:40:27Z</time>
      </trkpt>
      <trkpt lat="43.72485" lon="7.39199">
        <ele>187.533</ele>
        <time>2016-07-08T14:40:27Z</time>
      </trkpt>
      <trkpt lat="43.72472" lon="7.39188">
        <ele>181.633</ele>
        <time>2016-07-08T14:40:30Z</time>
      </trkpt>
      <trkpt lat="43.72467" lon="7.39203">
        <ele>179.474</ele>
        <time>2016-07-08T14:40:32Z</time>
      </trkpt>
      <trkpt lat="43.7246" lon="7.39234">
        <ele>178.552</ele>
        <time>2016-07-08T14:40:36Z</time>
      </trkpt>
      <trkpt lat="43.72457" lon="7.39267">
        <ele>178.817</ele>
        <time>2016-07-08T14:40:40Z</time>
      </trkpt>
      <trkpt lat="43.72458" lon="7.39294">
        <ele>177.582</ele>
        <time>2016-07-08T14:40:43Z</time>
      </trkpt>
      <trkpt lat="43.72461" lon="7.39318">
        <ele>176.232</ele>
        <time>2016-07-08T14:40:46Z</time>
      </trkpt>
      <trkpt lat="43.72472" lon="7.39373">
        <ele>172.806</ele>
        <time>2016-07-08T14:40:53Z</time>
      </trkpt>
      <trkpt lat="43.7248" lon="7.39399">
        <ele>171.784</ele>
        <time>2016-07-08T14:40:56Z</time>
      </trkpt>
      <trkpt lat="43.72494" lon="7.39433">
        <ele>171.704</ele>
        <time>2016-07-08T14:41:01Z</time>
      </trkpt>
      <trkpt lat="43.72524" lon="7.39482">
        <ele>171.832</ele>
        <time>2016-07-08T14:41:08Z</time>
      </trkpt>
      <trkpt lat="43.72552" lon="7.3952">
        <ele>177.704</ele>
        <time>2016-07-08T14:41:15Z</time>
      </trkpt>
      <trkpt lat="43.72576" lon="7.39562">
        <ele>182.611</ele>
        <time>2016-07-08T14:41:21Z</time>
      </trkpt>
      <trkpt lat="43.72585" lon="7.39584">
        <ele>183.49</ele>
        <time>2016-07-08T14:41:24Z</time>
      </trkpt>
      <trkpt lat="43.72596" lon="7.39623">
        <ele>178.706</ele>
        <time>2016-07-08T14:41:29Z</time>
      </trkpt>
      <trkpt lat="43.72603" lon="7.39681">
        <ele>172.959</ele>
        <time>2016-07-08T14:41:36Z</time>
      </trkpt>
      <trkpt lat="43.72603" lon="7.39719">
        <ele>168.117</ele>
        <time>2016-07-08T14:41:41Z</time>
      </trkpt>
      <trkpt lat="43.72581" lon="7.39869">
        <ele>160.192</ele>
        <time>2016-07-08T14:41:59Z</time>
      </trkpt>
      <trkpt lat="43.72572" lon="7.39918">
        <ele>159.481</ele>
        <time>2016-07-08T14:42:05Z</time>
      </trkpt>
      <trkpt lat="43.72564" lon="7.39947">
        <ele>159.648</ele>
        <time>2016-07-08T14:42:09Z</time>
      </trkpt>
      <trkpt lat="43.7256" lon="7.39954">
        <ele>158.847</ele>
        <time>2016-07-08T14:42:10Z</time>
      </trkpt>
      <trkpt lat="43.72511" lon="7.40105">
        <ele>153.987</ele>
        <time>2016-07-08T14:42:30Z</time>
      </trkpt>
      <trkpt lat="43.72505" lon="7.40093">
        <ele>148.28</ele>
        <time>2016-07-08T14:42:32Z</time>
      </trkpt>
      <trkpt lat="43.72505" lon="7.40086">
        <ele>147.136</ele>
        <time>2016-07-08T14:42:33Z</time>
      </trkpt>
      <trkpt lat="43.72518" lon="7.40059">
        <ele>147.945</ele>
        <time>2016-07-08T14:42:37Z</time>
      </trkpt>
      <trkpt lat="43.72526" lon="7.40018">
        <ele>144.049</ele>
        <time>2016-07-08T14:42:42Z</time>
      </trkpt>
      <trkpt lat="43.72533" lon="7.39961">
        <ele>149.356</ele>
        <time>2016-07-08T14:42:49Z</time>
      </trkpt>
      <trkpt lat="43.72533" lon="7.39911">
        <ele>147.946</ele>
        <time>2016-07-08T14:42:55Z</time>
      </trkpt>
      <trkpt lat="43.72523" lon="7.39698">
        <ele>138.914</ele>
        <time>2016-07-08T14:43:20Z</time>
      </trkpt>
      <trkpt lat="43.72515" lon="7.39655">
        <ele>135.633</ele>
        <time>2016-07-08T14:43:25Z</time>
      </trkpt>
      <trkpt lat="43.72499" lon="7.39603">
        <ele>134.039</ele>
        <time>2016-07-08T14:43:32Z</time>
      </trkpt>
      <trkpt lat="43.72489" lon="7.39582">
        <ele>134.018</ele>
        <time>2016-07-08T14:43:35Z</time>
      </trkpt>
      <trkpt lat="43.72468" lon="7.39546">
        <ele>137.564</ele>
        <time>2016-07-08T14:43:41Z</time>
      </trkpt>
      <trkpt lat="43.72395" lon="7.39458">
        <ele>125.503</ele>
        <time>2016-07-08T14:43:57Z</time>
      </trkpt>
      <trkpt lat="43.72381" lon="7.39435">
        <ele>123.219</ele>
        <time>2016-07-08T14:44:00Z</time>
      </trkpt>
      <trkpt lat="43.72363" lon="7.39396">
        <ele>122.065</ele>
        <time>2016-07-08T14:44:06Z</time>
      </trkpt>
      <trkpt lat="43.72359" lon="7.39383">
        <ele>121.496</ele>
        <time>2016-07-08T14:44:08Z</time>
      </trkpt>
      <trkpt lat="43.72356" lon="7.39365">
        <ele>121.354</ele>
        <time>2016-07-08T14:44:10Z</time>
      </trkpt>
      <trkpt lat="43.72362" lon="7.39336">
        <ele>123.65</ele>
        <time>2016-07-08T14:44:14Z</time>
      </trkpt>
      <trkpt lat="43.72362" lon="7.3933">
        <ele>123.696</ele>
        <time>2016-07-08T14:44:14Z</time>
      </trkpt>
      <trkpt lat="43.72359" lon="7.39325">
        <ele>122.19</ele>
        <time>2016-07-08T14:44:15Z</time>
      </trkpt>
      <trkpt lat="43.72355" lon="7.39325">
        <ele>120.088</ele>
        <time>2016-07-08T14:44:16Z</time>
      </trkpt>
      <trkpt lat="43.72349" lon="7.39336">
        <ele>117.034</ele>
        <time>2016-07-08T14:44:17Z</time>
      </trkpt>
      <trkpt lat="43.72347" lon="7.39349">
        <ele>116.739</ele>
        <time>2016-07-08T14:44:19Z</time>
      </trkpt>
      <trkpt lat="43.72347" lon="7.39374">
        <ele>116.704</ele>
        <time>2016-07-08T14:44:22Z</time>
      </trkpt>
      <trkpt lat="43.72352" lon="7.39406">
        <ele>117.034</ele>
        <time>2016-07-08T14:44:26Z</time>
      </trkpt>
      <trkpt lat="43.72365" lon="7.39465">
        <ele>116.827</ele>
        <time>2016-07-08T14:44:33Z</time>
      </trkpt>
      <trkpt lat="43.72402" lon="7.3956">
        <ele>112.58</ele>
        <time>2016-07-08T14:44:46Z</time>
      </trkpt>
      <trkpt lat="43.72411" lon="7.39599">
        <ele>109.791</ele>
        <time>2016-07-08T14:44:51Z</time>
      </trkpt>
      <trkpt lat="43.72414" lon="7.39624">
        <ele>108.4</ele>
        <time>2016-07-08T14:44:54Z</time>
      </trkpt>
      <trkpt lat="43.72414" lon="7.3966">
        <ele>105.881</ele>
        <time>2016-07-08T14:44:58Z</time>
      </trkpt>
      <trkpt lat="43.7241" lon="7.39695">
        <ele>103.8</ele>
        <time>2016-07-08T14:45:03Z</time>
      </trkpt>
      <trkpt lat="43.724" lon="7.39726">
        <ele>101.864</ele>
        <time>2016-07-08T14:45:07Z</time>
      </trkpt>
      <trkpt lat="43.7239" lon="7.39739">
        <ele>99.596</ele>
        <time>2016-07-08T14:45:09Z</time>
      </trkpt>
      <trkpt lat="43.72384" lon="7.39741">
        <ele>98.092</ele>
        <time>2016-07-08T14:45:10Z</time>
      </trkpt>
      <trkpt lat="43.72373" lon="7.3974">
        <ele>95.356</ele>
        <time>2016-07-08T14:45:12Z</time>
      </trkpt>
      <trkpt lat="43.72368" lon="7.39736">
        <ele>94.24</ele>
        <time>2016-07-08T14:45:13Z</time>
      </trkpt>
      <trkpt lat="43.72364" lon="7.39724">
        <ele>93.664</ele>
        <time>2016-07-08T14:45:14Z</time>
      </trkpt>
      <trkpt lat="43.72369" lon="7.3964">
        <ele>96.693</ele>
        <time>2016-07-08T14:45:25Z</time>
      </trkpt>
      <trkpt lat="43.72366" lon="7.39616">
        <ele>96.346</ele>
        <time>2016-07-08T14:45:27Z</time>
      </trkpt>
      <trkpt lat="43.7236" lon="7.39595">
        <ele>95.317</ele>
        <time>2016-07-08T14:45:30Z</time>
      </trkpt>
      <trkpt lat="43.72345" lon="7.39559">
        <ele>94.428</ele>
        <time>2016-07-08T14:45:35Z</time>
      </trkpt>
      <trkpt lat="43.72336" lon="7.39548">
        <ele>92.978</ele>
        <time>2016-07-08T14:45:37Z</time>
      </trkpt>
      <trkpt lat="43.72328" lon="7.3954">
        <ele>92.725</ele>
        <time>2016-07-08T14:45:39Z</time>
      </trkpt>
      <trkpt lat="43.72319" lon="7.39536">
        <ele>92.21</ele>
        <time>2016-07-08T14:45:40Z</time>
      </trkpt>
      <trkpt lat="43.72303" lon="7.39534">
        <ele>90.337</ele>
        <time>2016-07-08T14:45:43Z</time>
      </trkpt>
      <trkpt lat="43.72302" lon="7.3953">
        <ele>90.29</ele>
        <time>2016-07-08T14:45:44Z</time>
      </trkpt>
      <trkpt lat="43.72299" lon="7.39527">
        <ele>89.891</ele>
        <time>2016-07-08T14:45:44Z</time>
      </trkpt>
      <trkpt lat="43.72294" lon="7.39528">
        <ele>88.915</ele>
        <time>2016-07-08T14:45:45Z</time>
      </trkpt>
      <trkpt lat="43.72274" lon="7.39421">
        <ele>89.027</ele>
        <time>2016-07-08T14:45:58Z</time>
      </trkpt>
      <trkpt lat="43.72274" lon="7.39403">
        <ele>88.489</ele>
        <time>2016-07-08T14:46:00Z</time>
      </trkpt>
      <trkpt lat="43.72277" lon="7.39388">
        <ele>88.617</ele>
        <time>2016-07-08T14:46:02Z</time>
      </trkpt>
      <trkpt lat="43.72285" lon="7.39366">
        <ele>88.123</ele>
        <time>2016-07-08T14:46:05Z</time>
      </trkpt>
      <trkpt lat="43.72296" lon="7.39344">
        <ele>89.236</ele>
        <time>2016-07-08T14:46:08Z</time>
      </trkpt>
      <trkpt lat="43.72307" lon="7.39317">
        <ele>88.394</ele>
        <time>2016-07-08T14:46:12Z</time>
      </trkpt>
      <trkpt lat="43.72366" lon="7.39133">
        <ele>98.197</ele>
        <time>2016-07-08T14:46:36Z</time>
      </trkpt>
      <trkpt lat="43.72374" lon="7.39102">
        <ele>100.808</ele>
        <time>2016-07-08T14:46:40Z</time>
      </trkpt>
      <trkpt lat="43.72382" lon="7.3903">
        <ele>98.747</ele>
        <time>2016-07-08T14:46:49Z</time>
      </trkpt>
      <trkpt lat="43.7238" lon="7.38947">
        <ele>79.611</ele>
        <time>2016-07-08T14:46:59Z</time>
      </trkpt>
      <trkpt lat="43.72377" lon="7.38922">
        <ele>70.931</ele>
        <time>2016-07-08T14:47:02Z</time>
      </trkpt>
      <trkpt lat="43.72368" lon="7.38887">
        <ele>62.617</ele>
        <time>2016-07-08T14:47:06Z</time>
      </trkpt>
      <trkpt lat="43.72366" lon="7.38872">
        <ele>63.859</ele>
        <time>2016-07-08T14:47:08Z</time>
      </trkpt>
      <trkpt lat="43.72366" lon="7.38794">
        <ele>96.505</ele>
        <time>2016-07-08T14:47:18Z</time>
      </trkpt>
      <trkpt lat="43.72361" lon="7.38705">
        <ele>79.202</ele>
        <time>2016-07-08T14:47:28Z</time>
      </trkpt>
      <trkpt lat="43.72365" lon="7.38676">
        <ele>77.051</ele>
        <time>2016-07-08T14:47:32Z</time>
      </trkpt>
      <trkpt lat="43.72377" lon="7.3864">
        <ele>77.832</ele>
        <time>2016-07-08T14:47:37Z</time>
      </trkpt>
      <trkpt lat="43.72382" lon="7.38592">
        <ele>83.472</ele>
        <time>2016-07-08T14:47:42Z</time>
      </trkpt>
      <trkpt lat="43.72384" lon="7.38551">
        <ele>71.127</ele>
        <time>2016-07-08T14:47:47Z</time>
      </trkpt>
      <trkpt lat="43.72381" lon="7.38527">
        <ele>90.556</ele>
        <time>2016-07-08T14:47:50Z</time>
      </trkpt>
      <trkpt lat="43.72374" lon="7.38504">
        <ele>94.223</ele>
        <time>2016-07-08T14:47:53Z</time>
      </trkpt>
      <trkpt lat="43.72351" lon="7.38469">
        <ele>51.175</ele>
        <time>2016-07-08T14:47:59Z</time>
      </trkpt>
      <trkpt lat="43.72345" lon="7.38456">
        <ele>34.581</ele>
        <time>2016-07-08T14:48:01Z</time>
      </trkpt>
      <trkpt lat="43.7234" lon="7.38435">
        <ele>20.486</ele>
        <time>2016-07-08T14:48:03Z</time>
      </trkpt>
      <trkpt lat="43.72334" lon="7.3839">
        <ele>2.619</ele>
        <time>2016-07-08T14:48:09Z</time>
      </trkpt>
      <trkpt lat="43.72331" lon="7.38338">
        <ele>81.914</ele>
        <time>2016-07-08T14:48:15Z</time>
      </trkpt>
      <trkpt lat="43.72331" lon="7.38313">
        <ele>69.138</ele>
        <time>2016-07-08T14:48:18Z</time>
      </trkpt>
      <trkpt lat="43.72333" lon="7.38295">
        <ele>63.98</ele>
        <time>2016-07-08T14:48:20Z</time>
      </trkpt>
      <trkpt lat="43.72338" lon="7.38278">
        <ele>62.917</ele>
        <time>2016-07-08T14:48:22Z</time>
      </trkpt>
      <trkpt lat="43.72344" lon="7.38265">
        <ele>63.838</ele>
        <time>2016-07-08T14:48:24Z</time>
      </trkpt>
      <trkpt lat="43.72354" lon="7.38248">
        <ele>67.538</ele>
        <time>2016-07-08T14:48:27Z</time>
      </trkpt>
      <trkpt lat="43.72367" lon="7.38232">
        <ele>71.829</ele>
        <time>2016-07-08T14:48:30Z</time>
      </trkpt>
      <trkpt lat="43.72383" lon="7.38222">
        <ele>74.213</ele>
        <time>2016-07-08T14:48:33Z</time>
      </trkpt>
      <trkpt lat="43.72493" lon="7.38167">
        <ele>74.319</ele>
        <time>2016-07-08T14:48:52Z</time>
      </trkpt>
      <trkpt lat="43.72508" lon="7.38158">
        <ele>73.799</ele>
        <time>2016-07-08T14:48:55Z</time>
      </trkpt>
      <trkpt lat="43.72517" lon="7.38149">
        <ele>73.377</ele>
        <time>2016-07-08T14:48:57Z</time>
      </trkpt>
      <trkpt lat="43.72524" lon="7.3814">
        <ele>73.518</ele>
        <time>2016-07-08T14:48:58Z</time>
      </trkpt>
      <trkpt lat="43.7253" lon="7.38127">
        <ele>74.537</ele>
        <time>2016-07-08T14:49:00Z</time>
      </trkpt>
      <trkpt lat="43.72533" lon="7.38099">
        <ele>76.728</ele>
        <time>2016-07-08T14:49:04Z</time>
      </trkpt>
      <trkpt lat="43.72532" lon="7.38081">
        <ele>77.756</ele>
        <time>2016-07-08T14:49:06Z</time>
      </trkpt>
      <trkpt lat="43.72529" lon="7.38065">
        <ele>77.144</ele>
        <time>2016-07-08T14:49:08Z</time>
      </trkpt>
      <trkpt lat="43.72503" lon="7.38003">
        <ele>77.239</ele>
        <time>2016-07-08T14:49:16Z</time>
      </trkpt>
      <trkpt lat="43.72498" lon="7.37995">
        <ele>77.723</ele>
        <time>2016-07-08T14:49:18Z</time>
      </trkpt>
      <trkpt lat="43.72489" lon="7.37984">
        <ele>78.548</ele>
        <time>2016-07-08T14:49:20Z</time>
      </trkpt>
      <trkpt lat="43.72477" lon="7.37976">
        <ele>78.57</ele>
        <time>2016-07-08T14:49:22Z</time>
      </trkpt>
      <trkpt lat="43.72469" lon="7.37973">
        <ele>78.14</ele>
        <time>2016-07-08T14:49:23Z</time>
      </trkpt>
      <trkpt lat="43.72448" lon="7.37973">
        <ele>74.36</ele>
        <time>2016-07-08T14:49:27Z</time>
      </trkpt>
      <trkpt lat="43.72421" lon="7.37991">
        <ele>65.825</ele>
        <time>2016-07-08T14:49:32Z</time>
      </trkpt>
      <trkpt lat="43.72391" lon="7.38008">
        <ele>63.066</ele>
        <time>2016-07-08T14:49:37Z</time>
      </trkpt>
      <trkpt lat="43.72281" lon="7.37991">
        <ele>58.657</ele>
        <time>2016-07-08T14:49:55Z</time>
      </trkpt>
      <trkpt lat="43.72242" lon="7.37982">
        <ele>55.896</ele>
        <time>2016-07-08T14:50:02Z</time>
      </trkpt>
      <trkpt lat="43.72231" lon="7.37976">
        <ele>54.035</ele>
        <time>2016-07-08T14:50:04Z</time>
      </trkpt>
      <trkpt lat="43.72221" lon="7.37965">
        <ele>52.606</ele>
        <time>2016-07-08T14:50:06Z</time>
      </trkpt>
      <trkpt lat="43.72215" lon="7.37951">
        <ele>51.324</ele>
        <time>2016-07-08T14:50:08Z</time>
      </trkpt>
      <trkpt lat="43.72208" lon="7.37886">
        <ele>60.637</ele>
        <time>2016-07-08T14:50:16Z</time>
      </trkpt>
      <trkpt lat="43.72202" lon="7.37865">
        <ele>63.91</ele>
        <time>2016-07-08T14:50:18Z</time>
      </trkpt>
      <trkpt lat="43.72198" lon="7.37858">
        <ele>64.485</ele>
        <time>2016-07-08T14:50:20Z</time>
      </trkpt>
      <trkpt lat="43.7216" lon="7.37823">
        <ele>60.457</ele>
        <time>2016-07-08T14:50:27Z</time>
      </trkpt>
      <trkpt lat="43.72113" lon="7.37767">
        <ele>57.834</ele>
        <time>2016-07-08T14:50:37Z</time>
      </trkpt>
      <trkpt lat="43.72096" lon="7.37751">
        <ele>49.867</ele>
        <time>2016-07-08T14:50:41Z</time>
      </trkpt>
      <trkpt lat="43.72079" lon="7.37738">
        <ele>41.059</ele>
        <time>2016-07-08T14:50:44Z</time>
      </trkpt>
      <trkpt lat="43.72072" lon="7.37729">
        <ele>40.106</ele>
        <time>2016-07-08T14:50:46Z</time>
      </trkpt>
      <trkpt lat="43.72043" lon="7.37666">
        <ele>55.292</ele>
        <time>2016-07-08T14:50:55Z</time>
      </trkpt>
      <trkpt lat="43.72039" lon="7.37652">
        <ele>58.853</ele>
        <time>2016-07-08T14:50:56Z</time>
      </trkpt>
      <trkpt lat="43.72038" lon="7.37642">
        <ele>62.527</ele>
        <time>2016-07-08T14:50:58Z</time>
      </trkpt>
      <trkpt lat="43.72019" lon="7.37629">
        <ele>52.701</ele>
        <time>2016-07-08T14:51:01Z</time>
      </trkpt>
      <trkpt lat="43.72002" lon="7.37621">
        <ele>42.158</ele>
        <time>2016-07-08T14:51:04Z</time>
      </trkpt>
      <trkpt lat="43.71991" lon="7.37613">
        <ele>39.262</ele>
        <time>2016-07-08T14:51:06Z</time>
      </trkpt>
      <trkpt lat="43.71984" lon="7.37603">
        <ele>37.582</ele>
        <time>2016-07-08T14:51:08Z</time>
      </trkpt>
      <trkpt lat="43.71975" lon="7.3757">
        <ele>37.248</ele>
        <time>2016-07-08T14:51:12Z</time>
      </trkpt>
      <trkpt lat="43.71968" lon="7.37528">
        <ele>61.157</ele>
        <time>2016-07-08T14:51:17Z</time>
      </trkpt>
      <trkpt lat="43.71964" lon="7.37516">
        <ele>63.486</ele>
        <time>2016-07-08T14:51:19Z</time>
      </trkpt>
      <trkpt lat="43.71946" lon="7.37482">
        <ele>63.771</ele>
        <time>2016-07-08T14:51:24Z</time>
      </trkpt>
      <trkpt lat="43.71924" lon="7.37447">
        <ele>57.154</ele>
        <time>2016-07-08T14:51:29Z</time>
      </trkpt>
      <trkpt lat="43.71912" lon="7.37423">
        <ele>53.029</ele>
        <time>2016-07-08T14:51:33Z</time>
      </trkpt>
      <trkpt lat="43.71892" lon="7.37365">
        <ele>44.512</ele>
        <time>2016-07-08T14:51:41Z</time>
      </trkpt>
      <trkpt lat="43.71875" lon="7.37334">
        <ele>36.94</ele>
        <time>2016-07-08T14:51:45Z</time>
      </trkpt>
      <trkpt lat="43.71867" lon="7.37313">
        <ele>30.817</ele>
        <time>2016-07-08T14:51:48Z</time>
      </trkpt>
      <trkpt lat="43.71863" lon="7.37296">
        <ele>26.398</ele>
        <time>2016-07-08T14:51:50Z</time>
      </trkpt>
      <trkpt lat="43.71863" lon="7.37276">
        <ele>24.547</ele>
        <time>2016-07-08T14:51:53Z</time>
      </trkpt>
      <trkpt lat="43.71867" lon="7.37257">
        <ele>27.242</ele>
        <time>2016-07-08T14:51:55Z</time>
      </trkpt>
      <trkpt lat="43.71878" lon="7.37229">
        <ele>33.633</ele>
        <time>2016-07-08T14:51:59Z</time>
      </trkpt>
      <trkpt lat="43.7193" lon="7.37129">
        <ele>27.376</ele>
        <time>2016-07-08T14:52:14Z</time>
      </trkpt>
      <trkpt lat="43.72007" lon="7.37015">
        <ele>60.043</ele>
        <time>2016-07-08T14:52:32Z</time>
      </trkpt>
      <trkpt lat="43.72021" lon="7.36982">
        <ele>66.915</ele>
        <time>2016-07-08T14:52:37Z</time>
      </trkpt>
      <trkpt lat="43.72022" lon="7.36955">
        <ele>54.399</ele>
        <time>2016-07-08T14:52:40Z</time>
      </trkpt>
      <trkpt lat="43.72041" lon="7.36871">
        <ele>31.412</ele>
        <time>2016-07-08T14:52:51Z</time>
      </trkpt>
      <trkpt lat="43.72052" lon="7.36845">
        <ele>30.175</ele>
        <time>2016-07-08T14:52:54Z</time>
      </trkpt>
      <trkpt lat="43.72063" lon="7.36808">
        <ele>26.064</ele>
        <time>2016-07-08T14:52:59Z</time>
      </trkpt>
      <trkpt lat="43.7208" lon="7.36763">
        <ele>25.263</ele>
        <time>2016-07-08T14:53:05Z</time>
      </trkpt>
      <trkpt lat="43.72097" lon="7.36726">
        <ele>23.884</ele>
        <time>2016-07-08T14:53:10Z</time>
      </trkpt>
      <trkpt lat="43.72124" lon="7.36685">
        <ele>19.951</ele>
        <time>2016-07-08T14:53:17Z</time>
      </trkpt>
      <trkpt lat="43.72202" lon="7.36574">
        <ele>24.096</ele>
        <time>2016-07-08T14:53:36Z</time>
      </trkpt>
      <trkpt lat="43.7222" lon="7.36543">
        <ele>21.32</ele>
        <time>2016-07-08T14:53:40Z</time>
      </trkpt>
      <trkpt lat="43.72234" lon="7.36515">
        <ele>19.169</ele>
        <time>2016-07-08T14:53:45Z</time>
      </trkpt>
      <trkpt lat="43.72246" lon="7.36485">
        <ele>19.713</ele>
        <time>2016-07-08T14:53:49Z</time>
      </trkpt>
      <trkpt lat="43.7227" lon="7.36398">
        <ele>25.224</ele>
        <time>2016-07-08T14:54:00Z</time>
      </trkpt>
      <trkpt lat="43.72275" lon="7.36372">
        <ele>26.266</ele>
        <time>2016-07-08T14:54:03Z</time>
      </trkpt>
      <trkpt lat="43.72286" lon="7.3622">
        <ele>31.767</ele>
        <time>2016-07-08T14:54:21Z</time>
      </trkpt>
      <trkpt lat="43.72297" lon="7.36036">
        <ele>23.407</ele>
        <time>2016-07-08T14:54:43Z</time>
      </trkpt>
      <trkpt lat="43.723" lon="7.3596">
        <ele>25.848</ele>
        <time>2016-07-08T14:54:53Z</time>
      </trkpt>
      <trkpt lat="43.72297" lon="7.35916">
        <ele>20.959</ele>
        <time>2016-07-08T14:54:58Z</time>
      </trkpt>
      <trkpt lat="43.72275" lon="7.35744">
        <ele>23.483</ele>
        <time>2016-07-08T14:55:19Z</time>
      </trkpt>
      <trkpt lat="43.72268" lon="7.35716">
        <ele>24.737</ele>
        <time>2016-07-08T14:55:22Z</time>
      </trkpt>
      <trkpt lat="43.72253" lon="7.35673">
        <ele>23.917</ele>
        <time>2016-07-08T14:55:28Z</time>
      </trkpt>
      <trkpt lat="43.72234" lon="7.35629">
        <ele>25.34</ele>
        <time>2016-07-08T14:55:34Z</time>
      </trkpt>
      <trkpt lat="43.72226" lon="7.3564">
        <ele>20.2</ele>
        <time>2016-07-08T14:55:36Z</time>
      </trkpt>
      <trkpt lat="43.72208" lon="7.35619">
        <ele>18.8</ele>
        <time>2016-07-08T14:55:40Z</time>
      </trkpt>
      <trkpt lat="43.72205" lon="7.35619">
        <ele>18.4</ele>
        <time>2016-07-08T14:55:41Z</time>
      </trkpt>
      <trkpt lat="43.72202" lon="7.35624">
        <ele>18</ele>
        <time>2016-07-08T14:55:41Z</time>
      </trkpt>
      <trkpt lat="43.72199" lon="7.35642">
        <ele>17.4</ele>
        <time>2016-07-08T14:55:44Z</time>
      </trkpt>
      <trkpt lat="43.72197" lon="7.35645">
        <ele>17.1</ele>
        <time>2016-07-08T14:55:44Z</time>
      </trkpt>
      <trkpt lat="43.72198" lon="7.35682">
        <ele>13.9</ele>
        <time>2016-07-08T14:55:48Z</time>
      </trkpt>
      <trkpt lat="43.72216" lon="7.35756">
        <ele>10.2</ele>
        <time>2016-07-08T14:55:58Z</time>
      </trkpt>
      <trkpt lat="43.72217" lon="7.35773">
        <ele>6.8</ele>
        <time>2016-07-08T14:56:00Z</time>
      </trkpt>
      <trkpt lat="43.72219" lon="7.3578">
        <ele>5.8</ele>
        <time>2016-07-08T14:56:01Z</time>
      </trkpt>
      <trkpt lat="43.72185" lon="7.35798">
        <ele>2.2</ele>
        <time>2016-07-08T14:56:07Z</time>
      </trkpt>
      <trkpt lat="43.72218" lon="7.3578">
        <ele>5.7</ele>
        <time>2016-07-08T14:56:13Z</time>
      </trkpt>
      <trkpt lat="43.72216" lon="7.35756">
        <ele>10.2</ele>
        <time>2016-07-08T14:56:16Z</time>
      </trkpt>
      <trkpt lat="43.72198" lon="7.35682">
        <ele>13.9</ele>
        <time>2016-07-08T14:56:25Z</time>
      </trkpt>
      <trkpt lat="43.72197" lon="7.35645">
        <ele>17.1</ele>
        <time>2016-07-08T14:56:29Z</time>
      </trkpt>
      <trkpt lat="43.72199" lon="7.35642">
        <ele>17.4</ele>
        <time>2016-07-08T14:56:30Z</time>
      </trkpt>
      <trkpt lat="43.72202" lon="7.35624">
        <ele>18</ele>
        <time>2016-07-08T14:56:32Z</time>
      </trkpt>
      <trkpt lat="43.72205" lon="7.35619">
        <ele>18.4</ele>
        <time>2016-07-08T14:56:33Z</time>
      </trkpt>
      <trkpt lat="43.72208" lon="7.35619">
        <ele>18.8</ele>
        <time>2016-07-08T14:56:33Z</time>
      </trkpt>
      <trkpt lat="43.72226" lon="7.3564">
        <ele>20.2</ele>
        <time>2016-07-08T14:56:37Z</time>
      </trkpt>
      <trkpt lat="43.72234" lon="7.35629">
        <ele>21.5</ele>
        <time>2016-07-08T14:56:39Z</time>
      </trkpt>
      <trkpt lat="43.72225" lon="7.35618">
        <ele>21.1</ele>
        <time>2016-07-08T14:56:41Z</time>
      </trkpt>
      <trkpt lat="43.72152" lon="7.35527">
        <ele>21.5</ele>
        <time>2016-07-08T14:56:58Z</time>
      </trkpt>
      <trkpt lat="43.72105" lon="7.35456">
        <ele>21.1</ele>
        <time>2016-07-08T14:57:09Z</time>
      </trkpt>
      <trkpt lat="43.72056" lon="7.35378">
        <ele>19.9</ele>
        <time>2016-07-08T14:57:21Z</time>
      </trkpt>
      <trkpt lat="43.72011" lon="7.35299">
        <ele>19.1</ele>
        <time>2016-07-08T14:57:33Z</time>
      </trkpt>
      <trkpt lat="43.71985" lon="7.35258">
        <ele>18.5</ele>
        <time>2016-07-08T14:57:40Z</time>
      </trkpt>
      <trkpt lat="43.71983" lon="7.35248">
        <ele>18.7</ele>
        <time>2016-07-08T14:57:41Z</time>
      </trkpt>
      <trkpt lat="43.71795" lon="7.34943">
        <ele>22.7</ele>
        <time>2016-07-08T14:58:29Z</time>
      </trkpt>
      <trkpt lat="43.71784" lon="7.34929">
        <ele>21.5</ele>
        <time>2016-07-08T14:58:32Z</time>
      </trkpt>
      <trkpt lat="43.71775" lon="7.34921">
        <ele>21.7</ele>
        <time>2016-07-08T14:58:34Z</time>
      </trkpt>
      <trkpt lat="43.71765" lon="7.34915">
        <ele>23.3</ele>
        <time>2016-07-08T14:58:35Z</time>
      </trkpt>
      <trkpt lat="43.71752" lon="7.3491">
        <ele>25.7</ele>
        <time>2016-07-08T14:58:38Z</time>
      </trkpt>
      <trkpt lat="43.71729" lon="7.34912">
        <ele>28.7</ele>
        <time>2016-07-08T14:58:41Z</time>
      </trkpt>
      <trkpt lat="43.7172" lon="7.34916">
        <ele>29</ele>
        <time>2016-07-08T14:58:43Z</time>
      </trkpt>
      <trkpt lat="43.71703" lon="7.34928">
        <ele>31.2</ele>
        <time>2016-07-08T14:58:46Z</time>
      </trkpt>
      <trkpt lat="43.71695" lon="7.34937">
        <ele>29.6</ele>
        <time>2016-07-08T14:58:48Z</time>
      </trkpt>
      <trkpt lat="43.71607" lon="7.35058">
        <ele>21.5</ele>
        <time>2016-07-08T14:59:08Z</time>
      </trkpt>
      <trkpt lat="43.71594" lon="7.35072">
        <ele>20.1</ele>
        <time>2016-07-08T14:59:11Z</time>
      </trkpt>
      <trkpt lat="43.71577" lon="7.35082">
        <ele>20.9</ele>
        <time>2016-07-08T14:59:14Z</time>
      </trkpt>
      <trkpt lat="43.71569" lon="7.35082">
        <ele>20.6</ele>
        <time>2016-07-08T14:59:16Z</time>
      </trkpt>
      <trkpt lat="43.71559" lon="7.3508">
        <ele>20.4</ele>
        <time>2016-07-08T14:59:17Z</time>
      </trkpt>
      <trkpt lat="43.71547" lon="7.35073">
        <ele>16.8</ele>
        <time>2016-07-08T14:59:19Z</time>
      </trkpt>
      <trkpt lat="43.71537" lon="7.35062">
        <ele>15.5</ele>
        <time>2016-07-08T14:59:22Z</time>
      </trkpt>
      <trkpt lat="43.71532" lon="7.35051">
        <ele>20.3</ele>
        <time>2016-07-08T14:59:23Z</time>
      </trkpt>
      <trkpt lat="43.71529" lon="7.35049">
        <ele>21.8</ele>
        <time>2016-07-08T14:59:24Z</time>
      </trkpt>
      <trkpt lat="43.71519" lon="7.35017">
        <ele>53.9</ele>
        <time>2016-07-08T14:59:28Z</time>
      </trkpt>
      <trkpt lat="43.71514" lon="7.34997">
        <ele>68.2</ele>
        <time>2016-07-08T14:59:30Z</time>
      </trkpt>
      <trkpt lat="43.71504" lon="7.34936">
        <ele>32.3</ele>
        <time>2016-07-08T14:59:38Z</time>
      </trkpt>
      <trkpt lat="43.71492" lon="7.34911">
        <ele>49.5</ele>
        <time>2016-07-08T14:59:41Z</time>
      </trkpt>
      <trkpt lat="43.71461" lon="7.3486">
        <ele>54</ele>
        <time>2016-07-08T14:59:49Z</time>
      </trkpt>
      <trkpt lat="43.71452" lon="7.34835">
        <ele>37.5</ele>
        <time>2016-07-08T14:59:53Z</time>
      </trkpt>
      <trkpt lat="43.71449" lon="7.34821">
        <ele>29.4</ele>
        <time>2016-07-08T14:59:55Z</time>
      </trkpt>
      <trkpt lat="43.71437" lon="7.34698">
        <ele>37.9</ele>
        <time>2016-07-08T15:00:09Z</time>
      </trkpt>
      <trkpt lat="43.71433" lon="7.34642">
        <ele>22.5</ele>
        <time>2016-07-08T15:00:16Z</time>
      </trkpt>
      <trkpt lat="43.7143" lon="7.34563">
        <ele>29.4</ele>
        <time>2016-07-08T15:00:26Z</time>
      </trkpt>
      <trkpt lat="43.71425" lon="7.34523">
        <ele>17.6</ele>
        <time>2016-07-08T15:00:31Z</time>
      </trkpt>
      <trkpt lat="43.71417" lon="7.3448">
        <ele>15</ele>
        <time>2016-07-08T15:00:36Z</time>
      </trkpt>
      <trkpt lat="43.71412" lon="7.34428">
        <ele>16</ele>
        <time>2016-07-08T15:00:42Z</time>
      </trkpt>
      <trkpt lat="43.71409" lon="7.34326">
        <ele>13.5</ele>
        <time>2016-07-08T15:00:54Z</time>
      </trkpt>
      <trkpt lat="43.71406" lon="7.3427">
        <ele>11.9</ele>
        <time>2016-07-08T15:01:01Z</time>
      </trkpt>
      <trkpt lat="43.71402" lon="7.34229">
        <ele>12.2</ele>
        <time>2016-07-08T15:01:06Z</time>
      </trkpt>
      <trkpt lat="43.71399" lon="7.34211">
        <ele>14.3</ele>
        <time>2016-07-08T15:01:08Z</time>
      </trkpt>
      <trkpt lat="43.71381" lon="7.34147">
        <ele>13.6</ele>
        <time>2016-07-08T15:01:17Z</time>
      </trkpt>
      <trkpt lat="43.71368" lon="7.341">
        <ele>13.7</ele>
        <time>2016-07-08T15:01:23Z</time>
      </trkpt>
      <trkpt lat="43.71362" lon="7.34083">
        <ele>14.2</ele>
        <time>2016-07-08T15:01:25Z</time>
      </trkpt>
      <trkpt lat="43.71355" lon="7.3407">
        <ele>13.7</ele>
        <time>2016-07-08T15:01:27Z</time>
      </trkpt>
      <trkpt lat="43.71348" lon="7.34052">
        <ele>13.2</ele>
        <time>2016-07-08T15:01:29Z</time>
      </trkpt>
      <trkpt lat="43.71344" lon="7.34023">
        <ele>13</ele>
        <time>2016-07-08T15:01:33Z</time>
      </trkpt>
      <trkpt lat="43.71343" lon="7.33974">
        <ele>14.2</ele>
        <time>2016-07-08T15:01:39Z</time>
      </trkpt>
      <trkpt lat="43.7134" lon="7.33932">
        <ele>13.7</ele>
        <time>2016-07-08T15:01:44Z</time>
      </trkpt>
      <trkpt lat="43.71335" lon="7.33913">
        <ele>13.4</ele>
        <time>2016-07-08T15:01:46Z</time>
      </trkpt>
      <trkpt lat="43.71318" lon="7.33867">
        <ele>12.7</ele>
        <time>2016-07-08T15:01:52Z</time>
      </trkpt>
      <trkpt lat="43.71289" lon="7.33796">
        <ele>13.2</ele>
        <time>2016-07-08T15:02:02Z</time>
      </trkpt>
      <trkpt lat="43.71256" lon="7.33731">
        <ele>12.7</ele>
        <time>2016-07-08T15:02:12Z</time>
      </trkpt>
      <trkpt lat="43.71213" lon="7.33655">
        <ele>11.9</ele>
        <time>2016-07-08T15:02:23Z</time>
      </trkpt>
      <trkpt lat="43.71203" lon="7.3364">
        <ele>13.3</ele>
        <time>2016-07-08T15:02:26Z</time>
      </trkpt>
      <trkpt lat="43.71186" lon="7.33621">
        <ele>12.6</ele>
        <time>2016-07-08T15:02:29Z</time>
      </trkpt>
      <trkpt lat="43.71148" lon="7.3359">
        <ele>10.8</ele>
        <time>2016-07-08T15:02:37Z</time>
      </trkpt>
      <trkpt lat="43.71093" lon="7.33553">
        <ele>9.8</ele>
        <time>2016-07-08T15:02:47Z</time>
      </trkpt>
      <trkpt lat="43.71043" lon="7.33534">
        <ele>8</ele>
        <time>2016-07-08T15:02:55Z</time>
      </trkpt>
      <trkpt lat="43.71033" lon="7.33526">
        <ele>8.2</ele>
        <time>2016-07-08T15:02:57Z</time>
      </trkpt>
      <trkpt lat="43.71012" lon="7.33504">
        <ele>7.4</ele>
        <time>2016-07-08T15:03:02Z</time>
      </trkpt>
      <trkpt lat="43.7101" lon="7.335">
        <ele>7.4</ele>
        <time>2016-07-08T15:03:02Z</time>
      </trkpt>
      <trkpt lat="43.71002" lon="7.33495">
        <ele>7.3</ele>
        <time>2016-07-08T15:03:04Z</time>
      </trkpt>
      <trkpt lat="43.70991" lon="7.33489">
        <ele>6.7</ele>
        <time>2016-07-08T15:03:06Z</time>
      </trkpt>
      <trkpt lat="43.70971" lon="7.33482">
        <ele>5.6</ele>
        <time>2016-07-08T15:03:09Z</time>
      </trkpt>
      <trkpt lat="43.70947" lon="7.33479">
        <ele>4.6</ele>
        <time>2016-07-08T15:03:13Z</time>
      </trkpt>
      <trkpt lat="43.70918" lon="7.33468">
        <ele>4.7</ele>
        <time>2016-07-08T15:03:18Z</time>
      </trkpt>
      <trkpt lat="43.70863" lon="7.33433">
        <ele>5.7</ele>
        <time>2016-07-08T15:03:28Z</time>
      </trkpt>
      <trkpt lat="43.70839" lon="7.33425">
        <ele>5.1</ele>
        <time>2016-07-08T15:03:32Z</time>
      </trkpt>
      <trkpt lat="43.70813" lon="7.33426">
        <ele>5.2</ele>
        <time>2016-07-08T15:03:36Z</time>
      </trkpt>
      <trkpt lat="43.70781" lon="7.33433">
        <ele>4.5</ele>
        <time>2016-07-08T15:03:42Z</time>
      </trkpt>
      <trkpt lat="43.70779" lon="7.33429">
        <ele>4.6</ele>
        <time>2016-07-08T15:03:42Z</time>
      </trkpt>
      <trkpt lat="43.70775" lon="7.33428">
        <ele>4.7</ele>
        <time>2016-07-08T15:03:43Z</time>
      </trkpt>
      <trkpt lat="43.70772" lon="7.33431">
        <ele>4.7</ele>
        <time>2016-07-08T15:03:44Z</time>
      </trkpt>
      <trkpt lat="43.70772" lon="7.33433">
        <ele>4.6</ele>
        <time>2016-07-08T15:03:44Z</time>
      </trkpt>
      <trkpt lat="43.70757" lon="7.3344">
        <ele>4.9</ele>
        <time>2016-07-08T15:03:47Z</time>
      </trkpt>
      <trkpt lat="43.70676" lon="7.33505">
        <ele>5.9</ele>
        <time>2016-07-08T15:04:02Z</time>
      </trkpt>
      <trkpt lat="43.70668" lon="7.3351">
        <ele>7.1</ele>
        <time>2016-07-08T15:04:04Z</time>
      </trkpt>
      <trkpt lat="43.7064" lon="7.3352">
        <ele>8.9</ele>
        <time>2016-07-08T15:04:08Z</time>
      </trkpt>
      <trkpt lat="43.7062" lon="7.33522">
        <ele>9.8</ele>
        <time>2016-07-08T15:04:12Z</time>
      </trkpt>
      <trkpt lat="43.70609" lon="7.33515">
        <ele>10.5</ele>
        <time>2016-07-08T15:04:14Z</time>
      </trkpt>
      <trkpt lat="43.70602" lon="7.33505">
        <ele>10.8</ele>
        <time>2016-07-08T15:04:15Z</time>
      </trkpt>
      <trkpt lat="43.70572" lon="7.33446">
        <ele>11</ele>
        <time>2016-07-08T15:04:24Z</time>
      </trkpt>
      <trkpt lat="43.7054" lon="7.3341">
        <ele>11</ele>
        <time>2016-07-08T15:04:31Z</time>
      </trkpt>
      <trkpt lat="43.70532" lon="7.33394">
        <ele>11</ele>
        <time>2016-07-08T15:04:33Z</time>
      </trkpt>
      <trkpt lat="43.7053" lon="7.33385">
        <ele>11</ele>
        <time>2016-07-08T15:04:34Z</time>
      </trkpt>
      <trkpt lat="43.70435" lon="7.3326">
        <ele>8.2</ele>
        <time>2016-07-08T15:04:56Z</time>
      </trkpt>
      <trkpt lat="43.70432" lon="7.33257">
        <ele>7.7</ele>
        <time>2016-07-08T15:04:57Z</time>
      </trkpt>
      <trkpt lat="43.70424" lon="7.33235">
        <ele>7.1</ele>
        <time>2016-07-08T15:05:00Z</time>
      </trkpt>
      <trkpt lat="43.7042" lon="7.3319">
        <ele>8.4</ele>
        <time>2016-07-08T15:05:05Z</time>
      </trkpt>
      <trkpt lat="43.70416" lon="7.33172">
        <ele>8.7</ele>
        <time>2016-07-08T15:05:07Z</time>
      </trkpt>
      <trkpt lat="43.70397" lon="7.33115">
        <ele>8.4</ele>
        <time>2016-07-08T15:05:15Z</time>
      </trkpt>
      <trkpt lat="43.70391" lon="7.33103">
        <ele>8.4</ele>
        <time>2016-07-08T15:05:17Z</time>
      </trkpt>
      <trkpt lat="43.70353" lon="7.33043">
        <ele>8.1</ele>
        <time>2016-07-08T15:05:26Z</time>
      </trkpt>
      <trkpt lat="43.70307" lon="7.32974">
        <ele>9</ele>
        <time>2016-07-08T15:05:37Z</time>
      </trkpt>
      <trkpt lat="43.70289" lon="7.32956">
        <ele>9.4</ele>
        <time>2016-07-08T15:05:41Z</time>
      </trkpt>
      <trkpt lat="43.70238" lon="7.32917">
        <ele>8.5</ele>
        <time>2016-07-08T15:05:51Z</time>
      </trkpt>
      <trkpt lat="43.7023" lon="7.32906">
        <ele>9.2</ele>
        <time>2016-07-08T15:05:53Z</time>
      </trkpt>
      <trkpt lat="43.70165" lon="7.32728">
        <ele>18.6</ele>
        <time>2016-07-08T15:06:17Z</time>
      </trkpt>
      <trkpt lat="43.70155" lon="7.32699">
        <ele>19.9</ele>
        <time>2016-07-08T15:06:20Z</time>
      </trkpt>
      <trkpt lat="43.70151" lon="7.32682">
        <ele>21.3</ele>
        <time>2016-07-08T15:06:23Z</time>
      </trkpt>
      <trkpt lat="43.70148" lon="7.32663">
        <ele>22.7</ele>
        <time>2016-07-08T15:06:25Z</time>
      </trkpt>
      <trkpt lat="43.70157" lon="7.32661">
        <ele>20.7</ele>
        <time>2016-07-08T15:06:26Z</time>
      </trkpt>
      <trkpt lat="43.70167" lon="7.32655">
        <ele>19.4</ele>
        <time>2016-07-08T15:06:28Z</time>
      </trkpt>
      <trkpt lat="43.70169" lon="7.32648">
        <ele>20.9</ele>
        <time>2016-07-08T15:06:29Z</time>
      </trkpt>
      <trkpt lat="43.70173" lon="7.32632">
        <ele>23.1</ele>
        <time>2016-07-08T15:06:31Z</time>
      </trkpt>
      <trkpt lat="43.70178" lon="7.32595">
        <ele>24.4</ele>
        <time>2016-07-08T15:06:36Z</time>
      </trkpt>
      <trkpt lat="43.70187" lon="7.32583">
        <ele>26.8</ele>
        <time>2016-07-08T15:06:38Z</time>
      </trkpt>
      <trkpt lat="43.70191" lon="7.32585">
        <ele>28.1</ele>
        <time>2016-07-08T15:06:38Z</time>
      </trkpt>
      <trkpt lat="43.70194" lon="7.32573">
        <ele>28.5</ele>
        <time>2016-07-08T15:06:40Z</time>
      </trkpt>
      <trkpt lat="43.702" lon="7.32557">
        <ele>29.9</ele>
        <time>2016-07-08T15:06:42Z</time>
      </trkpt>
      <trkpt lat="43.70208" lon="7.32545">
        <ele>29.9</ele>
        <time>2016-07-08T15:06:44Z</time>
      </trkpt>
      <trkpt lat="43.70281" lon="7.32452">
        <ele>31.2</ele>
        <time>2016-07-08T15:07:01Z</time>
      </trkpt>
      <trkpt lat="43.70298" lon="7.32427">
        <ele>31</ele>
        <time>2016-07-08T15:07:05Z</time>
      </trkpt>
      <trkpt lat="43.70299" lon="7.32421">
        <ele>30.2</ele>
        <time>2016-07-08T15:07:05Z</time>
      </trkpt>
      <trkpt lat="43.70325" lon="7.32371">
        <ele>32.9</ele>
        <time>2016-07-08T15:07:13Z</time>
      </trkpt>
      <trkpt lat="43.70366" lon="7.32271">
        <ele>35.1</ele>
        <time>2016-07-08T15:07:27Z</time>
      </trkpt>
      <trkpt lat="43.7038" lon="7.32244">
        <ele>36.6</ele>
        <time>2016-07-08T15:07:31Z</time>
      </trkpt>
      <trkpt lat="43.70416" lon="7.32188">
        <ele>39</ele>
        <time>2016-07-08T15:07:40Z</time>
      </trkpt>
      <trkpt lat="43.7043" lon="7.32173">
        <ele>39</ele>
        <time>2016-07-08T15:07:42Z</time>
      </trkpt>
      <trkpt lat="43.70464" lon="7.32153">
        <ele>43.1</ele>
        <time>2016-07-08T15:07:49Z</time>
      </trkpt>
      <trkpt lat="43.70481" lon="7.3214">
        <ele>44.8</ele>
        <time>2016-07-08T15:07:52Z</time>
      </trkpt>
      <trkpt lat="43.7051" lon="7.3211">
        <ele>46.7</ele>
        <time>2016-07-08T15:07:58Z</time>
      </trkpt>
      <trkpt lat="43.70527" lon="7.32085">
        <ele>48</ele>
        <time>2016-07-08T15:08:02Z</time>
      </trkpt>
      <trkpt lat="43.70568" lon="7.32015">
        <ele>49.3</ele>
        <time>2016-07-08T15:08:13Z</time>
      </trkpt>
      <trkpt lat="43.70623" lon="7.31959">
        <ele>54.2</ele>
        <time>2016-07-08T15:08:24Z</time>
      </trkpt>
      <trkpt lat="43.70648" lon="7.31928">
        <ele>56.7</ele>
        <time>2016-07-08T15:08:30Z</time>
      </trkpt>
      <trkpt lat="43.70675" lon="7.31889">
        <ele>52.1</ele>
        <time>2016-07-08T15:08:36Z</time>
      </trkpt>
      <trkpt lat="43.70721" lon="7.31793">
        <ele>60.1</ele>
        <time>2016-07-08T15:08:50Z</time>
      </trkpt>
      <trkpt lat="43.70724" lon="7.31777">
        <ele>57.3</ele>
        <time>2016-07-08T15:08:52Z</time>
      </trkpt>
      <trkpt lat="43.70724" lon="7.31764">
        <ele>61.6</ele>
        <time>2016-07-08T15:08:53Z</time>
      </trkpt>
      <trkpt lat="43.70716" lon="7.31708">
        <ele>61.4</ele>
        <time>2016-07-08T15:09:00Z</time>
      </trkpt>
      <trkpt lat="43.70717" lon="7.31691">
        <ele>61.9</ele>
        <time>2016-07-08T15:09:02Z</time>
      </trkpt>
      <trkpt lat="43.70721" lon="7.31675">
        <ele>64.5</ele>
        <time>2016-07-08T15:09:04Z</time>
      </trkpt>
      <trkpt lat="43.70763" lon="7.31594">
        <ele>65.7</ele>
        <time>2016-07-08T15:09:16Z</time>
      </trkpt>
      <trkpt lat="43.7078" lon="7.31572">
        <ele>66.1</ele>
        <time>2016-07-08T15:09:20Z</time>
      </trkpt>
      <trkpt lat="43.70793" lon="7.31558">
        <ele>65.2</ele>
        <time>2016-07-08T15:09:23Z</time>
      </trkpt>
      <trkpt lat="43.70802" lon="7.31545">
        <ele>65.3</ele>
        <time>2016-07-08T15:09:25Z</time>
      </trkpt>
      <trkpt lat="43.70806" lon="7.31536">
        <ele>65.8</ele>
        <time>2016-07-08T15:09:26Z</time>
      </trkpt>
      <trkpt lat="43.70811" lon="7.31511">
        <ele>67</ele>
        <time>2016-07-08T15:09:29Z</time>
      </trkpt>
      <trkpt lat="43.70814" lon="7.31479">
        <ele>68.9</ele>
        <time>2016-07-08T15:09:33Z</time>
      </trkpt>
      <trkpt lat="43.7083" lon="7.31397">
        <ele>70.3</ele>
        <time>2016-07-08T15:09:44Z</time>
      </trkpt>
      <trkpt lat="43.70828" lon="7.31375">
        <ele>71.4</ele>
        <time>2016-07-08T15:09:46Z</time>
      </trkpt>
      <trkpt lat="43.70808" lon="7.31308">
        <ele>70.5</ele>
        <time>2016-07-08T15:09:55Z</time>
      </trkpt>
      <trkpt lat="43.70802" lon="7.31293">
        <ele>70.2</ele>
        <time>2016-07-08T15:09:57Z</time>
      </trkpt>
      <trkpt lat="43.70795" lon="7.31279">
        <ele>70.1</ele>
        <time>2016-07-08T15:09:59Z</time>
      </trkpt>
      <trkpt lat="43.7076" lon="7.31249">
        <ele>74.6</ele>
        <time>2016-07-08T15:10:06Z</time>
      </trkpt>
      <trkpt lat="43.70733" lon="7.31233">
        <ele>72</ele>
        <time>2016-07-08T15:10:11Z</time>
      </trkpt>
      <trkpt lat="43.70704" lon="7.31221">
        <ele>74.1</ele>
        <time>2016-07-08T15:10:16Z</time>
      </trkpt>
      <trkpt lat="43.70689" lon="7.31211">
        <ele>73.8</ele>
        <time>2016-07-08T15:10:18Z</time>
      </trkpt>
      <trkpt lat="43.70659" lon="7.31186">
        <ele>70.7</ele>
        <time>2016-07-08T15:10:24Z</time>
      </trkpt>
      <trkpt lat="43.70645" lon="7.31172">
        <ele>70</ele>
        <time>2016-07-08T15:10:27Z</time>
      </trkpt>
      <trkpt lat="43.70595" lon="7.31105">
        <ele>65.5</ele>
        <time>2016-07-08T15:10:39Z</time>
      </trkpt>
      <trkpt lat="43.70589" lon="7.31091">
        <ele>64.5</ele>
        <time>2016-07-08T15:10:41Z</time>
      </trkpt>
      <trkpt lat="43.70588" lon="7.3108">
        <ele>64.3</ele>
        <time>2016-07-08T15:10:42Z</time>
      </trkpt>
      <trkpt lat="43.7059" lon="7.31049">
        <ele>62.6</ele>
        <time>2016-07-08T15:10:46Z</time>
      </trkpt>
      <trkpt lat="43.70597" lon="7.31012">
        <ele>60</ele>
        <time>2016-07-08T15:10:50Z</time>
      </trkpt>
      <trkpt lat="43.70598" lon="7.30994">
        <ele>58.8</ele>
        <time>2016-07-08T15:10:52Z</time>
      </trkpt>
      <trkpt lat="43.70595" lon="7.3098">
        <ele>59.1</ele>
        <time>2016-07-08T15:10:54Z</time>
      </trkpt>
      <trkpt lat="43.70589" lon="7.30971">
        <ele>59.3</ele>
        <time>2016-07-08T15:10:56Z</time>
      </trkpt>
      <trkpt lat="43.70577" lon="7.30964">
        <ele>57.9</ele>
        <time>2016-07-08T15:10:58Z</time>
      </trkpt>
      <trkpt lat="43.70533" lon="7.30951">
        <ele>56.4</ele>
        <time>2016-07-08T15:11:05Z</time>
      </trkpt>
      <trkpt lat="43.70526" lon="7.30953">
        <ele>55</ele>
        <time>2016-07-08T15:11:06Z</time>
      </trkpt>
      <trkpt lat="43.70506" lon="7.30947">
        <ele>54.2</ele>
        <time>2016-07-08T15:11:10Z</time>
      </trkpt>
      <trkpt lat="43.70468" lon="7.30949">
        <ele>51.4</ele>
        <time>2016-07-08T15:11:16Z</time>
      </trkpt>
      <trkpt lat="43.70459" lon="7.30948">
        <ele>51.1</ele>
        <time>2016-07-08T15:11:18Z</time>
      </trkpt>
      <trkpt lat="43.70405" lon="7.30933">
        <ele>50.4</ele>
        <time>2016-07-08T15:11:27Z</time>
      </trkpt>
      <trkpt lat="43.7036" lon="7.30916">
        <ele>48</ele>
        <time>2016-07-08T15:11:35Z</time>
      </trkpt>
      <trkpt lat="43.70352" lon="7.30915">
        <ele>47.5</ele>
        <time>2016-07-08T15:11:36Z</time>
      </trkpt>
      <trkpt lat="43.70329" lon="7.30908">
        <ele>45.9</ele>
        <time>2016-07-08T15:11:40Z</time>
      </trkpt>
      <trkpt lat="43.703" lon="7.30894">
        <ele>44.6</ele>
        <time>2016-07-08T15:11:45Z</time>
      </trkpt>
      <trkpt lat="43.70289" lon="7.30884">
        <ele>45</ele>
        <time>2016-07-08T15:11:47Z</time>
      </trkpt>
      <trkpt lat="43.70288" lon="7.30879">
        <ele>45</ele>
        <time>2016-07-08T15:11:48Z</time>
      </trkpt>
      <trkpt lat="43.70256" lon="7.30838">
        <ele>46.2</ele>
        <time>2016-07-08T15:11:55Z</time>
      </trkpt>
      <trkpt lat="43.70238" lon="7.30812">
        <ele>46.7</ele>
        <time>2016-07-08T15:11:59Z</time>
      </trkpt>
      <trkpt lat="43.70234" lon="7.30811">
        <ele>46.7</ele>
        <time>2016-07-08T15:12:00Z</time>
      </trkpt>
      <trkpt lat="43.702" lon="7.30757">
        <ele>46.8</ele>
        <time>2016-07-08T15:12:09Z</time>
      </trkpt>
      <trkpt lat="43.70196" lon="7.30745">
        <ele>47.2</ele>
        <time>2016-07-08T15:12:10Z</time>
      </trkpt>
      <trkpt lat="43.70189" lon="7.30732">
        <ele>47.3</ele>
        <time>2016-07-08T15:12:12Z</time>
      </trkpt>
      <trkpt lat="43.70138" lon="7.30644">
        <ele>48.7</ele>
        <time>2016-07-08T15:12:26Z</time>
      </trkpt>
      <trkpt lat="43.7013" lon="7.30631">
        <ele>49.5</ele>
        <time>2016-07-08T15:12:28Z</time>
      </trkpt>
      <trkpt lat="43.70112" lon="7.3061">
        <ele>49.5</ele>
        <time>2016-07-08T15:12:32Z</time>
      </trkpt>
      <trkpt lat="43.7007" lon="7.3058">
        <ele>50.7</ele>
        <time>2016-07-08T15:12:39Z</time>
      </trkpt>
      <trkpt lat="43.70052" lon="7.30572">
        <ele>51.2</ele>
        <time>2016-07-08T15:12:43Z</time>
      </trkpt>
      <trkpt lat="43.69916" lon="7.30534">
        <ele>51</ele>
        <time>2016-07-08T15:13:06Z</time>
      </trkpt>
      <trkpt lat="43.69859" lon="7.30497">
        <ele>54</ele>
        <time>2016-07-08T15:13:16Z</time>
      </trkpt>
      <trkpt lat="43.6983" lon="7.30468">
        <ele>55.2</ele>
        <time>2016-07-08T15:13:22Z</time>
      </trkpt>
      <trkpt lat="43.69817" lon="7.30457">
        <ele>55.8</ele>
        <time>2016-07-08T15:13:24Z</time>
      </trkpt>
      <trkpt lat="43.6981" lon="7.30454">
        <ele>56.1</ele>
        <time>2016-07-08T15:13:26Z</time>
      </trkpt>
      <trkpt lat="43.69793" lon="7.30451">
        <ele>57.5</ele>
        <time>2016-07-08T15:13:28Z</time>
      </trkpt>
      <trkpt lat="43.69777" lon="7.30451">
        <ele>58.7</ele>
        <time>2016-07-08T15:13:31Z</time>
      </trkpt>
      <trkpt lat="43.69704" lon="7.3047">
        <ele>60.7</ele>
        <time>2016-07-08T15:13:43Z</time>
      </trkpt>
      <trkpt lat="43.69651" lon="7.30468">
        <ele>61.6</ele>
        <time>2016-07-08T15:13:52Z</time>
      </trkpt>
      <trkpt lat="43.69625" lon="7.30472">
        <ele>60.7</ele>
        <time>2016-07-08T15:13:57Z</time>
      </trkpt>
      <trkpt lat="43.6959" lon="7.30485">
        <ele>65.6</ele>
        <time>2016-07-08T15:14:03Z</time>
      </trkpt>
      <trkpt lat="43.69479" lon="7.30538">
        <ele>74.7</ele>
        <time>2016-07-08T15:14:22Z</time>
      </trkpt>
      <trkpt lat="43.69448" lon="7.30557">
        <ele>74.1</ele>
        <time>2016-07-08T15:14:28Z</time>
      </trkpt>
      <trkpt lat="43.69439" lon="7.30566">
        <ele>71.7</ele>
        <time>2016-07-08T15:14:30Z</time>
      </trkpt>
      <trkpt lat="43.69375" lon="7.30654">
        <ele>62.3</ele>
        <time>2016-07-08T15:14:45Z</time>
      </trkpt>
      <trkpt lat="43.69361" lon="7.30668">
        <ele>63.5</ele>
        <time>2016-07-08T15:14:47Z</time>
      </trkpt>
      <trkpt lat="43.6934" lon="7.30683">
        <ele>61.3</ele>
        <time>2016-07-08T15:14:51Z</time>
      </trkpt>
      <trkpt lat="43.69311" lon="7.30696">
        <ele>63.5</ele>
        <time>2016-07-08T15:14:56Z</time>
      </trkpt>
      <trkpt lat="43.69238" lon="7.30705">
        <ele>61.8</ele>
        <time>2016-07-08T15:15:09Z</time>
      </trkpt>
      <trkpt lat="43.69127" lon="7.30702">
        <ele>60.8</ele>
        <time>2016-07-08T15:15:27Z</time>
      </trkpt>
      <trkpt lat="43.69118" lon="7.30704">
        <ele>60.1</ele>
        <time>2016-07-08T15:15:28Z</time>
      </trkpt>
      <trkpt lat="43.68992" lon="7.30699">
        <ele>61.7</ele>
        <time>2016-07-08T15:15:49Z</time>
      </trkpt>
      <trkpt lat="43.68949" lon="7.30704">
        <ele>61.8</ele>
        <time>2016-07-08T15:15:57Z</time>
      </trkpt>
      <trkpt lat="43.68916" lon="7.30706">
        <ele>61.6</ele>
        <time>2016-07-08T15:16:02Z</time>
      </trkpt>
      <trkpt lat="43.68888" lon="7.30699">
        <ele>62.3</ele>
        <time>2016-07-08T15:16:07Z</time>
      </trkpt>
      <trkpt lat="43.68824" lon="7.3067">
        <ele>61.4</ele>
        <time>2016-07-08T15:16:18Z</time>
      </trkpt>
      <trkpt lat="43.68808" lon="7.30661">
        <ele>62.8</ele>
        <time>2016-07-08T15:16:21Z</time>
      </trkpt>
      <trkpt lat="43.68756" lon="7.30614">
        <ele>63.2</ele>
        <time>2016-07-08T15:16:31Z</time>
      </trkpt>
      <trkpt lat="43.68669" lon="7.30531">
        <ele>63.9</ele>
        <time>2016-07-08T15:16:49Z</time>
      </trkpt>
      <trkpt lat="43.68656" lon="7.30518">
        <ele>64.9</ele>
        <time>2016-07-08T15:16:51Z</time>
      </trkpt>
      <trkpt lat="43.68645" lon="7.30503">
        <ele>65.1</ele>
        <time>2016-07-08T15:16:54Z</time>
      </trkpt>
      <trkpt lat="43.68632" lon="7.30479">
        <ele>63</ele>
        <time>2016-07-08T15:16:57Z</time>
      </trkpt>
      <trkpt lat="43.68628" lon="7.30464">
        <ele>63.5</ele>
        <time>2016-07-08T15:16:59Z</time>
      </trkpt>
      <trkpt lat="43.68625" lon="7.30441">
        <ele>65.3</ele>
        <time>2016-07-08T15:17:02Z</time>
      </trkpt>
      <trkpt lat="43.68622" lon="7.30402">
        <ele>66.1</ele>
        <time>2016-07-08T15:17:07Z</time>
      </trkpt>
      <trkpt lat="43.68622" lon="7.30371">
        <ele>64.3</ele>
        <time>2016-07-08T15:17:11Z</time>
      </trkpt>
      <trkpt lat="43.68626" lon="7.30345">
        <ele>61.6</ele>
        <time>2016-07-08T15:17:14Z</time>
      </trkpt>
      <trkpt lat="43.68633" lon="7.30316">
        <ele>61.5</ele>
        <time>2016-07-08T15:17:17Z</time>
      </trkpt>
      <trkpt lat="43.68661" lon="7.30257">
        <ele>64.8</ele>
        <time>2016-07-08T15:17:26Z</time>
      </trkpt>
      <trkpt lat="43.68675" lon="7.3021">
        <ele>65.9</ele>
        <time>2016-07-08T15:17:32Z</time>
      </trkpt>
      <trkpt lat="43.68691" lon="7.30134">
        <ele>66.8</ele>
        <time>2016-07-08T15:17:41Z</time>
      </trkpt>
      <trkpt lat="43.68699" lon="7.30088">
        <ele>67.7</ele>
        <time>2016-07-08T15:17:47Z</time>
      </trkpt>
      <trkpt lat="43.68797" lon="7.29633">
        <ele>67.1</ele>
        <time>2016-07-08T15:18:44Z</time>
      </trkpt>
      <trkpt lat="43.68807" lon="7.29603">
        <ele>68.2</ele>
        <time>2016-07-08T15:18:48Z</time>
      </trkpt>
      <trkpt lat="43.68826" lon="7.29576">
        <ele>69.4</ele>
        <time>2016-07-08T15:18:53Z</time>
      </trkpt>
      <trkpt lat="43.68839" lon="7.29568">
        <ele>69.1</ele>
        <time>2016-07-08T15:18:55Z</time>
      </trkpt>
      <trkpt lat="43.68849" lon="7.29566">
        <ele>69.1</ele>
        <time>2016-07-08T15:18:57Z</time>
      </trkpt>
      <trkpt lat="43.6892" lon="7.29561">
        <ele>67.2</ele>
        <time>2016-07-08T15:19:08Z</time>
      </trkpt>
      <trkpt lat="43.69011" lon="7.29549">
        <ele>63.8</ele>
        <time>2016-07-08T15:19:24Z</time>
      </trkpt>
      <trkpt lat="43.69107" lon="7.2952">
        <ele>59.2</ele>
        <time>2016-07-08T15:19:40Z</time>
      </trkpt>
      <trkpt lat="43.69125" lon="7.29513">
        <ele>57.5</ele>
        <time>2016-07-08T15:19:43Z</time>
      </trkpt>
      <trkpt lat="43.69143" lon="7.29502">
        <ele>55.6</ele>
        <time>2016-07-08T15:19:46Z</time>
      </trkpt>
      <trkpt lat="43.69158" lon="7.29489">
        <ele>54.1</ele>
        <time>2016-07-08T15:19:49Z</time>
      </trkpt>
      <trkpt lat="43.6917" lon="7.29474">
        <ele>53.8</ele>
        <time>2016-07-08T15:19:52Z</time>
      </trkpt>
      <trkpt lat="43.69189" lon="7.29437">
        <ele>51.6</ele>
        <time>2016-07-08T15:19:57Z</time>
      </trkpt>
      <trkpt lat="43.69213" lon="7.29359">
        <ele>49.4</ele>
        <time>2016-07-08T15:20:07Z</time>
      </trkpt>
      <trkpt lat="43.69222" lon="7.29344">
        <ele>50.1</ele>
        <time>2016-07-08T15:20:10Z</time>
      </trkpt>
      <trkpt lat="43.69234" lon="7.29333">
        <ele>50.2</ele>
        <time>2016-07-08T15:20:12Z</time>
      </trkpt>
      <trkpt lat="43.69243" lon="7.29328">
        <ele>49.5</ele>
        <time>2016-07-08T15:20:14Z</time>
      </trkpt>
      <trkpt lat="43.69312" lon="7.29309">
        <ele>45.8</ele>
        <time>2016-07-08T15:20:25Z</time>
      </trkpt>
      <trkpt lat="43.69326" lon="7.2931">
        <ele>44.3</ele>
        <time>2016-07-08T15:20:28Z</time>
      </trkpt>
      <trkpt lat="43.69332" lon="7.29311">
        <ele>43.9</ele>
        <time>2016-07-08T15:20:29Z</time>
      </trkpt>
      <trkpt lat="43.69349" lon="7.29319">
        <ele>42.7</ele>
        <time>2016-07-08T15:20:32Z</time>
      </trkpt>
      <trkpt lat="43.69414" lon="7.29355">
        <ele>41.8</ele>
        <time>2016-07-08T15:20:43Z</time>
      </trkpt>
      <trkpt lat="43.69426" lon="7.29358">
        <ele>41.8</ele>
        <time>2016-07-08T15:20:45Z</time>
      </trkpt>
      <trkpt lat="43.69438" lon="7.29358">
        <ele>41.6</ele>
        <time>2016-07-08T15:20:47Z</time>
      </trkpt>
      <trkpt lat="43.69458" lon="7.29353">
        <ele>41</ele>
        <time>2016-07-08T15:20:51Z</time>
      </trkpt>
      <trkpt lat="43.69487" lon="7.29342">
        <ele>41.3</ele>
        <time>2016-07-08T15:20:56Z</time>
      </trkpt>
      <trkpt lat="43.69546" lon="7.29303">
        <ele>38.3</ele>
        <time>2016-07-08T15:21:07Z</time>
      </trkpt>
      <trkpt lat="43.69564" lon="7.29286">
        <ele>38.5</ele>
        <time>2016-07-08T15:21:10Z</time>
      </trkpt>
      <trkpt lat="43.69585" lon="7.29263">
        <ele>37.6</ele>
        <time>2016-07-08T15:21:15Z</time>
      </trkpt>
      <trkpt lat="43.69632" lon="7.29206">
        <ele>34.2</ele>
        <time>2016-07-08T15:21:25Z</time>
      </trkpt>
      <trkpt lat="43.69646" lon="7.29185">
        <ele>35.2</ele>
        <time>2016-07-08T15:21:28Z</time>
      </trkpt>
      <trkpt lat="43.69654" lon="7.29167">
        <ele>35.2</ele>
        <time>2016-07-08T15:21:31Z</time>
      </trkpt>
      <trkpt lat="43.69661" lon="7.29141">
        <ele>31.9</ele>
        <time>2016-07-08T15:21:34Z</time>
      </trkpt>
      <trkpt lat="43.69668" lon="7.29069">
        <ele>29.8</ele>
        <time>2016-07-08T15:21:43Z</time>
      </trkpt>
      <trkpt lat="43.6967" lon="7.28956">
        <ele>25.8</ele>
        <time>2016-07-08T15:21:57Z</time>
      </trkpt>
      <trkpt lat="43.69678" lon="7.28923">
        <ele>25.1</ele>
        <time>2016-07-08T15:22:01Z</time>
      </trkpt>
      <trkpt lat="43.69687" lon="7.28908">
        <ele>24</ele>
        <time>2016-07-08T15:22:03Z</time>
      </trkpt>
      <trkpt lat="43.69694" lon="7.28901">
        <ele>23.3</ele>
        <time>2016-07-08T15:22:05Z</time>
      </trkpt>
      <trkpt lat="43.69709" lon="7.28892">
        <ele>22</ele>
        <time>2016-07-08T15:22:07Z</time>
      </trkpt>
      <trkpt lat="43.69726" lon="7.28889">
        <ele>20.8</ele>
        <time>2016-07-08T15:22:10Z</time>
      </trkpt>
      <trkpt lat="43.69769" lon="7.2889">
        <ele>17.7</ele>
        <time>2016-07-08T15:22:17Z</time>
      </trkpt>
      <trkpt lat="43.69787" lon="7.28883">
        <ele>15.7</ele>
        <time>2016-07-08T15:22:20Z</time>
      </trkpt>
      <trkpt lat="43.69796" lon="7.28876">
        <ele>15.1</ele>
        <time>2016-07-08T15:22:22Z</time>
      </trkpt>
      <trkpt lat="43.69807" lon="7.28858">
        <ele>14.6</ele>
        <time>2016-07-08T15:22:25Z</time>
      </trkpt>
      <trkpt lat="43.69811" lon="7.28841">
        <ele>12.8</ele>
        <time>2016-07-08T15:22:27Z</time>
      </trkpt>
      <trkpt lat="43.69819" lon="7.28783">
        <ele>8.3</ele>
        <time>2016-07-08T15:22:34Z</time>
      </trkpt>
      <trkpt lat="43.69821" lon="7.28756">
        <ele>8.4</ele>
        <time>2016-07-08T15:22:37Z</time>
      </trkpt>
      <trkpt lat="43.69833" lon="7.28639">
        <ele>7</ele>
        <time>2016-07-08T15:22:52Z</time>
      </trkpt>
      <trkpt lat="43.69841" lon="7.28638">
        <ele>7</ele>
        <time>2016-07-08T15:22:53Z</time>
      </trkpt>
      <trkpt lat="43.69854" lon="7.2861">
        <ele>6.7</ele>
        <time>2016-07-08T15:22:57Z</time>
      </trkpt>
      <trkpt lat="43.69857" lon="7.28599">
        <ele>6.9</ele>
        <time>2016-07-08T15:22:58Z</time>
      </trkpt>
      <trkpt lat="43.69858" lon="7.28582">
        <ele>6.9</ele>
        <time>2016-07-08T15:23:00Z</time>
      </trkpt>
      <trkpt lat="43.69858" lon="7.28536">
        <ele>6.7</ele>
        <time>2016-07-08T15:23:06Z</time>
      </trkpt>
      <trkpt lat="43.69862" lon="7.28491">
        <ele>7</ele>
        <time>2016-07-08T15:23:11Z</time>
      </trkpt>
      <trkpt lat="43.69872" lon="7.28432">
        <ele>7</ele>
        <time>2016-07-08T15:23:19Z</time>
      </trkpt>
      <trkpt lat="43.69866" lon="7.28406">
        <ele>7</ele>
        <time>2016-07-08T15:23:22Z</time>
      </trkpt>
      <trkpt lat="43.69856" lon="7.28391">
        <ele>6.6</ele>
        <time>2016-07-08T15:23:24Z</time>
      </trkpt>
      <trkpt lat="43.69843" lon="7.28378">
        <ele>6.2</ele>
        <time>2016-07-08T15:23:27Z</time>
      </trkpt>
      <trkpt lat="43.69831" lon="7.28375">
        <ele>5.9</ele>
        <time>2016-07-08T15:23:29Z</time>
      </trkpt>
      <trkpt lat="43.69826" lon="7.28375">
        <ele>5.7</ele>
        <time>2016-07-08T15:23:30Z</time>
      </trkpt>
      <trkpt lat="43.69756" lon="7.28358">
        <ele>5.5</ele>
        <time>2016-07-08T15:23:42Z</time>
      </trkpt>
      <trkpt lat="43.6966" lon="7.28341">
        <ele>4.7</ele>
        <time>2016-07-08T15:23:58Z</time>
      </trkpt>
      <trkpt lat="43.69622" lon="7.28338">
        <ele>4.8</ele>
        <time>2016-07-08T15:24:04Z</time>
      </trkpt>
      <trkpt lat="43.69551" lon="7.28323">
        <ele>4.4</ele>
        <time>2016-07-08T15:24:16Z</time>
      </trkpt>
      <trkpt lat="43.69426" lon="7.2828">
        <ele>7.7</ele>
        <time>2016-07-08T15:24:37Z</time>
      </trkpt>
      <trkpt lat="43.6941" lon="7.28269">
        <ele>8</ele>
        <time>2016-07-08T15:24:40Z</time>
      </trkpt>
      <trkpt lat="43.694" lon="7.28257">
        <ele>8.9</ele>
        <time>2016-07-08T15:24:42Z</time>
      </trkpt>
      <trkpt lat="43.69336" lon="7.2817">
        <ele>11.9</ele>
        <time>2016-07-08T15:24:57Z</time>
      </trkpt>
      <trkpt lat="43.69329" lon="7.2816">
        <ele>10.8</ele>
        <time>2016-07-08T15:24:59Z</time>
      </trkpt>
      <trkpt lat="43.69315" lon="7.28126">
        <ele>11</ele>
        <time>2016-07-08T15:25:04Z</time>
      </trkpt>
      <trkpt lat="43.69312" lon="7.28106">
        <ele>13.3</ele>
        <time>2016-07-08T15:25:06Z</time>
      </trkpt>
      <trkpt lat="43.69315" lon="7.28075">
        <ele>14</ele>
        <time>2016-07-08T15:25:10Z</time>
      </trkpt>
      <trkpt lat="43.69354" lon="7.27963">
        <ele>11.9</ele>
        <time>2016-07-08T15:25:25Z</time>
      </trkpt>
      <trkpt lat="43.69363" lon="7.27925">
        <ele>14</ele>
        <time>2016-07-08T15:25:29Z</time>
      </trkpt>
      <trkpt lat="43.69366" lon="7.2792">
        <ele>13.9</ele>
        <time>2016-07-08T15:25:30Z</time>
      </trkpt>
      <trkpt lat="43.69372" lon="7.27915">
        <ele>13.1</ele>
        <time>2016-07-08T15:25:31Z</time>
      </trkpt>
      <trkpt lat="43.69382" lon="7.27912">
        <ele>11.6</ele>
        <time>2016-07-08T15:25:33Z</time>
      </trkpt>
      <trkpt lat="43.69395" lon="7.27911">
        <ele>10.9</ele>
        <time>2016-07-08T15:25:35Z</time>
      </trkpt>
      <trkpt lat="43.69402" lon="7.27901">
        <ele>8.6</ele>
        <time>2016-07-08T15:25:37Z</time>
      </trkpt>
      <trkpt lat="43.69439" lon="7.2787">
        <ele>8.7</ele>
        <time>2016-07-08T15:25:44Z</time>
      </trkpt>
      <trkpt lat="43.69469" lon="7.27805">
        <ele>8.2</ele>
        <time>2016-07-08T15:25:53Z</time>
      </trkpt>
      <trkpt lat="43.69475" lon="7.27752">
        <ele>7.9</ele>
        <time>2016-07-08T15:26:00Z</time>
      </trkpt>
      <trkpt lat="43.69499" lon="7.27503">
        <ele>5.9</ele>
        <time>2016-07-08T15:26:30Z</time>
      </trkpt>
      <trkpt lat="43.69506" lon="7.27381">
        <ele>5.4</ele>
        <time>2016-07-08T15:26:45Z</time>
      </trkpt>
      <trkpt lat="43.69498" lon="7.27344">
        <ele>5.7</ele>
        <time>2016-07-08T15:26:49Z</time>
      </trkpt>
      <trkpt lat="43.69488" lon="7.26911">
        <ele>5.7</ele>
        <time>2016-07-08T15:27:41Z</time>
      </trkpt>
      <trkpt lat="43.6947" lon="7.26312">
        <ele>4.8</ele>
        <time>2016-07-08T15:28:53Z</time>
      </trkpt>
      <trkpt lat="43.69434" lon="7.25983">
        <ele>4.1</ele>
        <time>2016-07-08T15:29:33Z</time>
      </trkpt>
      <trkpt lat="43.69334" lon="7.25488">
        <ele>5</ele>
        <time>2016-07-08T15:30:35Z</time>
      </trkpt>
      <trkpt lat="43.69185" lon="7.24948">
        <ele>3.7</ele>
        <time>2016-07-08T15:31:44Z</time>
      </trkpt>
      <trkpt lat="43.68965" lon="7.24349">
        <ele>4.5</ele>
        <time>2016-07-08T15:33:05Z</time>
      </trkpt>
      <trkpt lat="43.68702" lon="7.23887">
        <ele>3.3</ele>
        <time>2016-07-08T15:34:15Z</time>
      </trkpt>
      <trkpt lat="43.68166" lon="7.23257">
        <ele>4.5</ele>
        <time>2016-07-08T15:36:12Z</time>
      </trkpt>
      <trkpt lat="43.67718" lon="7.22911">
        <ele>4.8</ele>
        <time>2016-07-08T15:37:37Z</time>
      </trkpt>
      <trkpt lat="43.67682" lon="7.2293">
        <ele>4.8</ele>
        <time>2016-07-08T15:37:43Z</time>
      </trkpt>
      <trkpt lat="43.67406" lon="7.22765">
        <ele>4.6</ele>
        <time>2016-07-08T15:38:33Z</time>
      </trkpt>
      <trkpt lat="43.67381" lon="7.22727">
        <ele>4</ele>
        <time>2016-07-08T15:38:39Z</time>
      </trkpt>
      <trkpt lat="43.67153" lon="7.22523">
        <ele>4.5</ele>
        <time>2016-07-08T15:39:24Z</time>
      </trkpt>
      <trkpt lat="43.66771" lon="7.21969">
        <ele>4.7</ele>
        <time>2016-07-08T15:40:56Z</time>
      </trkpt>
      <trkpt lat="43.6671" lon="7.21824">
        <ele>4.6</ele>
        <time>2016-07-08T15:41:16Z</time>
      </trkpt>
      <trkpt lat="43.6668" lon="7.21695">
        <ele>5</ele>
        <time>2016-07-08T15:41:33Z</time>
      </trkpt>
      <trkpt lat="43.66657" lon="7.21544">
        <ele>5</ele>
        <time>2016-07-08T15:41:51Z</time>
      </trkpt>
      <trkpt lat="43.66662" lon="7.21513">
        <ele>5</ele>
        <time>2016-07-08T15:41:55Z</time>
      </trkpt>
      <trkpt lat="43.66594" lon="7.20932">
        <ele>6.6</ele>
        <time>2016-07-08T15:43:06Z</time>
      </trkpt>
    </trkseg>
  </trk>
</gpx>